<?xml version="1.0" encoding="UTF-8" standalone="no" ?>
<gpx xmlns="http://www.topografix.com/GPX/1/1" xmlns:xsi="http://www.w3.org/2001/XMLSchema-instance" xsi:schemaLocation="http://www.topografix.com/GPX/1/1 http://www.topografix.com/GPX/1/1/gpx.xsd" version="1.1" creator="VisuGPX - https://www.visugpx.com">
  <metadata>
    <name>Tour des Brasses</name>
  </metadata>
  <trk>
    <name><![CDATA[2021-06-27 tour des Brasses]]></name>
    <trkseg>
      <trkpt lat="46.19423" lon="6.49652">
        <ele>873.890625</ele>
        <time>2021-06-27T07:39:55Z</time>
      </trkpt>
      <trkpt lat="46.19423" lon="6.49652">
        <ele>873.9453125</ele>
        <time>2021-06-27T07:40:03Z</time>
      </trkpt>
      <trkpt lat="46.19423" lon="6.49652">
        <ele>873.921875</ele>
        <time>2021-06-27T07:40:04Z</time>
      </trkpt>
      <trkpt lat="46.19422" lon="6.49648">
        <ele>874.296875</ele>
        <time>2021-06-27T07:40:24Z</time>
      </trkpt>
      <trkpt lat="46.19422" lon="6.4965">
        <ele>874.01953125</ele>
        <time>2021-06-27T07:40:53Z</time>
      </trkpt>
      <trkpt lat="46.19421" lon="6.4965">
        <ele>874.078125</ele>
        <time>2021-06-27T07:41:22Z</time>
      </trkpt>
      <trkpt lat="46.19422" lon="6.49651">
        <ele>874.01953125</ele>
        <time>2021-06-27T07:41:51Z</time>
      </trkpt>
      <trkpt lat="46.19423" lon="6.49653">
        <ele>873.83984375</ele>
        <time>2021-06-27T07:42:26Z</time>
      </trkpt>
      <trkpt lat="46.19423" lon="6.49655">
        <ele>873.59765625</ele>
        <time>2021-06-27T07:42:59Z</time>
      </trkpt>
      <trkpt lat="46.19421" lon="6.49652">
        <ele>873.86328125</ele>
        <time>2021-06-27T07:43:40Z</time>
      </trkpt>
      <trkpt lat="46.19422" lon="6.49652">
        <ele>873.83203125</ele>
        <time>2021-06-27T07:44:12Z</time>
      </trkpt>
      <trkpt lat="46.19423" lon="6.49652">
        <ele>873.9453125</ele>
        <time>2021-06-27T07:44:33Z</time>
      </trkpt>
      <trkpt lat="46.19422" lon="6.49652">
        <ele>873.8828125</ele>
        <time>2021-06-27T07:44:34Z</time>
      </trkpt>
      <trkpt lat="46.19423" lon="6.49658">
        <ele>873.3515625</ele>
        <time>2021-06-27T07:44:48Z</time>
      </trkpt>
      <trkpt lat="46.19423" lon="6.49655">
        <ele>873.58203125</ele>
        <time>2021-06-27T07:45:24Z</time>
      </trkpt>
      <trkpt lat="46.19424" lon="6.49656">
        <ele>873.52734375</ele>
        <time>2021-06-27T07:46:08Z</time>
      </trkpt>
      <trkpt lat="46.19422" lon="6.49658">
        <ele>873.203125</ele>
        <time>2021-06-27T07:47:01Z</time>
      </trkpt>
      <trkpt lat="46.1942" lon="6.49658">
        <ele>873.04296875</ele>
        <time>2021-06-27T07:47:44Z</time>
      </trkpt>
      <trkpt lat="46.1942" lon="6.49661">
        <ele>872.82421875</ele>
        <time>2021-06-27T07:48:32Z</time>
      </trkpt>
      <trkpt lat="46.19419" lon="6.49657">
        <ele>873.109375</ele>
        <time>2021-06-27T07:49:05Z</time>
      </trkpt>
      <trkpt lat="46.1942" lon="6.49655">
        <ele>873.41796875</ele>
        <time>2021-06-27T07:49:42Z</time>
      </trkpt>
      <trkpt lat="46.19418" lon="6.49655">
        <ele>873.23828125</ele>
        <time>2021-06-27T07:49:51Z</time>
      </trkpt>
      <trkpt lat="46.19414" lon="6.49648">
        <ele>873.7734375</ele>
        <time>2021-06-27T07:50:05Z</time>
      </trkpt>
      <trkpt lat="46.19415" lon="6.4965">
        <ele>873.578125</ele>
        <time>2021-06-27T07:50:17Z</time>
      </trkpt>
      <trkpt lat="46.19422" lon="6.4966">
        <ele>873.0546875</ele>
        <time>2021-06-27T07:50:34Z</time>
      </trkpt>
      <trkpt lat="46.19428" lon="6.49661">
        <ele>873.43359375</ele>
        <time>2021-06-27T07:50:42Z</time>
      </trkpt>
      <trkpt lat="46.19435" lon="6.4965">
        <ele>874.94140625</ele>
        <time>2021-06-27T07:50:50Z</time>
      </trkpt>
      <trkpt lat="46.19438" lon="6.49645">
        <ele>875.6796875</ele>
        <time>2021-06-27T07:50:56Z</time>
      </trkpt>
      <trkpt lat="46.1944" lon="6.49638">
        <ele>876.515625</ele>
        <time>2021-06-27T07:51:12Z</time>
      </trkpt>
      <trkpt lat="46.1944" lon="6.4964">
        <ele>876.3671875</ele>
        <time>2021-06-27T07:51:19Z</time>
      </trkpt>
      <trkpt lat="46.1944" lon="6.4964">
        <ele>876.359375</ele>
        <time>2021-06-27T07:51:20Z</time>
      </trkpt>
      <trkpt lat="46.19442" lon="6.49641">
        <ele>876.328125</ele>
        <time>2021-06-27T07:51:26Z</time>
      </trkpt>
      <trkpt lat="46.19445" lon="6.49643">
        <ele>876.234375</ele>
        <time>2021-06-27T07:51:31Z</time>
      </trkpt>
      <trkpt lat="46.19462" lon="6.49631">
        <ele>878.11328125</ele>
        <time>2021-06-27T07:51:39Z</time>
      </trkpt>
      <trkpt lat="46.19463" lon="6.49625">
        <ele>878.71875</ele>
        <time>2021-06-27T07:51:40Z</time>
      </trkpt>
      <trkpt lat="46.19463" lon="6.4962">
        <ele>879.3359375</ele>
        <time>2021-06-27T07:51:41Z</time>
      </trkpt>
      <trkpt lat="46.19464" lon="6.49615">
        <ele>879.89453125</ele>
        <time>2021-06-27T07:51:42Z</time>
      </trkpt>
      <trkpt lat="46.19464" lon="6.49611">
        <ele>880.3359375</ele>
        <time>2021-06-27T07:51:43Z</time>
      </trkpt>
      <trkpt lat="46.19464" lon="6.49608">
        <ele>880.67578125</ele>
        <time>2021-06-27T07:51:44Z</time>
      </trkpt>
      <trkpt lat="46.19464" lon="6.49605">
        <ele>880.94921875</ele>
        <time>2021-06-27T07:51:45Z</time>
      </trkpt>
      <trkpt lat="46.19463" lon="6.49602">
        <ele>881.20703125</ele>
        <time>2021-06-27T07:51:46Z</time>
      </trkpt>
      <trkpt lat="46.19462" lon="6.49599">
        <ele>881.5078125</ele>
        <time>2021-06-27T07:51:47Z</time>
      </trkpt>
      <trkpt lat="46.1946" lon="6.49596">
        <ele>881.80078125</ele>
        <time>2021-06-27T07:51:48Z</time>
      </trkpt>
      <trkpt lat="46.19457" lon="6.49593">
        <ele>882</ele>
        <time>2021-06-27T07:51:49Z</time>
      </trkpt>
      <trkpt lat="46.19454" lon="6.49591">
        <ele>882.140625</ele>
        <time>2021-06-27T07:51:50Z</time>
      </trkpt>
      <trkpt lat="46.1945" lon="6.49589">
        <ele>882.2109375</ele>
        <time>2021-06-27T07:51:51Z</time>
      </trkpt>
      <trkpt lat="46.19446" lon="6.49587">
        <ele>882.27734375</ele>
        <time>2021-06-27T07:51:52Z</time>
      </trkpt>
      <trkpt lat="46.19384" lon="6.49548">
        <ele>879.515625</ele>
        <time>2021-06-27T07:52:04Z</time>
      </trkpt>
      <trkpt lat="46.19308" lon="6.49484">
        <ele>878.03515625</ele>
        <time>2021-06-27T07:52:17Z</time>
      </trkpt>
      <trkpt lat="46.19252" lon="6.49465">
        <ele>876.8203125</ele>
        <time>2021-06-27T07:52:26Z</time>
      </trkpt>
      <trkpt lat="46.19157" lon="6.49452">
        <ele>868.3828125</ele>
        <time>2021-06-27T07:52:40Z</time>
      </trkpt>
      <trkpt lat="46.19151" lon="6.49448">
        <ele>868.14453125</ele>
        <time>2021-06-27T07:52:41Z</time>
      </trkpt>
      <trkpt lat="46.19052" lon="6.49366">
        <ele>870.03515625</ele>
        <time>2021-06-27T07:52:57Z</time>
      </trkpt>
      <trkpt lat="46.19009" lon="6.49351">
        <ele>871.3828125</ele>
        <time>2021-06-27T07:53:03Z</time>
      </trkpt>
      <trkpt lat="46.19001" lon="6.49351">
        <ele>871.375</ele>
        <time>2021-06-27T07:53:04Z</time>
      </trkpt>
      <trkpt lat="46.18994" lon="6.49352">
        <ele>871.25</ele>
        <time>2021-06-27T07:53:05Z</time>
      </trkpt>
      <trkpt lat="46.18986" lon="6.49354">
        <ele>871.390625</ele>
        <time>2021-06-27T07:53:06Z</time>
      </trkpt>
      <trkpt lat="46.1898" lon="6.49357">
        <ele>871.53125</ele>
        <time>2021-06-27T07:53:07Z</time>
      </trkpt>
      <trkpt lat="46.18973" lon="6.49362">
        <ele>871.49609375</ele>
        <time>2021-06-27T07:53:08Z</time>
      </trkpt>
      <trkpt lat="46.18967" lon="6.49368">
        <ele>871.2890625</ele>
        <time>2021-06-27T07:53:09Z</time>
      </trkpt>
      <trkpt lat="46.18961" lon="6.49375">
        <ele>870.77734375</ele>
        <time>2021-06-27T07:53:10Z</time>
      </trkpt>
      <trkpt lat="46.18956" lon="6.49382">
        <ele>869.95703125</ele>
        <time>2021-06-27T07:53:11Z</time>
      </trkpt>
      <trkpt lat="46.18909" lon="6.49454">
        <ele>864.7890625</ele>
        <time>2021-06-27T07:53:20Z</time>
      </trkpt>
      <trkpt lat="46.18903" lon="6.49461">
        <ele>864.33203125</ele>
        <time>2021-06-27T07:53:21Z</time>
      </trkpt>
      <trkpt lat="46.18897" lon="6.49466">
        <ele>863.9375</ele>
        <time>2021-06-27T07:53:22Z</time>
      </trkpt>
      <trkpt lat="46.1889" lon="6.49469">
        <ele>863.61328125</ele>
        <time>2021-06-27T07:53:23Z</time>
      </trkpt>
      <trkpt lat="46.18882" lon="6.49471">
        <ele>863.453125</ele>
        <time>2021-06-27T07:53:24Z</time>
      </trkpt>
      <trkpt lat="46.18875" lon="6.49469">
        <ele>863.390625</ele>
        <time>2021-06-27T07:53:25Z</time>
      </trkpt>
      <trkpt lat="46.18867" lon="6.49467">
        <ele>863.37109375</ele>
        <time>2021-06-27T07:53:26Z</time>
      </trkpt>
      <trkpt lat="46.18859" lon="6.49464">
        <ele>863.41015625</ele>
        <time>2021-06-27T07:53:27Z</time>
      </trkpt>
      <trkpt lat="46.18852" lon="6.4946">
        <ele>863.63671875</ele>
        <time>2021-06-27T07:53:28Z</time>
      </trkpt>
      <trkpt lat="46.18822" lon="6.49445">
        <ele>865.7265625</ele>
        <time>2021-06-27T07:53:32Z</time>
      </trkpt>
      <trkpt lat="46.18814" lon="6.49443">
        <ele>866.421875</ele>
        <time>2021-06-27T07:53:33Z</time>
      </trkpt>
      <trkpt lat="46.18806" lon="6.49443">
        <ele>866.9921875</ele>
        <time>2021-06-27T07:53:34Z</time>
      </trkpt>
      <trkpt lat="46.18798" lon="6.49444">
        <ele>867.4296875</ele>
        <time>2021-06-27T07:53:35Z</time>
      </trkpt>
      <trkpt lat="46.18791" lon="6.49448">
        <ele>867.703125</ele>
        <time>2021-06-27T07:53:36Z</time>
      </trkpt>
      <trkpt lat="46.18784" lon="6.49453">
        <ele>867.8515625</ele>
        <time>2021-06-27T07:53:37Z</time>
      </trkpt>
      <trkpt lat="46.18777" lon="6.49459">
        <ele>867.890625</ele>
        <time>2021-06-27T07:53:38Z</time>
      </trkpt>
      <trkpt lat="46.18771" lon="6.49466">
        <ele>867.828125</ele>
        <time>2021-06-27T07:53:39Z</time>
      </trkpt>
      <trkpt lat="46.18765" lon="6.49473">
        <ele>867.68359375</ele>
        <time>2021-06-27T07:53:40Z</time>
      </trkpt>
      <trkpt lat="46.1876" lon="6.49482">
        <ele>867.5546875</ele>
        <time>2021-06-27T07:53:41Z</time>
      </trkpt>
      <trkpt lat="46.18754" lon="6.49491">
        <ele>867.34765625</ele>
        <time>2021-06-27T07:53:42Z</time>
      </trkpt>
      <trkpt lat="46.18689" lon="6.4959">
        <ele>862.94921875</ele>
        <time>2021-06-27T07:53:54Z</time>
      </trkpt>
      <trkpt lat="46.18681" lon="6.49595">
        <ele>862.9765625</ele>
        <time>2021-06-27T07:53:55Z</time>
      </trkpt>
      <trkpt lat="46.18674" lon="6.49599">
        <ele>863.21875</ele>
        <time>2021-06-27T07:53:56Z</time>
      </trkpt>
      <trkpt lat="46.18667" lon="6.49602">
        <ele>863.51171875</ele>
        <time>2021-06-27T07:53:57Z</time>
      </trkpt>
      <trkpt lat="46.18659" lon="6.49605">
        <ele>863.8125</ele>
        <time>2021-06-27T07:53:58Z</time>
      </trkpt>
      <trkpt lat="46.18553" lon="6.49651">
        <ele>894.80859375</ele>
        <time>2021-06-27T07:54:10Z</time>
      </trkpt>
      <trkpt lat="46.18422" lon="6.49715">
        <ele>924.17578125</ele>
        <time>2021-06-27T07:54:24Z</time>
      </trkpt>
      <trkpt lat="46.18416" lon="6.49744">
        <ele>916.65234375</ele>
        <time>2021-06-27T07:54:26Z</time>
      </trkpt>
      <trkpt lat="46.18416" lon="6.49773">
        <ele>899.0078125</ele>
        <time>2021-06-27T07:54:28Z</time>
      </trkpt>
      <trkpt lat="46.18347" lon="6.49844">
        <ele>884.25390625</ele>
        <time>2021-06-27T07:54:40Z</time>
      </trkpt>
      <trkpt lat="46.18367" lon="6.49894">
        <ele>857.19140625</ele>
        <time>2021-06-27T07:54:41Z</time>
      </trkpt>
      <trkpt lat="46.1831" lon="6.49939">
        <ele>854.78125</ele>
        <time>2021-06-27T07:54:49Z</time>
      </trkpt>
      <trkpt lat="46.18307" lon="6.49951">
        <ele>850.765625</ele>
        <time>2021-06-27T07:54:50Z</time>
      </trkpt>
      <trkpt lat="46.18278" lon="6.49998">
        <ele>823.328125</ele>
        <time>2021-06-27T07:54:56Z</time>
      </trkpt>
      <trkpt lat="46.18271" lon="6.50001">
        <ele>819.18359375</ele>
        <time>2021-06-27T07:54:57Z</time>
      </trkpt>
      <trkpt lat="46.18263" lon="6.50001">
        <ele>816.1875</ele>
        <time>2021-06-27T07:54:58Z</time>
      </trkpt>
      <trkpt lat="46.18256" lon="6.49997">
        <ele>813.94921875</ele>
        <time>2021-06-27T07:54:59Z</time>
      </trkpt>
      <trkpt lat="46.18251" lon="6.4999">
        <ele>812.64453125</ele>
        <time>2021-06-27T07:55:00Z</time>
      </trkpt>
      <trkpt lat="46.18246" lon="6.49981">
        <ele>812.55859375</ele>
        <time>2021-06-27T07:55:01Z</time>
      </trkpt>
      <trkpt lat="46.18242" lon="6.49972">
        <ele>812.87109375</ele>
        <time>2021-06-27T07:55:02Z</time>
      </trkpt>
      <trkpt lat="46.18239" lon="6.49962">
        <ele>814.58984375</ele>
        <time>2021-06-27T07:55:03Z</time>
      </trkpt>
      <trkpt lat="46.18237" lon="6.49952">
        <ele>816.4453125</ele>
        <time>2021-06-27T07:55:04Z</time>
      </trkpt>
      <trkpt lat="46.18216" lon="6.49888">
        <ele>826</ele>
        <time>2021-06-27T07:55:11Z</time>
      </trkpt>
      <trkpt lat="46.18211" lon="6.49881">
        <ele>826.19921875</ele>
        <time>2021-06-27T07:55:12Z</time>
      </trkpt>
      <trkpt lat="46.18205" lon="6.49876">
        <ele>826.2109375</ele>
        <time>2021-06-27T07:55:13Z</time>
      </trkpt>
      <trkpt lat="46.18192" lon="6.4987">
        <ele>823.3671875</ele>
        <time>2021-06-27T07:55:15Z</time>
      </trkpt>
      <trkpt lat="46.18185" lon="6.49867">
        <ele>821.30859375</ele>
        <time>2021-06-27T07:55:16Z</time>
      </trkpt>
      <trkpt lat="46.18178" lon="6.49864">
        <ele>820.1015625</ele>
        <time>2021-06-27T07:55:17Z</time>
      </trkpt>
      <trkpt lat="46.18172" lon="6.4986">
        <ele>819.0703125</ele>
        <time>2021-06-27T07:55:18Z</time>
      </trkpt>
      <trkpt lat="46.18166" lon="6.49856">
        <ele>817.9765625</ele>
        <time>2021-06-27T07:55:19Z</time>
      </trkpt>
      <trkpt lat="46.18153" lon="6.49848">
        <ele>817.29296875</ele>
        <time>2021-06-27T07:55:21Z</time>
      </trkpt>
      <trkpt lat="46.18146" lon="6.49846">
        <ele>815.79296875</ele>
        <time>2021-06-27T07:55:22Z</time>
      </trkpt>
      <trkpt lat="46.18125" lon="6.49841">
        <ele>809.58203125</ele>
        <time>2021-06-27T07:55:25Z</time>
      </trkpt>
      <trkpt lat="46.18119" lon="6.49838">
        <ele>808.296875</ele>
        <time>2021-06-27T07:55:26Z</time>
      </trkpt>
      <trkpt lat="46.18113" lon="6.49833">
        <ele>806.765625</ele>
        <time>2021-06-27T07:55:27Z</time>
      </trkpt>
      <trkpt lat="46.18106" lon="6.49828">
        <ele>804.71875</ele>
        <time>2021-06-27T07:55:28Z</time>
      </trkpt>
      <trkpt lat="46.18101" lon="6.49822">
        <ele>803.578125</ele>
        <time>2021-06-27T07:55:29Z</time>
      </trkpt>
      <trkpt lat="46.18095" lon="6.49816">
        <ele>803.68359375</ele>
        <time>2021-06-27T07:55:30Z</time>
      </trkpt>
      <trkpt lat="46.1809" lon="6.49809">
        <ele>803.8046875</ele>
        <time>2021-06-27T07:55:31Z</time>
      </trkpt>
      <trkpt lat="46.18086" lon="6.49801">
        <ele>803.93359375</ele>
        <time>2021-06-27T07:55:32Z</time>
      </trkpt>
      <trkpt lat="46.18083" lon="6.49792">
        <ele>805.91015625</ele>
        <time>2021-06-27T07:55:33Z</time>
      </trkpt>
      <trkpt lat="46.18075" lon="6.4976">
        <ele>815.26953125</ele>
        <time>2021-06-27T07:55:36Z</time>
      </trkpt>
      <trkpt lat="46.18063" lon="6.49718">
        <ele>824.75</ele>
        <time>2021-06-27T07:55:40Z</time>
      </trkpt>
      <trkpt lat="46.18058" lon="6.4971">
        <ele>825.37890625</ele>
        <time>2021-06-27T07:55:41Z</time>
      </trkpt>
      <trkpt lat="46.18054" lon="6.49701">
        <ele>825.734375</ele>
        <time>2021-06-27T07:55:42Z</time>
      </trkpt>
      <trkpt lat="46.18049" lon="6.49694">
        <ele>825.59765625</ele>
        <time>2021-06-27T07:55:43Z</time>
      </trkpt>
      <trkpt lat="46.18043" lon="6.49687">
        <ele>825.546875</ele>
        <time>2021-06-27T07:55:44Z</time>
      </trkpt>
      <trkpt lat="46.18038" lon="6.49681">
        <ele>825.19140625</ele>
        <time>2021-06-27T07:55:45Z</time>
      </trkpt>
      <trkpt lat="46.17948" lon="6.49587">
        <ele>826.046875</ele>
        <time>2021-06-27T07:56:01Z</time>
      </trkpt>
      <trkpt lat="46.17942" lon="6.49583">
        <ele>826.0625</ele>
        <time>2021-06-27T07:56:02Z</time>
      </trkpt>
      <trkpt lat="46.17935" lon="6.49579">
        <ele>825.87890625</ele>
        <time>2021-06-27T07:56:03Z</time>
      </trkpt>
      <trkpt lat="46.17928" lon="6.49576">
        <ele>825.3671875</ele>
        <time>2021-06-27T07:56:04Z</time>
      </trkpt>
      <trkpt lat="46.17921" lon="6.49573">
        <ele>824.5078125</ele>
        <time>2021-06-27T07:56:05Z</time>
      </trkpt>
      <trkpt lat="46.17913" lon="6.49571">
        <ele>823.48046875</ele>
        <time>2021-06-27T07:56:06Z</time>
      </trkpt>
      <trkpt lat="46.17882" lon="6.49562">
        <ele>818.93359375</ele>
        <time>2021-06-27T07:56:10Z</time>
      </trkpt>
      <trkpt lat="46.17866" lon="6.49555">
        <ele>815.625</ele>
        <time>2021-06-27T07:56:12Z</time>
      </trkpt>
      <trkpt lat="46.17859" lon="6.49549">
        <ele>814.60546875</ele>
        <time>2021-06-27T07:56:13Z</time>
      </trkpt>
      <trkpt lat="46.17852" lon="6.49542">
        <ele>814.21875</ele>
        <time>2021-06-27T07:56:14Z</time>
      </trkpt>
      <trkpt lat="46.17846" lon="6.49532">
        <ele>814.265625</ele>
        <time>2021-06-27T07:56:15Z</time>
      </trkpt>
      <trkpt lat="46.17841" lon="6.49521">
        <ele>815.01953125</ele>
        <time>2021-06-27T07:56:16Z</time>
      </trkpt>
      <trkpt lat="46.17807" lon="6.49443">
        <ele>817.16015625</ele>
        <time>2021-06-27T07:56:23Z</time>
      </trkpt>
      <trkpt lat="46.17798" lon="6.49419">
        <ele>817.703125</ele>
        <time>2021-06-27T07:56:25Z</time>
      </trkpt>
      <trkpt lat="46.17772" lon="6.49347">
        <ele>818.19140625</ele>
        <time>2021-06-27T07:56:31Z</time>
      </trkpt>
      <trkpt lat="46.17759" lon="6.49306">
        <ele>817.7890625</ele>
        <time>2021-06-27T07:56:35Z</time>
      </trkpt>
      <trkpt lat="46.17752" lon="6.49282">
        <ele>817.5625</ele>
        <time>2021-06-27T07:56:38Z</time>
      </trkpt>
      <trkpt lat="46.17751" lon="6.49276">
        <ele>817.66015625</ele>
        <time>2021-06-27T07:56:39Z</time>
      </trkpt>
      <trkpt lat="46.17751" lon="6.49272">
        <ele>817.74609375</ele>
        <time>2021-06-27T07:56:40Z</time>
      </trkpt>
      <trkpt lat="46.17748" lon="6.49268">
        <ele>817.20703125</ele>
        <time>2021-06-27T07:56:41Z</time>
      </trkpt>
      <trkpt lat="46.17745" lon="6.49268">
        <ele>816.09375</ele>
        <time>2021-06-27T07:56:42Z</time>
      </trkpt>
      <trkpt lat="46.17742" lon="6.49271">
        <ele>814.87890625</ele>
        <time>2021-06-27T07:56:43Z</time>
      </trkpt>
      <trkpt lat="46.17739" lon="6.49278">
        <ele>813.77734375</ele>
        <time>2021-06-27T07:56:44Z</time>
      </trkpt>
      <trkpt lat="46.17739" lon="6.49284">
        <ele>813.09375</ele>
        <time>2021-06-27T07:56:45Z</time>
      </trkpt>
      <trkpt lat="46.17739" lon="6.4929">
        <ele>812.7109375</ele>
        <time>2021-06-27T07:56:46Z</time>
      </trkpt>
      <trkpt lat="46.17738" lon="6.49294">
        <ele>812.3203125</ele>
        <time>2021-06-27T07:56:47Z</time>
      </trkpt>
      <trkpt lat="46.17738" lon="6.49298">
        <ele>811.7578125</ele>
        <time>2021-06-27T07:56:48Z</time>
      </trkpt>
      <trkpt lat="46.17737" lon="6.49302">
        <ele>811.2421875</ele>
        <time>2021-06-27T07:56:49Z</time>
      </trkpt>
      <trkpt lat="46.17738" lon="6.49305">
        <ele>811.296875</ele>
        <time>2021-06-27T07:56:50Z</time>
      </trkpt>
      <trkpt lat="46.1774" lon="6.49305">
        <ele>811.84375</ele>
        <time>2021-06-27T07:56:51Z</time>
      </trkpt>
      <trkpt lat="46.17741" lon="6.49303">
        <ele>812.35546875</ele>
        <time>2021-06-27T07:56:52Z</time>
      </trkpt>
      <trkpt lat="46.17741" lon="6.493">
        <ele>812.49609375</ele>
        <time>2021-06-27T07:56:53Z</time>
      </trkpt>
      <trkpt lat="46.1774" lon="6.49298">
        <ele>812.546875</ele>
        <time>2021-06-27T07:56:54Z</time>
      </trkpt>
      <trkpt lat="46.1774" lon="6.49295">
        <ele>812.6484375</ele>
        <time>2021-06-27T07:56:55Z</time>
      </trkpt>
      <trkpt lat="46.1774" lon="6.49291">
        <ele>813.03515625</ele>
        <time>2021-06-27T07:56:56Z</time>
      </trkpt>
      <trkpt lat="46.17741" lon="6.49287">
        <ele>813.59375</ele>
        <time>2021-06-27T07:56:57Z</time>
      </trkpt>
      <trkpt lat="46.17742" lon="6.49282">
        <ele>814.29296875</ele>
        <time>2021-06-27T07:56:58Z</time>
      </trkpt>
      <trkpt lat="46.17744" lon="6.49278">
        <ele>815.078125</ele>
        <time>2021-06-27T07:56:59Z</time>
      </trkpt>
      <trkpt lat="46.17746" lon="6.49275">
        <ele>815.90625</ele>
        <time>2021-06-27T07:57:00Z</time>
      </trkpt>
      <trkpt lat="46.17747" lon="6.49271">
        <ele>816.67578125</ele>
        <time>2021-06-27T07:57:01Z</time>
      </trkpt>
      <trkpt lat="46.17751" lon="6.49257">
        <ele>818.734375</ele>
        <time>2021-06-27T07:57:04Z</time>
      </trkpt>
      <trkpt lat="46.17752" lon="6.4925">
        <ele>819.12890625</ele>
        <time>2021-06-27T07:57:05Z</time>
      </trkpt>
      <trkpt lat="46.17751" lon="6.49244">
        <ele>819.26953125</ele>
        <time>2021-06-27T07:57:06Z</time>
      </trkpt>
      <trkpt lat="46.1775" lon="6.49237">
        <ele>819.16796875</ele>
        <time>2021-06-27T07:57:07Z</time>
      </trkpt>
      <trkpt lat="46.17749" lon="6.49231">
        <ele>818.890625</ele>
        <time>2021-06-27T07:57:08Z</time>
      </trkpt>
      <trkpt lat="46.17729" lon="6.49134">
        <ele>815.2734375</ele>
        <time>2021-06-27T07:57:20Z</time>
      </trkpt>
      <trkpt lat="46.17714" lon="6.49086">
        <ele>811.69921875</ele>
        <time>2021-06-27T07:57:27Z</time>
      </trkpt>
      <trkpt lat="46.17712" lon="6.49081">
        <ele>811.28515625</ele>
        <time>2021-06-27T07:57:28Z</time>
      </trkpt>
      <trkpt lat="46.1771" lon="6.49076">
        <ele>810.87109375</ele>
        <time>2021-06-27T07:57:29Z</time>
      </trkpt>
      <trkpt lat="46.17708" lon="6.49074">
        <ele>810.28515625</ele>
        <time>2021-06-27T07:57:30Z</time>
      </trkpt>
      <trkpt lat="46.17705" lon="6.49076">
        <ele>809.37109375</ele>
        <time>2021-06-27T07:57:32Z</time>
      </trkpt>
      <trkpt lat="46.17705" lon="6.4908">
        <ele>809.31640625</ele>
        <time>2021-06-27T07:57:33Z</time>
      </trkpt>
      <trkpt lat="46.17706" lon="6.49083">
        <ele>809.46875</ele>
        <time>2021-06-27T07:57:34Z</time>
      </trkpt>
      <trkpt lat="46.17707" lon="6.49086">
        <ele>809.671875</ele>
        <time>2021-06-27T07:57:35Z</time>
      </trkpt>
      <trkpt lat="46.17708" lon="6.4909">
        <ele>809.78515625</ele>
        <time>2021-06-27T07:57:36Z</time>
      </trkpt>
      <trkpt lat="46.17709" lon="6.49094">
        <ele>809.83984375</ele>
        <time>2021-06-27T07:57:37Z</time>
      </trkpt>
      <trkpt lat="46.17729" lon="6.49167">
        <ele>813.5</ele>
        <time>2021-06-27T07:57:51Z</time>
      </trkpt>
      <trkpt lat="46.17734" lon="6.49196">
        <ele>813.90234375</ele>
        <time>2021-06-27T07:57:57Z</time>
      </trkpt>
      <trkpt lat="46.17733" lon="6.49202">
        <ele>813.484375</ele>
        <time>2021-06-27T07:57:58Z</time>
      </trkpt>
      <trkpt lat="46.17726" lon="6.49217">
        <ele>811.9453125</ele>
        <time>2021-06-27T07:58:00Z</time>
      </trkpt>
      <trkpt lat="46.17723" lon="6.49224">
        <ele>811.3125</ele>
        <time>2021-06-27T07:58:01Z</time>
      </trkpt>
      <trkpt lat="46.17719" lon="6.49235">
        <ele>810.2109375</ele>
        <time>2021-06-27T07:58:03Z</time>
      </trkpt>
      <trkpt lat="46.17716" lon="6.49236">
        <ele>809.48828125</ele>
        <time>2021-06-27T07:58:04Z</time>
      </trkpt>
      <trkpt lat="46.17713" lon="6.49234">
        <ele>808.79296875</ele>
        <time>2021-06-27T07:58:05Z</time>
      </trkpt>
      <trkpt lat="46.17711" lon="6.49228">
        <ele>808.31640625</ele>
        <time>2021-06-27T07:58:06Z</time>
      </trkpt>
      <trkpt lat="46.17708" lon="6.4922">
        <ele>807.92578125</ele>
        <time>2021-06-27T07:58:07Z</time>
      </trkpt>
      <trkpt lat="46.17691" lon="6.49173">
        <ele>804.71484375</ele>
        <time>2021-06-27T07:58:12Z</time>
      </trkpt>
      <trkpt lat="46.17673" lon="6.49131">
        <ele>800.5859375</ele>
        <time>2021-06-27T07:58:16Z</time>
      </trkpt>
      <trkpt lat="46.17655" lon="6.49092">
        <ele>796.1171875</ele>
        <time>2021-06-27T07:58:20Z</time>
      </trkpt>
      <trkpt lat="46.17645" lon="6.49066">
        <ele>792.80078125</ele>
        <time>2021-06-27T07:58:24Z</time>
      </trkpt>
      <trkpt lat="46.17643" lon="6.49055">
        <ele>791.55078125</ele>
        <time>2021-06-27T07:58:28Z</time>
      </trkpt>
      <trkpt lat="46.17644" lon="6.49051">
        <ele>791.69140625</ele>
        <time>2021-06-27T07:58:29Z</time>
      </trkpt>
      <trkpt lat="46.17645" lon="6.49046">
        <ele>792.0234375</ele>
        <time>2021-06-27T07:58:30Z</time>
      </trkpt>
      <trkpt lat="46.17646" lon="6.49041">
        <ele>792.42578125</ele>
        <time>2021-06-27T07:58:31Z</time>
      </trkpt>
      <trkpt lat="46.17647" lon="6.49036">
        <ele>792.671875</ele>
        <time>2021-06-27T07:58:32Z</time>
      </trkpt>
      <trkpt lat="46.17648" lon="6.49033">
        <ele>792.80859375</ele>
        <time>2021-06-27T07:58:33Z</time>
      </trkpt>
      <trkpt lat="46.17648" lon="6.49029">
        <ele>792.83984375</ele>
        <time>2021-06-27T07:58:34Z</time>
      </trkpt>
      <trkpt lat="46.17647" lon="6.49028">
        <ele>792.6796875</ele>
        <time>2021-06-27T07:58:35Z</time>
      </trkpt>
      <trkpt lat="46.17646" lon="6.49028">
        <ele>792.23046875</ele>
        <time>2021-06-27T07:58:36Z</time>
      </trkpt>
      <trkpt lat="46.17643" lon="6.49029">
        <ele>791.56640625</ele>
        <time>2021-06-27T07:58:37Z</time>
      </trkpt>
      <trkpt lat="46.17641" lon="6.49032">
        <ele>790.7578125</ele>
        <time>2021-06-27T07:58:38Z</time>
      </trkpt>
      <trkpt lat="46.17636" lon="6.49036">
        <ele>789.546875</ele>
        <time>2021-06-27T07:58:39Z</time>
      </trkpt>
      <trkpt lat="46.17631" lon="6.4904">
        <ele>788.03515625</ele>
        <time>2021-06-27T07:58:40Z</time>
      </trkpt>
      <trkpt lat="46.1762" lon="6.4905">
        <ele>784.9296875</ele>
        <time>2021-06-27T07:58:42Z</time>
      </trkpt>
      <trkpt lat="46.17615" lon="6.49053">
        <ele>783.41015625</ele>
        <time>2021-06-27T07:58:43Z</time>
      </trkpt>
      <trkpt lat="46.17605" lon="6.49059">
        <ele>780.4765625</ele>
        <time>2021-06-27T07:58:45Z</time>
      </trkpt>
      <trkpt lat="46.176" lon="6.49064">
        <ele>778.921875</ele>
        <time>2021-06-27T07:58:46Z</time>
      </trkpt>
      <trkpt lat="46.17595" lon="6.49069">
        <ele>777.30078125</ele>
        <time>2021-06-27T07:58:47Z</time>
      </trkpt>
      <trkpt lat="46.17591" lon="6.49076">
        <ele>775.73828125</ele>
        <time>2021-06-27T07:58:48Z</time>
      </trkpt>
      <trkpt lat="46.17588" lon="6.49083">
        <ele>774.40234375</ele>
        <time>2021-06-27T07:58:49Z</time>
      </trkpt>
      <trkpt lat="46.17585" lon="6.49091">
        <ele>773.27734375</ele>
        <time>2021-06-27T07:58:50Z</time>
      </trkpt>
      <trkpt lat="46.17582" lon="6.49099">
        <ele>772.38671875</ele>
        <time>2021-06-27T07:58:51Z</time>
      </trkpt>
      <trkpt lat="46.1758" lon="6.49108">
        <ele>771.59765625</ele>
        <time>2021-06-27T07:58:52Z</time>
      </trkpt>
      <trkpt lat="46.17578" lon="6.49117">
        <ele>770.97265625</ele>
        <time>2021-06-27T07:58:53Z</time>
      </trkpt>
      <trkpt lat="46.17577" lon="6.49127">
        <ele>770.53125</ele>
        <time>2021-06-27T07:58:54Z</time>
      </trkpt>
      <trkpt lat="46.17576" lon="6.49138">
        <ele>770.0390625</ele>
        <time>2021-06-27T07:58:55Z</time>
      </trkpt>
      <trkpt lat="46.17575" lon="6.49184">
        <ele>767.98046875</ele>
        <time>2021-06-27T07:58:59Z</time>
      </trkpt>
      <trkpt lat="46.17582" lon="6.49248">
        <ele>764.65625</ele>
        <time>2021-06-27T07:59:04Z</time>
      </trkpt>
      <trkpt lat="46.17584" lon="6.49259">
        <ele>764.828125</ele>
        <time>2021-06-27T07:59:05Z</time>
      </trkpt>
      <trkpt lat="46.17595" lon="6.49309">
        <ele>764.2421875</ele>
        <time>2021-06-27T07:59:11Z</time>
      </trkpt>
      <trkpt lat="46.17596" lon="6.49315">
        <ele>763.953125</ele>
        <time>2021-06-27T07:59:12Z</time>
      </trkpt>
      <trkpt lat="46.17598" lon="6.49322">
        <ele>763.80078125</ele>
        <time>2021-06-27T07:59:13Z</time>
      </trkpt>
      <trkpt lat="46.17601" lon="6.49327">
        <ele>763.75390625</ele>
        <time>2021-06-27T07:59:14Z</time>
      </trkpt>
      <trkpt lat="46.17604" lon="6.49332">
        <ele>763.8828125</ele>
        <time>2021-06-27T07:59:15Z</time>
      </trkpt>
      <trkpt lat="46.17638" lon="6.49389">
        <ele>764.125</ele>
        <time>2021-06-27T07:59:26Z</time>
      </trkpt>
      <trkpt lat="46.17648" lon="6.49405">
        <ele>764.83203125</ele>
        <time>2021-06-27T07:59:29Z</time>
      </trkpt>
      <trkpt lat="46.1765" lon="6.4941">
        <ele>764.7421875</ele>
        <time>2021-06-27T07:59:30Z</time>
      </trkpt>
      <trkpt lat="46.17652" lon="6.49413">
        <ele>764.82421875</ele>
        <time>2021-06-27T07:59:31Z</time>
      </trkpt>
      <trkpt lat="46.17671" lon="6.49453">
        <ele>764.92578125</ele>
        <time>2021-06-27T07:59:42Z</time>
      </trkpt>
      <trkpt lat="46.17673" lon="6.49478">
        <ele>764.09375</ele>
        <time>2021-06-27T07:59:46Z</time>
      </trkpt>
      <trkpt lat="46.17675" lon="6.49485">
        <ele>763.94921875</ele>
        <time>2021-06-27T07:59:47Z</time>
      </trkpt>
      <trkpt lat="46.17677" lon="6.49491">
        <ele>763.7421875</ele>
        <time>2021-06-27T07:59:48Z</time>
      </trkpt>
      <trkpt lat="46.1768" lon="6.49506">
        <ele>763.52734375</ele>
        <time>2021-06-27T07:59:50Z</time>
      </trkpt>
      <trkpt lat="46.17683" lon="6.49522">
        <ele>763.09765625</ele>
        <time>2021-06-27T07:59:52Z</time>
      </trkpt>
      <trkpt lat="46.17683" lon="6.49531">
        <ele>762.796875</ele>
        <time>2021-06-27T07:59:53Z</time>
      </trkpt>
      <trkpt lat="46.17683" lon="6.49541">
        <ele>762.52734375</ele>
        <time>2021-06-27T07:59:54Z</time>
      </trkpt>
      <trkpt lat="46.17681" lon="6.49551">
        <ele>762.484375</ele>
        <time>2021-06-27T07:59:55Z</time>
      </trkpt>
      <trkpt lat="46.1768" lon="6.49561">
        <ele>763.16015625</ele>
        <time>2021-06-27T07:59:56Z</time>
      </trkpt>
      <trkpt lat="46.17676" lon="6.49584">
        <ele>765.5078125</ele>
        <time>2021-06-27T07:59:58Z</time>
      </trkpt>
      <trkpt lat="46.17675" lon="6.49591">
        <ele>766.546875</ele>
        <time>2021-06-27T07:59:59Z</time>
      </trkpt>
      <trkpt lat="46.17674" lon="6.49599">
        <ele>767.61328125</ele>
        <time>2021-06-27T08:00:00Z</time>
      </trkpt>
      <trkpt lat="46.17673" lon="6.4961">
        <ele>769.1015625</ele>
        <time>2021-06-27T08:00:02Z</time>
      </trkpt>
      <trkpt lat="46.1767" lon="6.49612">
        <ele>769.58984375</ele>
        <time>2021-06-27T08:00:11Z</time>
      </trkpt>
      <trkpt lat="46.17669" lon="6.49616">
        <ele>770.1328125</ele>
        <time>2021-06-27T08:00:43Z</time>
      </trkpt>
      <trkpt lat="46.1767" lon="6.49618">
        <ele>770.32421875</ele>
        <time>2021-06-27T08:00:53Z</time>
      </trkpt>
      <trkpt lat="46.1767" lon="6.49621">
        <ele>770.58203125</ele>
        <time>2021-06-27T08:00:54Z</time>
      </trkpt>
      <trkpt lat="46.17669" lon="6.49624">
        <ele>770.94921875</ele>
        <time>2021-06-27T08:00:55Z</time>
      </trkpt>
      <trkpt lat="46.17668" lon="6.49627">
        <ele>771.390625</ele>
        <time>2021-06-27T08:00:56Z</time>
      </trkpt>
      <trkpt lat="46.17667" lon="6.49629">
        <ele>771.78125</ele>
        <time>2021-06-27T08:00:57Z</time>
      </trkpt>
      <trkpt lat="46.17667" lon="6.49632">
        <ele>772.1328125</ele>
        <time>2021-06-27T08:00:58Z</time>
      </trkpt>
      <trkpt lat="46.17665" lon="6.49634">
        <ele>772.5390625</ele>
        <time>2021-06-27T08:00:59Z</time>
      </trkpt>
      <trkpt lat="46.17663" lon="6.49637">
        <ele>772.9765625</ele>
        <time>2021-06-27T08:01:00Z</time>
      </trkpt>
      <trkpt lat="46.17662" lon="6.49639">
        <ele>773.38671875</ele>
        <time>2021-06-27T08:01:01Z</time>
      </trkpt>
      <trkpt lat="46.1766" lon="6.4964">
        <ele>773.734375</ele>
        <time>2021-06-27T08:01:02Z</time>
      </trkpt>
      <trkpt lat="46.17658" lon="6.49642">
        <ele>774.09765625</ele>
        <time>2021-06-27T08:01:03Z</time>
      </trkpt>
      <trkpt lat="46.17639" lon="6.49683">
        <ele>779.1953125</ele>
        <time>2021-06-27T08:01:16Z</time>
      </trkpt>
      <trkpt lat="46.17615" lon="6.4969">
        <ele>784.03125</ele>
        <time>2021-06-27T08:01:27Z</time>
      </trkpt>
      <trkpt lat="46.17605" lon="6.49675">
        <ele>785.546875</ele>
        <time>2021-06-27T08:01:33Z</time>
      </trkpt>
      <trkpt lat="46.17605" lon="6.49657">
        <ele>784.390625</ele>
        <time>2021-06-27T08:01:39Z</time>
      </trkpt>
      <trkpt lat="46.17609" lon="6.49648">
        <ele>782.94921875</ele>
        <time>2021-06-27T08:01:43Z</time>
      </trkpt>
      <trkpt lat="46.17609" lon="6.49644">
        <ele>782.71484375</ele>
        <time>2021-06-27T08:01:44Z</time>
      </trkpt>
      <trkpt lat="46.17606" lon="6.49626">
        <ele>781.96484375</ele>
        <time>2021-06-27T08:01:49Z</time>
      </trkpt>
      <trkpt lat="46.17603" lon="6.49622">
        <ele>782.30078125</ele>
        <time>2021-06-27T08:01:51Z</time>
      </trkpt>
      <trkpt lat="46.17601" lon="6.4962">
        <ele>782.51171875</ele>
        <time>2021-06-27T08:01:52Z</time>
      </trkpt>
      <trkpt lat="46.17598" lon="6.49618">
        <ele>782.890625</ele>
        <time>2021-06-27T08:01:53Z</time>
      </trkpt>
      <trkpt lat="46.1759" lon="6.49612">
        <ele>783.984375</ele>
        <time>2021-06-27T08:01:56Z</time>
      </trkpt>
      <trkpt lat="46.17579" lon="6.49607">
        <ele>785.5703125</ele>
        <time>2021-06-27T08:02:01Z</time>
      </trkpt>
      <trkpt lat="46.1756" lon="6.49595">
        <ele>787.203125</ele>
        <time>2021-06-27T08:02:11Z</time>
      </trkpt>
      <trkpt lat="46.17559" lon="6.49593">
        <ele>787.28515625</ele>
        <time>2021-06-27T08:02:12Z</time>
      </trkpt>
      <trkpt lat="46.17558" lon="6.49591">
        <ele>787.31640625</ele>
        <time>2021-06-27T08:02:13Z</time>
      </trkpt>
      <trkpt lat="46.17537" lon="6.49586">
        <ele>790.1875</ele>
        <time>2021-06-27T08:02:25Z</time>
      </trkpt>
      <trkpt lat="46.17531" lon="6.49591">
        <ele>791.515625</ele>
        <time>2021-06-27T08:02:30Z</time>
      </trkpt>
      <trkpt lat="46.17527" lon="6.49594">
        <ele>792.21484375</ele>
        <time>2021-06-27T08:02:32Z</time>
      </trkpt>
      <trkpt lat="46.17492" lon="6.49602">
        <ele>795.9765625</ele>
        <time>2021-06-27T08:02:44Z</time>
      </trkpt>
      <trkpt lat="46.17489" lon="6.496">
        <ele>796.40625</ele>
        <time>2021-06-27T08:02:45Z</time>
      </trkpt>
      <trkpt lat="46.17487" lon="6.49597">
        <ele>796.73828125</ele>
        <time>2021-06-27T08:02:46Z</time>
      </trkpt>
      <trkpt lat="46.17485" lon="6.49591">
        <ele>796.8828125</ele>
        <time>2021-06-27T08:02:47Z</time>
      </trkpt>
      <trkpt lat="46.17485" lon="6.49585">
        <ele>796.8203125</ele>
        <time>2021-06-27T08:02:48Z</time>
      </trkpt>
      <trkpt lat="46.17486" lon="6.49578">
        <ele>796.6796875</ele>
        <time>2021-06-27T08:02:49Z</time>
      </trkpt>
      <trkpt lat="46.17488" lon="6.49566">
        <ele>795.74609375</ele>
        <time>2021-06-27T08:02:51Z</time>
      </trkpt>
      <trkpt lat="46.17489" lon="6.4956">
        <ele>795.16796875</ele>
        <time>2021-06-27T08:02:52Z</time>
      </trkpt>
      <trkpt lat="46.17491" lon="6.49554">
        <ele>794.54296875</ele>
        <time>2021-06-27T08:02:53Z</time>
      </trkpt>
      <trkpt lat="46.17504" lon="6.49519">
        <ele>790.73046875</ele>
        <time>2021-06-27T08:03:00Z</time>
      </trkpt>
      <trkpt lat="46.175" lon="6.49514">
        <ele>790.80078125</ele>
        <time>2021-06-27T08:03:01Z</time>
      </trkpt>
      <trkpt lat="46.17496" lon="6.49508">
        <ele>791.0078125</ele>
        <time>2021-06-27T08:03:02Z</time>
      </trkpt>
      <trkpt lat="46.17491" lon="6.49503">
        <ele>791.22265625</ele>
        <time>2021-06-27T08:03:03Z</time>
      </trkpt>
      <trkpt lat="46.17487" lon="6.49497">
        <ele>791.37109375</ele>
        <time>2021-06-27T08:03:04Z</time>
      </trkpt>
      <trkpt lat="46.17483" lon="6.49491">
        <ele>791.55078125</ele>
        <time>2021-06-27T08:03:05Z</time>
      </trkpt>
      <trkpt lat="46.17479" lon="6.49485">
        <ele>791.8359375</ele>
        <time>2021-06-27T08:03:06Z</time>
      </trkpt>
      <trkpt lat="46.17476" lon="6.49479">
        <ele>792.0859375</ele>
        <time>2021-06-27T08:03:07Z</time>
      </trkpt>
      <trkpt lat="46.17474" lon="6.49473">
        <ele>792.33203125</ele>
        <time>2021-06-27T08:03:08Z</time>
      </trkpt>
      <trkpt lat="46.17455" lon="6.49447">
        <ele>794.2734375</ele>
        <time>2021-06-27T08:03:17Z</time>
      </trkpt>
      <trkpt lat="46.17453" lon="6.49445">
        <ele>794.4765625</ele>
        <time>2021-06-27T08:03:18Z</time>
      </trkpt>
      <trkpt lat="46.17418" lon="6.49401">
        <ele>797.44921875</ele>
        <time>2021-06-27T08:03:33Z</time>
      </trkpt>
      <trkpt lat="46.17408" lon="6.49387">
        <ele>797.64453125</ele>
        <time>2021-06-27T08:03:36Z</time>
      </trkpt>
      <trkpt lat="46.17405" lon="6.49383">
        <ele>797.53515625</ele>
        <time>2021-06-27T08:03:37Z</time>
      </trkpt>
      <trkpt lat="46.17376" lon="6.49349">
        <ele>796.94921875</ele>
        <time>2021-06-27T08:03:47Z</time>
      </trkpt>
      <trkpt lat="46.17368" lon="6.49343">
        <ele>797.09765625</ele>
        <time>2021-06-27T08:03:49Z</time>
      </trkpt>
      <trkpt lat="46.17364" lon="6.4934">
        <ele>797.21875</ele>
        <time>2021-06-27T08:03:50Z</time>
      </trkpt>
      <trkpt lat="46.1736" lon="6.49337">
        <ele>797.29296875</ele>
        <time>2021-06-27T08:03:51Z</time>
      </trkpt>
      <trkpt lat="46.17337" lon="6.49319">
        <ele>797.59765625</ele>
        <time>2021-06-27T08:03:59Z</time>
      </trkpt>
      <trkpt lat="46.17335" lon="6.49318">
        <ele>797.69140625</ele>
        <time>2021-06-27T08:04:00Z</time>
      </trkpt>
      <trkpt lat="46.17333" lon="6.49316">
        <ele>797.73828125</ele>
        <time>2021-06-27T08:04:01Z</time>
      </trkpt>
      <trkpt lat="46.17331" lon="6.49315">
        <ele>797.75</ele>
        <time>2021-06-27T08:04:02Z</time>
      </trkpt>
      <trkpt lat="46.17329" lon="6.49313">
        <ele>797.765625</ele>
        <time>2021-06-27T08:04:03Z</time>
      </trkpt>
      <trkpt lat="46.17328" lon="6.49312">
        <ele>797.765625</ele>
        <time>2021-06-27T08:04:04Z</time>
      </trkpt>
      <trkpt lat="46.17327" lon="6.4931">
        <ele>797.73828125</ele>
        <time>2021-06-27T08:04:05Z</time>
      </trkpt>
      <trkpt lat="46.17325" lon="6.49308">
        <ele>797.73046875</ele>
        <time>2021-06-27T08:04:06Z</time>
      </trkpt>
      <trkpt lat="46.17291" lon="6.4928">
        <ele>798.4140625</ele>
        <time>2021-06-27T08:04:20Z</time>
      </trkpt>
      <trkpt lat="46.17276" lon="6.49264">
        <ele>798.9140625</ele>
        <time>2021-06-27T08:04:25Z</time>
      </trkpt>
      <trkpt lat="46.17274" lon="6.49258">
        <ele>798.69921875</ele>
        <time>2021-06-27T08:04:26Z</time>
      </trkpt>
      <trkpt lat="46.17273" lon="6.49251">
        <ele>798.328125</ele>
        <time>2021-06-27T08:04:27Z</time>
      </trkpt>
      <trkpt lat="46.17271" lon="6.49243">
        <ele>797.90234375</ele>
        <time>2021-06-27T08:04:28Z</time>
      </trkpt>
      <trkpt lat="46.1727" lon="6.49235">
        <ele>797.42578125</ele>
        <time>2021-06-27T08:04:29Z</time>
      </trkpt>
      <trkpt lat="46.17263" lon="6.49197">
        <ele>794.5234375</ele>
        <time>2021-06-27T08:04:34Z</time>
      </trkpt>
      <trkpt lat="46.17261" lon="6.49192">
        <ele>794.09375</ele>
        <time>2021-06-27T08:04:35Z</time>
      </trkpt>
      <trkpt lat="46.17254" lon="6.49179">
        <ele>793.265625</ele>
        <time>2021-06-27T08:04:39Z</time>
      </trkpt>
      <trkpt lat="46.17249" lon="6.49173">
        <ele>792.94140625</ele>
        <time>2021-06-27T08:04:43Z</time>
      </trkpt>
      <trkpt lat="46.17248" lon="6.49169">
        <ele>792.5625</ele>
        <time>2021-06-27T08:04:46Z</time>
      </trkpt>
      <trkpt lat="46.17248" lon="6.49165">
        <ele>792.203125</ele>
        <time>2021-06-27T08:04:47Z</time>
      </trkpt>
      <trkpt lat="46.17246" lon="6.49162">
        <ele>791.95703125</ele>
        <time>2021-06-27T08:04:48Z</time>
      </trkpt>
      <trkpt lat="46.1724" lon="6.49156">
        <ele>791.85546875</ele>
        <time>2021-06-27T08:04:56Z</time>
      </trkpt>
      <trkpt lat="46.17235" lon="6.4915">
        <ele>791.68359375</ele>
        <time>2021-06-27T08:05:05Z</time>
      </trkpt>
      <trkpt lat="46.17233" lon="6.49145">
        <ele>791.38671875</ele>
        <time>2021-06-27T08:05:07Z</time>
      </trkpt>
      <trkpt lat="46.17232" lon="6.4914">
        <ele>791.078125</ele>
        <time>2021-06-27T08:05:08Z</time>
      </trkpt>
      <trkpt lat="46.17231" lon="6.49135">
        <ele>790.65234375</ele>
        <time>2021-06-27T08:05:09Z</time>
      </trkpt>
      <trkpt lat="46.17229" lon="6.49121">
        <ele>789.69140625</ele>
        <time>2021-06-27T08:05:11Z</time>
      </trkpt>
      <trkpt lat="46.17228" lon="6.49114">
        <ele>789.1875</ele>
        <time>2021-06-27T08:05:12Z</time>
      </trkpt>
      <trkpt lat="46.17228" lon="6.49106">
        <ele>788.6484375</ele>
        <time>2021-06-27T08:05:13Z</time>
      </trkpt>
      <trkpt lat="46.17229" lon="6.491">
        <ele>787.98828125</ele>
        <time>2021-06-27T08:05:14Z</time>
      </trkpt>
      <trkpt lat="46.17228" lon="6.49094">
        <ele>787.4609375</ele>
        <time>2021-06-27T08:05:15Z</time>
      </trkpt>
      <trkpt lat="46.17227" lon="6.4909">
        <ele>787.12109375</ele>
        <time>2021-06-27T08:05:16Z</time>
      </trkpt>
      <trkpt lat="46.17225" lon="6.49086">
        <ele>786.875</ele>
        <time>2021-06-27T08:05:17Z</time>
      </trkpt>
      <trkpt lat="46.17221" lon="6.49082">
        <ele>786.83984375</ele>
        <time>2021-06-27T08:05:20Z</time>
      </trkpt>
      <trkpt lat="46.17208" lon="6.49064">
        <ele>785.53125</ele>
        <time>2021-06-27T08:05:25Z</time>
      </trkpt>
      <trkpt lat="46.17193" lon="6.49045">
        <ele>783.75</ele>
        <time>2021-06-27T08:05:29Z</time>
      </trkpt>
      <trkpt lat="46.17187" lon="6.49029">
        <ele>781.48046875</ele>
        <time>2021-06-27T08:05:32Z</time>
      </trkpt>
      <trkpt lat="46.17177" lon="6.49013">
        <ele>779.2734375</ele>
        <time>2021-06-27T08:05:36Z</time>
      </trkpt>
      <trkpt lat="46.17171" lon="6.49005">
        <ele>778.61328125</ele>
        <time>2021-06-27T08:05:38Z</time>
      </trkpt>
      <trkpt lat="46.17168" lon="6.49002">
        <ele>778.35546875</ele>
        <time>2021-06-27T08:05:39Z</time>
      </trkpt>
      <trkpt lat="46.17165" lon="6.48999">
        <ele>778.1875</ele>
        <time>2021-06-27T08:05:40Z</time>
      </trkpt>
      <trkpt lat="46.17139" lon="6.48968">
        <ele>774.56640625</ele>
        <time>2021-06-27T08:05:50Z</time>
      </trkpt>
      <trkpt lat="46.17102" lon="6.48954">
        <ele>775.33203125</ele>
        <time>2021-06-27T08:06:02Z</time>
      </trkpt>
      <trkpt lat="46.17069" lon="6.48951">
        <ele>776.83203125</ele>
        <time>2021-06-27T08:06:14Z</time>
      </trkpt>
      <trkpt lat="46.17066" lon="6.4895">
        <ele>776.64453125</ele>
        <time>2021-06-27T08:06:21Z</time>
      </trkpt>
      <trkpt lat="46.17065" lon="6.4895">
        <ele>776.53515625</ele>
        <time>2021-06-27T08:06:22Z</time>
      </trkpt>
      <trkpt lat="46.17063" lon="6.4895">
        <ele>776.48828125</ele>
        <time>2021-06-27T08:06:23Z</time>
      </trkpt>
      <trkpt lat="46.1705" lon="6.48949">
        <ele>776.1953125</ele>
        <time>2021-06-27T08:06:27Z</time>
      </trkpt>
      <trkpt lat="46.17045" lon="6.48948">
        <ele>776.046875</ele>
        <time>2021-06-27T08:06:28Z</time>
      </trkpt>
      <trkpt lat="46.1704" lon="6.48946">
        <ele>775.921875</ele>
        <time>2021-06-27T08:06:29Z</time>
      </trkpt>
      <trkpt lat="46.17034" lon="6.48945">
        <ele>775.71875</ele>
        <time>2021-06-27T08:06:30Z</time>
      </trkpt>
      <trkpt lat="46.17029" lon="6.48942">
        <ele>775.484375</ele>
        <time>2021-06-27T08:06:31Z</time>
      </trkpt>
      <trkpt lat="46.16994" lon="6.4893">
        <ele>774.40625</ele>
        <time>2021-06-27T08:06:41Z</time>
      </trkpt>
      <trkpt lat="46.16976" lon="6.48925">
        <ele>774.359375</ele>
        <time>2021-06-27T08:06:47Z</time>
      </trkpt>
      <trkpt lat="46.16932" lon="6.48922">
        <ele>775.40625</ele>
        <time>2021-06-27T08:07:00Z</time>
      </trkpt>
      <trkpt lat="46.16928" lon="6.4892">
        <ele>775.28515625</ele>
        <time>2021-06-27T08:07:01Z</time>
      </trkpt>
      <trkpt lat="46.16894" lon="6.48908">
        <ele>775.34765625</ele>
        <time>2021-06-27T08:07:11Z</time>
      </trkpt>
      <trkpt lat="46.16889" lon="6.48909">
        <ele>775.55078125</ele>
        <time>2021-06-27T08:07:12Z</time>
      </trkpt>
      <trkpt lat="46.16885" lon="6.4891">
        <ele>775.81640625</ele>
        <time>2021-06-27T08:07:13Z</time>
      </trkpt>
      <trkpt lat="46.16881" lon="6.48911">
        <ele>776.08203125</ele>
        <time>2021-06-27T08:07:14Z</time>
      </trkpt>
      <trkpt lat="46.16877" lon="6.48913">
        <ele>776.23828125</ele>
        <time>2021-06-27T08:07:15Z</time>
      </trkpt>
      <trkpt lat="46.16866" lon="6.4892">
        <ele>776.859375</ele>
        <time>2021-06-27T08:07:18Z</time>
      </trkpt>
      <trkpt lat="46.16842" lon="6.48944">
        <ele>779.51171875</ele>
        <time>2021-06-27T08:07:26Z</time>
      </trkpt>
      <trkpt lat="46.1679" lon="6.48983">
        <ele>783.8359375</ele>
        <time>2021-06-27T08:07:41Z</time>
      </trkpt>
      <trkpt lat="46.16786" lon="6.48984">
        <ele>784.00390625</ele>
        <time>2021-06-27T08:07:42Z</time>
      </trkpt>
      <trkpt lat="46.16749" lon="6.4899">
        <ele>785.34375</ele>
        <time>2021-06-27T08:07:49Z</time>
      </trkpt>
      <trkpt lat="46.16712" lon="6.48985">
        <ele>785.13671875</ele>
        <time>2021-06-27T08:07:56Z</time>
      </trkpt>
      <trkpt lat="46.16708" lon="6.48986">
        <ele>785.40625</ele>
        <time>2021-06-27T08:07:57Z</time>
      </trkpt>
      <trkpt lat="46.16704" lon="6.48989">
        <ele>785.7890625</ele>
        <time>2021-06-27T08:07:58Z</time>
      </trkpt>
      <trkpt lat="46.16701" lon="6.48992">
        <ele>786.2734375</ele>
        <time>2021-06-27T08:07:59Z</time>
      </trkpt>
      <trkpt lat="46.16697" lon="6.48995">
        <ele>786.8515625</ele>
        <time>2021-06-27T08:08:00Z</time>
      </trkpt>
      <trkpt lat="46.16694" lon="6.49">
        <ele>787.484375</ele>
        <time>2021-06-27T08:08:01Z</time>
      </trkpt>
      <trkpt lat="46.16692" lon="6.49005">
        <ele>788.12109375</ele>
        <time>2021-06-27T08:08:02Z</time>
      </trkpt>
      <trkpt lat="46.1669" lon="6.49011">
        <ele>788.7734375</ele>
        <time>2021-06-27T08:08:03Z</time>
      </trkpt>
      <trkpt lat="46.1667" lon="6.4905">
        <ele>793.734375</ele>
        <time>2021-06-27T08:08:14Z</time>
      </trkpt>
      <trkpt lat="46.16653" lon="6.49058">
        <ele>795.4140625</ele>
        <time>2021-06-27T08:08:20Z</time>
      </trkpt>
      <trkpt lat="46.16609" lon="6.49068">
        <ele>798.7109375</ele>
        <time>2021-06-27T08:08:35Z</time>
      </trkpt>
      <trkpt lat="46.16578" lon="6.49079">
        <ele>802.1328125</ele>
        <time>2021-06-27T08:08:47Z</time>
      </trkpt>
      <trkpt lat="46.16559" lon="6.49088">
        <ele>805.29296875</ele>
        <time>2021-06-27T08:08:55Z</time>
      </trkpt>
      <trkpt lat="46.16535" lon="6.49101">
        <ele>809.015625</ele>
        <time>2021-06-27T08:09:05Z</time>
      </trkpt>
      <trkpt lat="46.16508" lon="6.49115">
        <ele>813.9296875</ele>
        <time>2021-06-27T08:09:16Z</time>
      </trkpt>
      <trkpt lat="46.16483" lon="6.49125">
        <ele>818.01953125</ele>
        <time>2021-06-27T08:09:26Z</time>
      </trkpt>
      <trkpt lat="46.16453" lon="6.4913">
        <ele>821.9296875</ele>
        <time>2021-06-27T08:09:38Z</time>
      </trkpt>
      <trkpt lat="46.16429" lon="6.49134">
        <ele>825.03125</ele>
        <time>2021-06-27T08:09:48Z</time>
      </trkpt>
      <trkpt lat="46.16404" lon="6.49138">
        <ele>827.61328125</ele>
        <time>2021-06-27T08:09:58Z</time>
      </trkpt>
      <trkpt lat="46.16371" lon="6.49146">
        <ele>829.71484375</ele>
        <time>2021-06-27T08:10:11Z</time>
      </trkpt>
      <trkpt lat="46.1633" lon="6.49171">
        <ele>833.2578125</ele>
        <time>2021-06-27T08:10:26Z</time>
      </trkpt>
      <trkpt lat="46.16293" lon="6.49165">
        <ele>833.390625</ele>
        <time>2021-06-27T08:10:37Z</time>
      </trkpt>
      <trkpt lat="46.1625" lon="6.49151">
        <ele>833.15234375</ele>
        <time>2021-06-27T08:10:50Z</time>
      </trkpt>
      <trkpt lat="46.16247" lon="6.4915">
        <ele>833.171875</ele>
        <time>2021-06-27T08:10:51Z</time>
      </trkpt>
      <trkpt lat="46.16212" lon="6.49166">
        <ele>834.10546875</ele>
        <time>2021-06-27T08:11:04Z</time>
      </trkpt>
      <trkpt lat="46.16169" lon="6.4921">
        <ele>835.0625</ele>
        <time>2021-06-27T08:11:15Z</time>
      </trkpt>
      <trkpt lat="46.16163" lon="6.49214">
        <ele>835.04296875</ele>
        <time>2021-06-27T08:11:16Z</time>
      </trkpt>
      <trkpt lat="46.16157" lon="6.49215">
        <ele>834.87109375</ele>
        <time>2021-06-27T08:11:17Z</time>
      </trkpt>
      <trkpt lat="46.1615" lon="6.49212">
        <ele>834.546875</ele>
        <time>2021-06-27T08:11:18Z</time>
      </trkpt>
      <trkpt lat="46.16145" lon="6.49207">
        <ele>834.1640625</ele>
        <time>2021-06-27T08:11:19Z</time>
      </trkpt>
      <trkpt lat="46.16139" lon="6.49202">
        <ele>833.78125</ele>
        <time>2021-06-27T08:11:20Z</time>
      </trkpt>
      <trkpt lat="46.16133" lon="6.49198">
        <ele>833.41015625</ele>
        <time>2021-06-27T08:11:21Z</time>
      </trkpt>
      <trkpt lat="46.16127" lon="6.49194">
        <ele>833.05078125</ele>
        <time>2021-06-27T08:11:22Z</time>
      </trkpt>
      <trkpt lat="46.16121" lon="6.49191">
        <ele>832.703125</ele>
        <time>2021-06-27T08:11:23Z</time>
      </trkpt>
      <trkpt lat="46.16114" lon="6.49188">
        <ele>832.37890625</ele>
        <time>2021-06-27T08:11:24Z</time>
      </trkpt>
      <trkpt lat="46.16108" lon="6.49186">
        <ele>832.046875</ele>
        <time>2021-06-27T08:11:25Z</time>
      </trkpt>
      <trkpt lat="46.16101" lon="6.49186">
        <ele>831.64453125</ele>
        <time>2021-06-27T08:11:26Z</time>
      </trkpt>
      <trkpt lat="46.16095" lon="6.49185">
        <ele>831.1640625</ele>
        <time>2021-06-27T08:11:27Z</time>
      </trkpt>
      <trkpt lat="46.16089" lon="6.49184">
        <ele>830.6875</ele>
        <time>2021-06-27T08:11:28Z</time>
      </trkpt>
      <trkpt lat="46.16082" lon="6.49182">
        <ele>830.20703125</ele>
        <time>2021-06-27T08:11:29Z</time>
      </trkpt>
      <trkpt lat="46.16077" lon="6.4918">
        <ele>829.734375</ele>
        <time>2021-06-27T08:11:30Z</time>
      </trkpt>
      <trkpt lat="46.16071" lon="6.49176">
        <ele>829.13671875</ele>
        <time>2021-06-27T08:11:31Z</time>
      </trkpt>
      <trkpt lat="46.16067" lon="6.49171">
        <ele>828.46484375</ele>
        <time>2021-06-27T08:11:32Z</time>
      </trkpt>
      <trkpt lat="46.16062" lon="6.49165">
        <ele>827.7265625</ele>
        <time>2021-06-27T08:11:33Z</time>
      </trkpt>
      <trkpt lat="46.16053" lon="6.49153">
        <ele>826.2421875</ele>
        <time>2021-06-27T08:11:35Z</time>
      </trkpt>
      <trkpt lat="46.1605" lon="6.49146">
        <ele>825.6328125</ele>
        <time>2021-06-27T08:11:36Z</time>
      </trkpt>
      <trkpt lat="46.16049" lon="6.49137">
        <ele>825.19140625</ele>
        <time>2021-06-27T08:11:37Z</time>
      </trkpt>
      <trkpt lat="46.1605" lon="6.49128">
        <ele>825.1328125</ele>
        <time>2021-06-27T08:11:38Z</time>
      </trkpt>
      <trkpt lat="46.16053" lon="6.4912">
        <ele>825.37890625</ele>
        <time>2021-06-27T08:11:39Z</time>
      </trkpt>
      <trkpt lat="46.16056" lon="6.49112">
        <ele>825.62109375</ele>
        <time>2021-06-27T08:11:40Z</time>
      </trkpt>
      <trkpt lat="46.1606" lon="6.49106">
        <ele>825.8203125</ele>
        <time>2021-06-27T08:11:41Z</time>
      </trkpt>
      <trkpt lat="46.16076" lon="6.49068">
        <ele>825.97265625</ele>
        <time>2021-06-27T08:11:47Z</time>
      </trkpt>
      <trkpt lat="46.16077" lon="6.49062">
        <ele>826.02734375</ele>
        <time>2021-06-27T08:11:48Z</time>
      </trkpt>
      <trkpt lat="46.16077" lon="6.49056">
        <ele>826.02734375</ele>
        <time>2021-06-27T08:11:49Z</time>
      </trkpt>
      <trkpt lat="46.16076" lon="6.4905">
        <ele>825.984375</ele>
        <time>2021-06-27T08:11:50Z</time>
      </trkpt>
      <trkpt lat="46.16075" lon="6.49045">
        <ele>825.87890625</ele>
        <time>2021-06-27T08:11:51Z</time>
      </trkpt>
      <trkpt lat="46.16072" lon="6.49041">
        <ele>825.7109375</ele>
        <time>2021-06-27T08:11:52Z</time>
      </trkpt>
      <trkpt lat="46.16069" lon="6.49037">
        <ele>825.484375</ele>
        <time>2021-06-27T08:11:53Z</time>
      </trkpt>
      <trkpt lat="46.16066" lon="6.49034">
        <ele>825.2265625</ele>
        <time>2021-06-27T08:11:54Z</time>
      </trkpt>
      <trkpt lat="46.16062" lon="6.49033">
        <ele>824.94140625</ele>
        <time>2021-06-27T08:11:55Z</time>
      </trkpt>
      <trkpt lat="46.16057" lon="6.49031">
        <ele>824.640625</ele>
        <time>2021-06-27T08:11:56Z</time>
      </trkpt>
      <trkpt lat="46.16053" lon="6.49029">
        <ele>824.31640625</ele>
        <time>2021-06-27T08:11:57Z</time>
      </trkpt>
      <trkpt lat="46.16008" lon="6.49009">
        <ele>821.5390625</ele>
        <time>2021-06-27T08:12:05Z</time>
      </trkpt>
      <trkpt lat="46.16003" lon="6.49006">
        <ele>821.2265625</ele>
        <time>2021-06-27T08:12:06Z</time>
      </trkpt>
      <trkpt lat="46.15987" lon="6.49">
        <ele>820.09765625</ele>
        <time>2021-06-27T08:12:09Z</time>
      </trkpt>
      <trkpt lat="46.15981" lon="6.48999">
        <ele>819.4921875</ele>
        <time>2021-06-27T08:12:10Z</time>
      </trkpt>
      <trkpt lat="46.15975" lon="6.49">
        <ele>818.8203125</ele>
        <time>2021-06-27T08:12:11Z</time>
      </trkpt>
      <trkpt lat="46.15955" lon="6.49003">
        <ele>816.5546875</ele>
        <time>2021-06-27T08:12:14Z</time>
      </trkpt>
      <trkpt lat="46.15935" lon="6.49003">
        <ele>814.28125</ele>
        <time>2021-06-27T08:12:17Z</time>
      </trkpt>
      <trkpt lat="46.1593" lon="6.49002">
        <ele>813.671875</ele>
        <time>2021-06-27T08:12:18Z</time>
      </trkpt>
      <trkpt lat="46.15925" lon="6.48999">
        <ele>813.12890625</ele>
        <time>2021-06-27T08:12:19Z</time>
      </trkpt>
      <trkpt lat="46.1592" lon="6.48996">
        <ele>812.48046875</ele>
        <time>2021-06-27T08:12:20Z</time>
      </trkpt>
      <trkpt lat="46.15915" lon="6.48993">
        <ele>811.70703125</ele>
        <time>2021-06-27T08:12:21Z</time>
      </trkpt>
      <trkpt lat="46.15909" lon="6.48992">
        <ele>810.94140625</ele>
        <time>2021-06-27T08:12:22Z</time>
      </trkpt>
      <trkpt lat="46.15904" lon="6.48992">
        <ele>810.3671875</ele>
        <time>2021-06-27T08:12:23Z</time>
      </trkpt>
      <trkpt lat="46.15898" lon="6.48994">
        <ele>809.77734375</ele>
        <time>2021-06-27T08:12:24Z</time>
      </trkpt>
      <trkpt lat="46.15893" lon="6.48995">
        <ele>809.14453125</ele>
        <time>2021-06-27T08:12:25Z</time>
      </trkpt>
      <trkpt lat="46.15886" lon="6.48996">
        <ele>808.46875</ele>
        <time>2021-06-27T08:12:26Z</time>
      </trkpt>
      <trkpt lat="46.1588" lon="6.48997">
        <ele>807.765625</ele>
        <time>2021-06-27T08:12:27Z</time>
      </trkpt>
      <trkpt lat="46.15875" lon="6.48996">
        <ele>806.96875</ele>
        <time>2021-06-27T08:12:28Z</time>
      </trkpt>
      <trkpt lat="46.15869" lon="6.48993">
        <ele>806.10546875</ele>
        <time>2021-06-27T08:12:29Z</time>
      </trkpt>
      <trkpt lat="46.15863" lon="6.4899">
        <ele>805.24609375</ele>
        <time>2021-06-27T08:12:30Z</time>
      </trkpt>
      <trkpt lat="46.15857" lon="6.48985">
        <ele>804.38671875</ele>
        <time>2021-06-27T08:12:31Z</time>
      </trkpt>
      <trkpt lat="46.15832" lon="6.48964">
        <ele>800.71484375</ele>
        <time>2021-06-27T08:12:35Z</time>
      </trkpt>
      <trkpt lat="46.15817" lon="6.48953">
        <ele>799.15625</ele>
        <time>2021-06-27T08:12:37Z</time>
      </trkpt>
      <trkpt lat="46.15786" lon="6.48938">
        <ele>796.0546875</ele>
        <time>2021-06-27T08:12:41Z</time>
      </trkpt>
      <trkpt lat="46.15747" lon="6.48927">
        <ele>792.328125</ele>
        <time>2021-06-27T08:12:46Z</time>
      </trkpt>
      <trkpt lat="46.15739" lon="6.48924">
        <ele>791.78125</ele>
        <time>2021-06-27T08:12:47Z</time>
      </trkpt>
      <trkpt lat="46.15725" lon="6.48917">
        <ele>790.81640625</ele>
        <time>2021-06-27T08:12:49Z</time>
      </trkpt>
      <trkpt lat="46.15718" lon="6.48912">
        <ele>790.2265625</ele>
        <time>2021-06-27T08:12:50Z</time>
      </trkpt>
      <trkpt lat="46.15711" lon="6.48906">
        <ele>789.546875</ele>
        <time>2021-06-27T08:12:51Z</time>
      </trkpt>
      <trkpt lat="46.15705" lon="6.489">
        <ele>788.8671875</ele>
        <time>2021-06-27T08:12:52Z</time>
      </trkpt>
      <trkpt lat="46.15699" lon="6.48894">
        <ele>788.1875</ele>
        <time>2021-06-27T08:12:53Z</time>
      </trkpt>
      <trkpt lat="46.15687" lon="6.48879">
        <ele>786.96875</ele>
        <time>2021-06-27T08:12:55Z</time>
      </trkpt>
      <trkpt lat="46.15682" lon="6.48874">
        <ele>786.54296875</ele>
        <time>2021-06-27T08:12:56Z</time>
      </trkpt>
      <trkpt lat="46.15678" lon="6.48871">
        <ele>786.125</ele>
        <time>2021-06-27T08:12:57Z</time>
      </trkpt>
      <trkpt lat="46.15673" lon="6.48869">
        <ele>785.7109375</ele>
        <time>2021-06-27T08:12:58Z</time>
      </trkpt>
      <trkpt lat="46.1567" lon="6.48867">
        <ele>785.3203125</ele>
        <time>2021-06-27T08:12:59Z</time>
      </trkpt>
      <trkpt lat="46.15666" lon="6.48866">
        <ele>784.96484375</ele>
        <time>2021-06-27T08:13:00Z</time>
      </trkpt>
      <trkpt lat="46.15662" lon="6.48868">
        <ele>784.67578125</ele>
        <time>2021-06-27T08:13:01Z</time>
      </trkpt>
      <trkpt lat="46.15659" lon="6.48872">
        <ele>784.50390625</ele>
        <time>2021-06-27T08:13:02Z</time>
      </trkpt>
      <trkpt lat="46.15656" lon="6.48877">
        <ele>784.38671875</ele>
        <time>2021-06-27T08:13:03Z</time>
      </trkpt>
      <trkpt lat="46.15654" lon="6.48882">
        <ele>784.3125</ele>
        <time>2021-06-27T08:13:04Z</time>
      </trkpt>
      <trkpt lat="46.15651" lon="6.48889">
        <ele>784.21484375</ele>
        <time>2021-06-27T08:13:05Z</time>
      </trkpt>
      <trkpt lat="46.15649" lon="6.48895">
        <ele>784.15234375</ele>
        <time>2021-06-27T08:13:06Z</time>
      </trkpt>
      <trkpt lat="46.15648" lon="6.48902">
        <ele>784.12890625</ele>
        <time>2021-06-27T08:13:07Z</time>
      </trkpt>
      <trkpt lat="46.15643" lon="6.48936">
        <ele>784.125</ele>
        <time>2021-06-27T08:13:11Z</time>
      </trkpt>
      <trkpt lat="46.1564" lon="6.48944">
        <ele>784.08203125</ele>
        <time>2021-06-27T08:13:12Z</time>
      </trkpt>
      <trkpt lat="46.15637" lon="6.48952">
        <ele>784.0234375</ele>
        <time>2021-06-27T08:13:13Z</time>
      </trkpt>
      <trkpt lat="46.1563" lon="6.48969">
        <ele>783.91015625</ele>
        <time>2021-06-27T08:13:15Z</time>
      </trkpt>
      <trkpt lat="46.15628" lon="6.48978">
        <ele>783.859375</ele>
        <time>2021-06-27T08:13:16Z</time>
      </trkpt>
      <trkpt lat="46.15626" lon="6.48985">
        <ele>783.84765625</ele>
        <time>2021-06-27T08:13:17Z</time>
      </trkpt>
      <trkpt lat="46.15615" lon="6.49054">
        <ele>785.90234375</ele>
        <time>2021-06-27T08:13:28Z</time>
      </trkpt>
      <trkpt lat="46.15615" lon="6.49052">
        <ele>785.7421875</ele>
        <time>2021-06-27T08:13:44Z</time>
      </trkpt>
      <trkpt lat="46.15616" lon="6.49055">
        <ele>786.05078125</ele>
        <time>2021-06-27T08:14:14Z</time>
      </trkpt>
      <trkpt lat="46.15616" lon="6.49056">
        <ele>786.15234375</ele>
        <time>2021-06-27T08:14:15Z</time>
      </trkpt>
      <trkpt lat="46.15615" lon="6.49059">
        <ele>786.26953125</ele>
        <time>2021-06-27T08:14:16Z</time>
      </trkpt>
      <trkpt lat="46.15615" lon="6.49062">
        <ele>786.4140625</ele>
        <time>2021-06-27T08:14:17Z</time>
      </trkpt>
      <trkpt lat="46.15614" lon="6.49065">
        <ele>786.57421875</ele>
        <time>2021-06-27T08:14:18Z</time>
      </trkpt>
      <trkpt lat="46.15615" lon="6.49126">
        <ele>789.31640625</ele>
        <time>2021-06-27T08:14:30Z</time>
      </trkpt>
      <trkpt lat="46.15608" lon="6.49192">
        <ele>794.87109375</ele>
        <time>2021-06-27T08:14:42Z</time>
      </trkpt>
      <trkpt lat="46.15596" lon="6.4922">
        <ele>796.3046875</ele>
        <time>2021-06-27T08:14:47Z</time>
      </trkpt>
      <trkpt lat="46.15594" lon="6.49225">
        <ele>796.44140625</ele>
        <time>2021-06-27T08:14:48Z</time>
      </trkpt>
      <trkpt lat="46.15591" lon="6.4923">
        <ele>796.5703125</ele>
        <time>2021-06-27T08:14:49Z</time>
      </trkpt>
      <trkpt lat="46.15588" lon="6.49234">
        <ele>796.69140625</ele>
        <time>2021-06-27T08:14:50Z</time>
      </trkpt>
      <trkpt lat="46.15586" lon="6.49239">
        <ele>796.828125</ele>
        <time>2021-06-27T08:14:51Z</time>
      </trkpt>
      <trkpt lat="46.15583" lon="6.49244">
        <ele>796.95703125</ele>
        <time>2021-06-27T08:14:52Z</time>
      </trkpt>
      <trkpt lat="46.1558" lon="6.49248">
        <ele>797.0546875</ele>
        <time>2021-06-27T08:14:53Z</time>
      </trkpt>
      <trkpt lat="46.15534" lon="6.49291">
        <ele>792.453125</ele>
        <time>2021-06-27T08:15:06Z</time>
      </trkpt>
      <trkpt lat="46.15517" lon="6.49305">
        <ele>789.3515625</ele>
        <time>2021-06-27T08:15:09Z</time>
      </trkpt>
      <trkpt lat="46.15511" lon="6.49311">
        <ele>788.5546875</ele>
        <time>2021-06-27T08:15:10Z</time>
      </trkpt>
      <trkpt lat="46.15507" lon="6.49318">
        <ele>787.91015625</ele>
        <time>2021-06-27T08:15:11Z</time>
      </trkpt>
      <trkpt lat="46.15503" lon="6.49324">
        <ele>787.44140625</ele>
        <time>2021-06-27T08:15:12Z</time>
      </trkpt>
      <trkpt lat="46.15501" lon="6.49331">
        <ele>787.453125</ele>
        <time>2021-06-27T08:15:13Z</time>
      </trkpt>
      <trkpt lat="46.15499" lon="6.49336">
        <ele>787.55078125</ele>
        <time>2021-06-27T08:15:14Z</time>
      </trkpt>
      <trkpt lat="46.15496" lon="6.49341">
        <ele>787.50390625</ele>
        <time>2021-06-27T08:15:15Z</time>
      </trkpt>
      <trkpt lat="46.15494" lon="6.49345">
        <ele>787.3828125</ele>
        <time>2021-06-27T08:15:16Z</time>
      </trkpt>
      <trkpt lat="46.15492" lon="6.49348">
        <ele>787.29296875</ele>
        <time>2021-06-27T08:15:17Z</time>
      </trkpt>
      <trkpt lat="46.15492" lon="6.49349">
        <ele>787.37109375</ele>
        <time>2021-06-27T08:15:26Z</time>
      </trkpt>
      <trkpt lat="46.15495" lon="6.49344">
        <ele>787.5703125</ele>
        <time>2021-06-27T08:15:39Z</time>
      </trkpt>
      <trkpt lat="46.15497" lon="6.4934">
        <ele>787.64453125</ele>
        <time>2021-06-27T08:15:44Z</time>
      </trkpt>
      <trkpt lat="46.155" lon="6.49337">
        <ele>787.83984375</ele>
        <time>2021-06-27T08:15:50Z</time>
      </trkpt>
      <trkpt lat="46.15505" lon="6.49338">
        <ele>788.73046875</ele>
        <time>2021-06-27T08:15:57Z</time>
      </trkpt>
      <trkpt lat="46.15506" lon="6.4934">
        <ele>788.9765625</ele>
        <time>2021-06-27T08:15:58Z</time>
      </trkpt>
      <trkpt lat="46.15511" lon="6.49356">
        <ele>791.359375</ele>
        <time>2021-06-27T08:16:09Z</time>
      </trkpt>
      <trkpt lat="46.15514" lon="6.49372">
        <ele>793.0078125</ele>
        <time>2021-06-27T08:16:19Z</time>
      </trkpt>
      <trkpt lat="46.15513" lon="6.49375">
        <ele>792.921875</ele>
        <time>2021-06-27T08:16:22Z</time>
      </trkpt>
      <trkpt lat="46.1551" lon="6.49377">
        <ele>792.69140625</ele>
        <time>2021-06-27T08:16:23Z</time>
      </trkpt>
      <trkpt lat="46.15507" lon="6.4938">
        <ele>792.24609375</ele>
        <time>2021-06-27T08:16:24Z</time>
      </trkpt>
      <trkpt lat="46.15495" lon="6.49385">
        <ele>790.5625</ele>
        <time>2021-06-27T08:16:27Z</time>
      </trkpt>
      <trkpt lat="46.15486" lon="6.49389">
        <ele>789.33984375</ele>
        <time>2021-06-27T08:16:35Z</time>
      </trkpt>
      <trkpt lat="46.15476" lon="6.49391">
        <ele>787.625</ele>
        <time>2021-06-27T08:16:37Z</time>
      </trkpt>
      <trkpt lat="46.15465" lon="6.49392">
        <ele>785.53125</ele>
        <time>2021-06-27T08:16:39Z</time>
      </trkpt>
      <trkpt lat="46.1546" lon="6.49393">
        <ele>784.78125</ele>
        <time>2021-06-27T08:16:40Z</time>
      </trkpt>
      <trkpt lat="46.15454" lon="6.49394">
        <ele>783.82421875</ele>
        <time>2021-06-27T08:16:42Z</time>
      </trkpt>
      <trkpt lat="46.15437" lon="6.494">
        <ele>781.109375</ele>
        <time>2021-06-27T08:16:48Z</time>
      </trkpt>
      <trkpt lat="46.1543" lon="6.49402">
        <ele>780.24609375</ele>
        <time>2021-06-27T08:16:51Z</time>
      </trkpt>
      <trkpt lat="46.15413" lon="6.494">
        <ele>777.69140625</ele>
        <time>2021-06-27T08:16:57Z</time>
      </trkpt>
      <trkpt lat="46.15408" lon="6.49398">
        <ele>776.90234375</ele>
        <time>2021-06-27T08:16:58Z</time>
      </trkpt>
      <trkpt lat="46.15385" lon="6.49389">
        <ele>773.8203125</ele>
        <time>2021-06-27T08:17:02Z</time>
      </trkpt>
      <trkpt lat="46.15365" lon="6.49386">
        <ele>771.2578125</ele>
        <time>2021-06-27T08:17:05Z</time>
      </trkpt>
      <trkpt lat="46.15348" lon="6.49379">
        <ele>768.81640625</ele>
        <time>2021-06-27T08:17:07Z</time>
      </trkpt>
      <trkpt lat="46.15332" lon="6.49372">
        <ele>766.01171875</ele>
        <time>2021-06-27T08:17:10Z</time>
      </trkpt>
      <trkpt lat="46.15319" lon="6.49368">
        <ele>763.82421875</ele>
        <time>2021-06-27T08:17:12Z</time>
      </trkpt>
      <trkpt lat="46.15313" lon="6.49365">
        <ele>762.73046875</ele>
        <time>2021-06-27T08:17:13Z</time>
      </trkpt>
      <trkpt lat="46.15302" lon="6.49359">
        <ele>760.8125</ele>
        <time>2021-06-27T08:17:16Z</time>
      </trkpt>
      <trkpt lat="46.15298" lon="6.49361">
        <ele>760.38671875</ele>
        <time>2021-06-27T08:17:17Z</time>
      </trkpt>
      <trkpt lat="46.15258" lon="6.49375">
        <ele>756.83203125</ele>
        <time>2021-06-27T08:17:24Z</time>
      </trkpt>
      <trkpt lat="46.15252" lon="6.4938">
        <ele>756.55078125</ele>
        <time>2021-06-27T08:17:25Z</time>
      </trkpt>
      <trkpt lat="46.15242" lon="6.49387">
        <ele>756.2734375</ele>
        <time>2021-06-27T08:17:27Z</time>
      </trkpt>
      <trkpt lat="46.15237" lon="6.49388">
        <ele>756.1796875</ele>
        <time>2021-06-27T08:17:28Z</time>
      </trkpt>
      <trkpt lat="46.15232" lon="6.49388">
        <ele>755.98046875</ele>
        <time>2021-06-27T08:17:29Z</time>
      </trkpt>
      <trkpt lat="46.15226" lon="6.49386">
        <ele>755.6796875</ele>
        <time>2021-06-27T08:17:30Z</time>
      </trkpt>
      <trkpt lat="46.15221" lon="6.49382">
        <ele>755.19921875</ele>
        <time>2021-06-27T08:17:31Z</time>
      </trkpt>
      <trkpt lat="46.15216" lon="6.49376">
        <ele>754.7890625</ele>
        <time>2021-06-27T08:17:32Z</time>
      </trkpt>
      <trkpt lat="46.15212" lon="6.49368">
        <ele>754.35546875</ele>
        <time>2021-06-27T08:17:33Z</time>
      </trkpt>
      <trkpt lat="46.15203" lon="6.4935">
        <ele>753.38671875</ele>
        <time>2021-06-27T08:17:36Z</time>
      </trkpt>
      <trkpt lat="46.15188" lon="6.49316">
        <ele>751.58984375</ele>
        <time>2021-06-27T08:17:41Z</time>
      </trkpt>
      <trkpt lat="46.15186" lon="6.49308">
        <ele>751.234375</ele>
        <time>2021-06-27T08:17:42Z</time>
      </trkpt>
      <trkpt lat="46.15184" lon="6.49303">
        <ele>750.984375</ele>
        <time>2021-06-27T08:17:43Z</time>
      </trkpt>
      <trkpt lat="46.15183" lon="6.49298">
        <ele>750.7734375</ele>
        <time>2021-06-27T08:17:44Z</time>
      </trkpt>
      <trkpt lat="46.15164" lon="6.49242">
        <ele>749.14453125</ele>
        <time>2021-06-27T08:17:53Z</time>
      </trkpt>
      <trkpt lat="46.15163" lon="6.49233">
        <ele>749.1015625</ele>
        <time>2021-06-27T08:17:54Z</time>
      </trkpt>
      <trkpt lat="46.15163" lon="6.49224">
        <ele>749.0859375</ele>
        <time>2021-06-27T08:17:55Z</time>
      </trkpt>
      <trkpt lat="46.15162" lon="6.49196">
        <ele>748.375</ele>
        <time>2021-06-27T08:17:58Z</time>
      </trkpt>
      <trkpt lat="46.15161" lon="6.49187">
        <ele>748.03125</ele>
        <time>2021-06-27T08:17:59Z</time>
      </trkpt>
      <trkpt lat="46.15153" lon="6.49135">
        <ele>746.8046875</ele>
        <time>2021-06-27T08:18:05Z</time>
      </trkpt>
      <trkpt lat="46.15152" lon="6.49128">
        <ele>746.7109375</ele>
        <time>2021-06-27T08:18:06Z</time>
      </trkpt>
      <trkpt lat="46.15152" lon="6.49121">
        <ele>746.71484375</ele>
        <time>2021-06-27T08:18:07Z</time>
      </trkpt>
      <trkpt lat="46.15153" lon="6.49114">
        <ele>746.74609375</ele>
        <time>2021-06-27T08:18:08Z</time>
      </trkpt>
      <trkpt lat="46.15155" lon="6.49109">
        <ele>746.80859375</ele>
        <time>2021-06-27T08:18:09Z</time>
      </trkpt>
      <trkpt lat="46.15158" lon="6.49104">
        <ele>746.90234375</ele>
        <time>2021-06-27T08:18:10Z</time>
      </trkpt>
      <trkpt lat="46.15161" lon="6.491">
        <ele>747.0078125</ele>
        <time>2021-06-27T08:18:11Z</time>
      </trkpt>
      <trkpt lat="46.15175" lon="6.49078">
        <ele>747.546875</ele>
        <time>2021-06-27T08:18:16Z</time>
      </trkpt>
      <trkpt lat="46.15178" lon="6.49072">
        <ele>747.46484375</ele>
        <time>2021-06-27T08:18:17Z</time>
      </trkpt>
      <trkpt lat="46.1518" lon="6.49065">
        <ele>747.30078125</ele>
        <time>2021-06-27T08:18:18Z</time>
      </trkpt>
      <trkpt lat="46.15182" lon="6.49058">
        <ele>747.109375</ele>
        <time>2021-06-27T08:18:19Z</time>
      </trkpt>
      <trkpt lat="46.15183" lon="6.49051">
        <ele>746.89453125</ele>
        <time>2021-06-27T08:18:20Z</time>
      </trkpt>
      <trkpt lat="46.15187" lon="6.49026">
        <ele>745.23828125</ele>
        <time>2021-06-27T08:18:23Z</time>
      </trkpt>
      <trkpt lat="46.15188" lon="6.49009">
        <ele>743.625</ele>
        <time>2021-06-27T08:18:25Z</time>
      </trkpt>
      <trkpt lat="46.15189" lon="6.49001">
        <ele>742.91796875</ele>
        <time>2021-06-27T08:18:26Z</time>
      </trkpt>
      <trkpt lat="46.15193" lon="6.48986">
        <ele>741.15625</ele>
        <time>2021-06-27T08:18:28Z</time>
      </trkpt>
      <trkpt lat="46.15197" lon="6.48973">
        <ele>739.44921875</ele>
        <time>2021-06-27T08:18:30Z</time>
      </trkpt>
      <trkpt lat="46.15203" lon="6.48961">
        <ele>738.39453125</ele>
        <time>2021-06-27T08:18:32Z</time>
      </trkpt>
      <trkpt lat="46.15219" lon="6.48936">
        <ele>736.15625</ele>
        <time>2021-06-27T08:18:36Z</time>
      </trkpt>
      <trkpt lat="46.15224" lon="6.48929">
        <ele>735.6796875</ele>
        <time>2021-06-27T08:18:37Z</time>
      </trkpt>
      <trkpt lat="46.15227" lon="6.48922">
        <ele>734.98046875</ele>
        <time>2021-06-27T08:18:38Z</time>
      </trkpt>
      <trkpt lat="46.15231" lon="6.48914">
        <ele>734.3203125</ele>
        <time>2021-06-27T08:18:39Z</time>
      </trkpt>
      <trkpt lat="46.15234" lon="6.48906">
        <ele>733.35546875</ele>
        <time>2021-06-27T08:18:40Z</time>
      </trkpt>
      <trkpt lat="46.15242" lon="6.48884">
        <ele>729.921875</ele>
        <time>2021-06-27T08:18:43Z</time>
      </trkpt>
      <trkpt lat="46.15245" lon="6.48872">
        <ele>728.1640625</ele>
        <time>2021-06-27T08:18:45Z</time>
      </trkpt>
      <trkpt lat="46.15247" lon="6.48866">
        <ele>727.234375</ele>
        <time>2021-06-27T08:18:46Z</time>
      </trkpt>
      <trkpt lat="46.15249" lon="6.48842">
        <ele>723.015625</ele>
        <time>2021-06-27T08:18:50Z</time>
      </trkpt>
      <trkpt lat="46.1525" lon="6.48835">
        <ele>721.88671875</ele>
        <time>2021-06-27T08:18:51Z</time>
      </trkpt>
      <trkpt lat="46.15254" lon="6.4882">
        <ele>720.12890625</ele>
        <time>2021-06-27T08:18:53Z</time>
      </trkpt>
      <trkpt lat="46.15263" lon="6.48798">
        <ele>719.0078125</ele>
        <time>2021-06-27T08:18:56Z</time>
      </trkpt>
      <trkpt lat="46.15268" lon="6.48788">
        <ele>718.19140625</ele>
        <time>2021-06-27T08:18:58Z</time>
      </trkpt>
      <trkpt lat="46.15271" lon="6.48784">
        <ele>718.33984375</ele>
        <time>2021-06-27T08:18:59Z</time>
      </trkpt>
      <trkpt lat="46.1528" lon="6.48778">
        <ele>719.07421875</ele>
        <time>2021-06-27T08:19:01Z</time>
      </trkpt>
      <trkpt lat="46.15287" lon="6.48772">
        <ele>719.55078125</ele>
        <time>2021-06-27T08:19:03Z</time>
      </trkpt>
      <trkpt lat="46.15298" lon="6.48763">
        <ele>720.85546875</ele>
        <time>2021-06-27T08:19:06Z</time>
      </trkpt>
      <trkpt lat="46.15303" lon="6.48761">
        <ele>721.73828125</ele>
        <time>2021-06-27T08:19:07Z</time>
      </trkpt>
      <trkpt lat="46.15312" lon="6.48749">
        <ele>721.890625</ele>
        <time>2021-06-27T08:19:10Z</time>
      </trkpt>
      <trkpt lat="46.15314" lon="6.48743">
        <ele>721.2421875</ele>
        <time>2021-06-27T08:19:11Z</time>
      </trkpt>
      <trkpt lat="46.15314" lon="6.4874">
        <ele>720.51171875</ele>
        <time>2021-06-27T08:19:12Z</time>
      </trkpt>
      <trkpt lat="46.15314" lon="6.48735">
        <ele>719.3984375</ele>
        <time>2021-06-27T08:19:13Z</time>
      </trkpt>
      <trkpt lat="46.15312" lon="6.48731">
        <ele>718.1015625</ele>
        <time>2021-06-27T08:19:14Z</time>
      </trkpt>
      <trkpt lat="46.15301" lon="6.48707">
        <ele>709.58203125</ele>
        <time>2021-06-27T08:19:18Z</time>
      </trkpt>
      <trkpt lat="46.15294" lon="6.48689">
        <ele>704.2421875</ele>
        <time>2021-06-27T08:19:20Z</time>
      </trkpt>
      <trkpt lat="46.15292" lon="6.48681">
        <ele>702.26953125</ele>
        <time>2021-06-27T08:19:21Z</time>
      </trkpt>
      <trkpt lat="46.15291" lon="6.48673">
        <ele>700.62109375</ele>
        <time>2021-06-27T08:19:22Z</time>
      </trkpt>
      <trkpt lat="46.15289" lon="6.48648">
        <ele>697.2578125</ele>
        <time>2021-06-27T08:19:25Z</time>
      </trkpt>
      <trkpt lat="46.15289" lon="6.4864">
        <ele>696.79296875</ele>
        <time>2021-06-27T08:19:26Z</time>
      </trkpt>
      <trkpt lat="46.15289" lon="6.48626">
        <ele>695.65234375</ele>
        <time>2021-06-27T08:19:28Z</time>
      </trkpt>
      <trkpt lat="46.15286" lon="6.48594">
        <ele>692.8671875</ele>
        <time>2021-06-27T08:19:36Z</time>
      </trkpt>
      <trkpt lat="46.15284" lon="6.48588">
        <ele>692.15625</ele>
        <time>2021-06-27T08:19:52Z</time>
      </trkpt>
      <trkpt lat="46.15277" lon="6.48571">
        <ele>690.35546875</ele>
        <time>2021-06-27T08:20:05Z</time>
      </trkpt>
      <trkpt lat="46.15277" lon="6.48567">
        <ele>690.171875</ele>
        <time>2021-06-27T08:20:06Z</time>
      </trkpt>
      <trkpt lat="46.15277" lon="6.48562">
        <ele>689.9296875</ele>
        <time>2021-06-27T08:20:07Z</time>
      </trkpt>
      <trkpt lat="46.15276" lon="6.48557">
        <ele>689.625</ele>
        <time>2021-06-27T08:20:08Z</time>
      </trkpt>
      <trkpt lat="46.15275" lon="6.48552">
        <ele>689.36328125</ele>
        <time>2021-06-27T08:20:09Z</time>
      </trkpt>
      <trkpt lat="46.15274" lon="6.48549">
        <ele>689.1953125</ele>
        <time>2021-06-27T08:20:10Z</time>
      </trkpt>
      <trkpt lat="46.15274" lon="6.48545">
        <ele>689.046875</ele>
        <time>2021-06-27T08:20:11Z</time>
      </trkpt>
      <trkpt lat="46.15274" lon="6.48541">
        <ele>688.87109375</ele>
        <time>2021-06-27T08:20:12Z</time>
      </trkpt>
      <trkpt lat="46.15279" lon="6.48513">
        <ele>687.7890625</ele>
        <time>2021-06-27T08:20:18Z</time>
      </trkpt>
      <trkpt lat="46.1528" lon="6.48491">
        <ele>686.62890625</ele>
        <time>2021-06-27T08:20:23Z</time>
      </trkpt>
      <trkpt lat="46.1528" lon="6.48481">
        <ele>686.6328125</ele>
        <time>2021-06-27T08:20:25Z</time>
      </trkpt>
      <trkpt lat="46.15287" lon="6.48421">
        <ele>687.75</ele>
        <time>2021-06-27T08:20:35Z</time>
      </trkpt>
      <trkpt lat="46.15289" lon="6.48414">
        <ele>687.90234375</ele>
        <time>2021-06-27T08:20:36Z</time>
      </trkpt>
      <trkpt lat="46.15292" lon="6.48389">
        <ele>687.6640625</ele>
        <time>2021-06-27T08:20:39Z</time>
      </trkpt>
      <trkpt lat="46.15304" lon="6.48347">
        <ele>687.703125</ele>
        <time>2021-06-27T08:20:44Z</time>
      </trkpt>
      <trkpt lat="46.15309" lon="6.48262">
        <ele>685.609375</ele>
        <time>2021-06-27T08:20:54Z</time>
      </trkpt>
      <trkpt lat="46.15311" lon="6.48257">
        <ele>685.51953125</ele>
        <time>2021-06-27T08:20:55Z</time>
      </trkpt>
      <trkpt lat="46.1531" lon="6.48251">
        <ele>685.12890625</ele>
        <time>2021-06-27T08:20:56Z</time>
      </trkpt>
      <trkpt lat="46.1531" lon="6.48226">
        <ele>684.1171875</ele>
        <time>2021-06-27T08:21:00Z</time>
      </trkpt>
      <trkpt lat="46.1532" lon="6.48179">
        <ele>682.16015625</ele>
        <time>2021-06-27T08:21:08Z</time>
      </trkpt>
      <trkpt lat="46.15319" lon="6.48171">
        <ele>681.65625</ele>
        <time>2021-06-27T08:21:09Z</time>
      </trkpt>
      <trkpt lat="46.15315" lon="6.48148">
        <ele>680.35546875</ele>
        <time>2021-06-27T08:21:12Z</time>
      </trkpt>
      <trkpt lat="46.15313" lon="6.48141">
        <ele>679.9140625</ele>
        <time>2021-06-27T08:21:13Z</time>
      </trkpt>
      <trkpt lat="46.15312" lon="6.48132">
        <ele>679.4296875</ele>
        <time>2021-06-27T08:21:14Z</time>
      </trkpt>
      <trkpt lat="46.15308" lon="6.48102">
        <ele>678.08203125</ele>
        <time>2021-06-27T08:21:19Z</time>
      </trkpt>
      <trkpt lat="46.15305" lon="6.48088">
        <ele>676.98828125</ele>
        <time>2021-06-27T08:21:30Z</time>
      </trkpt>
      <trkpt lat="46.15301" lon="6.48078">
        <ele>676.13671875</ele>
        <time>2021-06-27T08:21:48Z</time>
      </trkpt>
      <trkpt lat="46.15305" lon="6.48042">
        <ele>673.87890625</ele>
        <time>2021-06-27T08:21:57Z</time>
      </trkpt>
      <trkpt lat="46.15302" lon="6.48007">
        <ele>672.41796875</ele>
        <time>2021-06-27T08:22:06Z</time>
      </trkpt>
      <trkpt lat="46.15297" lon="6.48001">
        <ele>672.64453125</ele>
        <time>2021-06-27T08:22:30Z</time>
      </trkpt>
      <trkpt lat="46.15297" lon="6.47998">
        <ele>672.53515625</ele>
        <time>2021-06-27T08:22:45Z</time>
      </trkpt>
      <trkpt lat="46.15299" lon="6.47997">
        <ele>672.140625</ele>
        <time>2021-06-27T08:22:59Z</time>
      </trkpt>
      <trkpt lat="46.15302" lon="6.4799">
        <ele>671.74609375</ele>
        <time>2021-06-27T08:23:17Z</time>
      </trkpt>
      <trkpt lat="46.15302" lon="6.47987">
        <ele>671.60546875</ele>
        <time>2021-06-27T08:23:19Z</time>
      </trkpt>
      <trkpt lat="46.15304" lon="6.47983">
        <ele>671.28515625</ele>
        <time>2021-06-27T08:23:32Z</time>
      </trkpt>
      <trkpt lat="46.15306" lon="6.47976">
        <ele>670.73828125</ele>
        <time>2021-06-27T08:23:42Z</time>
      </trkpt>
      <trkpt lat="46.15302" lon="6.4798">
        <ele>671.28515625</ele>
        <time>2021-06-27T08:23:53Z</time>
      </trkpt>
      <trkpt lat="46.15302" lon="6.47973">
        <ele>670.96875</ele>
        <time>2021-06-27T08:24:01Z</time>
      </trkpt>
      <trkpt lat="46.15303" lon="6.47971">
        <ele>670.7734375</ele>
        <time>2021-06-27T08:24:02Z</time>
      </trkpt>
      <trkpt lat="46.1531" lon="6.47958">
        <ele>669.35546875</ele>
        <time>2021-06-27T08:24:06Z</time>
      </trkpt>
      <trkpt lat="46.15311" lon="6.47952">
        <ele>668.9375</ele>
        <time>2021-06-27T08:24:07Z</time>
      </trkpt>
      <trkpt lat="46.15313" lon="6.47947">
        <ele>668.4375</ele>
        <time>2021-06-27T08:24:08Z</time>
      </trkpt>
      <trkpt lat="46.15315" lon="6.47941">
        <ele>667.8359375</ele>
        <time>2021-06-27T08:24:09Z</time>
      </trkpt>
      <trkpt lat="46.15323" lon="6.47918">
        <ele>664.7421875</ele>
        <time>2021-06-27T08:24:14Z</time>
      </trkpt>
      <trkpt lat="46.15325" lon="6.47915">
        <ele>663.97265625</ele>
        <time>2021-06-27T08:24:16Z</time>
      </trkpt>
      <trkpt lat="46.15329" lon="6.47911">
        <ele>663.40234375</ele>
        <time>2021-06-27T08:24:18Z</time>
      </trkpt>
      <trkpt lat="46.15336" lon="6.47905">
        <ele>664.2265625</ele>
        <time>2021-06-27T08:24:20Z</time>
      </trkpt>
      <trkpt lat="46.1534" lon="6.47903">
        <ele>664.6015625</ele>
        <time>2021-06-27T08:24:21Z</time>
      </trkpt>
      <trkpt lat="46.15348" lon="6.47897">
        <ele>664.70703125</ele>
        <time>2021-06-27T08:24:23Z</time>
      </trkpt>
      <trkpt lat="46.15354" lon="6.47885">
        <ele>663.25390625</ele>
        <time>2021-06-27T08:24:26Z</time>
      </trkpt>
      <trkpt lat="46.15358" lon="6.47879">
        <ele>662.62109375</ele>
        <time>2021-06-27T08:24:28Z</time>
      </trkpt>
      <trkpt lat="46.15375" lon="6.47865">
        <ele>660.53125</ele>
        <time>2021-06-27T08:24:33Z</time>
      </trkpt>
      <trkpt lat="46.15401" lon="6.47832">
        <ele>655.63671875</ele>
        <time>2021-06-27T08:24:38Z</time>
      </trkpt>
      <trkpt lat="46.15417" lon="6.47811">
        <ele>652.7265625</ele>
        <time>2021-06-27T08:24:40Z</time>
      </trkpt>
      <trkpt lat="46.15422" lon="6.47803">
        <ele>651.03125</ele>
        <time>2021-06-27T08:24:41Z</time>
      </trkpt>
      <trkpt lat="46.15426" lon="6.47796">
        <ele>649.98828125</ele>
        <time>2021-06-27T08:24:42Z</time>
      </trkpt>
      <trkpt lat="46.15447" lon="6.47766">
        <ele>645.79296875</ele>
        <time>2021-06-27T08:24:47Z</time>
      </trkpt>
      <trkpt lat="46.15453" lon="6.4776">
        <ele>645.7578125</ele>
        <time>2021-06-27T08:24:49Z</time>
      </trkpt>
      <trkpt lat="46.15467" lon="6.47753">
        <ele>646.41015625</ele>
        <time>2021-06-27T08:24:53Z</time>
      </trkpt>
      <trkpt lat="46.15472" lon="6.47752">
        <ele>646.9609375</ele>
        <time>2021-06-27T08:24:54Z</time>
      </trkpt>
      <trkpt lat="46.15476" lon="6.4775">
        <ele>647.171875</ele>
        <time>2021-06-27T08:24:55Z</time>
      </trkpt>
      <trkpt lat="46.15482" lon="6.47747">
        <ele>647.11328125</ele>
        <time>2021-06-27T08:24:57Z</time>
      </trkpt>
      <trkpt lat="46.15489" lon="6.47744">
        <ele>647.41015625</ele>
        <time>2021-06-27T08:24:58Z</time>
      </trkpt>
      <trkpt lat="46.15504" lon="6.47742">
        <ele>648.73828125</ele>
        <time>2021-06-27T08:25:01Z</time>
      </trkpt>
      <trkpt lat="46.15507" lon="6.4774">
        <ele>648.37109375</ele>
        <time>2021-06-27T08:25:02Z</time>
      </trkpt>
      <trkpt lat="46.15511" lon="6.47737">
        <ele>647.87109375</ele>
        <time>2021-06-27T08:25:03Z</time>
      </trkpt>
      <trkpt lat="46.15521" lon="6.47731">
        <ele>647.08984375</ele>
        <time>2021-06-27T08:25:05Z</time>
      </trkpt>
      <trkpt lat="46.15525" lon="6.47726">
        <ele>646.140625</ele>
        <time>2021-06-27T08:25:06Z</time>
      </trkpt>
      <trkpt lat="46.15541" lon="6.47714">
        <ele>643.25</ele>
        <time>2021-06-27T08:25:10Z</time>
      </trkpt>
      <trkpt lat="46.15546" lon="6.477">
        <ele>638.78515625</ele>
        <time>2021-06-27T08:25:16Z</time>
      </trkpt>
      <trkpt lat="46.15543" lon="6.47697">
        <ele>637.68359375</ele>
        <time>2021-06-27T08:25:17Z</time>
      </trkpt>
      <trkpt lat="46.1553" lon="6.47688">
        <ele>634.078125</ele>
        <time>2021-06-27T08:25:22Z</time>
      </trkpt>
      <trkpt lat="46.15527" lon="6.47686">
        <ele>633.57421875</ele>
        <time>2021-06-27T08:25:23Z</time>
      </trkpt>
      <trkpt lat="46.15525" lon="6.47685">
        <ele>633.24609375</ele>
        <time>2021-06-27T08:25:24Z</time>
      </trkpt>
      <trkpt lat="46.15509" lon="6.47683">
        <ele>632.0546875</ele>
        <time>2021-06-27T08:25:30Z</time>
      </trkpt>
      <trkpt lat="46.15505" lon="6.47683">
        <ele>631.8046875</ele>
        <time>2021-06-27T08:25:31Z</time>
      </trkpt>
      <trkpt lat="46.15485" lon="6.47683">
        <ele>630.625</ele>
        <time>2021-06-27T08:25:36Z</time>
      </trkpt>
      <trkpt lat="46.15469" lon="6.47679">
        <ele>629.4609375</ele>
        <time>2021-06-27T08:25:40Z</time>
      </trkpt>
      <trkpt lat="46.15465" lon="6.47679">
        <ele>629.2734375</ele>
        <time>2021-06-27T08:25:41Z</time>
      </trkpt>
      <trkpt lat="46.15463" lon="6.47678">
        <ele>629.12109375</ele>
        <time>2021-06-27T08:25:42Z</time>
      </trkpt>
      <trkpt lat="46.15462" lon="6.47677">
        <ele>628.83203125</ele>
        <time>2021-06-27T08:25:43Z</time>
      </trkpt>
      <trkpt lat="46.15463" lon="6.47675">
        <ele>628.51171875</ele>
        <time>2021-06-27T08:25:44Z</time>
      </trkpt>
      <trkpt lat="46.15464" lon="6.47672">
        <ele>628.0390625</ele>
        <time>2021-06-27T08:25:45Z</time>
      </trkpt>
      <trkpt lat="46.15467" lon="6.4767">
        <ele>627.59765625</ele>
        <time>2021-06-27T08:25:46Z</time>
      </trkpt>
      <trkpt lat="46.15468" lon="6.47664">
        <ele>626.64453125</ele>
        <time>2021-06-27T08:25:47Z</time>
      </trkpt>
      <trkpt lat="46.15465" lon="6.47645">
        <ele>623.7265625</ele>
        <time>2021-06-27T08:25:51Z</time>
      </trkpt>
      <trkpt lat="46.15455" lon="6.47638">
        <ele>623.70703125</ele>
        <time>2021-06-27T08:26:07Z</time>
      </trkpt>
      <trkpt lat="46.15457" lon="6.47647">
        <ele>624.57421875</ele>
        <time>2021-06-27T08:26:39Z</time>
      </trkpt>
      <trkpt lat="46.15454" lon="6.47644">
        <ele>624.4765625</ele>
        <time>2021-06-27T08:27:01Z</time>
      </trkpt>
      <trkpt lat="46.15455" lon="6.47636">
        <ele>623.48046875</ele>
        <time>2021-06-27T08:27:19Z</time>
      </trkpt>
      <trkpt lat="46.15456" lon="6.47635">
        <ele>623.2421875</ele>
        <time>2021-06-27T08:27:20Z</time>
      </trkpt>
      <trkpt lat="46.15456" lon="6.47633">
        <ele>623.0234375</ele>
        <time>2021-06-27T08:27:21Z</time>
      </trkpt>
      <trkpt lat="46.15456" lon="6.47631">
        <ele>622.87890625</ele>
        <time>2021-06-27T08:27:22Z</time>
      </trkpt>
      <trkpt lat="46.15457" lon="6.47628">
        <ele>622.73046875</ele>
        <time>2021-06-27T08:27:23Z</time>
      </trkpt>
      <trkpt lat="46.15456" lon="6.47625">
        <ele>622.66796875</ele>
        <time>2021-06-27T08:27:24Z</time>
      </trkpt>
      <trkpt lat="46.15454" lon="6.47622">
        <ele>622.69921875</ele>
        <time>2021-06-27T08:27:25Z</time>
      </trkpt>
      <trkpt lat="46.15451" lon="6.4762">
        <ele>622.83984375</ele>
        <time>2021-06-27T08:27:26Z</time>
      </trkpt>
      <trkpt lat="46.15447" lon="6.47618">
        <ele>623.078125</ele>
        <time>2021-06-27T08:27:27Z</time>
      </trkpt>
      <trkpt lat="46.15443" lon="6.47617">
        <ele>623.34375</ele>
        <time>2021-06-27T08:27:28Z</time>
      </trkpt>
      <trkpt lat="46.15432" lon="6.47614">
        <ele>624.73046875</ele>
        <time>2021-06-27T08:27:33Z</time>
      </trkpt>
      <trkpt lat="46.15425" lon="6.47605">
        <ele>625.37109375</ele>
        <time>2021-06-27T08:27:43Z</time>
      </trkpt>
      <trkpt lat="46.15423" lon="6.47604">
        <ele>625.66796875</ele>
        <time>2021-06-27T08:27:44Z</time>
      </trkpt>
      <trkpt lat="46.15391" lon="6.47575">
        <ele>630.33203125</ele>
        <time>2021-06-27T08:27:56Z</time>
      </trkpt>
      <trkpt lat="46.15387" lon="6.47571">
        <ele>630.27734375</ele>
        <time>2021-06-27T08:27:57Z</time>
      </trkpt>
      <trkpt lat="46.15365" lon="6.47544">
        <ele>629.91015625</ele>
        <time>2021-06-27T08:28:03Z</time>
      </trkpt>
      <trkpt lat="46.15363" lon="6.4754">
        <ele>629.484375</ele>
        <time>2021-06-27T08:28:04Z</time>
      </trkpt>
      <trkpt lat="46.15347" lon="6.47521">
        <ele>628.5546875</ele>
        <time>2021-06-27T08:28:09Z</time>
      </trkpt>
      <trkpt lat="46.1531" lon="6.47462">
        <ele>620.62890625</ele>
        <time>2021-06-27T08:28:21Z</time>
      </trkpt>
      <trkpt lat="46.15303" lon="6.47449">
        <ele>618.3359375</ele>
        <time>2021-06-27T08:28:23Z</time>
      </trkpt>
      <trkpt lat="46.15291" lon="6.4743">
        <ele>617.015625</ele>
        <time>2021-06-27T08:28:26Z</time>
      </trkpt>
      <trkpt lat="46.15288" lon="6.47424">
        <ele>617.30078125</ele>
        <time>2021-06-27T08:28:27Z</time>
      </trkpt>
      <trkpt lat="46.1528" lon="6.4741">
        <ele>615.8671875</ele>
        <time>2021-06-27T08:28:34Z</time>
      </trkpt>
      <trkpt lat="46.15275" lon="6.47405">
        <ele>615.515625</ele>
        <time>2021-06-27T08:28:36Z</time>
      </trkpt>
      <trkpt lat="46.15275" lon="6.47402">
        <ele>614.86328125</ele>
        <time>2021-06-27T08:28:37Z</time>
      </trkpt>
      <trkpt lat="46.15273" lon="6.47368">
        <ele>610.72265625</ele>
        <time>2021-06-27T08:28:42Z</time>
      </trkpt>
      <trkpt lat="46.15268" lon="6.47357">
        <ele>610.1171875</ele>
        <time>2021-06-27T08:28:44Z</time>
      </trkpt>
      <trkpt lat="46.15264" lon="6.47354">
        <ele>610.171875</ele>
        <time>2021-06-27T08:28:45Z</time>
      </trkpt>
      <trkpt lat="46.15235" lon="6.47335">
        <ele>608.55859375</ele>
        <time>2021-06-27T08:28:55Z</time>
      </trkpt>
      <trkpt lat="46.15212" lon="6.47315">
        <ele>605.4921875</ele>
        <time>2021-06-27T08:29:08Z</time>
      </trkpt>
      <trkpt lat="46.15187" lon="6.47317">
        <ele>602.51171875</ele>
        <time>2021-06-27T08:29:17Z</time>
      </trkpt>
      <trkpt lat="46.15157" lon="6.47311">
        <ele>599.47265625</ele>
        <time>2021-06-27T08:29:29Z</time>
      </trkpt>
      <trkpt lat="46.15128" lon="6.47298">
        <ele>597.234375</ele>
        <time>2021-06-27T08:29:41Z</time>
      </trkpt>
      <trkpt lat="46.15113" lon="6.47284">
        <ele>599.7265625</ele>
        <time>2021-06-27T08:29:49Z</time>
      </trkpt>
      <trkpt lat="46.15112" lon="6.47282">
        <ele>600.09375</ele>
        <time>2021-06-27T08:29:50Z</time>
      </trkpt>
      <trkpt lat="46.15093" lon="6.47252">
        <ele>604.3203125</ele>
        <time>2021-06-27T08:30:00Z</time>
      </trkpt>
      <trkpt lat="46.15077" lon="6.47224">
        <ele>606.5625</ele>
        <time>2021-06-27T08:30:11Z</time>
      </trkpt>
      <trkpt lat="46.15075" lon="6.47217">
        <ele>607.41796875</ele>
        <time>2021-06-27T08:30:12Z</time>
      </trkpt>
      <trkpt lat="46.15072" lon="6.47209">
        <ele>608.6015625</ele>
        <time>2021-06-27T08:30:14Z</time>
      </trkpt>
      <trkpt lat="46.1507" lon="6.47206">
        <ele>608.83203125</ele>
        <time>2021-06-27T08:30:15Z</time>
      </trkpt>
      <trkpt lat="46.15063" lon="6.47192">
        <ele>609.75390625</ele>
        <time>2021-06-27T08:30:20Z</time>
      </trkpt>
      <trkpt lat="46.15054" lon="6.47164">
        <ele>613.4140625</ele>
        <time>2021-06-27T08:30:30Z</time>
      </trkpt>
      <trkpt lat="46.15043" lon="6.47128">
        <ele>618.09765625</ele>
        <time>2021-06-27T08:30:43Z</time>
      </trkpt>
      <trkpt lat="46.15024" lon="6.47089">
        <ele>622.6015625</ele>
        <time>2021-06-27T08:30:56Z</time>
      </trkpt>
      <trkpt lat="46.15001" lon="6.47066">
        <ele>625.01953125</ele>
        <time>2021-06-27T08:31:08Z</time>
      </trkpt>
      <trkpt lat="46.14973" lon="6.47044">
        <ele>630.41015625</ele>
        <time>2021-06-27T08:31:23Z</time>
      </trkpt>
      <trkpt lat="46.14969" lon="6.47036">
        <ele>632.60546875</ele>
        <time>2021-06-27T08:31:35Z</time>
      </trkpt>
      <trkpt lat="46.14967" lon="6.47034">
        <ele>633.1796875</ele>
        <time>2021-06-27T08:31:41Z</time>
      </trkpt>
      <trkpt lat="46.14966" lon="6.47033">
        <ele>633.5390625</ele>
        <time>2021-06-27T08:31:42Z</time>
      </trkpt>
      <trkpt lat="46.14966" lon="6.47032">
        <ele>633.93359375</ele>
        <time>2021-06-27T08:31:43Z</time>
      </trkpt>
      <trkpt lat="46.14963" lon="6.47031">
        <ele>634.20703125</ele>
        <time>2021-06-27T08:31:58Z</time>
      </trkpt>
      <trkpt lat="46.1494" lon="6.46999">
        <ele>640.26953125</ele>
        <time>2021-06-27T08:32:09Z</time>
      </trkpt>
      <trkpt lat="46.14931" lon="6.46982">
        <ele>642.3046875</ele>
        <time>2021-06-27T08:32:13Z</time>
      </trkpt>
      <trkpt lat="46.14928" lon="6.46978">
        <ele>642.6484375</ele>
        <time>2021-06-27T08:32:14Z</time>
      </trkpt>
      <trkpt lat="46.14924" lon="6.46975">
        <ele>642.875</ele>
        <time>2021-06-27T08:32:15Z</time>
      </trkpt>
      <trkpt lat="46.14921" lon="6.46971">
        <ele>643.1328125</ele>
        <time>2021-06-27T08:32:16Z</time>
      </trkpt>
      <trkpt lat="46.14918" lon="6.46968">
        <ele>643.4375</ele>
        <time>2021-06-27T08:32:17Z</time>
      </trkpt>
      <trkpt lat="46.14884" lon="6.46926">
        <ele>644.06640625</ele>
        <time>2021-06-27T08:32:31Z</time>
      </trkpt>
      <trkpt lat="46.14883" lon="6.46927">
        <ele>643.9296875</ele>
        <time>2021-06-27T08:32:32Z</time>
      </trkpt>
      <trkpt lat="46.1486" lon="6.46954">
        <ele>641.11328125</ele>
        <time>2021-06-27T08:32:42Z</time>
      </trkpt>
      <trkpt lat="46.14856" lon="6.46957">
        <ele>640.71484375</ele>
        <time>2021-06-27T08:32:43Z</time>
      </trkpt>
      <trkpt lat="46.14851" lon="6.4696">
        <ele>640.08984375</ele>
        <time>2021-06-27T08:32:44Z</time>
      </trkpt>
      <trkpt lat="46.14802" lon="6.46994">
        <ele>633.1171875</ele>
        <time>2021-06-27T08:32:53Z</time>
      </trkpt>
      <trkpt lat="46.14784" lon="6.47015">
        <ele>629.96484375</ele>
        <time>2021-06-27T08:32:56Z</time>
      </trkpt>
      <trkpt lat="46.14754" lon="6.47055">
        <ele>622.40625</ele>
        <time>2021-06-27T08:33:01Z</time>
      </trkpt>
      <trkpt lat="46.14749" lon="6.47062">
        <ele>620.55859375</ele>
        <time>2021-06-27T08:33:02Z</time>
      </trkpt>
      <trkpt lat="46.14743" lon="6.47067">
        <ele>619.3203125</ele>
        <time>2021-06-27T08:33:03Z</time>
      </trkpt>
      <trkpt lat="46.14737" lon="6.4707">
        <ele>618.4921875</ele>
        <time>2021-06-27T08:33:04Z</time>
      </trkpt>
      <trkpt lat="46.1473" lon="6.47073">
        <ele>617.97265625</ele>
        <time>2021-06-27T08:33:05Z</time>
      </trkpt>
      <trkpt lat="46.14724" lon="6.47075">
        <ele>617.4921875</ele>
        <time>2021-06-27T08:33:06Z</time>
      </trkpt>
      <trkpt lat="46.14717" lon="6.47079">
        <ele>616.65625</ele>
        <time>2021-06-27T08:33:07Z</time>
      </trkpt>
      <trkpt lat="46.14711" lon="6.47083">
        <ele>615.125</ele>
        <time>2021-06-27T08:33:08Z</time>
      </trkpt>
      <trkpt lat="46.14704" lon="6.47089">
        <ele>613.4765625</ele>
        <time>2021-06-27T08:33:09Z</time>
      </trkpt>
      <trkpt lat="46.14698" lon="6.47093">
        <ele>612.265625</ele>
        <time>2021-06-27T08:33:10Z</time>
      </trkpt>
      <trkpt lat="46.14691" lon="6.47097">
        <ele>611.60546875</ele>
        <time>2021-06-27T08:33:11Z</time>
      </trkpt>
      <trkpt lat="46.14684" lon="6.47099">
        <ele>611.71875</ele>
        <time>2021-06-27T08:33:12Z</time>
      </trkpt>
      <trkpt lat="46.14676" lon="6.47099">
        <ele>612.59765625</ele>
        <time>2021-06-27T08:33:13Z</time>
      </trkpt>
      <trkpt lat="46.14667" lon="6.47097">
        <ele>614.26171875</ele>
        <time>2021-06-27T08:33:14Z</time>
      </trkpt>
      <trkpt lat="46.1466" lon="6.47091">
        <ele>616.109375</ele>
        <time>2021-06-27T08:33:15Z</time>
      </trkpt>
      <trkpt lat="46.14655" lon="6.47085">
        <ele>617.5390625</ele>
        <time>2021-06-27T08:33:16Z</time>
      </trkpt>
      <trkpt lat="46.1465" lon="6.47079">
        <ele>618.83984375</ele>
        <time>2021-06-27T08:33:17Z</time>
      </trkpt>
      <trkpt lat="46.14622" lon="6.47031">
        <ele>624.5078125</ele>
        <time>2021-06-27T08:33:27Z</time>
      </trkpt>
      <trkpt lat="46.14579" lon="6.46943">
        <ele>629.796875</ele>
        <time>2021-06-27T08:33:44Z</time>
      </trkpt>
      <trkpt lat="46.14576" lon="6.46938">
        <ele>630</ele>
        <time>2021-06-27T08:33:45Z</time>
      </trkpt>
      <trkpt lat="46.14541" lon="6.46886">
        <ele>630.921875</ele>
        <time>2021-06-27T08:33:59Z</time>
      </trkpt>
      <trkpt lat="46.14516" lon="6.46843">
        <ele>633.1328125</ele>
        <time>2021-06-27T08:34:11Z</time>
      </trkpt>
      <trkpt lat="46.14512" lon="6.46841">
        <ele>633.40234375</ele>
        <time>2021-06-27T08:34:12Z</time>
      </trkpt>
      <trkpt lat="46.14503" lon="6.46839">
        <ele>633.86328125</ele>
        <time>2021-06-27T08:34:14Z</time>
      </trkpt>
      <trkpt lat="46.14498" lon="6.4684">
        <ele>634.0234375</ele>
        <time>2021-06-27T08:34:15Z</time>
      </trkpt>
      <trkpt lat="46.14494" lon="6.46841">
        <ele>634.07421875</ele>
        <time>2021-06-27T08:34:16Z</time>
      </trkpt>
      <trkpt lat="46.14484" lon="6.46846">
        <ele>633.8828125</ele>
        <time>2021-06-27T08:34:18Z</time>
      </trkpt>
      <trkpt lat="46.14478" lon="6.46846">
        <ele>633.8828125</ele>
        <time>2021-06-27T08:34:19Z</time>
      </trkpt>
      <trkpt lat="46.14431" lon="6.46845">
        <ele>634.15234375</ele>
        <time>2021-06-27T08:34:27Z</time>
      </trkpt>
      <trkpt lat="46.1442" lon="6.46844">
        <ele>634.24609375</ele>
        <time>2021-06-27T08:34:29Z</time>
      </trkpt>
      <trkpt lat="46.14331" lon="6.46832">
        <ele>631.9765625</ele>
        <time>2021-06-27T08:34:44Z</time>
      </trkpt>
      <trkpt lat="46.14281" lon="6.4678">
        <ele>633.39453125</ele>
        <time>2021-06-27T08:34:56Z</time>
      </trkpt>
      <trkpt lat="46.14243" lon="6.46734">
        <ele>636.66796875</ele>
        <time>2021-06-27T08:35:08Z</time>
      </trkpt>
      <trkpt lat="46.1419" lon="6.46694">
        <ele>643.57421875</ele>
        <time>2021-06-27T08:35:23Z</time>
      </trkpt>
      <trkpt lat="46.14162" lon="6.46676">
        <ele>646.94921875</ele>
        <time>2021-06-27T08:35:33Z</time>
      </trkpt>
      <trkpt lat="46.14133" lon="6.46658">
        <ele>646.74609375</ele>
        <time>2021-06-27T08:35:45Z</time>
      </trkpt>
      <trkpt lat="46.1412" lon="6.46653">
        <ele>646.26953125</ele>
        <time>2021-06-27T08:35:48Z</time>
      </trkpt>
      <trkpt lat="46.14115" lon="6.46649">
        <ele>645.84765625</ele>
        <time>2021-06-27T08:35:49Z</time>
      </trkpt>
      <trkpt lat="46.1411" lon="6.46644">
        <ele>645.234375</ele>
        <time>2021-06-27T08:35:50Z</time>
      </trkpt>
      <trkpt lat="46.14106" lon="6.46638">
        <ele>644.51171875</ele>
        <time>2021-06-27T08:35:51Z</time>
      </trkpt>
      <trkpt lat="46.14103" lon="6.46632">
        <ele>643.86328125</ele>
        <time>2021-06-27T08:35:52Z</time>
      </trkpt>
      <trkpt lat="46.141" lon="6.46627">
        <ele>643.51171875</ele>
        <time>2021-06-27T08:35:53Z</time>
      </trkpt>
      <trkpt lat="46.14097" lon="6.46621">
        <ele>643.1171875</ele>
        <time>2021-06-27T08:35:54Z</time>
      </trkpt>
      <trkpt lat="46.14083" lon="6.46593">
        <ele>640.9921875</ele>
        <time>2021-06-27T08:35:58Z</time>
      </trkpt>
      <trkpt lat="46.14075" lon="6.46576">
        <ele>639.83984375</ele>
        <time>2021-06-27T08:36:00Z</time>
      </trkpt>
      <trkpt lat="46.14035" lon="6.46466">
        <ele>635.45703125</ele>
        <time>2021-06-27T08:36:12Z</time>
      </trkpt>
      <trkpt lat="46.14024" lon="6.46429">
        <ele>633.78125</ele>
        <time>2021-06-27T08:36:16Z</time>
      </trkpt>
      <trkpt lat="46.14012" lon="6.46399">
        <ele>631.59375</ele>
        <time>2021-06-27T08:36:20Z</time>
      </trkpt>
      <trkpt lat="46.14009" lon="6.46393">
        <ele>630.8359375</ele>
        <time>2021-06-27T08:36:21Z</time>
      </trkpt>
      <trkpt lat="46.14006" lon="6.46385">
        <ele>629.95703125</ele>
        <time>2021-06-27T08:36:22Z</time>
      </trkpt>
      <trkpt lat="46.14" lon="6.46372">
        <ele>628.05078125</ele>
        <time>2021-06-27T08:36:24Z</time>
      </trkpt>
      <trkpt lat="46.14" lon="6.46366">
        <ele>627.171875</ele>
        <time>2021-06-27T08:36:25Z</time>
      </trkpt>
      <trkpt lat="46.13998" lon="6.46353">
        <ele>625.4921875</ele>
        <time>2021-06-27T08:36:27Z</time>
      </trkpt>
      <trkpt lat="46.13993" lon="6.46333">
        <ele>623.22265625</ele>
        <time>2021-06-27T08:36:34Z</time>
      </trkpt>
      <trkpt lat="46.13991" lon="6.46328">
        <ele>622.69140625</ele>
        <time>2021-06-27T08:36:50Z</time>
      </trkpt>
      <trkpt lat="46.13992" lon="6.46327">
        <ele>622.64453125</ele>
        <time>2021-06-27T08:36:51Z</time>
      </trkpt>
      <trkpt lat="46.13993" lon="6.46311">
        <ele>622.2265625</ele>
        <time>2021-06-27T08:36:56Z</time>
      </trkpt>
      <trkpt lat="46.13988" lon="6.46298">
        <ele>621.0234375</ele>
        <time>2021-06-27T08:36:58Z</time>
      </trkpt>
      <trkpt lat="46.1398" lon="6.46288">
        <ele>619.859375</ele>
        <time>2021-06-27T08:36:59Z</time>
      </trkpt>
      <trkpt lat="46.13971" lon="6.46279">
        <ele>617.99609375</ele>
        <time>2021-06-27T08:37:00Z</time>
      </trkpt>
      <trkpt lat="46.13955" lon="6.46265">
        <ele>615.453125</ele>
        <time>2021-06-27T08:37:02Z</time>
      </trkpt>
      <trkpt lat="46.13938" lon="6.4625">
        <ele>612.86328125</ele>
        <time>2021-06-27T08:37:04Z</time>
      </trkpt>
      <trkpt lat="46.1393" lon="6.46241">
        <ele>611.65234375</ele>
        <time>2021-06-27T08:37:05Z</time>
      </trkpt>
      <trkpt lat="46.13915" lon="6.4622">
        <ele>607.94140625</ele>
        <time>2021-06-27T08:37:07Z</time>
      </trkpt>
      <trkpt lat="46.13907" lon="6.46207">
        <ele>605.90625</ele>
        <time>2021-06-27T08:37:08Z</time>
      </trkpt>
      <trkpt lat="46.13901" lon="6.46194">
        <ele>603.81640625</ele>
        <time>2021-06-27T08:37:09Z</time>
      </trkpt>
      <trkpt lat="46.13865" lon="6.46117">
        <ele>592</ele>
        <time>2021-06-27T08:37:15Z</time>
      </trkpt>
      <trkpt lat="46.13861" lon="6.46104">
        <ele>590.84765625</ele>
        <time>2021-06-27T08:37:16Z</time>
      </trkpt>
      <trkpt lat="46.13858" lon="6.46089">
        <ele>590.42578125</ele>
        <time>2021-06-27T08:37:17Z</time>
      </trkpt>
      <trkpt lat="46.13856" lon="6.46075">
        <ele>590.4296875</ele>
        <time>2021-06-27T08:37:18Z</time>
      </trkpt>
      <trkpt lat="46.13855" lon="6.46061">
        <ele>590.52734375</ele>
        <time>2021-06-27T08:37:19Z</time>
      </trkpt>
      <trkpt lat="46.13852" lon="6.46024">
        <ele>590.98046875</ele>
        <time>2021-06-27T08:37:22Z</time>
      </trkpt>
      <trkpt lat="46.13852" lon="6.46015">
        <ele>590.85546875</ele>
        <time>2021-06-27T08:37:23Z</time>
      </trkpt>
      <trkpt lat="46.13855" lon="6.45987">
        <ele>590.26953125</ele>
        <time>2021-06-27T08:37:26Z</time>
      </trkpt>
      <trkpt lat="46.13856" lon="6.45974">
        <ele>589.5</ele>
        <time>2021-06-27T08:37:28Z</time>
      </trkpt>
      <trkpt lat="46.13857" lon="6.4597">
        <ele>589.49609375</ele>
        <time>2021-06-27T08:37:29Z</time>
      </trkpt>
      <trkpt lat="46.13858" lon="6.45968">
        <ele>589.56640625</ele>
        <time>2021-06-27T08:37:30Z</time>
      </trkpt>
      <trkpt lat="46.1386" lon="6.45965">
        <ele>589.87890625</ele>
        <time>2021-06-27T08:37:32Z</time>
      </trkpt>
      <trkpt lat="46.13856" lon="6.45962">
        <ele>588.953125</ele>
        <time>2021-06-27T08:37:42Z</time>
      </trkpt>
      <trkpt lat="46.1385" lon="6.45953">
        <ele>587.6171875</ele>
        <time>2021-06-27T08:38:11Z</time>
      </trkpt>
      <trkpt lat="46.13845" lon="6.45943">
        <ele>586.48828125</ele>
        <time>2021-06-27T08:38:45Z</time>
      </trkpt>
      <trkpt lat="46.13843" lon="6.45939">
        <ele>586.13671875</ele>
        <time>2021-06-27T08:39:20Z</time>
      </trkpt>
      <trkpt lat="46.13842" lon="6.45943">
        <ele>586.078125</ele>
        <time>2021-06-27T08:39:56Z</time>
      </trkpt>
      <trkpt lat="46.13844" lon="6.45946">
        <ele>586.453125</ele>
        <time>2021-06-27T08:40:08Z</time>
      </trkpt>
      <trkpt lat="46.13846" lon="6.45945">
        <ele>586.73046875</ele>
        <time>2021-06-27T08:40:09Z</time>
      </trkpt>
      <trkpt lat="46.1385" lon="6.45943">
        <ele>587.34765625</ele>
        <time>2021-06-27T08:40:11Z</time>
      </trkpt>
      <trkpt lat="46.13853" lon="6.4594">
        <ele>587.62109375</ele>
        <time>2021-06-27T08:40:12Z</time>
      </trkpt>
      <trkpt lat="46.13855" lon="6.45937">
        <ele>587.78125</ele>
        <time>2021-06-27T08:40:13Z</time>
      </trkpt>
      <trkpt lat="46.13855" lon="6.45932">
        <ele>587.71484375</ele>
        <time>2021-06-27T08:40:14Z</time>
      </trkpt>
      <trkpt lat="46.13854" lon="6.45928">
        <ele>587.40625</ele>
        <time>2021-06-27T08:40:15Z</time>
      </trkpt>
      <trkpt lat="46.13851" lon="6.45925">
        <ele>586.80078125</ele>
        <time>2021-06-27T08:40:16Z</time>
      </trkpt>
      <trkpt lat="46.13847" lon="6.45923">
        <ele>586.140625</ele>
        <time>2021-06-27T08:40:17Z</time>
      </trkpt>
      <trkpt lat="46.13842" lon="6.45924">
        <ele>585.57421875</ele>
        <time>2021-06-27T08:40:18Z</time>
      </trkpt>
      <trkpt lat="46.13839" lon="6.45926">
        <ele>585.09765625</ele>
        <time>2021-06-27T08:40:19Z</time>
      </trkpt>
      <trkpt lat="46.13828" lon="6.45937">
        <ele>583.875</ele>
        <time>2021-06-27T08:40:21Z</time>
      </trkpt>
      <trkpt lat="46.13821" lon="6.45937">
        <ele>582.98828125</ele>
        <time>2021-06-27T08:40:22Z</time>
      </trkpt>
      <trkpt lat="46.1381" lon="6.45935">
        <ele>581.41015625</ele>
        <time>2021-06-27T08:40:25Z</time>
      </trkpt>
      <trkpt lat="46.13809" lon="6.45931">
        <ele>581.23828125</ele>
        <time>2021-06-27T08:40:26Z</time>
      </trkpt>
      <trkpt lat="46.13809" lon="6.45926">
        <ele>581.19140625</ele>
        <time>2021-06-27T08:40:27Z</time>
      </trkpt>
      <trkpt lat="46.13815" lon="6.45858">
        <ele>581.09765625</ele>
        <time>2021-06-27T08:40:36Z</time>
      </trkpt>
      <trkpt lat="46.13816" lon="6.45849">
        <ele>581.00390625</ele>
        <time>2021-06-27T08:40:37Z</time>
      </trkpt>
      <trkpt lat="46.13818" lon="6.45841">
        <ele>581.05859375</ele>
        <time>2021-06-27T08:40:38Z</time>
      </trkpt>
      <trkpt lat="46.13849" lon="6.45716">
        <ele>582.51953125</ele>
        <time>2021-06-27T08:40:54Z</time>
      </trkpt>
      <trkpt lat="46.13852" lon="6.45586">
        <ele>580.73828125</ele>
        <time>2021-06-27T08:41:07Z</time>
      </trkpt>
      <trkpt lat="46.1382" lon="6.45437">
        <ele>578.44921875</ele>
        <time>2021-06-27T08:41:21Z</time>
      </trkpt>
      <trkpt lat="46.13786" lon="6.45346">
        <ele>576.69140625</ele>
        <time>2021-06-27T08:41:31Z</time>
      </trkpt>
      <trkpt lat="46.13761" lon="6.45289">
        <ele>577.84765625</ele>
        <time>2021-06-27T08:41:39Z</time>
      </trkpt>
      <trkpt lat="46.13757" lon="6.45285">
        <ele>578.15234375</ele>
        <time>2021-06-27T08:41:40Z</time>
      </trkpt>
      <trkpt lat="46.13753" lon="6.45282">
        <ele>578.3984375</ele>
        <time>2021-06-27T08:41:41Z</time>
      </trkpt>
      <trkpt lat="46.13748" lon="6.45282">
        <ele>578.54296875</ele>
        <time>2021-06-27T08:41:42Z</time>
      </trkpt>
      <trkpt lat="46.13745" lon="6.45285">
        <ele>578.5625</ele>
        <time>2021-06-27T08:41:43Z</time>
      </trkpt>
      <trkpt lat="46.13742" lon="6.45291">
        <ele>578.4765625</ele>
        <time>2021-06-27T08:41:44Z</time>
      </trkpt>
      <trkpt lat="46.1374" lon="6.45297">
        <ele>578.3046875</ele>
        <time>2021-06-27T08:41:45Z</time>
      </trkpt>
      <trkpt lat="46.13739" lon="6.45304">
        <ele>578.08203125</ele>
        <time>2021-06-27T08:41:46Z</time>
      </trkpt>
      <trkpt lat="46.13739" lon="6.45312">
        <ele>577.83984375</ele>
        <time>2021-06-27T08:41:47Z</time>
      </trkpt>
      <trkpt lat="46.13734" lon="6.45361">
        <ele>577.32421875</ele>
        <time>2021-06-27T08:41:53Z</time>
      </trkpt>
      <trkpt lat="46.1373" lon="6.45368">
        <ele>577.296875</ele>
        <time>2021-06-27T08:41:54Z</time>
      </trkpt>
      <trkpt lat="46.13726" lon="6.45373">
        <ele>577.26953125</ele>
        <time>2021-06-27T08:41:55Z</time>
      </trkpt>
      <trkpt lat="46.13688" lon="6.45396">
        <ele>578.671875</ele>
        <time>2021-06-27T08:42:02Z</time>
      </trkpt>
      <trkpt lat="46.13672" lon="6.45399">
        <ele>579.671875</ele>
        <time>2021-06-27T08:42:05Z</time>
      </trkpt>
      <trkpt lat="46.13668" lon="6.45399">
        <ele>580.01171875</ele>
        <time>2021-06-27T08:42:06Z</time>
      </trkpt>
      <trkpt lat="46.13663" lon="6.45398">
        <ele>580.37109375</ele>
        <time>2021-06-27T08:42:07Z</time>
      </trkpt>
      <trkpt lat="46.13654" lon="6.45395">
        <ele>581.2578125</ele>
        <time>2021-06-27T08:42:09Z</time>
      </trkpt>
      <trkpt lat="46.1362" lon="6.45378">
        <ele>584.59375</ele>
        <time>2021-06-27T08:42:17Z</time>
      </trkpt>
      <trkpt lat="46.13616" lon="6.45376">
        <ele>585.01953125</ele>
        <time>2021-06-27T08:42:18Z</time>
      </trkpt>
      <trkpt lat="46.13611" lon="6.45375">
        <ele>585.44921875</ele>
        <time>2021-06-27T08:42:19Z</time>
      </trkpt>
      <trkpt lat="46.13573" lon="6.45366">
        <ele>588.9765625</ele>
        <time>2021-06-27T08:42:30Z</time>
      </trkpt>
      <trkpt lat="46.13543" lon="6.45353">
        <ele>591.69140625</ele>
        <time>2021-06-27T08:42:42Z</time>
      </trkpt>
      <trkpt lat="46.13509" lon="6.4534">
        <ele>594.80859375</ele>
        <time>2021-06-27T08:42:56Z</time>
      </trkpt>
      <trkpt lat="46.13499" lon="6.45336">
        <ele>595.6796875</ele>
        <time>2021-06-27T08:43:01Z</time>
      </trkpt>
      <trkpt lat="46.13478" lon="6.45329">
        <ele>597.8046875</ele>
        <time>2021-06-27T08:43:11Z</time>
      </trkpt>
      <trkpt lat="46.13449" lon="6.45326">
        <ele>601.625</ele>
        <time>2021-06-27T08:43:22Z</time>
      </trkpt>
      <trkpt lat="46.13423" lon="6.45318">
        <ele>605.15625</ele>
        <time>2021-06-27T08:43:35Z</time>
      </trkpt>
      <trkpt lat="46.13399" lon="6.45305">
        <ele>608.625</ele>
        <time>2021-06-27T08:43:49Z</time>
      </trkpt>
      <trkpt lat="46.13374" lon="6.45283">
        <ele>612.9765625</ele>
        <time>2021-06-27T08:44:05Z</time>
      </trkpt>
      <trkpt lat="46.13357" lon="6.45268">
        <ele>615.99609375</ele>
        <time>2021-06-27T08:44:16Z</time>
      </trkpt>
      <trkpt lat="46.13341" lon="6.45257">
        <ele>618.765625</ele>
        <time>2021-06-27T08:44:26Z</time>
      </trkpt>
      <trkpt lat="46.13323" lon="6.45242">
        <ele>621.8671875</ele>
        <time>2021-06-27T08:44:37Z</time>
      </trkpt>
      <trkpt lat="46.13309" lon="6.4523">
        <ele>624.24609375</ele>
        <time>2021-06-27T08:44:46Z</time>
      </trkpt>
      <trkpt lat="46.13292" lon="6.45212">
        <ele>627.73828125</ele>
        <time>2021-06-27T08:44:58Z</time>
      </trkpt>
      <trkpt lat="46.13276" lon="6.45194">
        <ele>631.2109375</ele>
        <time>2021-06-27T08:45:09Z</time>
      </trkpt>
      <trkpt lat="46.13261" lon="6.45176">
        <ele>634.56640625</ele>
        <time>2021-06-27T08:45:20Z</time>
      </trkpt>
      <trkpt lat="46.13246" lon="6.45158">
        <ele>638.10546875</ele>
        <time>2021-06-27T08:45:31Z</time>
      </trkpt>
      <trkpt lat="46.13232" lon="6.4515">
        <ele>640.92578125</ele>
        <time>2021-06-27T08:45:39Z</time>
      </trkpt>
      <trkpt lat="46.1323" lon="6.4515">
        <ele>641.2578125</ele>
        <time>2021-06-27T08:45:40Z</time>
      </trkpt>
      <trkpt lat="46.13214" lon="6.45142">
        <ele>644.2265625</ele>
        <time>2021-06-27T08:45:50Z</time>
      </trkpt>
      <trkpt lat="46.13201" lon="6.45133">
        <ele>646.41796875</ele>
        <time>2021-06-27T08:45:58Z</time>
      </trkpt>
      <trkpt lat="46.13187" lon="6.45123">
        <ele>649.203125</ele>
        <time>2021-06-27T08:46:07Z</time>
      </trkpt>
      <trkpt lat="46.13172" lon="6.45115">
        <ele>652.62109375</ele>
        <time>2021-06-27T08:46:16Z</time>
      </trkpt>
      <trkpt lat="46.13158" lon="6.45111">
        <ele>655.43359375</ele>
        <time>2021-06-27T08:46:25Z</time>
      </trkpt>
      <trkpt lat="46.1314" lon="6.45111">
        <ele>659.28515625</ele>
        <time>2021-06-27T08:46:36Z</time>
      </trkpt>
      <trkpt lat="46.13124" lon="6.45109">
        <ele>662.90234375</ele>
        <time>2021-06-27T08:46:45Z</time>
      </trkpt>
      <trkpt lat="46.13109" lon="6.45102">
        <ele>666.75</ele>
        <time>2021-06-27T08:46:55Z</time>
      </trkpt>
      <trkpt lat="46.13106" lon="6.45102">
        <ele>667.32421875</ele>
        <time>2021-06-27T08:46:57Z</time>
      </trkpt>
      <trkpt lat="46.13105" lon="6.45102">
        <ele>667.65625</ele>
        <time>2021-06-27T08:46:58Z</time>
      </trkpt>
      <trkpt lat="46.1309" lon="6.45095">
        <ele>672.23828125</ele>
        <time>2021-06-27T08:47:07Z</time>
      </trkpt>
      <trkpt lat="46.13075" lon="6.45089">
        <ele>676.73046875</ele>
        <time>2021-06-27T08:47:16Z</time>
      </trkpt>
      <trkpt lat="46.13064" lon="6.45082">
        <ele>681.70703125</ele>
        <time>2021-06-27T08:47:24Z</time>
      </trkpt>
      <trkpt lat="46.13057" lon="6.45079">
        <ele>684.234375</ele>
        <time>2021-06-27T08:47:27Z</time>
      </trkpt>
      <trkpt lat="46.13056" lon="6.45078">
        <ele>684.66015625</ele>
        <time>2021-06-27T08:47:28Z</time>
      </trkpt>
      <trkpt lat="46.13056" lon="6.45076">
        <ele>685</ele>
        <time>2021-06-27T08:47:29Z</time>
      </trkpt>
      <trkpt lat="46.13056" lon="6.45074">
        <ele>685.04296875</ele>
        <time>2021-06-27T08:47:30Z</time>
      </trkpt>
      <trkpt lat="46.13056" lon="6.45052">
        <ele>685.078125</ele>
        <time>2021-06-27T08:47:39Z</time>
      </trkpt>
      <trkpt lat="46.13054" lon="6.45021">
        <ele>687.05078125</ele>
        <time>2021-06-27T08:47:51Z</time>
      </trkpt>
      <trkpt lat="46.13057" lon="6.44982">
        <ele>688.3671875</ele>
        <time>2021-06-27T08:48:05Z</time>
      </trkpt>
      <trkpt lat="46.13068" lon="6.44934">
        <ele>690.4453125</ele>
        <time>2021-06-27T08:48:19Z</time>
      </trkpt>
      <trkpt lat="46.13076" lon="6.44879">
        <ele>690.828125</ele>
        <time>2021-06-27T08:48:32Z</time>
      </trkpt>
      <trkpt lat="46.13082" lon="6.4487">
        <ele>689.64453125</ele>
        <time>2021-06-27T08:48:35Z</time>
      </trkpt>
      <trkpt lat="46.13084" lon="6.44865">
        <ele>689.3046875</ele>
        <time>2021-06-27T08:48:37Z</time>
      </trkpt>
      <trkpt lat="46.13084" lon="6.44858">
        <ele>689.6171875</ele>
        <time>2021-06-27T08:48:42Z</time>
      </trkpt>
      <trkpt lat="46.13084" lon="6.44854">
        <ele>689.51953125</ele>
        <time>2021-06-27T08:48:43Z</time>
      </trkpt>
      <trkpt lat="46.13085" lon="6.4485">
        <ele>689.3359375</ele>
        <time>2021-06-27T08:48:44Z</time>
      </trkpt>
      <trkpt lat="46.13085" lon="6.44834">
        <ele>689.18359375</ele>
        <time>2021-06-27T08:48:47Z</time>
      </trkpt>
      <trkpt lat="46.13084" lon="6.44829">
        <ele>689.2890625</ele>
        <time>2021-06-27T08:48:48Z</time>
      </trkpt>
      <trkpt lat="46.13083" lon="6.44822">
        <ele>689.66796875</ele>
        <time>2021-06-27T08:48:50Z</time>
      </trkpt>
      <trkpt lat="46.13082" lon="6.44814">
        <ele>689.890625</ele>
        <time>2021-06-27T08:48:52Z</time>
      </trkpt>
      <trkpt lat="46.13082" lon="6.4481">
        <ele>689.734375</ele>
        <time>2021-06-27T08:48:53Z</time>
      </trkpt>
      <trkpt lat="46.13085" lon="6.44797">
        <ele>688.69921875</ele>
        <time>2021-06-27T08:48:56Z</time>
      </trkpt>
      <trkpt lat="46.13094" lon="6.44783">
        <ele>685.48828125</ele>
        <time>2021-06-27T08:49:01Z</time>
      </trkpt>
      <trkpt lat="46.131" lon="6.44769">
        <ele>682.76953125</ele>
        <time>2021-06-27T08:49:05Z</time>
      </trkpt>
      <trkpt lat="46.13104" lon="6.44754">
        <ele>680.77734375</ele>
        <time>2021-06-27T08:49:08Z</time>
      </trkpt>
      <trkpt lat="46.13108" lon="6.44745">
        <ele>679.32421875</ele>
        <time>2021-06-27T08:49:10Z</time>
      </trkpt>
      <trkpt lat="46.13113" lon="6.44733">
        <ele>676.78125</ele>
        <time>2021-06-27T08:49:13Z</time>
      </trkpt>
      <trkpt lat="46.13122" lon="6.44713">
        <ele>672.640625</ele>
        <time>2021-06-27T08:49:17Z</time>
      </trkpt>
      <trkpt lat="46.13124" lon="6.44706">
        <ele>671.51171875</ele>
        <time>2021-06-27T08:49:18Z</time>
      </trkpt>
      <trkpt lat="46.13129" lon="6.44695">
        <ele>669.203125</ele>
        <time>2021-06-27T08:49:20Z</time>
      </trkpt>
      <trkpt lat="46.13134" lon="6.44681">
        <ele>666.33984375</ele>
        <time>2021-06-27T08:49:22Z</time>
      </trkpt>
      <trkpt lat="46.1314" lon="6.44652">
        <ele>661.9375</ele>
        <time>2021-06-27T08:49:26Z</time>
      </trkpt>
      <trkpt lat="46.13143" lon="6.44642">
        <ele>660.38671875</ele>
        <time>2021-06-27T08:49:28Z</time>
      </trkpt>
      <trkpt lat="46.13146" lon="6.44637">
        <ele>659.09765625</ele>
        <time>2021-06-27T08:49:29Z</time>
      </trkpt>
      <trkpt lat="46.13151" lon="6.44626">
        <ele>655.921875</ele>
        <time>2021-06-27T08:49:31Z</time>
      </trkpt>
      <trkpt lat="46.13153" lon="6.44623">
        <ele>654.9140625</ele>
        <time>2021-06-27T08:49:32Z</time>
      </trkpt>
      <trkpt lat="46.1316" lon="6.446">
        <ele>650.28515625</ele>
        <time>2021-06-27T08:49:35Z</time>
      </trkpt>
      <trkpt lat="46.13165" lon="6.44585">
        <ele>647.48046875</ele>
        <time>2021-06-27T08:49:37Z</time>
      </trkpt>
      <trkpt lat="46.1317" lon="6.44566">
        <ele>645.1484375</ele>
        <time>2021-06-27T08:49:41Z</time>
      </trkpt>
      <trkpt lat="46.13171" lon="6.44553">
        <ele>644.53125</ele>
        <time>2021-06-27T08:49:51Z</time>
      </trkpt>
      <trkpt lat="46.13171" lon="6.44545">
        <ele>644.1875</ele>
        <time>2021-06-27T08:50:06Z</time>
      </trkpt>
      <trkpt lat="46.13173" lon="6.44535">
        <ele>643.14453125</ele>
        <time>2021-06-27T08:50:27Z</time>
      </trkpt>
      <trkpt lat="46.13173" lon="6.44522">
        <ele>642.64453125</ele>
        <time>2021-06-27T08:50:45Z</time>
      </trkpt>
      <trkpt lat="46.13184" lon="6.4449">
        <ele>637.03515625</ele>
        <time>2021-06-27T08:50:54Z</time>
      </trkpt>
      <trkpt lat="46.13187" lon="6.44463">
        <ele>634.49609375</ele>
        <time>2021-06-27T08:50:57Z</time>
      </trkpt>
      <trkpt lat="46.13187" lon="6.44453">
        <ele>633.76953125</ele>
        <time>2021-06-27T08:50:58Z</time>
      </trkpt>
      <trkpt lat="46.13194" lon="6.44383">
        <ele>628.35546875</ele>
        <time>2021-06-27T08:51:05Z</time>
      </trkpt>
      <trkpt lat="46.13196" lon="6.44361">
        <ele>627.21875</ele>
        <time>2021-06-27T08:51:07Z</time>
      </trkpt>
      <trkpt lat="46.13198" lon="6.44349">
        <ele>626.06640625</ele>
        <time>2021-06-27T08:51:08Z</time>
      </trkpt>
      <trkpt lat="46.13203" lon="6.44324">
        <ele>623.35546875</ele>
        <time>2021-06-27T08:51:10Z</time>
      </trkpt>
      <trkpt lat="46.13211" lon="6.44276">
        <ele>620.41796875</ele>
        <time>2021-06-27T08:51:14Z</time>
      </trkpt>
      <trkpt lat="46.1321" lon="6.44265">
        <ele>620.734375</ele>
        <time>2021-06-27T08:51:15Z</time>
      </trkpt>
      <trkpt lat="46.13209" lon="6.44256">
        <ele>621.2421875</ele>
        <time>2021-06-27T08:51:16Z</time>
      </trkpt>
      <trkpt lat="46.13208" lon="6.44246">
        <ele>621.47265625</ele>
        <time>2021-06-27T08:51:17Z</time>
      </trkpt>
      <trkpt lat="46.13208" lon="6.44236">
        <ele>621.875</ele>
        <time>2021-06-27T08:51:18Z</time>
      </trkpt>
      <trkpt lat="46.13208" lon="6.44199">
        <ele>623.71484375</ele>
        <time>2021-06-27T08:51:22Z</time>
      </trkpt>
      <trkpt lat="46.13208" lon="6.4419">
        <ele>624.09375</ele>
        <time>2021-06-27T08:51:23Z</time>
      </trkpt>
      <trkpt lat="46.13209" lon="6.44177">
        <ele>624.0625</ele>
        <time>2021-06-27T08:51:25Z</time>
      </trkpt>
      <trkpt lat="46.1321" lon="6.4417">
        <ele>623.82421875</ele>
        <time>2021-06-27T08:51:26Z</time>
      </trkpt>
      <trkpt lat="46.13211" lon="6.44165">
        <ele>623.42578125</ele>
        <time>2021-06-27T08:51:27Z</time>
      </trkpt>
      <trkpt lat="46.13228" lon="6.4411">
        <ele>619.66015625</ele>
        <time>2021-06-27T08:51:38Z</time>
      </trkpt>
      <trkpt lat="46.13229" lon="6.44099">
        <ele>620.10546875</ele>
        <time>2021-06-27T08:51:40Z</time>
      </trkpt>
      <trkpt lat="46.1323" lon="6.44071">
        <ele>621.05078125</ele>
        <time>2021-06-27T08:51:44Z</time>
      </trkpt>
      <trkpt lat="46.13235" lon="6.44033">
        <ele>620.8828125</ele>
        <time>2021-06-27T08:51:49Z</time>
      </trkpt>
      <trkpt lat="46.13235" lon="6.44002">
        <ele>622.57421875</ele>
        <time>2021-06-27T08:51:53Z</time>
      </trkpt>
      <trkpt lat="46.13232" lon="6.4394">
        <ele>627.8515625</ele>
        <time>2021-06-27T08:52:04Z</time>
      </trkpt>
      <trkpt lat="46.13245" lon="6.43901">
        <ele>622.62890625</ele>
        <time>2021-06-27T08:52:15Z</time>
      </trkpt>
      <trkpt lat="46.13256" lon="6.43851">
        <ele>621.609375</ele>
        <time>2021-06-27T08:52:26Z</time>
      </trkpt>
      <trkpt lat="46.13258" lon="6.43805">
        <ele>625.74609375</ele>
        <time>2021-06-27T08:52:34Z</time>
      </trkpt>
      <trkpt lat="46.13268" lon="6.4376">
        <ele>627.9609375</ele>
        <time>2021-06-27T08:52:45Z</time>
      </trkpt>
      <trkpt lat="46.13299" lon="6.43711">
        <ele>622.703125</ele>
        <time>2021-06-27T08:52:59Z</time>
      </trkpt>
      <trkpt lat="46.13303" lon="6.43664">
        <ele>632.8359375</ele>
        <time>2021-06-27T08:53:10Z</time>
      </trkpt>
      <trkpt lat="46.13307" lon="6.43617">
        <ele>635.7109375</ele>
        <time>2021-06-27T08:53:21Z</time>
      </trkpt>
      <trkpt lat="46.13294" lon="6.43566">
        <ele>640.48828125</ele>
        <time>2021-06-27T08:53:33Z</time>
      </trkpt>
      <trkpt lat="46.13289" lon="6.43546">
        <ele>641.26171875</ele>
        <time>2021-06-27T08:53:38Z</time>
      </trkpt>
      <trkpt lat="46.13291" lon="6.43483">
        <ele>637.01171875</ele>
        <time>2021-06-27T08:53:52Z</time>
      </trkpt>
      <trkpt lat="46.13294" lon="6.43471">
        <ele>635.3984375</ele>
        <time>2021-06-27T08:53:54Z</time>
      </trkpt>
      <trkpt lat="46.13298" lon="6.43456">
        <ele>634.0625</ele>
        <time>2021-06-27T08:53:56Z</time>
      </trkpt>
      <trkpt lat="46.13325" lon="6.43354">
        <ele>634.01953125</ele>
        <time>2021-06-27T08:54:11Z</time>
      </trkpt>
      <trkpt lat="46.13328" lon="6.4335">
        <ele>634.28515625</ele>
        <time>2021-06-27T08:54:12Z</time>
      </trkpt>
      <trkpt lat="46.13331" lon="6.43346">
        <ele>634.5078125</ele>
        <time>2021-06-27T08:54:13Z</time>
      </trkpt>
      <trkpt lat="46.13334" lon="6.43345">
        <ele>634.6640625</ele>
        <time>2021-06-27T08:54:14Z</time>
      </trkpt>
      <trkpt lat="46.13337" lon="6.43347">
        <ele>634.71875</ele>
        <time>2021-06-27T08:54:15Z</time>
      </trkpt>
      <trkpt lat="46.13339" lon="6.4335">
        <ele>634.68359375</ele>
        <time>2021-06-27T08:54:16Z</time>
      </trkpt>
      <trkpt lat="46.13341" lon="6.43354">
        <ele>634.62109375</ele>
        <time>2021-06-27T08:54:17Z</time>
      </trkpt>
      <trkpt lat="46.13377" lon="6.43397">
        <ele>633.734375</ele>
        <time>2021-06-27T08:54:28Z</time>
      </trkpt>
      <trkpt lat="46.13382" lon="6.43399">
        <ele>633.52734375</ele>
        <time>2021-06-27T08:54:29Z</time>
      </trkpt>
      <trkpt lat="46.1339" lon="6.43404">
        <ele>632.8359375</ele>
        <time>2021-06-27T08:54:31Z</time>
      </trkpt>
      <trkpt lat="46.13403" lon="6.43407">
        <ele>631.95703125</ele>
        <time>2021-06-27T08:54:34Z</time>
      </trkpt>
      <trkpt lat="46.13408" lon="6.43407">
        <ele>631.796875</ele>
        <time>2021-06-27T08:54:35Z</time>
      </trkpt>
      <trkpt lat="46.13495" lon="6.43403">
        <ele>628.1875</ele>
        <time>2021-06-27T08:54:51Z</time>
      </trkpt>
      <trkpt lat="46.13545" lon="6.43411">
        <ele>629.83984375</ele>
        <time>2021-06-27T08:54:58Z</time>
      </trkpt>
      <trkpt lat="46.13578" lon="6.43411">
        <ele>628.9765625</ele>
        <time>2021-06-27T08:55:02Z</time>
      </trkpt>
      <trkpt lat="46.13587" lon="6.4341">
        <ele>628.390625</ele>
        <time>2021-06-27T08:55:03Z</time>
      </trkpt>
      <trkpt lat="46.13596" lon="6.43407">
        <ele>627.859375</ele>
        <time>2021-06-27T08:55:04Z</time>
      </trkpt>
      <trkpt lat="46.13604" lon="6.43404">
        <ele>627.421875</ele>
        <time>2021-06-27T08:55:05Z</time>
      </trkpt>
      <trkpt lat="46.13613" lon="6.434">
        <ele>626.96875</ele>
        <time>2021-06-27T08:55:06Z</time>
      </trkpt>
      <trkpt lat="46.13622" lon="6.43395">
        <ele>626.51953125</ele>
        <time>2021-06-27T08:55:07Z</time>
      </trkpt>
      <trkpt lat="46.13639" lon="6.43385">
        <ele>625.82421875</ele>
        <time>2021-06-27T08:55:09Z</time>
      </trkpt>
      <trkpt lat="46.13666" lon="6.43373">
        <ele>624.72265625</ele>
        <time>2021-06-27T08:55:12Z</time>
      </trkpt>
      <trkpt lat="46.13676" lon="6.43371">
        <ele>624.19921875</ele>
        <time>2021-06-27T08:55:13Z</time>
      </trkpt>
      <trkpt lat="46.13685" lon="6.43373">
        <ele>623.72265625</ele>
        <time>2021-06-27T08:55:14Z</time>
      </trkpt>
      <trkpt lat="46.13694" lon="6.43376">
        <ele>623.04296875</ele>
        <time>2021-06-27T08:55:15Z</time>
      </trkpt>
      <trkpt lat="46.13703" lon="6.43381">
        <ele>622.2734375</ele>
        <time>2021-06-27T08:55:16Z</time>
      </trkpt>
      <trkpt lat="46.13711" lon="6.43388">
        <ele>621.6484375</ele>
        <time>2021-06-27T08:55:17Z</time>
      </trkpt>
      <trkpt lat="46.13718" lon="6.43397">
        <ele>621.19140625</ele>
        <time>2021-06-27T08:55:18Z</time>
      </trkpt>
      <trkpt lat="46.13724" lon="6.43407">
        <ele>620.8671875</ele>
        <time>2021-06-27T08:55:19Z</time>
      </trkpt>
      <trkpt lat="46.1373" lon="6.43418">
        <ele>620.77734375</ele>
        <time>2021-06-27T08:55:20Z</time>
      </trkpt>
      <trkpt lat="46.13735" lon="6.43428">
        <ele>620.87109375</ele>
        <time>2021-06-27T08:55:21Z</time>
      </trkpt>
      <trkpt lat="46.13756" lon="6.43475">
        <ele>619.46484375</ele>
        <time>2021-06-27T08:55:29Z</time>
      </trkpt>
      <trkpt lat="46.13761" lon="6.4348">
        <ele>619.25390625</ele>
        <time>2021-06-27T08:55:31Z</time>
      </trkpt>
      <trkpt lat="46.13762" lon="6.43479">
        <ele>619.23828125</ele>
        <time>2021-06-27T08:55:32Z</time>
      </trkpt>
      <trkpt lat="46.13763" lon="6.43475">
        <ele>619.265625</ele>
        <time>2021-06-27T08:55:33Z</time>
      </trkpt>
      <trkpt lat="46.13762" lon="6.43471">
        <ele>619.328125</ele>
        <time>2021-06-27T08:55:34Z</time>
      </trkpt>
      <trkpt lat="46.13762" lon="6.43466">
        <ele>619.3515625</ele>
        <time>2021-06-27T08:55:35Z</time>
      </trkpt>
      <trkpt lat="46.13761" lon="6.43461">
        <ele>619.359375</ele>
        <time>2021-06-27T08:55:36Z</time>
      </trkpt>
      <trkpt lat="46.13759" lon="6.43455">
        <ele>619.421875</ele>
        <time>2021-06-27T08:55:37Z</time>
      </trkpt>
      <trkpt lat="46.13757" lon="6.43449">
        <ele>619.58203125</ele>
        <time>2021-06-27T08:55:38Z</time>
      </trkpt>
      <trkpt lat="46.13755" lon="6.43442">
        <ele>619.890625</ele>
        <time>2021-06-27T08:55:39Z</time>
      </trkpt>
      <trkpt lat="46.13725" lon="6.4337">
        <ele>619.25390625</ele>
        <time>2021-06-27T08:55:48Z</time>
      </trkpt>
      <trkpt lat="46.13716" lon="6.4335">
        <ele>619.55859375</ele>
        <time>2021-06-27T08:55:51Z</time>
      </trkpt>
      <trkpt lat="46.13713" lon="6.43342">
        <ele>619.33203125</ele>
        <time>2021-06-27T08:55:52Z</time>
      </trkpt>
      <trkpt lat="46.13705" lon="6.43296">
        <ele>618.3125</ele>
        <time>2021-06-27T08:55:57Z</time>
      </trkpt>
      <trkpt lat="46.13705" lon="6.43275">
        <ele>617.4765625</ele>
        <time>2021-06-27T08:55:59Z</time>
      </trkpt>
      <trkpt lat="46.13708" lon="6.43225">
        <ele>614.1640625</ele>
        <time>2021-06-27T08:56:04Z</time>
      </trkpt>
      <trkpt lat="46.13708" lon="6.43216">
        <ele>613.75390625</ele>
        <time>2021-06-27T08:56:05Z</time>
      </trkpt>
      <trkpt lat="46.13704" lon="6.43194">
        <ele>614.86328125</ele>
        <time>2021-06-27T08:56:11Z</time>
      </trkpt>
      <trkpt lat="46.13703" lon="6.43182">
        <ele>615.421875</ele>
        <time>2021-06-27T08:56:26Z</time>
      </trkpt>
      <trkpt lat="46.13702" lon="6.43171">
        <ele>615.30078125</ele>
        <time>2021-06-27T08:56:41Z</time>
      </trkpt>
      <trkpt lat="46.13703" lon="6.43169">
        <ele>615.1640625</ele>
        <time>2021-06-27T08:56:42Z</time>
      </trkpt>
      <trkpt lat="46.13703" lon="6.43166">
        <ele>615.140625</ele>
        <time>2021-06-27T08:56:43Z</time>
      </trkpt>
      <trkpt lat="46.13703" lon="6.43163">
        <ele>614.76953125</ele>
        <time>2021-06-27T08:56:44Z</time>
      </trkpt>
      <trkpt lat="46.13704" lon="6.43159">
        <ele>614.12890625</ele>
        <time>2021-06-27T08:56:45Z</time>
      </trkpt>
      <trkpt lat="46.13705" lon="6.43156">
        <ele>613.40234375</ele>
        <time>2021-06-27T08:56:46Z</time>
      </trkpt>
      <trkpt lat="46.13715" lon="6.4313">
        <ele>607.66015625</ele>
        <time>2021-06-27T08:56:53Z</time>
      </trkpt>
      <trkpt lat="46.13716" lon="6.43127">
        <ele>607.11328125</ele>
        <time>2021-06-27T08:56:54Z</time>
      </trkpt>
      <trkpt lat="46.13716" lon="6.43123">
        <ele>606.703125</ele>
        <time>2021-06-27T08:56:55Z</time>
      </trkpt>
      <trkpt lat="46.13711" lon="6.43062">
        <ele>606.4765625</ele>
        <time>2021-06-27T08:57:05Z</time>
      </trkpt>
      <trkpt lat="46.13707" lon="6.42991">
        <ele>606.55078125</ele>
        <time>2021-06-27T08:57:17Z</time>
      </trkpt>
      <trkpt lat="46.1372" lon="6.42974">
        <ele>601.78125</ele>
        <time>2021-06-27T08:57:28Z</time>
      </trkpt>
      <trkpt lat="46.13761" lon="6.42977">
        <ele>599</ele>
        <time>2021-06-27T08:57:40Z</time>
      </trkpt>
      <trkpt lat="46.13786" lon="6.42974">
        <ele>601.015625</ele>
        <time>2021-06-27T08:57:49Z</time>
      </trkpt>
      <trkpt lat="46.1381" lon="6.42973">
        <ele>604.40625</ele>
        <time>2021-06-27T08:57:59Z</time>
      </trkpt>
      <trkpt lat="46.13812" lon="6.42973">
        <ele>604.71484375</ele>
        <time>2021-06-27T08:58:00Z</time>
      </trkpt>
      <trkpt lat="46.13835" lon="6.42969">
        <ele>608.28515625</ele>
        <time>2021-06-27T08:58:11Z</time>
      </trkpt>
      <trkpt lat="46.13861" lon="6.42965">
        <ele>612.5703125</ele>
        <time>2021-06-27T08:58:23Z</time>
      </trkpt>
      <trkpt lat="46.13889" lon="6.42947">
        <ele>615.41796875</ele>
        <time>2021-06-27T08:58:36Z</time>
      </trkpt>
      <trkpt lat="46.13904" lon="6.42917">
        <ele>615.59765625</ele>
        <time>2021-06-27T08:58:42Z</time>
      </trkpt>
      <trkpt lat="46.13907" lon="6.42914">
        <ele>615.7265625</ele>
        <time>2021-06-27T08:58:43Z</time>
      </trkpt>
      <trkpt lat="46.13912" lon="6.42912">
        <ele>615.97265625</ele>
        <time>2021-06-27T08:58:44Z</time>
      </trkpt>
      <trkpt lat="46.13916" lon="6.42913">
        <ele>616.13671875</ele>
        <time>2021-06-27T08:58:45Z</time>
      </trkpt>
      <trkpt lat="46.1392" lon="6.42913">
        <ele>616.3125</ele>
        <time>2021-06-27T08:58:46Z</time>
      </trkpt>
      <trkpt lat="46.13925" lon="6.42913">
        <ele>616.4609375</ele>
        <time>2021-06-27T08:58:47Z</time>
      </trkpt>
      <trkpt lat="46.13929" lon="6.42912">
        <ele>616.59375</ele>
        <time>2021-06-27T08:58:48Z</time>
      </trkpt>
      <trkpt lat="46.13979" lon="6.42902">
        <ele>617.7890625</ele>
        <time>2021-06-27T08:58:59Z</time>
      </trkpt>
      <trkpt lat="46.13987" lon="6.42898">
        <ele>617.953125</ele>
        <time>2021-06-27T08:59:01Z</time>
      </trkpt>
      <trkpt lat="46.14038" lon="6.42879">
        <ele>620.3671875</ele>
        <time>2021-06-27T08:59:13Z</time>
      </trkpt>
      <trkpt lat="46.14046" lon="6.42872">
        <ele>619.6484375</ele>
        <time>2021-06-27T08:59:15Z</time>
      </trkpt>
      <trkpt lat="46.1405" lon="6.42866">
        <ele>618.828125</ele>
        <time>2021-06-27T08:59:16Z</time>
      </trkpt>
      <trkpt lat="46.14053" lon="6.42859">
        <ele>618.08984375</ele>
        <time>2021-06-27T08:59:17Z</time>
      </trkpt>
      <trkpt lat="46.14056" lon="6.42851">
        <ele>617.73828125</ele>
        <time>2021-06-27T08:59:18Z</time>
      </trkpt>
      <trkpt lat="46.1406" lon="6.42837">
        <ele>616.8125</ele>
        <time>2021-06-27T08:59:20Z</time>
      </trkpt>
      <trkpt lat="46.14062" lon="6.42831">
        <ele>616.30859375</ele>
        <time>2021-06-27T08:59:21Z</time>
      </trkpt>
      <trkpt lat="46.14065" lon="6.42825">
        <ele>616.11328125</ele>
        <time>2021-06-27T08:59:22Z</time>
      </trkpt>
      <trkpt lat="46.14069" lon="6.42821">
        <ele>616.11328125</ele>
        <time>2021-06-27T08:59:23Z</time>
      </trkpt>
      <trkpt lat="46.14074" lon="6.42817">
        <ele>616.1640625</ele>
        <time>2021-06-27T08:59:24Z</time>
      </trkpt>
      <trkpt lat="46.14078" lon="6.42812">
        <ele>615.96875</ele>
        <time>2021-06-27T08:59:25Z</time>
      </trkpt>
      <trkpt lat="46.14082" lon="6.42806">
        <ele>615.49609375</ele>
        <time>2021-06-27T08:59:26Z</time>
      </trkpt>
      <trkpt lat="46.14085" lon="6.428">
        <ele>615.05859375</ele>
        <time>2021-06-27T08:59:27Z</time>
      </trkpt>
      <trkpt lat="46.14158" lon="6.4273">
        <ele>611.73046875</ele>
        <time>2021-06-27T08:59:42Z</time>
      </trkpt>
      <trkpt lat="46.14164" lon="6.42725">
        <ele>611.4921875</ele>
        <time>2021-06-27T08:59:43Z</time>
      </trkpt>
      <trkpt lat="46.14243" lon="6.42634">
        <ele>610.95703125</ele>
        <time>2021-06-27T09:00:00Z</time>
      </trkpt>
      <trkpt lat="46.14288" lon="6.42558">
        <ele>613.15625</ele>
        <time>2021-06-27T09:00:13Z</time>
      </trkpt>
      <trkpt lat="46.1429" lon="6.42552">
        <ele>613.31640625</ele>
        <time>2021-06-27T09:00:14Z</time>
      </trkpt>
      <trkpt lat="46.14308" lon="6.42514">
        <ele>615.578125</ele>
        <time>2021-06-27T09:00:23Z</time>
      </trkpt>
      <trkpt lat="46.14324" lon="6.42485">
        <ele>618.12109375</ele>
        <time>2021-06-27T09:00:32Z</time>
      </trkpt>
      <trkpt lat="46.14338" lon="6.42468">
        <ele>619.1640625</ele>
        <time>2021-06-27T09:00:39Z</time>
      </trkpt>
      <trkpt lat="46.14358" lon="6.42437">
        <ele>621.3359375</ele>
        <time>2021-06-27T09:00:50Z</time>
      </trkpt>
      <trkpt lat="46.14361" lon="6.4243">
        <ele>621.609375</ele>
        <time>2021-06-27T09:00:52Z</time>
      </trkpt>
      <trkpt lat="46.1438" lon="6.42385">
        <ele>623.7890625</ele>
        <time>2021-06-27T09:01:06Z</time>
      </trkpt>
      <trkpt lat="46.1438" lon="6.42387">
        <ele>623.76953125</ele>
        <time>2021-06-27T09:01:28Z</time>
      </trkpt>
      <trkpt lat="46.14386" lon="6.42373">
        <ele>624.1484375</ele>
        <time>2021-06-27T09:01:56Z</time>
      </trkpt>
      <trkpt lat="46.1439" lon="6.42364">
        <ele>624.30859375</ele>
        <time>2021-06-27T09:01:58Z</time>
      </trkpt>
      <trkpt lat="46.14401" lon="6.42344">
        <ele>624.66796875</ele>
        <time>2021-06-27T09:02:02Z</time>
      </trkpt>
      <trkpt lat="46.14405" lon="6.42339">
        <ele>624.796875</ele>
        <time>2021-06-27T09:02:03Z</time>
      </trkpt>
      <trkpt lat="46.14409" lon="6.42335">
        <ele>624.93359375</ele>
        <time>2021-06-27T09:02:04Z</time>
      </trkpt>
      <trkpt lat="46.14413" lon="6.42331">
        <ele>625.078125</ele>
        <time>2021-06-27T09:02:05Z</time>
      </trkpt>
      <trkpt lat="46.14417" lon="6.42328">
        <ele>625.10546875</ele>
        <time>2021-06-27T09:02:06Z</time>
      </trkpt>
      <trkpt lat="46.14421" lon="6.42325">
        <ele>625.15234375</ele>
        <time>2021-06-27T09:02:07Z</time>
      </trkpt>
      <trkpt lat="46.14426" lon="6.42322">
        <ele>625.23046875</ele>
        <time>2021-06-27T09:02:08Z</time>
      </trkpt>
      <trkpt lat="46.1443" lon="6.42321">
        <ele>625.33984375</ele>
        <time>2021-06-27T09:02:09Z</time>
      </trkpt>
      <trkpt lat="46.14435" lon="6.4232">
        <ele>625.46875</ele>
        <time>2021-06-27T09:02:10Z</time>
      </trkpt>
      <trkpt lat="46.1444" lon="6.42319">
        <ele>625.65234375</ele>
        <time>2021-06-27T09:02:11Z</time>
      </trkpt>
      <trkpt lat="46.14445" lon="6.42319">
        <ele>625.91796875</ele>
        <time>2021-06-27T09:02:12Z</time>
      </trkpt>
      <trkpt lat="46.1445" lon="6.4232">
        <ele>626.19140625</ele>
        <time>2021-06-27T09:02:13Z</time>
      </trkpt>
      <trkpt lat="46.14465" lon="6.42326">
        <ele>626.9296875</ele>
        <time>2021-06-27T09:02:16Z</time>
      </trkpt>
      <trkpt lat="46.14536" lon="6.42337">
        <ele>631.63671875</ele>
        <time>2021-06-27T09:02:33Z</time>
      </trkpt>
      <trkpt lat="46.14562" lon="6.42298">
        <ele>633.75390625</ele>
        <time>2021-06-27T09:02:43Z</time>
      </trkpt>
      <trkpt lat="46.14595" lon="6.42254">
        <ele>636.12890625</ele>
        <time>2021-06-27T09:02:56Z</time>
      </trkpt>
      <trkpt lat="46.14633" lon="6.42218">
        <ele>639.94921875</ele>
        <time>2021-06-27T09:03:09Z</time>
      </trkpt>
      <trkpt lat="46.14663" lon="6.42192">
        <ele>642.39453125</ele>
        <time>2021-06-27T09:03:21Z</time>
      </trkpt>
      <trkpt lat="46.14694" lon="6.42151">
        <ele>645.13671875</ele>
        <time>2021-06-27T09:03:34Z</time>
      </trkpt>
      <trkpt lat="46.14725" lon="6.42063">
        <ele>644.140625</ele>
        <time>2021-06-27T09:03:46Z</time>
      </trkpt>
      <trkpt lat="46.14766" lon="6.41955">
        <ele>641.8984375</ele>
        <time>2021-06-27T09:03:58Z</time>
      </trkpt>
      <trkpt lat="46.148" lon="6.41866">
        <ele>640.5859375</ele>
        <time>2021-06-27T09:04:11Z</time>
      </trkpt>
      <trkpt lat="46.148" lon="6.41867">
        <ele>640.62109375</ele>
        <time>2021-06-27T09:04:45Z</time>
      </trkpt>
      <trkpt lat="46.148" lon="6.41864">
        <ele>640.4140625</ele>
        <time>2021-06-27T09:04:51Z</time>
      </trkpt>
      <trkpt lat="46.148" lon="6.41862">
        <ele>640.234375</ele>
        <time>2021-06-27T09:04:52Z</time>
      </trkpt>
      <trkpt lat="46.14799" lon="6.4186">
        <ele>640.01171875</ele>
        <time>2021-06-27T09:04:53Z</time>
      </trkpt>
      <trkpt lat="46.14798" lon="6.41857">
        <ele>639.80859375</ele>
        <time>2021-06-27T09:04:54Z</time>
      </trkpt>
      <trkpt lat="46.14796" lon="6.41855">
        <ele>639.58984375</ele>
        <time>2021-06-27T09:04:55Z</time>
      </trkpt>
      <trkpt lat="46.14793" lon="6.41852">
        <ele>639.3046875</ele>
        <time>2021-06-27T09:04:56Z</time>
      </trkpt>
      <trkpt lat="46.14773" lon="6.41827">
        <ele>636.94921875</ele>
        <time>2021-06-27T09:05:01Z</time>
      </trkpt>
      <trkpt lat="46.14769" lon="6.4182">
        <ele>636.37890625</ele>
        <time>2021-06-27T09:05:02Z</time>
      </trkpt>
      <trkpt lat="46.14765" lon="6.41811">
        <ele>635.8359375</ele>
        <time>2021-06-27T09:05:03Z</time>
      </trkpt>
      <trkpt lat="46.14763" lon="6.41802">
        <ele>635.34765625</ele>
        <time>2021-06-27T09:05:04Z</time>
      </trkpt>
      <trkpt lat="46.1476" lon="6.41792">
        <ele>635.1796875</ele>
        <time>2021-06-27T09:05:05Z</time>
      </trkpt>
      <trkpt lat="46.14759" lon="6.41783">
        <ele>635.06640625</ele>
        <time>2021-06-27T09:05:06Z</time>
      </trkpt>
      <trkpt lat="46.14757" lon="6.41773">
        <ele>634.984375</ele>
        <time>2021-06-27T09:05:07Z</time>
      </trkpt>
      <trkpt lat="46.14757" lon="6.41764">
        <ele>634.9453125</ele>
        <time>2021-06-27T09:05:08Z</time>
      </trkpt>
      <trkpt lat="46.14757" lon="6.41755">
        <ele>634.9609375</ele>
        <time>2021-06-27T09:05:09Z</time>
      </trkpt>
      <trkpt lat="46.14758" lon="6.41745">
        <ele>634.96875</ele>
        <time>2021-06-27T09:05:10Z</time>
      </trkpt>
      <trkpt lat="46.14759" lon="6.41736">
        <ele>634.92578125</ele>
        <time>2021-06-27T09:05:11Z</time>
      </trkpt>
      <trkpt lat="46.14761" lon="6.41727">
        <ele>634.90625</ele>
        <time>2021-06-27T09:05:12Z</time>
      </trkpt>
      <trkpt lat="46.14765" lon="6.41671">
        <ele>634.54296875</ele>
        <time>2021-06-27T09:05:18Z</time>
      </trkpt>
      <trkpt lat="46.14764" lon="6.41662">
        <ele>634.48828125</ele>
        <time>2021-06-27T09:05:19Z</time>
      </trkpt>
      <trkpt lat="46.14763" lon="6.41653">
        <ele>634.3984375</ele>
        <time>2021-06-27T09:05:20Z</time>
      </trkpt>
      <trkpt lat="46.1476" lon="6.41626">
        <ele>634.15234375</ele>
        <time>2021-06-27T09:05:23Z</time>
      </trkpt>
      <trkpt lat="46.1476" lon="6.41617">
        <ele>634.16796875</ele>
        <time>2021-06-27T09:05:24Z</time>
      </trkpt>
      <trkpt lat="46.14761" lon="6.41608">
        <ele>634.22265625</ele>
        <time>2021-06-27T09:05:25Z</time>
      </trkpt>
      <trkpt lat="46.14773" lon="6.41534">
        <ele>636.0546875</ele>
        <time>2021-06-27T09:05:35Z</time>
      </trkpt>
      <trkpt lat="46.14773" lon="6.41521">
        <ele>636.09765625</ele>
        <time>2021-06-27T09:05:37Z</time>
      </trkpt>
      <trkpt lat="46.14772" lon="6.41515">
        <ele>636.046875</ele>
        <time>2021-06-27T09:05:38Z</time>
      </trkpt>
      <trkpt lat="46.14771" lon="6.41508">
        <ele>635.953125</ele>
        <time>2021-06-27T09:05:39Z</time>
      </trkpt>
      <trkpt lat="46.14769" lon="6.41502">
        <ele>635.8203125</ele>
        <time>2021-06-27T09:05:40Z</time>
      </trkpt>
      <trkpt lat="46.14767" lon="6.41496">
        <ele>635.76171875</ele>
        <time>2021-06-27T09:05:41Z</time>
      </trkpt>
      <trkpt lat="46.14764" lon="6.41489">
        <ele>635.7734375</ele>
        <time>2021-06-27T09:05:42Z</time>
      </trkpt>
      <trkpt lat="46.14761" lon="6.41484">
        <ele>635.734375</ele>
        <time>2021-06-27T09:05:43Z</time>
      </trkpt>
      <trkpt lat="46.14757" lon="6.41478">
        <ele>635.66796875</ele>
        <time>2021-06-27T09:05:44Z</time>
      </trkpt>
      <trkpt lat="46.14733" lon="6.41441">
        <ele>635.25390625</ele>
        <time>2021-06-27T09:05:51Z</time>
      </trkpt>
      <trkpt lat="46.14731" lon="6.41435">
        <ele>635.30859375</ele>
        <time>2021-06-27T09:05:52Z</time>
      </trkpt>
      <trkpt lat="46.14729" lon="6.41429">
        <ele>635.3984375</ele>
        <time>2021-06-27T09:05:53Z</time>
      </trkpt>
      <trkpt lat="46.14728" lon="6.41423">
        <ele>635.53125</ele>
        <time>2021-06-27T09:05:54Z</time>
      </trkpt>
      <trkpt lat="46.14727" lon="6.41417">
        <ele>635.6953125</ele>
        <time>2021-06-27T09:05:55Z</time>
      </trkpt>
      <trkpt lat="46.14726" lon="6.41411">
        <ele>636.0234375</ele>
        <time>2021-06-27T09:05:56Z</time>
      </trkpt>
      <trkpt lat="46.1472" lon="6.41352">
        <ele>639.17578125</ele>
        <time>2021-06-27T09:06:09Z</time>
      </trkpt>
      <trkpt lat="46.14718" lon="6.41333">
        <ele>640.97265625</ele>
        <time>2021-06-27T09:06:14Z</time>
      </trkpt>
      <trkpt lat="46.14711" lon="6.41299">
        <ele>643.203125</ele>
        <time>2021-06-27T09:06:23Z</time>
      </trkpt>
      <trkpt lat="46.14705" lon="6.41273">
        <ele>645.4921875</ele>
        <time>2021-06-27T09:06:31Z</time>
      </trkpt>
      <trkpt lat="46.14699" lon="6.41243">
        <ele>648.21875</ele>
        <time>2021-06-27T09:06:40Z</time>
      </trkpt>
      <trkpt lat="46.14698" lon="6.41229">
        <ele>649.34765625</ele>
        <time>2021-06-27T09:06:44Z</time>
      </trkpt>
      <trkpt lat="46.14709" lon="6.41169">
        <ele>654.9140625</ele>
        <time>2021-06-27T09:07:00Z</time>
      </trkpt>
      <trkpt lat="46.14719" lon="6.41127">
        <ele>657.54296875</ele>
        <time>2021-06-27T09:07:11Z</time>
      </trkpt>
      <trkpt lat="46.1473" lon="6.41096">
        <ele>659.28515625</ele>
        <time>2021-06-27T09:07:23Z</time>
      </trkpt>
      <trkpt lat="46.14729" lon="6.41096">
        <ele>659.1328125</ele>
        <time>2021-06-27T09:07:37Z</time>
      </trkpt>
      <trkpt lat="46.1473" lon="6.41096">
        <ele>659.24609375</ele>
        <time>2021-06-27T09:08:08Z</time>
      </trkpt>
      <trkpt lat="46.14729" lon="6.41096">
        <ele>659.20703125</ele>
        <time>2021-06-27T09:08:45Z</time>
      </trkpt>
      <trkpt lat="46.14731" lon="6.411">
        <ele>659.2265625</ele>
        <time>2021-06-27T09:09:01Z</time>
      </trkpt>
      <trkpt lat="46.14731" lon="6.41101">
        <ele>659.24609375</ele>
        <time>2021-06-27T09:09:03Z</time>
      </trkpt>
      <trkpt lat="46.14732" lon="6.41104">
        <ele>659.25</ele>
        <time>2021-06-27T09:09:04Z</time>
      </trkpt>
      <trkpt lat="46.14733" lon="6.41106">
        <ele>659.26953125</ele>
        <time>2021-06-27T09:09:05Z</time>
      </trkpt>
      <trkpt lat="46.14734" lon="6.41107">
        <ele>659.328125</ele>
        <time>2021-06-27T09:09:06Z</time>
      </trkpt>
      <trkpt lat="46.14736" lon="6.41108">
        <ele>659.45703125</ele>
        <time>2021-06-27T09:09:07Z</time>
      </trkpt>
      <trkpt lat="46.14738" lon="6.41108">
        <ele>659.62890625</ele>
        <time>2021-06-27T09:09:08Z</time>
      </trkpt>
      <trkpt lat="46.14757" lon="6.41109">
        <ele>660.9453125</ele>
        <time>2021-06-27T09:09:17Z</time>
      </trkpt>
      <trkpt lat="46.14765" lon="6.41116">
        <ele>661.30078125</ele>
        <time>2021-06-27T09:09:20Z</time>
      </trkpt>
      <trkpt lat="46.1477" lon="6.41118">
        <ele>661.58984375</ele>
        <time>2021-06-27T09:09:21Z</time>
      </trkpt>
      <trkpt lat="46.14775" lon="6.41118">
        <ele>661.8125</ele>
        <time>2021-06-27T09:09:22Z</time>
      </trkpt>
      <trkpt lat="46.14778" lon="6.41116">
        <ele>662.0234375</ele>
        <time>2021-06-27T09:09:23Z</time>
      </trkpt>
      <trkpt lat="46.14782" lon="6.41113">
        <ele>662.25390625</ele>
        <time>2021-06-27T09:09:24Z</time>
      </trkpt>
      <trkpt lat="46.148" lon="6.41082">
        <ele>663.98828125</ele>
        <time>2021-06-27T09:09:32Z</time>
      </trkpt>
      <trkpt lat="46.1481" lon="6.41082">
        <ele>663.98046875</ele>
        <time>2021-06-27T09:09:41Z</time>
      </trkpt>
      <trkpt lat="46.14822" lon="6.41061">
        <ele>663.8671875</ele>
        <time>2021-06-27T09:09:54Z</time>
      </trkpt>
      <trkpt lat="46.14826" lon="6.41059">
        <ele>663.96875</ele>
        <time>2021-06-27T09:09:55Z</time>
      </trkpt>
      <trkpt lat="46.14898" lon="6.4106">
        <ele>665</ele>
        <time>2021-06-27T09:10:10Z</time>
      </trkpt>
      <trkpt lat="46.14977" lon="6.41063">
        <ele>666.40625</ele>
        <time>2021-06-27T09:10:25Z</time>
      </trkpt>
      <trkpt lat="46.14988" lon="6.41064">
        <ele>666.78125</ele>
        <time>2021-06-27T09:10:27Z</time>
      </trkpt>
      <trkpt lat="46.14993" lon="6.41063">
        <ele>666.9609375</ele>
        <time>2021-06-27T09:10:28Z</time>
      </trkpt>
      <trkpt lat="46.15061" lon="6.41071">
        <ele>669.41796875</ele>
        <time>2021-06-27T09:10:43Z</time>
      </trkpt>
      <trkpt lat="46.15065" lon="6.41069">
        <ele>669.5546875</ele>
        <time>2021-06-27T09:10:44Z</time>
      </trkpt>
      <trkpt lat="46.15067" lon="6.41064">
        <ele>669.64453125</ele>
        <time>2021-06-27T09:10:45Z</time>
      </trkpt>
      <trkpt lat="46.15094" lon="6.40934">
        <ele>668.94921875</ele>
        <time>2021-06-27T09:11:02Z</time>
      </trkpt>
      <trkpt lat="46.15114" lon="6.40876">
        <ele>668.2265625</ele>
        <time>2021-06-27T09:11:12Z</time>
      </trkpt>
      <trkpt lat="46.1514" lon="6.40789">
        <ele>668.01171875</ele>
        <time>2021-06-27T09:11:25Z</time>
      </trkpt>
      <trkpt lat="46.15149" lon="6.40747">
        <ele>667.1015625</ele>
        <time>2021-06-27T09:11:30Z</time>
      </trkpt>
      <trkpt lat="46.15152" lon="6.40738">
        <ele>666.66796875</ele>
        <time>2021-06-27T09:11:31Z</time>
      </trkpt>
      <trkpt lat="46.15156" lon="6.40729">
        <ele>666.3359375</ele>
        <time>2021-06-27T09:11:32Z</time>
      </trkpt>
      <trkpt lat="46.15161" lon="6.40721">
        <ele>666.09765625</ele>
        <time>2021-06-27T09:11:33Z</time>
      </trkpt>
      <trkpt lat="46.15166" lon="6.40714">
        <ele>666.296875</ele>
        <time>2021-06-27T09:11:34Z</time>
      </trkpt>
      <trkpt lat="46.1524" lon="6.40637">
        <ele>667.7421875</ele>
        <time>2021-06-27T09:11:48Z</time>
      </trkpt>
      <trkpt lat="46.15296" lon="6.40602">
        <ele>669.2109375</ele>
        <time>2021-06-27T09:11:59Z</time>
      </trkpt>
      <trkpt lat="46.153" lon="6.40597">
        <ele>669.19140625</ele>
        <time>2021-06-27T09:12:00Z</time>
      </trkpt>
      <trkpt lat="46.15305" lon="6.40592">
        <ele>669.10546875</ele>
        <time>2021-06-27T09:12:01Z</time>
      </trkpt>
      <trkpt lat="46.15374" lon="6.40504">
        <ele>666.11328125</ele>
        <time>2021-06-27T09:12:15Z</time>
      </trkpt>
      <trkpt lat="46.15405" lon="6.40446">
        <ele>663.0078125</ele>
        <time>2021-06-27T09:12:22Z</time>
      </trkpt>
      <trkpt lat="46.15418" lon="6.40419">
        <ele>661.53125</ele>
        <time>2021-06-27T09:12:25Z</time>
      </trkpt>
      <trkpt lat="46.1545" lon="6.40351">
        <ele>656.34375</ele>
        <time>2021-06-27T09:12:33Z</time>
      </trkpt>
      <trkpt lat="46.15452" lon="6.40343">
        <ele>655.8125</ele>
        <time>2021-06-27T09:12:34Z</time>
      </trkpt>
      <trkpt lat="46.15454" lon="6.40336">
        <ele>655.296875</ele>
        <time>2021-06-27T09:12:35Z</time>
      </trkpt>
      <trkpt lat="46.15458" lon="6.40331">
        <ele>654.921875</ele>
        <time>2021-06-27T09:12:36Z</time>
      </trkpt>
      <trkpt lat="46.15462" lon="6.40328">
        <ele>654.58203125</ele>
        <time>2021-06-27T09:12:37Z</time>
      </trkpt>
      <trkpt lat="46.15466" lon="6.40325">
        <ele>654.2265625</ele>
        <time>2021-06-27T09:12:38Z</time>
      </trkpt>
      <trkpt lat="46.15471" lon="6.40323">
        <ele>653.6640625</ele>
        <time>2021-06-27T09:12:39Z</time>
      </trkpt>
      <trkpt lat="46.15477" lon="6.40323">
        <ele>653.24609375</ele>
        <time>2021-06-27T09:12:40Z</time>
      </trkpt>
      <trkpt lat="46.15483" lon="6.40325">
        <ele>653.015625</ele>
        <time>2021-06-27T09:12:41Z</time>
      </trkpt>
      <trkpt lat="46.15489" lon="6.40328">
        <ele>652.91015625</ele>
        <time>2021-06-27T09:12:42Z</time>
      </trkpt>
      <trkpt lat="46.15496" lon="6.40333">
        <ele>652.9921875</ele>
        <time>2021-06-27T09:12:43Z</time>
      </trkpt>
      <trkpt lat="46.15503" lon="6.40338">
        <ele>653.33203125</ele>
        <time>2021-06-27T09:12:44Z</time>
      </trkpt>
      <trkpt lat="46.1551" lon="6.40342">
        <ele>653.6484375</ele>
        <time>2021-06-27T09:12:45Z</time>
      </trkpt>
      <trkpt lat="46.15516" lon="6.40344">
        <ele>653.8046875</ele>
        <time>2021-06-27T09:12:46Z</time>
      </trkpt>
      <trkpt lat="46.15523" lon="6.40344">
        <ele>653.703125</ele>
        <time>2021-06-27T09:12:47Z</time>
      </trkpt>
      <trkpt lat="46.1553" lon="6.40344">
        <ele>653.41796875</ele>
        <time>2021-06-27T09:12:48Z</time>
      </trkpt>
      <trkpt lat="46.15573" lon="6.4034">
        <ele>651.26171875</ele>
        <time>2021-06-27T09:12:53Z</time>
      </trkpt>
      <trkpt lat="46.15609" lon="6.40334">
        <ele>649.06640625</ele>
        <time>2021-06-27T09:12:57Z</time>
      </trkpt>
      <trkpt lat="46.15617" lon="6.4033">
        <ele>648.20703125</ele>
        <time>2021-06-27T09:12:58Z</time>
      </trkpt>
      <trkpt lat="46.15642" lon="6.40315">
        <ele>645.19140625</ele>
        <time>2021-06-27T09:13:01Z</time>
      </trkpt>
      <trkpt lat="46.15647" lon="6.40309">
        <ele>644.140625</ele>
        <time>2021-06-27T09:13:02Z</time>
      </trkpt>
      <trkpt lat="46.15654" lon="6.403">
        <ele>642.73828125</ele>
        <time>2021-06-27T09:13:05Z</time>
      </trkpt>
      <trkpt lat="46.15655" lon="6.403">
        <ele>642.72265625</ele>
        <time>2021-06-27T09:13:06Z</time>
      </trkpt>
      <trkpt lat="46.15663" lon="6.40322">
        <ele>645.48828125</ele>
        <time>2021-06-27T09:13:14Z</time>
      </trkpt>
      <trkpt lat="46.15672" lon="6.40328">
        <ele>646.40625</ele>
        <time>2021-06-27T09:13:18Z</time>
      </trkpt>
      <trkpt lat="46.15684" lon="6.40329">
        <ele>646.625</ele>
        <time>2021-06-27T09:13:23Z</time>
      </trkpt>
      <trkpt lat="46.15693" lon="6.4033">
        <ele>646.48046875</ele>
        <time>2021-06-27T09:13:28Z</time>
      </trkpt>
      <trkpt lat="46.15707" lon="6.40337">
        <ele>647.08203125</ele>
        <time>2021-06-27T09:13:35Z</time>
      </trkpt>
      <trkpt lat="46.15733" lon="6.40362">
        <ele>649.84375</ele>
        <time>2021-06-27T09:13:47Z</time>
      </trkpt>
      <trkpt lat="46.15776" lon="6.40373">
        <ele>648.6171875</ele>
        <time>2021-06-27T09:13:59Z</time>
      </trkpt>
      <trkpt lat="46.15793" lon="6.40372">
        <ele>647.6171875</ele>
        <time>2021-06-27T09:14:03Z</time>
      </trkpt>
      <trkpt lat="46.15802" lon="6.40375">
        <ele>647.65625</ele>
        <time>2021-06-27T09:14:06Z</time>
      </trkpt>
      <trkpt lat="46.15812" lon="6.40378">
        <ele>647.796875</ele>
        <time>2021-06-27T09:14:10Z</time>
      </trkpt>
      <trkpt lat="46.15842" lon="6.40384">
        <ele>647.9453125</ele>
        <time>2021-06-27T09:14:21Z</time>
      </trkpt>
      <trkpt lat="46.15865" lon="6.40408">
        <ele>649.2265625</ele>
        <time>2021-06-27T09:14:31Z</time>
      </trkpt>
      <trkpt lat="46.15892" lon="6.40437">
        <ele>652.3671875</ele>
        <time>2021-06-27T09:14:42Z</time>
      </trkpt>
      <trkpt lat="46.15905" lon="6.40451">
        <ele>654.08984375</ele>
        <time>2021-06-27T09:14:47Z</time>
      </trkpt>
      <trkpt lat="46.15916" lon="6.40469">
        <ele>656.7578125</ele>
        <time>2021-06-27T09:14:54Z</time>
      </trkpt>
      <trkpt lat="46.15927" lon="6.40482">
        <ele>658.23046875</ele>
        <time>2021-06-27T09:15:04Z</time>
      </trkpt>
      <trkpt lat="46.15926" lon="6.40484">
        <ele>658.453125</ele>
        <time>2021-06-27T09:15:17Z</time>
      </trkpt>
      <trkpt lat="46.15926" lon="6.40486">
        <ele>658.6484375</ele>
        <time>2021-06-27T09:15:45Z</time>
      </trkpt>
      <trkpt lat="46.15922" lon="6.40478">
        <ele>657.7421875</ele>
        <time>2021-06-27T09:16:12Z</time>
      </trkpt>
      <trkpt lat="46.15923" lon="6.40481">
        <ele>658.0546875</ele>
        <time>2021-06-27T09:16:41Z</time>
      </trkpt>
      <trkpt lat="46.15929" lon="6.40479">
        <ele>657.86328125</ele>
        <time>2021-06-27T09:16:57Z</time>
      </trkpt>
      <trkpt lat="46.15945" lon="6.4048">
        <ele>657.56640625</ele>
        <time>2021-06-27T09:17:04Z</time>
      </trkpt>
      <trkpt lat="46.15966" lon="6.40486">
        <ele>657.08203125</ele>
        <time>2021-06-27T09:17:12Z</time>
      </trkpt>
      <trkpt lat="46.15981" lon="6.40487">
        <ele>656.796875</ele>
        <time>2021-06-27T09:17:19Z</time>
      </trkpt>
      <trkpt lat="46.16" lon="6.40495">
        <ele>656.890625</ele>
        <time>2021-06-27T09:17:24Z</time>
      </trkpt>
      <trkpt lat="46.16013" lon="6.40501">
        <ele>657.19921875</ele>
        <time>2021-06-27T09:17:30Z</time>
      </trkpt>
      <trkpt lat="46.16015" lon="6.40507">
        <ele>657.63671875</ele>
        <time>2021-06-27T09:17:32Z</time>
      </trkpt>
      <trkpt lat="46.16024" lon="6.40514">
        <ele>658.08203125</ele>
        <time>2021-06-27T09:17:36Z</time>
      </trkpt>
      <trkpt lat="46.16058" lon="6.40541">
        <ele>658.8671875</ele>
        <time>2021-06-27T09:17:47Z</time>
      </trkpt>
      <trkpt lat="46.1608" lon="6.40571">
        <ele>659.890625</ele>
        <time>2021-06-27T09:17:58Z</time>
      </trkpt>
      <trkpt lat="46.16108" lon="6.40614">
        <ele>663.44140625</ele>
        <time>2021-06-27T09:18:10Z</time>
      </trkpt>
      <trkpt lat="46.16128" lon="6.40657">
        <ele>667.4609375</ele>
        <time>2021-06-27T09:18:21Z</time>
      </trkpt>
      <trkpt lat="46.16135" lon="6.40673">
        <ele>668.98828125</ele>
        <time>2021-06-27T09:18:25Z</time>
      </trkpt>
      <trkpt lat="46.16166" lon="6.40689">
        <ele>668.6875</ele>
        <time>2021-06-27T09:18:37Z</time>
      </trkpt>
      <trkpt lat="46.16193" lon="6.40724">
        <ele>670.26171875</ele>
        <time>2021-06-27T09:18:50Z</time>
      </trkpt>
      <trkpt lat="46.16199" lon="6.40726">
        <ele>670.265625</ele>
        <time>2021-06-27T09:18:53Z</time>
      </trkpt>
      <trkpt lat="46.16215" lon="6.4075">
        <ele>672.19921875</ele>
        <time>2021-06-27T09:19:06Z</time>
      </trkpt>
      <trkpt lat="46.16221" lon="6.40753">
        <ele>672.5703125</ele>
        <time>2021-06-27T09:19:17Z</time>
      </trkpt>
      <trkpt lat="46.16224" lon="6.40753">
        <ele>672.61328125</ele>
        <time>2021-06-27T09:19:32Z</time>
      </trkpt>
      <trkpt lat="46.1623" lon="6.40756">
        <ele>672.91015625</ele>
        <time>2021-06-27T09:19:43Z</time>
      </trkpt>
      <trkpt lat="46.16239" lon="6.40758">
        <ele>673.0390625</ele>
        <time>2021-06-27T09:19:56Z</time>
      </trkpt>
      <trkpt lat="46.16245" lon="6.40764">
        <ele>673.68359375</ele>
        <time>2021-06-27T09:20:10Z</time>
      </trkpt>
      <trkpt lat="46.16249" lon="6.40767">
        <ele>674.05078125</ele>
        <time>2021-06-27T09:20:23Z</time>
      </trkpt>
      <trkpt lat="46.16259" lon="6.40774">
        <ele>674.8046875</ele>
        <time>2021-06-27T09:20:35Z</time>
      </trkpt>
      <trkpt lat="46.16263" lon="6.40778">
        <ele>675.15625</ele>
        <time>2021-06-27T09:20:38Z</time>
      </trkpt>
      <trkpt lat="46.16269" lon="6.40782">
        <ele>675.41796875</ele>
        <time>2021-06-27T09:20:46Z</time>
      </trkpt>
      <trkpt lat="46.16279" lon="6.40786">
        <ele>675.8828125</ele>
        <time>2021-06-27T09:20:53Z</time>
      </trkpt>
      <trkpt lat="46.16286" lon="6.40789">
        <ele>676.18359375</ele>
        <time>2021-06-27T09:20:57Z</time>
      </trkpt>
      <trkpt lat="46.163" lon="6.40803">
        <ele>676.96484375</ele>
        <time>2021-06-27T09:21:07Z</time>
      </trkpt>
      <trkpt lat="46.16308" lon="6.40809">
        <ele>677.58203125</ele>
        <time>2021-06-27T09:21:11Z</time>
      </trkpt>
      <trkpt lat="46.16313" lon="6.40813">
        <ele>678.01171875</ele>
        <time>2021-06-27T09:21:14Z</time>
      </trkpt>
      <trkpt lat="46.16333" lon="6.40865">
        <ele>682.15625</ele>
        <time>2021-06-27T09:21:28Z</time>
      </trkpt>
      <trkpt lat="46.16339" lon="6.40871">
        <ele>682.3046875</ele>
        <time>2021-06-27T09:21:31Z</time>
      </trkpt>
      <trkpt lat="46.16348" lon="6.40888">
        <ele>683.82421875</ele>
        <time>2021-06-27T09:21:43Z</time>
      </trkpt>
      <trkpt lat="46.16356" lon="6.40891">
        <ele>683.7109375</ele>
        <time>2021-06-27T09:21:54Z</time>
      </trkpt>
      <trkpt lat="46.16375" lon="6.40886">
        <ele>682.0703125</ele>
        <time>2021-06-27T09:22:03Z</time>
      </trkpt>
      <trkpt lat="46.16393" lon="6.40873">
        <ele>680.48046875</ele>
        <time>2021-06-27T09:22:12Z</time>
      </trkpt>
      <trkpt lat="46.16411" lon="6.40888">
        <ele>682.15234375</ele>
        <time>2021-06-27T09:22:21Z</time>
      </trkpt>
      <trkpt lat="46.16426" lon="6.40898">
        <ele>683.31640625</ele>
        <time>2021-06-27T09:22:29Z</time>
      </trkpt>
      <trkpt lat="46.16436" lon="6.40896">
        <ele>682.9609375</ele>
        <time>2021-06-27T09:22:35Z</time>
      </trkpt>
      <trkpt lat="46.16447" lon="6.40922">
        <ele>685.65234375</ele>
        <time>2021-06-27T09:22:41Z</time>
      </trkpt>
      <trkpt lat="46.16462" lon="6.40938">
        <ele>686.7421875</ele>
        <time>2021-06-27T09:22:46Z</time>
      </trkpt>
      <trkpt lat="46.16479" lon="6.4096">
        <ele>689.171875</ele>
        <time>2021-06-27T09:22:53Z</time>
      </trkpt>
      <trkpt lat="46.16503" lon="6.40987">
        <ele>691.9453125</ele>
        <time>2021-06-27T09:23:03Z</time>
      </trkpt>
      <trkpt lat="46.1651" lon="6.40987">
        <ele>691.68359375</ele>
        <time>2021-06-27T09:23:07Z</time>
      </trkpt>
      <trkpt lat="46.16539" lon="6.40977">
        <ele>689.78125</ele>
        <time>2021-06-27T09:23:18Z</time>
      </trkpt>
      <trkpt lat="46.16566" lon="6.4098">
        <ele>690.46875</ele>
        <time>2021-06-27T09:23:26Z</time>
      </trkpt>
      <trkpt lat="46.16575" lon="6.40978">
        <ele>690.4921875</ele>
        <time>2021-06-27T09:23:29Z</time>
      </trkpt>
      <trkpt lat="46.16607" lon="6.40975">
        <ele>691.48046875</ele>
        <time>2021-06-27T09:23:40Z</time>
      </trkpt>
      <trkpt lat="46.16608" lon="6.40974">
        <ele>691.56640625</ele>
        <time>2021-06-27T09:23:41Z</time>
      </trkpt>
      <trkpt lat="46.16616" lon="6.40978">
        <ele>692.28515625</ele>
        <time>2021-06-27T09:23:44Z</time>
      </trkpt>
      <trkpt lat="46.16638" lon="6.40971">
        <ele>693.4765625</ele>
        <time>2021-06-27T09:23:52Z</time>
      </trkpt>
      <trkpt lat="46.16642" lon="6.40972">
        <ele>693.8203125</ele>
        <time>2021-06-27T09:23:55Z</time>
      </trkpt>
      <trkpt lat="46.16651" lon="6.40984">
        <ele>694.90234375</ele>
        <time>2021-06-27T09:23:58Z</time>
      </trkpt>
      <trkpt lat="46.16658" lon="6.41025">
        <ele>699.8515625</ele>
        <time>2021-06-27T09:24:07Z</time>
      </trkpt>
      <trkpt lat="46.16655" lon="6.41045">
        <ele>703.42578125</ele>
        <time>2021-06-27T09:24:14Z</time>
      </trkpt>
      <trkpt lat="46.1665" lon="6.41044">
        <ele>703.30078125</ele>
        <time>2021-06-27T09:24:17Z</time>
      </trkpt>
      <trkpt lat="46.16635" lon="6.41047">
        <ele>703.76171875</ele>
        <time>2021-06-27T09:24:26Z</time>
      </trkpt>
      <trkpt lat="46.16607" lon="6.41068">
        <ele>707.08984375</ele>
        <time>2021-06-27T09:24:39Z</time>
      </trkpt>
      <trkpt lat="46.16575" lon="6.41074">
        <ele>707.6796875</ele>
        <time>2021-06-27T09:24:52Z</time>
      </trkpt>
      <trkpt lat="46.16551" lon="6.41079">
        <ele>707.65234375</ele>
        <time>2021-06-27T09:25:03Z</time>
      </trkpt>
      <trkpt lat="46.1654" lon="6.4109">
        <ele>709.234375</ele>
        <time>2021-06-27T09:25:09Z</time>
      </trkpt>
      <trkpt lat="46.16539" lon="6.41092">
        <ele>709.65625</ele>
        <time>2021-06-27T09:25:10Z</time>
      </trkpt>
      <trkpt lat="46.1654" lon="6.41095">
        <ele>710.05859375</ele>
        <time>2021-06-27T09:25:11Z</time>
      </trkpt>
      <trkpt lat="46.16541" lon="6.41097">
        <ele>710.33203125</ele>
        <time>2021-06-27T09:25:12Z</time>
      </trkpt>
      <trkpt lat="46.16543" lon="6.41098">
        <ele>710.453125</ele>
        <time>2021-06-27T09:25:13Z</time>
      </trkpt>
      <trkpt lat="46.16544" lon="6.41099">
        <ele>710.58984375</ele>
        <time>2021-06-27T09:25:14Z</time>
      </trkpt>
      <trkpt lat="46.16546" lon="6.41101">
        <ele>710.82421875</ele>
        <time>2021-06-27T09:25:15Z</time>
      </trkpt>
      <trkpt lat="46.16548" lon="6.41104">
        <ele>711.19921875</ele>
        <time>2021-06-27T09:25:16Z</time>
      </trkpt>
      <trkpt lat="46.16549" lon="6.41107">
        <ele>711.64453125</ele>
        <time>2021-06-27T09:25:17Z</time>
      </trkpt>
      <trkpt lat="46.1655" lon="6.4111">
        <ele>712.140625</ele>
        <time>2021-06-27T09:25:18Z</time>
      </trkpt>
      <trkpt lat="46.16551" lon="6.41112">
        <ele>712.6328125</ele>
        <time>2021-06-27T09:25:19Z</time>
      </trkpt>
      <trkpt lat="46.16553" lon="6.41114">
        <ele>713.05078125</ele>
        <time>2021-06-27T09:25:20Z</time>
      </trkpt>
      <trkpt lat="46.16555" lon="6.41116">
        <ele>713.359375</ele>
        <time>2021-06-27T09:25:21Z</time>
      </trkpt>
      <trkpt lat="46.16556" lon="6.41117">
        <ele>713.625</ele>
        <time>2021-06-27T09:25:22Z</time>
      </trkpt>
      <trkpt lat="46.16591" lon="6.41136">
        <ele>716.85546875</ele>
        <time>2021-06-27T09:25:36Z</time>
      </trkpt>
      <trkpt lat="46.16622" lon="6.41168">
        <ele>719.96875</ele>
        <time>2021-06-27T09:25:50Z</time>
      </trkpt>
      <trkpt lat="46.16632" lon="6.41203">
        <ele>724.11328125</ele>
        <time>2021-06-27T09:26:01Z</time>
      </trkpt>
      <trkpt lat="46.16643" lon="6.41243">
        <ele>728.41796875</ele>
        <time>2021-06-27T09:26:13Z</time>
      </trkpt>
      <trkpt lat="46.16655" lon="6.41275">
        <ele>731.9375</ele>
        <time>2021-06-27T09:26:24Z</time>
      </trkpt>
      <trkpt lat="46.16664" lon="6.41304">
        <ele>735.3125</ele>
        <time>2021-06-27T09:26:34Z</time>
      </trkpt>
      <trkpt lat="46.16671" lon="6.41327">
        <ele>738.8515625</ele>
        <time>2021-06-27T09:26:42Z</time>
      </trkpt>
      <trkpt lat="46.16676" lon="6.41344">
        <ele>741.140625</ele>
        <time>2021-06-27T09:26:48Z</time>
      </trkpt>
      <trkpt lat="46.16682" lon="6.41369">
        <ele>744.53515625</ele>
        <time>2021-06-27T09:26:57Z</time>
      </trkpt>
      <trkpt lat="46.16687" lon="6.41388">
        <ele>747.20703125</ele>
        <time>2021-06-27T09:27:04Z</time>
      </trkpt>
      <trkpt lat="46.16695" lon="6.41416">
        <ele>750.84765625</ele>
        <time>2021-06-27T09:27:14Z</time>
      </trkpt>
      <trkpt lat="46.167" lon="6.41446">
        <ele>754.73828125</ele>
        <time>2021-06-27T09:27:24Z</time>
      </trkpt>
      <trkpt lat="46.16714" lon="6.4148">
        <ele>759.6015625</ele>
        <time>2021-06-27T09:27:37Z</time>
      </trkpt>
      <trkpt lat="46.1673" lon="6.41503">
        <ele>761.27734375</ele>
        <time>2021-06-27T09:27:48Z</time>
      </trkpt>
      <trkpt lat="46.16732" lon="6.41504">
        <ele>761.1640625</ele>
        <time>2021-06-27T09:27:49Z</time>
      </trkpt>
      <trkpt lat="46.16774" lon="6.41518">
        <ele>761.7265625</ele>
        <time>2021-06-27T09:28:03Z</time>
      </trkpt>
      <trkpt lat="46.16803" lon="6.41563">
        <ele>766.984375</ele>
        <time>2021-06-27T09:28:16Z</time>
      </trkpt>
      <trkpt lat="46.16831" lon="6.41579">
        <ele>768.92578125</ele>
        <time>2021-06-27T09:28:26Z</time>
      </trkpt>
      <trkpt lat="46.16872" lon="6.41585">
        <ele>770.52734375</ele>
        <time>2021-06-27T09:28:39Z</time>
      </trkpt>
      <trkpt lat="46.16933" lon="6.4159">
        <ele>770.9765625</ele>
        <time>2021-06-27T09:28:56Z</time>
      </trkpt>
      <trkpt lat="46.16979" lon="6.41591">
        <ele>769.43359375</ele>
        <time>2021-06-27T09:29:10Z</time>
      </trkpt>
      <trkpt lat="46.16984" lon="6.41593">
        <ele>769.4296875</ele>
        <time>2021-06-27T09:29:11Z</time>
      </trkpt>
      <trkpt lat="46.16996" lon="6.41594">
        <ele>769.2109375</ele>
        <time>2021-06-27T09:29:14Z</time>
      </trkpt>
      <trkpt lat="46.17" lon="6.41592">
        <ele>768.6640625</ele>
        <time>2021-06-27T09:29:15Z</time>
      </trkpt>
      <trkpt lat="46.17011" lon="6.41585">
        <ele>767.078125</ele>
        <time>2021-06-27T09:29:18Z</time>
      </trkpt>
      <trkpt lat="46.17015" lon="6.41584">
        <ele>766.7578125</ele>
        <time>2021-06-27T09:29:19Z</time>
      </trkpt>
      <trkpt lat="46.17019" lon="6.41585">
        <ele>766.6171875</ele>
        <time>2021-06-27T09:29:20Z</time>
      </trkpt>
      <trkpt lat="46.17073" lon="6.41589">
        <ele>768.9609375</ele>
        <time>2021-06-27T09:29:34Z</time>
      </trkpt>
      <trkpt lat="46.17121" lon="6.41593">
        <ele>771.86328125</ele>
        <time>2021-06-27T09:29:48Z</time>
      </trkpt>
      <trkpt lat="46.17176" lon="6.41609">
        <ele>776.55078125</ele>
        <time>2021-06-27T09:30:02Z</time>
      </trkpt>
      <trkpt lat="46.17191" lon="6.41612">
        <ele>777.42578125</ele>
        <time>2021-06-27T09:30:11Z</time>
      </trkpt>
      <trkpt lat="46.172" lon="6.41615">
        <ele>778.0234375</ele>
        <time>2021-06-27T09:30:16Z</time>
      </trkpt>
      <trkpt lat="46.17206" lon="6.41617">
        <ele>778.33984375</ele>
        <time>2021-06-27T09:30:19Z</time>
      </trkpt>
      <trkpt lat="46.17229" lon="6.41635">
        <ele>780.765625</ele>
        <time>2021-06-27T09:30:27Z</time>
      </trkpt>
      <trkpt lat="46.17272" lon="6.41659">
        <ele>779.15234375</ele>
        <time>2021-06-27T09:30:41Z</time>
      </trkpt>
      <trkpt lat="46.17283" lon="6.41665">
        <ele>778.1484375</ele>
        <time>2021-06-27T09:30:44Z</time>
      </trkpt>
      <trkpt lat="46.17311" lon="6.4169">
        <ele>777.21875</ele>
        <time>2021-06-27T09:30:52Z</time>
      </trkpt>
      <trkpt lat="46.1732" lon="6.41697">
        <ele>777.19921875</ele>
        <time>2021-06-27T09:30:55Z</time>
      </trkpt>
      <trkpt lat="46.17325" lon="6.41698">
        <ele>776.91796875</ele>
        <time>2021-06-27T09:30:56Z</time>
      </trkpt>
      <trkpt lat="46.17329" lon="6.41698">
        <ele>776.57421875</ele>
        <time>2021-06-27T09:30:57Z</time>
      </trkpt>
      <trkpt lat="46.17333" lon="6.41696">
        <ele>776.05078125</ele>
        <time>2021-06-27T09:30:58Z</time>
      </trkpt>
      <trkpt lat="46.17337" lon="6.41694">
        <ele>775.44140625</ele>
        <time>2021-06-27T09:30:59Z</time>
      </trkpt>
      <trkpt lat="46.17385" lon="6.41676">
        <ele>773.44921875</ele>
        <time>2021-06-27T09:31:11Z</time>
      </trkpt>
      <trkpt lat="46.17428" lon="6.41671">
        <ele>775.328125</ele>
        <time>2021-06-27T09:31:23Z</time>
      </trkpt>
      <trkpt lat="46.17463" lon="6.41653">
        <ele>777.01171875</ele>
        <time>2021-06-27T09:31:36Z</time>
      </trkpt>
      <trkpt lat="46.17503" lon="6.41613">
        <ele>779.73046875</ele>
        <time>2021-06-27T09:31:52Z</time>
      </trkpt>
      <trkpt lat="46.17537" lon="6.41597">
        <ele>783.52734375</ele>
        <time>2021-06-27T09:32:05Z</time>
      </trkpt>
      <trkpt lat="46.17566" lon="6.41584">
        <ele>786.21484375</ele>
        <time>2021-06-27T09:32:18Z</time>
      </trkpt>
      <trkpt lat="46.17604" lon="6.4159">
        <ele>789.98046875</ele>
        <time>2021-06-27T09:32:32Z</time>
      </trkpt>
      <trkpt lat="46.17613" lon="6.41595">
        <ele>791.28515625</ele>
        <time>2021-06-27T09:32:36Z</time>
      </trkpt>
      <trkpt lat="46.17615" lon="6.41595">
        <ele>791.5390625</ele>
        <time>2021-06-27T09:32:37Z</time>
      </trkpt>
      <trkpt lat="46.17617" lon="6.41596">
        <ele>791.8671875</ele>
        <time>2021-06-27T09:32:38Z</time>
      </trkpt>
      <trkpt lat="46.17618" lon="6.41598">
        <ele>792.16015625</ele>
        <time>2021-06-27T09:32:39Z</time>
      </trkpt>
      <trkpt lat="46.17618" lon="6.416">
        <ele>792.44140625</ele>
        <time>2021-06-27T09:32:40Z</time>
      </trkpt>
      <trkpt lat="46.17616" lon="6.41603">
        <ele>792.61328125</ele>
        <time>2021-06-27T09:32:43Z</time>
      </trkpt>
      <trkpt lat="46.17615" lon="6.41603">
        <ele>792.46875</ele>
        <time>2021-06-27T09:32:44Z</time>
      </trkpt>
      <trkpt lat="46.17613" lon="6.41603">
        <ele>792.3125</ele>
        <time>2021-06-27T09:32:45Z</time>
      </trkpt>
      <trkpt lat="46.17613" lon="6.41621">
        <ele>794.51953125</ele>
        <time>2021-06-27T09:32:56Z</time>
      </trkpt>
      <trkpt lat="46.17614" lon="6.41636">
        <ele>796.4921875</ele>
        <time>2021-06-27T09:33:02Z</time>
      </trkpt>
      <trkpt lat="46.17614" lon="6.4165">
        <ele>797.5</ele>
        <time>2021-06-27T09:33:07Z</time>
      </trkpt>
      <trkpt lat="46.17614" lon="6.41658">
        <ele>798.046875</ele>
        <time>2021-06-27T09:33:10Z</time>
      </trkpt>
      <trkpt lat="46.17615" lon="6.41673">
        <ele>799.515625</ele>
        <time>2021-06-27T09:33:16Z</time>
      </trkpt>
      <trkpt lat="46.17618" lon="6.41696">
        <ele>801.94140625</ele>
        <time>2021-06-27T09:33:25Z</time>
      </trkpt>
      <trkpt lat="46.17626" lon="6.41726">
        <ele>806.17578125</ele>
        <time>2021-06-27T09:33:37Z</time>
      </trkpt>
      <trkpt lat="46.17637" lon="6.41743">
        <ele>810.0234375</ele>
        <time>2021-06-27T09:33:44Z</time>
      </trkpt>
      <trkpt lat="46.17655" lon="6.41765">
        <ele>815.05859375</ele>
        <time>2021-06-27T09:33:56Z</time>
      </trkpt>
      <trkpt lat="46.17669" lon="6.41782">
        <ele>818.80859375</ele>
        <time>2021-06-27T09:34:04Z</time>
      </trkpt>
      <trkpt lat="46.17683" lon="6.41801">
        <ele>822.28515625</ele>
        <time>2021-06-27T09:34:14Z</time>
      </trkpt>
      <trkpt lat="46.17689" lon="6.41821">
        <ele>824.9765625</ele>
        <time>2021-06-27T09:34:22Z</time>
      </trkpt>
      <trkpt lat="46.17681" lon="6.41879">
        <ele>829.28125</ele>
        <time>2021-06-27T09:34:41Z</time>
      </trkpt>
      <trkpt lat="46.17671" lon="6.41921">
        <ele>832.1484375</ele>
        <time>2021-06-27T09:34:56Z</time>
      </trkpt>
      <trkpt lat="46.17664" lon="6.41956">
        <ele>835.46484375</ele>
        <time>2021-06-27T09:35:08Z</time>
      </trkpt>
      <trkpt lat="46.17656" lon="6.41987">
        <ele>838.82421875</ele>
        <time>2021-06-27T09:35:20Z</time>
      </trkpt>
      <trkpt lat="46.17655" lon="6.42012">
        <ele>841.08203125</ele>
        <time>2021-06-27T09:35:30Z</time>
      </trkpt>
      <trkpt lat="46.17654" lon="6.42019">
        <ele>841.65625</ele>
        <time>2021-06-27T09:35:33Z</time>
      </trkpt>
      <trkpt lat="46.17653" lon="6.42021">
        <ele>841.85546875</ele>
        <time>2021-06-27T09:35:34Z</time>
      </trkpt>
      <trkpt lat="46.17652" lon="6.42023">
        <ele>842.0546875</ele>
        <time>2021-06-27T09:35:35Z</time>
      </trkpt>
      <trkpt lat="46.17651" lon="6.42025">
        <ele>842.26171875</ele>
        <time>2021-06-27T09:35:36Z</time>
      </trkpt>
      <trkpt lat="46.1765" lon="6.42028">
        <ele>842.5234375</ele>
        <time>2021-06-27T09:35:37Z</time>
      </trkpt>
      <trkpt lat="46.17649" lon="6.42046">
        <ele>844.265625</ele>
        <time>2021-06-27T09:35:44Z</time>
      </trkpt>
      <trkpt lat="46.17651" lon="6.42058">
        <ele>845.3125</ele>
        <time>2021-06-27T09:35:49Z</time>
      </trkpt>
      <trkpt lat="46.17651" lon="6.4206">
        <ele>845.4609375</ele>
        <time>2021-06-27T09:35:50Z</time>
      </trkpt>
      <trkpt lat="46.17652" lon="6.42062">
        <ele>845.609375</ele>
        <time>2021-06-27T09:35:51Z</time>
      </trkpt>
      <trkpt lat="46.17654" lon="6.42064">
        <ele>845.7421875</ele>
        <time>2021-06-27T09:35:52Z</time>
      </trkpt>
      <trkpt lat="46.17655" lon="6.42065">
        <ele>845.859375</ele>
        <time>2021-06-27T09:35:53Z</time>
      </trkpt>
      <trkpt lat="46.17656" lon="6.42066">
        <ele>845.94140625</ele>
        <time>2021-06-27T09:35:54Z</time>
      </trkpt>
      <trkpt lat="46.17658" lon="6.42067">
        <ele>845.984375</ele>
        <time>2021-06-27T09:35:55Z</time>
      </trkpt>
      <trkpt lat="46.17661" lon="6.42067">
        <ele>846.0234375</ele>
        <time>2021-06-27T09:35:56Z</time>
      </trkpt>
      <trkpt lat="46.17694" lon="6.42099">
        <ele>848.06640625</ele>
        <time>2021-06-27T09:36:07Z</time>
      </trkpt>
      <trkpt lat="46.17718" lon="6.42116">
        <ele>848.64453125</ele>
        <time>2021-06-27T09:36:18Z</time>
      </trkpt>
      <trkpt lat="46.17762" lon="6.42129">
        <ele>848.484375</ele>
        <time>2021-06-27T09:36:29Z</time>
      </trkpt>
      <trkpt lat="46.17767" lon="6.42131">
        <ele>848.5234375</ele>
        <time>2021-06-27T09:36:30Z</time>
      </trkpt>
      <trkpt lat="46.17826" lon="6.42168">
        <ele>851.75390625</ele>
        <time>2021-06-27T09:36:42Z</time>
      </trkpt>
      <trkpt lat="46.17831" lon="6.42171">
        <ele>852.1328125</ele>
        <time>2021-06-27T09:36:43Z</time>
      </trkpt>
      <trkpt lat="46.17836" lon="6.42172">
        <ele>852.34765625</ele>
        <time>2021-06-27T09:36:44Z</time>
      </trkpt>
      <trkpt lat="46.17841" lon="6.42172">
        <ele>852.32421875</ele>
        <time>2021-06-27T09:36:45Z</time>
      </trkpt>
      <trkpt lat="46.17845" lon="6.4217">
        <ele>852.0390625</ele>
        <time>2021-06-27T09:36:46Z</time>
      </trkpt>
      <trkpt lat="46.17849" lon="6.42167">
        <ele>851.5546875</ele>
        <time>2021-06-27T09:36:47Z</time>
      </trkpt>
      <trkpt lat="46.17853" lon="6.42164">
        <ele>850.98828125</ele>
        <time>2021-06-27T09:36:48Z</time>
      </trkpt>
      <trkpt lat="46.17856" lon="6.42161">
        <ele>850.640625</ele>
        <time>2021-06-27T09:36:49Z</time>
      </trkpt>
      <trkpt lat="46.17863" lon="6.42157">
        <ele>850.2578125</ele>
        <time>2021-06-27T09:36:51Z</time>
      </trkpt>
      <trkpt lat="46.17867" lon="6.42158">
        <ele>850.34765625</ele>
        <time>2021-06-27T09:36:52Z</time>
      </trkpt>
      <trkpt lat="46.1787" lon="6.4216">
        <ele>850.546875</ele>
        <time>2021-06-27T09:36:53Z</time>
      </trkpt>
      <trkpt lat="46.17872" lon="6.42162">
        <ele>850.80078125</ele>
        <time>2021-06-27T09:36:54Z</time>
      </trkpt>
      <trkpt lat="46.17874" lon="6.42165">
        <ele>851.08203125</ele>
        <time>2021-06-27T09:36:55Z</time>
      </trkpt>
      <trkpt lat="46.17899" lon="6.42178">
        <ele>853.4296875</ele>
        <time>2021-06-27T09:37:06Z</time>
      </trkpt>
      <trkpt lat="46.17923" lon="6.4219">
        <ele>855.609375</ele>
        <time>2021-06-27T09:37:17Z</time>
      </trkpt>
      <trkpt lat="46.17963" lon="6.42202">
        <ele>857.4453125</ele>
        <time>2021-06-27T09:37:33Z</time>
      </trkpt>
      <trkpt lat="46.17993" lon="6.42217">
        <ele>859.640625</ele>
        <time>2021-06-27T09:37:48Z</time>
      </trkpt>
      <trkpt lat="46.18022" lon="6.4223">
        <ele>862.42578125</ele>
        <time>2021-06-27T09:38:01Z</time>
      </trkpt>
      <trkpt lat="46.18051" lon="6.42246">
        <ele>863.86328125</ele>
        <time>2021-06-27T09:38:13Z</time>
      </trkpt>
      <trkpt lat="46.18098" lon="6.4227">
        <ele>866.390625</ele>
        <time>2021-06-27T09:38:26Z</time>
      </trkpt>
      <trkpt lat="46.18145" lon="6.42303">
        <ele>867.5</ele>
        <time>2021-06-27T09:38:38Z</time>
      </trkpt>
      <trkpt lat="46.18166" lon="6.42316">
        <ele>867.03515625</ele>
        <time>2021-06-27T09:38:43Z</time>
      </trkpt>
      <trkpt lat="46.1817" lon="6.42319">
        <ele>867.00390625</ele>
        <time>2021-06-27T09:38:44Z</time>
      </trkpt>
      <trkpt lat="46.18212" lon="6.42338">
        <ele>865.39453125</ele>
        <time>2021-06-27T09:38:56Z</time>
      </trkpt>
      <trkpt lat="46.18213" lon="6.42339">
        <ele>865.36328125</ele>
        <time>2021-06-27T09:38:58Z</time>
      </trkpt>
      <trkpt lat="46.18214" lon="6.42341">
        <ele>865.3125</ele>
        <time>2021-06-27T09:38:59Z</time>
      </trkpt>
      <trkpt lat="46.18216" lon="6.42342">
        <ele>865.19140625</ele>
        <time>2021-06-27T09:39:00Z</time>
      </trkpt>
      <trkpt lat="46.18236" lon="6.42366">
        <ele>864.9140625</ele>
        <time>2021-06-27T09:39:09Z</time>
      </trkpt>
      <trkpt lat="46.1829" lon="6.42404">
        <ele>862.29296875</ele>
        <time>2021-06-27T09:39:22Z</time>
      </trkpt>
      <trkpt lat="46.18308" lon="6.42421">
        <ele>861.20703125</ele>
        <time>2021-06-27T09:39:25Z</time>
      </trkpt>
      <trkpt lat="46.18336" lon="6.42459">
        <ele>858.390625</ele>
        <time>2021-06-27T09:39:29Z</time>
      </trkpt>
      <trkpt lat="46.18359" lon="6.4248">
        <ele>857.03125</ele>
        <time>2021-06-27T09:39:32Z</time>
      </trkpt>
      <trkpt lat="46.18366" lon="6.42484">
        <ele>856.765625</ele>
        <time>2021-06-27T09:39:33Z</time>
      </trkpt>
      <trkpt lat="46.18403" lon="6.42493">
        <ele>855.84765625</ele>
        <time>2021-06-27T09:39:38Z</time>
      </trkpt>
      <trkpt lat="46.18437" lon="6.42518">
        <ele>858.20703125</ele>
        <time>2021-06-27T09:39:43Z</time>
      </trkpt>
      <trkpt lat="46.18443" lon="6.42525">
        <ele>858.5234375</ele>
        <time>2021-06-27T09:39:44Z</time>
      </trkpt>
      <trkpt lat="46.18468" lon="6.42551">
        <ele>861.1640625</ele>
        <time>2021-06-27T09:39:48Z</time>
      </trkpt>
      <trkpt lat="46.18541" lon="6.42588">
        <ele>861.06640625</ele>
        <time>2021-06-27T09:40:00Z</time>
      </trkpt>
      <trkpt lat="46.18614" lon="6.42612">
        <ele>859.046875</ele>
        <time>2021-06-27T09:40:14Z</time>
      </trkpt>
      <trkpt lat="46.18647" lon="6.4263">
        <ele>858.97265625</ele>
        <time>2021-06-27T09:40:23Z</time>
      </trkpt>
      <trkpt lat="46.18698" lon="6.42669">
        <ele>861.859375</ele>
        <time>2021-06-27T09:40:37Z</time>
      </trkpt>
      <trkpt lat="46.18722" lon="6.42687">
        <ele>863.0703125</ele>
        <time>2021-06-27T09:40:48Z</time>
      </trkpt>
      <trkpt lat="46.18753" lon="6.42717">
        <ele>865.25</ele>
        <time>2021-06-27T09:41:03Z</time>
      </trkpt>
      <trkpt lat="46.18779" lon="6.4274">
        <ele>867.36328125</ele>
        <time>2021-06-27T09:41:14Z</time>
      </trkpt>
      <trkpt lat="46.18818" lon="6.4277">
        <ele>869.5859375</ele>
        <time>2021-06-27T09:41:28Z</time>
      </trkpt>
      <trkpt lat="46.18863" lon="6.42792">
        <ele>872.41015625</ele>
        <time>2021-06-27T09:41:43Z</time>
      </trkpt>
      <trkpt lat="46.18894" lon="6.42813">
        <ele>875.83984375</ele>
        <time>2021-06-27T09:41:55Z</time>
      </trkpt>
      <trkpt lat="46.18921" lon="6.42832">
        <ele>879.765625</ele>
        <time>2021-06-27T09:42:07Z</time>
      </trkpt>
      <trkpt lat="46.18948" lon="6.42838">
        <ele>881.828125</ele>
        <time>2021-06-27T09:42:18Z</time>
      </trkpt>
      <trkpt lat="46.18974" lon="6.42843">
        <ele>884.0390625</ele>
        <time>2021-06-27T09:42:28Z</time>
      </trkpt>
      <trkpt lat="46.19002" lon="6.42842">
        <ele>886.03125</ele>
        <time>2021-06-27T09:42:39Z</time>
      </trkpt>
      <trkpt lat="46.19031" lon="6.42842">
        <ele>888.59375</ele>
        <time>2021-06-27T09:42:50Z</time>
      </trkpt>
      <trkpt lat="46.19063" lon="6.42852">
        <ele>892.93359375</ele>
        <time>2021-06-27T09:43:04Z</time>
      </trkpt>
      <trkpt lat="46.19065" lon="6.42854">
        <ele>893.33203125</ele>
        <time>2021-06-27T09:43:05Z</time>
      </trkpt>
      <trkpt lat="46.19087" lon="6.42864">
        <ele>896.80078125</ele>
        <time>2021-06-27T09:43:15Z</time>
      </trkpt>
      <trkpt lat="46.19089" lon="6.42865">
        <ele>897.12109375</ele>
        <time>2021-06-27T09:43:16Z</time>
      </trkpt>
      <trkpt lat="46.19105" lon="6.4287">
        <ele>899.48046875</ele>
        <time>2021-06-27T09:43:24Z</time>
      </trkpt>
      <trkpt lat="46.19107" lon="6.42871">
        <ele>899.95703125</ele>
        <time>2021-06-27T09:43:25Z</time>
      </trkpt>
      <trkpt lat="46.1913" lon="6.42878">
        <ele>903.7421875</ele>
        <time>2021-06-27T09:43:35Z</time>
      </trkpt>
      <trkpt lat="46.19145" lon="6.42883">
        <ele>906.11328125</ele>
        <time>2021-06-27T09:43:42Z</time>
      </trkpt>
      <trkpt lat="46.19159" lon="6.42884">
        <ele>907.87890625</ele>
        <time>2021-06-27T09:43:49Z</time>
      </trkpt>
      <trkpt lat="46.19171" lon="6.42888">
        <ele>910.2265625</ele>
        <time>2021-06-27T09:43:55Z</time>
      </trkpt>
      <trkpt lat="46.192" lon="6.42894">
        <ele>915.375</ele>
        <time>2021-06-27T09:44:06Z</time>
      </trkpt>
      <trkpt lat="46.19218" lon="6.42896">
        <ele>918.05078125</ele>
        <time>2021-06-27T09:44:14Z</time>
      </trkpt>
      <trkpt lat="46.19231" lon="6.42902">
        <ele>920.1640625</ele>
        <time>2021-06-27T09:44:20Z</time>
      </trkpt>
      <trkpt lat="46.19259" lon="6.42912">
        <ele>924.07421875</ele>
        <time>2021-06-27T09:44:31Z</time>
      </trkpt>
      <trkpt lat="46.19298" lon="6.4293">
        <ele>929.31640625</ele>
        <time>2021-06-27T09:44:46Z</time>
      </trkpt>
      <trkpt lat="46.19327" lon="6.42943">
        <ele>930.9140625</ele>
        <time>2021-06-27T09:44:59Z</time>
      </trkpt>
      <trkpt lat="46.19332" lon="6.42948">
        <ele>931.41015625</ele>
        <time>2021-06-27T09:45:09Z</time>
      </trkpt>
      <trkpt lat="46.19332" lon="6.42945">
        <ele>930.99609375</ele>
        <time>2021-06-27T09:45:22Z</time>
      </trkpt>
      <trkpt lat="46.19331" lon="6.42929">
        <ele>928.625</ele>
        <time>2021-06-27T09:45:55Z</time>
      </trkpt>
      <trkpt lat="46.19328" lon="6.42919">
        <ele>927.48828125</ele>
        <time>2021-06-27T09:46:30Z</time>
      </trkpt>
      <trkpt lat="46.19324" lon="6.42918">
        <ele>927.5390625</ele>
        <time>2021-06-27T09:46:57Z</time>
      </trkpt>
      <trkpt lat="46.19325" lon="6.42921">
        <ele>928.0234375</ele>
        <time>2021-06-27T09:47:28Z</time>
      </trkpt>
      <trkpt lat="46.19326" lon="6.42933">
        <ele>929.58984375</ele>
        <time>2021-06-27T09:48:02Z</time>
      </trkpt>
      <trkpt lat="46.19328" lon="6.42925">
        <ele>928.4140625</ele>
        <time>2021-06-27T09:48:28Z</time>
      </trkpt>
      <trkpt lat="46.1933" lon="6.42925">
        <ele>928.2265625</ele>
        <time>2021-06-27T09:48:29Z</time>
      </trkpt>
      <trkpt lat="46.19333" lon="6.42927">
        <ele>928.34375</ele>
        <time>2021-06-27T09:48:30Z</time>
      </trkpt>
      <trkpt lat="46.19341" lon="6.42941">
        <ele>929.75390625</ele>
        <time>2021-06-27T09:48:31Z</time>
      </trkpt>
      <trkpt lat="46.19344" lon="6.42946">
        <ele>930.2734375</ele>
        <time>2021-06-27T09:48:32Z</time>
      </trkpt>
      <trkpt lat="46.1937" lon="6.42985">
        <ele>934.390625</ele>
        <time>2021-06-27T09:48:45Z</time>
      </trkpt>
      <trkpt lat="46.19375" lon="6.42989">
        <ele>934.5390625</ele>
        <time>2021-06-27T09:48:56Z</time>
      </trkpt>
      <trkpt lat="46.19375" lon="6.42987">
        <ele>934.26171875</ele>
        <time>2021-06-27T09:48:57Z</time>
      </trkpt>
      <trkpt lat="46.19375" lon="6.42984">
        <ele>933.91796875</ele>
        <time>2021-06-27T09:48:58Z</time>
      </trkpt>
      <trkpt lat="46.19374" lon="6.4298">
        <ele>933.65234375</ele>
        <time>2021-06-27T09:48:59Z</time>
      </trkpt>
      <trkpt lat="46.19371" lon="6.42977">
        <ele>933.40625</ele>
        <time>2021-06-27T09:49:00Z</time>
      </trkpt>
      <trkpt lat="46.19369" lon="6.42973">
        <ele>933.16796875</ele>
        <time>2021-06-27T09:49:01Z</time>
      </trkpt>
      <trkpt lat="46.19366" lon="6.42969">
        <ele>932.8828125</ele>
        <time>2021-06-27T09:49:02Z</time>
      </trkpt>
      <trkpt lat="46.19334" lon="6.42937">
        <ele>929.56640625</ele>
        <time>2021-06-27T09:49:10Z</time>
      </trkpt>
      <trkpt lat="46.1933" lon="6.42934">
        <ele>929.5390625</ele>
        <time>2021-06-27T09:49:11Z</time>
      </trkpt>
      <trkpt lat="46.19326" lon="6.42932">
        <ele>929.44140625</ele>
        <time>2021-06-27T09:49:12Z</time>
      </trkpt>
      <trkpt lat="46.19325" lon="6.42929">
        <ele>929.08984375</ele>
        <time>2021-06-27T09:49:13Z</time>
      </trkpt>
      <trkpt lat="46.19326" lon="6.42925">
        <ele>928.53125</ele>
        <time>2021-06-27T09:49:14Z</time>
      </trkpt>
      <trkpt lat="46.1933" lon="6.42925">
        <ele>928.19140625</ele>
        <time>2021-06-27T09:49:15Z</time>
      </trkpt>
      <trkpt lat="46.19334" lon="6.42927">
        <ele>928.1796875</ele>
        <time>2021-06-27T09:49:16Z</time>
      </trkpt>
      <trkpt lat="46.19339" lon="6.4293">
        <ele>928.265625</ele>
        <time>2021-06-27T09:49:17Z</time>
      </trkpt>
      <trkpt lat="46.19398" lon="6.42955">
        <ele>927.1953125</ele>
        <time>2021-06-27T09:49:29Z</time>
      </trkpt>
      <trkpt lat="46.19473" lon="6.4296">
        <ele>921.1953125</ele>
        <time>2021-06-27T09:49:40Z</time>
      </trkpt>
      <trkpt lat="46.19513" lon="6.42958">
        <ele>922.12890625</ele>
        <time>2021-06-27T09:49:50Z</time>
      </trkpt>
      <trkpt lat="46.19544" lon="6.42952">
        <ele>926.2421875</ele>
        <time>2021-06-27T09:50:00Z</time>
      </trkpt>
      <trkpt lat="46.19565" lon="6.42942">
        <ele>929.734375</ele>
        <time>2021-06-27T09:50:09Z</time>
      </trkpt>
      <trkpt lat="46.19582" lon="6.42927">
        <ele>932.4140625</ele>
        <time>2021-06-27T09:50:18Z</time>
      </trkpt>
      <trkpt lat="46.19587" lon="6.42919">
        <ele>933.37890625</ele>
        <time>2021-06-27T09:50:22Z</time>
      </trkpt>
      <trkpt lat="46.19603" lon="6.42908">
        <ele>936.1484375</ele>
        <time>2021-06-27T09:50:30Z</time>
      </trkpt>
      <trkpt lat="46.19619" lon="6.42905">
        <ele>938.98046875</ele>
        <time>2021-06-27T09:50:38Z</time>
      </trkpt>
      <trkpt lat="46.19645" lon="6.42884">
        <ele>943.1796875</ele>
        <time>2021-06-27T09:50:52Z</time>
      </trkpt>
      <trkpt lat="46.1967" lon="6.42867">
        <ele>946.96875</ele>
        <time>2021-06-27T09:51:04Z</time>
      </trkpt>
      <trkpt lat="46.19672" lon="6.42865">
        <ele>947.2890625</ele>
        <time>2021-06-27T09:51:05Z</time>
      </trkpt>
      <trkpt lat="46.19696" lon="6.42848">
        <ele>951.51171875</ele>
        <time>2021-06-27T09:51:18Z</time>
      </trkpt>
      <trkpt lat="46.19698" lon="6.42847">
        <ele>951.7890625</ele>
        <time>2021-06-27T09:51:19Z</time>
      </trkpt>
      <trkpt lat="46.19717" lon="6.42841">
        <ele>954.484375</ele>
        <time>2021-06-27T09:51:28Z</time>
      </trkpt>
      <trkpt lat="46.19727" lon="6.42839">
        <ele>956.2734375</ele>
        <time>2021-06-27T09:51:33Z</time>
      </trkpt>
      <trkpt lat="46.19736" lon="6.42837">
        <ele>957.71875</ele>
        <time>2021-06-27T09:51:37Z</time>
      </trkpt>
      <trkpt lat="46.19753" lon="6.4283">
        <ele>959.7109375</ele>
        <time>2021-06-27T09:51:47Z</time>
      </trkpt>
      <trkpt lat="46.19763" lon="6.42824">
        <ele>960.75</ele>
        <time>2021-06-27T09:51:52Z</time>
      </trkpt>
      <trkpt lat="46.198" lon="6.42808">
        <ele>964.9609375</ele>
        <time>2021-06-27T09:52:06Z</time>
      </trkpt>
      <trkpt lat="46.1985" lon="6.42802">
        <ele>968.8203125</ele>
        <time>2021-06-27T09:52:18Z</time>
      </trkpt>
      <trkpt lat="46.19908" lon="6.42812">
        <ele>965.91015625</ele>
        <time>2021-06-27T09:52:26Z</time>
      </trkpt>
      <trkpt lat="46.20009" lon="6.42842">
        <ele>962.15625</ele>
        <time>2021-06-27T09:52:39Z</time>
      </trkpt>
      <trkpt lat="46.20017" lon="6.4284">
        <ele>961.46875</ele>
        <time>2021-06-27T09:52:40Z</time>
      </trkpt>
      <trkpt lat="46.20122" lon="6.42807">
        <ele>951.75</ele>
        <time>2021-06-27T09:52:52Z</time>
      </trkpt>
      <trkpt lat="46.20132" lon="6.42807">
        <ele>951.3125</ele>
        <time>2021-06-27T09:52:53Z</time>
      </trkpt>
      <trkpt lat="46.20143" lon="6.42808">
        <ele>950.96484375</ele>
        <time>2021-06-27T09:52:54Z</time>
      </trkpt>
      <trkpt lat="46.2019" lon="6.42825">
        <ele>948.2890625</ele>
        <time>2021-06-27T09:52:58Z</time>
      </trkpt>
      <trkpt lat="46.202" lon="6.42831">
        <ele>947.40234375</ele>
        <time>2021-06-27T09:52:59Z</time>
      </trkpt>
      <trkpt lat="46.2022" lon="6.42843">
        <ele>946.4453125</ele>
        <time>2021-06-27T09:53:02Z</time>
      </trkpt>
      <trkpt lat="46.20229" lon="6.42846">
        <ele>945.5546875</ele>
        <time>2021-06-27T09:53:05Z</time>
      </trkpt>
      <trkpt lat="46.20233" lon="6.42843">
        <ele>944.91796875</ele>
        <time>2021-06-27T09:53:06Z</time>
      </trkpt>
      <trkpt lat="46.20235" lon="6.42839">
        <ele>944.22265625</ele>
        <time>2021-06-27T09:53:07Z</time>
      </trkpt>
      <trkpt lat="46.20239" lon="6.42836">
        <ele>943.5546875</ele>
        <time>2021-06-27T09:53:08Z</time>
      </trkpt>
      <trkpt lat="46.20244" lon="6.42837">
        <ele>942.95703125</ele>
        <time>2021-06-27T09:53:09Z</time>
      </trkpt>
      <trkpt lat="46.20249" lon="6.4284">
        <ele>942.41015625</ele>
        <time>2021-06-27T09:53:10Z</time>
      </trkpt>
      <trkpt lat="46.20254" lon="6.42845">
        <ele>941.91015625</ele>
        <time>2021-06-27T09:53:11Z</time>
      </trkpt>
      <trkpt lat="46.20258" lon="6.42851">
        <ele>941.41015625</ele>
        <time>2021-06-27T09:53:12Z</time>
      </trkpt>
      <trkpt lat="46.20263" lon="6.42856">
        <ele>940.7734375</ele>
        <time>2021-06-27T09:53:13Z</time>
      </trkpt>
      <trkpt lat="46.2027" lon="6.4286">
        <ele>939.85546875</ele>
        <time>2021-06-27T09:53:14Z</time>
      </trkpt>
      <trkpt lat="46.20296" lon="6.42869">
        <ele>935.83203125</ele>
        <time>2021-06-27T09:53:17Z</time>
      </trkpt>
      <trkpt lat="46.20338" lon="6.42886">
        <ele>928.51953125</ele>
        <time>2021-06-27T09:53:21Z</time>
      </trkpt>
      <trkpt lat="46.20358" lon="6.42894">
        <ele>925.4375</ele>
        <time>2021-06-27T09:53:23Z</time>
      </trkpt>
      <trkpt lat="46.20378" lon="6.429">
        <ele>922.24609375</ele>
        <time>2021-06-27T09:53:25Z</time>
      </trkpt>
      <trkpt lat="46.20397" lon="6.42907">
        <ele>919.375</ele>
        <time>2021-06-27T09:53:27Z</time>
      </trkpt>
      <trkpt lat="46.20406" lon="6.42913">
        <ele>918.1015625</ele>
        <time>2021-06-27T09:53:28Z</time>
      </trkpt>
      <trkpt lat="46.20434" lon="6.42936">
        <ele>914.7265625</ele>
        <time>2021-06-27T09:53:31Z</time>
      </trkpt>
      <trkpt lat="46.20453" lon="6.42956">
        <ele>912.7578125</ele>
        <time>2021-06-27T09:53:33Z</time>
      </trkpt>
      <trkpt lat="46.20496" lon="6.43002">
        <ele>908.453125</ele>
        <time>2021-06-27T09:53:38Z</time>
      </trkpt>
      <trkpt lat="46.20511" lon="6.43017">
        <ele>907.39453125</ele>
        <time>2021-06-27T09:53:40Z</time>
      </trkpt>
      <trkpt lat="46.20541" lon="6.43038">
        <ele>904.75</ele>
        <time>2021-06-27T09:53:47Z</time>
      </trkpt>
      <trkpt lat="46.2055" lon="6.43042">
        <ele>903.5859375</ele>
        <time>2021-06-27T09:53:50Z</time>
      </trkpt>
      <trkpt lat="46.20552" lon="6.43044">
        <ele>903.5</ele>
        <time>2021-06-27T09:53:51Z</time>
      </trkpt>
      <trkpt lat="46.20554" lon="6.43046">
        <ele>903.34375</ele>
        <time>2021-06-27T09:53:52Z</time>
      </trkpt>
      <trkpt lat="46.20585" lon="6.43073">
        <ele>900.8515625</ele>
        <time>2021-06-27T09:53:59Z</time>
      </trkpt>
      <trkpt lat="46.20599" lon="6.43086">
        <ele>900.28515625</ele>
        <time>2021-06-27T09:54:01Z</time>
      </trkpt>
      <trkpt lat="46.20614" lon="6.43098">
        <ele>898.578125</ele>
        <time>2021-06-27T09:54:03Z</time>
      </trkpt>
      <trkpt lat="46.20636" lon="6.43112">
        <ele>895.71484375</ele>
        <time>2021-06-27T09:54:06Z</time>
      </trkpt>
      <trkpt lat="46.20659" lon="6.43126">
        <ele>892.109375</ele>
        <time>2021-06-27T09:54:09Z</time>
      </trkpt>
      <trkpt lat="46.20672" lon="6.43134">
        <ele>890.38671875</ele>
        <time>2021-06-27T09:54:11Z</time>
      </trkpt>
      <trkpt lat="46.20688" lon="6.43142">
        <ele>887.8359375</ele>
        <time>2021-06-27T09:54:14Z</time>
      </trkpt>
      <trkpt lat="46.20702" lon="6.4315">
        <ele>885.35546875</ele>
        <time>2021-06-27T09:54:17Z</time>
      </trkpt>
      <trkpt lat="46.2071" lon="6.43155">
        <ele>884.33984375</ele>
        <time>2021-06-27T09:54:19Z</time>
      </trkpt>
      <trkpt lat="46.20714" lon="6.43159">
        <ele>883.8203125</ele>
        <time>2021-06-27T09:54:20Z</time>
      </trkpt>
      <trkpt lat="46.20721" lon="6.43163">
        <ele>882.68359375</ele>
        <time>2021-06-27T09:54:22Z</time>
      </trkpt>
      <trkpt lat="46.2074" lon="6.43177">
        <ele>879.95703125</ele>
        <time>2021-06-27T09:54:31Z</time>
      </trkpt>
      <trkpt lat="46.20749" lon="6.43185">
        <ele>878.7578125</ele>
        <time>2021-06-27T09:54:34Z</time>
      </trkpt>
      <trkpt lat="46.20753" lon="6.43188">
        <ele>878.23046875</ele>
        <time>2021-06-27T09:54:35Z</time>
      </trkpt>
      <trkpt lat="46.20764" lon="6.43195">
        <ele>876.45703125</ele>
        <time>2021-06-27T09:54:37Z</time>
      </trkpt>
      <trkpt lat="46.20786" lon="6.43208">
        <ele>872.5</ele>
        <time>2021-06-27T09:54:40Z</time>
      </trkpt>
      <trkpt lat="46.20793" lon="6.43211">
        <ele>871.140625</ele>
        <time>2021-06-27T09:54:41Z</time>
      </trkpt>
      <trkpt lat="46.20799" lon="6.43212">
        <ele>869.953125</ele>
        <time>2021-06-27T09:54:42Z</time>
      </trkpt>
      <trkpt lat="46.20807" lon="6.43215">
        <ele>868.734375</ele>
        <time>2021-06-27T09:54:44Z</time>
      </trkpt>
      <trkpt lat="46.20809" lon="6.43219">
        <ele>868.56640625</ele>
        <time>2021-06-27T09:54:45Z</time>
      </trkpt>
      <trkpt lat="46.20811" lon="6.43221">
        <ele>868.45703125</ele>
        <time>2021-06-27T09:54:46Z</time>
      </trkpt>
      <trkpt lat="46.20812" lon="6.43224">
        <ele>868.44140625</ele>
        <time>2021-06-27T09:54:47Z</time>
      </trkpt>
      <trkpt lat="46.20814" lon="6.43226">
        <ele>868.36328125</ele>
        <time>2021-06-27T09:54:48Z</time>
      </trkpt>
      <trkpt lat="46.20815" lon="6.43229">
        <ele>868.25</ele>
        <time>2021-06-27T09:54:49Z</time>
      </trkpt>
      <trkpt lat="46.20818" lon="6.43232">
        <ele>868.06640625</ele>
        <time>2021-06-27T09:54:50Z</time>
      </trkpt>
      <trkpt lat="46.2082" lon="6.43235">
        <ele>867.81640625</ele>
        <time>2021-06-27T09:54:51Z</time>
      </trkpt>
      <trkpt lat="46.20823" lon="6.43238">
        <ele>867.5</ele>
        <time>2021-06-27T09:54:52Z</time>
      </trkpt>
      <trkpt lat="46.20825" lon="6.4324">
        <ele>867.21484375</ele>
        <time>2021-06-27T09:54:53Z</time>
      </trkpt>
      <trkpt lat="46.20828" lon="6.43243">
        <ele>866.9609375</ele>
        <time>2021-06-27T09:54:54Z</time>
      </trkpt>
      <trkpt lat="46.20831" lon="6.43246">
        <ele>866.66015625</ele>
        <time>2021-06-27T09:54:55Z</time>
      </trkpt>
      <trkpt lat="46.20834" lon="6.43249">
        <ele>866.3046875</ele>
        <time>2021-06-27T09:54:56Z</time>
      </trkpt>
      <trkpt lat="46.20839" lon="6.43252">
        <ele>865.72265625</ele>
        <time>2021-06-27T09:54:57Z</time>
      </trkpt>
      <trkpt lat="46.20844" lon="6.43256">
        <ele>865.10546875</ele>
        <time>2021-06-27T09:54:58Z</time>
      </trkpt>
      <trkpt lat="46.20847" lon="6.43258">
        <ele>864.58984375</ele>
        <time>2021-06-27T09:54:59Z</time>
      </trkpt>
      <trkpt lat="46.20853" lon="6.4326">
        <ele>863.62890625</ele>
        <time>2021-06-27T09:55:08Z</time>
      </trkpt>
      <trkpt lat="46.20853" lon="6.43257">
        <ele>863.30859375</ele>
        <time>2021-06-27T09:55:21Z</time>
      </trkpt>
      <trkpt lat="46.20852" lon="6.43256">
        <ele>863.54296875</ele>
        <time>2021-06-27T09:55:23Z</time>
      </trkpt>
      <trkpt lat="46.20851" lon="6.43255">
        <ele>863.6953125</ele>
        <time>2021-06-27T09:55:24Z</time>
      </trkpt>
      <trkpt lat="46.2083" lon="6.4323">
        <ele>865.58984375</ele>
        <time>2021-06-27T09:55:34Z</time>
      </trkpt>
      <trkpt lat="46.20827" lon="6.4322">
        <ele>865.42578125</ele>
        <time>2021-06-27T09:55:36Z</time>
      </trkpt>
      <trkpt lat="46.20828" lon="6.43216">
        <ele>864.98828125</ele>
        <time>2021-06-27T09:55:37Z</time>
      </trkpt>
      <trkpt lat="46.20829" lon="6.43212">
        <ele>864.4375</ele>
        <time>2021-06-27T09:55:38Z</time>
      </trkpt>
      <trkpt lat="46.20832" lon="6.43211">
        <ele>863.83984375</ele>
        <time>2021-06-27T09:55:39Z</time>
      </trkpt>
      <trkpt lat="46.20835" lon="6.43211">
        <ele>863.265625</ele>
        <time>2021-06-27T09:55:40Z</time>
      </trkpt>
      <trkpt lat="46.20839" lon="6.43213">
        <ele>862.69140625</ele>
        <time>2021-06-27T09:55:41Z</time>
      </trkpt>
      <trkpt lat="46.20842" lon="6.43215">
        <ele>862.16796875</ele>
        <time>2021-06-27T09:55:42Z</time>
      </trkpt>
      <trkpt lat="46.20846" lon="6.43218">
        <ele>861.71484375</ele>
        <time>2021-06-27T09:55:43Z</time>
      </trkpt>
      <trkpt lat="46.20851" lon="6.43219">
        <ele>861.078125</ele>
        <time>2021-06-27T09:55:44Z</time>
      </trkpt>
      <trkpt lat="46.20868" lon="6.43224">
        <ele>857.7890625</ele>
        <time>2021-06-27T09:55:47Z</time>
      </trkpt>
      <trkpt lat="46.20874" lon="6.43226">
        <ele>856.8046875</ele>
        <time>2021-06-27T09:55:48Z</time>
      </trkpt>
      <trkpt lat="46.20892" lon="6.43234">
        <ele>854.25390625</ele>
        <time>2021-06-27T09:55:51Z</time>
      </trkpt>
      <trkpt lat="46.20898" lon="6.43236">
        <ele>853.41796875</ele>
        <time>2021-06-27T09:55:52Z</time>
      </trkpt>
      <trkpt lat="46.20903" lon="6.43237">
        <ele>852.62890625</ele>
        <time>2021-06-27T09:55:53Z</time>
      </trkpt>
      <trkpt lat="46.2092" lon="6.43242">
        <ele>850.01953125</ele>
        <time>2021-06-27T09:55:57Z</time>
      </trkpt>
      <trkpt lat="46.20925" lon="6.43243">
        <ele>849.37890625</ele>
        <time>2021-06-27T09:55:58Z</time>
      </trkpt>
      <trkpt lat="46.2094" lon="6.43247">
        <ele>846.67578125</ele>
        <time>2021-06-27T09:56:01Z</time>
      </trkpt>
      <trkpt lat="46.20945" lon="6.43249">
        <ele>845.37109375</ele>
        <time>2021-06-27T09:56:02Z</time>
      </trkpt>
      <trkpt lat="46.20952" lon="6.43252">
        <ele>844.1640625</ele>
        <time>2021-06-27T09:56:03Z</time>
      </trkpt>
      <trkpt lat="46.20958" lon="6.43257">
        <ele>843.0703125</ele>
        <time>2021-06-27T09:56:04Z</time>
      </trkpt>
      <trkpt lat="46.20965" lon="6.43263">
        <ele>842.0546875</ele>
        <time>2021-06-27T09:56:05Z</time>
      </trkpt>
      <trkpt lat="46.20992" lon="6.4329">
        <ele>838.625</ele>
        <time>2021-06-27T09:56:09Z</time>
      </trkpt>
      <trkpt lat="46.21005" lon="6.43306">
        <ele>836.9375</ele>
        <time>2021-06-27T09:56:11Z</time>
      </trkpt>
      <trkpt lat="46.21025" lon="6.43333">
        <ele>834.40625</ele>
        <time>2021-06-27T09:56:16Z</time>
      </trkpt>
      <trkpt lat="46.21047" lon="6.43361">
        <ele>831.9296875</ele>
        <time>2021-06-27T09:56:24Z</time>
      </trkpt>
      <trkpt lat="46.21054" lon="6.43376">
        <ele>831.0703125</ele>
        <time>2021-06-27T09:56:28Z</time>
      </trkpt>
      <trkpt lat="46.21057" lon="6.4338">
        <ele>830.7734375</ele>
        <time>2021-06-27T09:56:29Z</time>
      </trkpt>
      <trkpt lat="46.2106" lon="6.43386">
        <ele>830.33203125</ele>
        <time>2021-06-27T09:56:30Z</time>
      </trkpt>
      <trkpt lat="46.21064" lon="6.43391">
        <ele>829.6796875</ele>
        <time>2021-06-27T09:56:31Z</time>
      </trkpt>
      <trkpt lat="46.21069" lon="6.43396">
        <ele>828.765625</ele>
        <time>2021-06-27T09:56:32Z</time>
      </trkpt>
      <trkpt lat="46.21081" lon="6.43404">
        <ele>826.23046875</ele>
        <time>2021-06-27T09:56:34Z</time>
      </trkpt>
      <trkpt lat="46.21087" lon="6.43407">
        <ele>824.8671875</ele>
        <time>2021-06-27T09:56:35Z</time>
      </trkpt>
      <trkpt lat="46.2111" lon="6.43423">
        <ele>820.3203125</ele>
        <time>2021-06-27T09:56:39Z</time>
      </trkpt>
      <trkpt lat="46.21123" lon="6.43436">
        <ele>818.0703125</ele>
        <time>2021-06-27T09:56:41Z</time>
      </trkpt>
      <trkpt lat="46.2113" lon="6.43444">
        <ele>816.89453125</ele>
        <time>2021-06-27T09:56:42Z</time>
      </trkpt>
      <trkpt lat="46.21143" lon="6.43461">
        <ele>814.69140625</ele>
        <time>2021-06-27T09:56:44Z</time>
      </trkpt>
      <trkpt lat="46.21155" lon="6.43477">
        <ele>812.875</ele>
        <time>2021-06-27T09:56:45Z</time>
      </trkpt>
      <trkpt lat="46.21161" lon="6.4349">
        <ele>812.73828125</ele>
        <time>2021-06-27T09:56:46Z</time>
      </trkpt>
      <trkpt lat="46.21166" lon="6.435">
        <ele>812.484375</ele>
        <time>2021-06-27T09:56:47Z</time>
      </trkpt>
      <trkpt lat="46.21172" lon="6.43509">
        <ele>811.75</ele>
        <time>2021-06-27T09:56:48Z</time>
      </trkpt>
      <trkpt lat="46.21177" lon="6.43515">
        <ele>810.9375</ele>
        <time>2021-06-27T09:56:49Z</time>
      </trkpt>
      <trkpt lat="46.21183" lon="6.4352">
        <ele>810.140625</ele>
        <time>2021-06-27T09:56:50Z</time>
      </trkpt>
      <trkpt lat="46.21188" lon="6.43524">
        <ele>809.46484375</ele>
        <time>2021-06-27T09:56:51Z</time>
      </trkpt>
      <trkpt lat="46.21203" lon="6.43537">
        <ele>808.23828125</ele>
        <time>2021-06-27T09:56:54Z</time>
      </trkpt>
      <trkpt lat="46.21255" lon="6.43609">
        <ele>804.94140625</ele>
        <time>2021-06-27T09:57:04Z</time>
      </trkpt>
      <trkpt lat="46.21312" lon="6.43714">
        <ele>800.05859375</ele>
        <time>2021-06-27T09:57:16Z</time>
      </trkpt>
      <trkpt lat="46.21324" lon="6.43731">
        <ele>799.39453125</ele>
        <time>2021-06-27T09:57:18Z</time>
      </trkpt>
      <trkpt lat="46.21331" lon="6.43738">
        <ele>799.1015625</ele>
        <time>2021-06-27T09:57:19Z</time>
      </trkpt>
      <trkpt lat="46.21339" lon="6.43744">
        <ele>798.74609375</ele>
        <time>2021-06-27T09:57:20Z</time>
      </trkpt>
      <trkpt lat="46.21347" lon="6.43748">
        <ele>798.375</ele>
        <time>2021-06-27T09:57:21Z</time>
      </trkpt>
      <trkpt lat="46.21355" lon="6.43751">
        <ele>798.16796875</ele>
        <time>2021-06-27T09:57:22Z</time>
      </trkpt>
      <trkpt lat="46.21363" lon="6.43754">
        <ele>797.98828125</ele>
        <time>2021-06-27T09:57:23Z</time>
      </trkpt>
      <trkpt lat="46.21371" lon="6.43755">
        <ele>797.67578125</ele>
        <time>2021-06-27T09:57:24Z</time>
      </trkpt>
      <trkpt lat="46.21379" lon="6.43755">
        <ele>797.3046875</ele>
        <time>2021-06-27T09:57:25Z</time>
      </trkpt>
      <trkpt lat="46.21412" lon="6.43757">
        <ele>795.53515625</ele>
        <time>2021-06-27T09:57:29Z</time>
      </trkpt>
      <trkpt lat="46.21507" lon="6.43789">
        <ele>796.57421875</ele>
        <time>2021-06-27T09:57:43Z</time>
      </trkpt>
      <trkpt lat="46.21522" lon="6.43803">
        <ele>797.87109375</ele>
        <time>2021-06-27T09:57:50Z</time>
      </trkpt>
      <trkpt lat="46.21551" lon="6.43845">
        <ele>801.8671875</ele>
        <time>2021-06-27T09:58:03Z</time>
      </trkpt>
      <trkpt lat="46.21603" lon="6.43873">
        <ele>801.5234375</ele>
        <time>2021-06-27T09:58:16Z</time>
      </trkpt>
      <trkpt lat="46.2167" lon="6.43904">
        <ele>803.02734375</ele>
        <time>2021-06-27T09:58:31Z</time>
      </trkpt>
      <trkpt lat="46.217" lon="6.43916">
        <ele>803.765625</ele>
        <time>2021-06-27T09:58:39Z</time>
      </trkpt>
      <trkpt lat="46.21703" lon="6.43914">
        <ele>803.375</ele>
        <time>2021-06-27T09:58:40Z</time>
      </trkpt>
      <trkpt lat="46.21705" lon="6.43909">
        <ele>802.91796875</ele>
        <time>2021-06-27T09:58:41Z</time>
      </trkpt>
      <trkpt lat="46.21712" lon="6.43887">
        <ele>801.14453125</ele>
        <time>2021-06-27T09:58:44Z</time>
      </trkpt>
      <trkpt lat="46.21721" lon="6.43853">
        <ele>798.62890625</ele>
        <time>2021-06-27T09:58:48Z</time>
      </trkpt>
      <trkpt lat="46.21744" lon="6.43785">
        <ele>793.72265625</ele>
        <time>2021-06-27T09:58:55Z</time>
      </trkpt>
      <trkpt lat="46.21769" lon="6.43728">
        <ele>789.6484375</ele>
        <time>2021-06-27T09:59:00Z</time>
      </trkpt>
      <trkpt lat="46.21776" lon="6.43717">
        <ele>788.9296875</ele>
        <time>2021-06-27T09:59:01Z</time>
      </trkpt>
      <trkpt lat="46.21783" lon="6.43707">
        <ele>788.32421875</ele>
        <time>2021-06-27T09:59:02Z</time>
      </trkpt>
      <trkpt lat="46.21792" lon="6.43698">
        <ele>787.59375</ele>
        <time>2021-06-27T09:59:03Z</time>
      </trkpt>
      <trkpt lat="46.21801" lon="6.4369">
        <ele>786.69140625</ele>
        <time>2021-06-27T09:59:04Z</time>
      </trkpt>
      <trkpt lat="46.21827" lon="6.4366">
        <ele>784.63671875</ele>
        <time>2021-06-27T09:59:07Z</time>
      </trkpt>
      <trkpt lat="46.21835" lon="6.4365">
        <ele>783.5859375</ele>
        <time>2021-06-27T09:59:08Z</time>
      </trkpt>
      <trkpt lat="46.21875" lon="6.43599">
        <ele>779.796875</ele>
        <time>2021-06-27T09:59:13Z</time>
      </trkpt>
      <trkpt lat="46.21883" lon="6.43591">
        <ele>779.22265625</ele>
        <time>2021-06-27T09:59:14Z</time>
      </trkpt>
      <trkpt lat="46.21912" lon="6.43569">
        <ele>776.9765625</ele>
        <time>2021-06-27T09:59:18Z</time>
      </trkpt>
      <trkpt lat="46.21916" lon="6.43562">
        <ele>776.34375</ele>
        <time>2021-06-27T09:59:19Z</time>
      </trkpt>
      <trkpt lat="46.2192" lon="6.43555">
        <ele>775.671875</ele>
        <time>2021-06-27T09:59:20Z</time>
      </trkpt>
      <trkpt lat="46.21923" lon="6.43546">
        <ele>775.0546875</ele>
        <time>2021-06-27T09:59:21Z</time>
      </trkpt>
      <trkpt lat="46.21926" lon="6.43537">
        <ele>774.3828125</ele>
        <time>2021-06-27T09:59:22Z</time>
      </trkpt>
      <trkpt lat="46.21929" lon="6.43528">
        <ele>773.59375</ele>
        <time>2021-06-27T09:59:23Z</time>
      </trkpt>
      <trkpt lat="46.21933" lon="6.4352">
        <ele>772.90234375</ele>
        <time>2021-06-27T09:59:24Z</time>
      </trkpt>
      <trkpt lat="46.21935" lon="6.43511">
        <ele>772.48046875</ele>
        <time>2021-06-27T09:59:25Z</time>
      </trkpt>
      <trkpt lat="46.21948" lon="6.43449">
        <ele>771.1484375</ele>
        <time>2021-06-27T09:59:35Z</time>
      </trkpt>
      <trkpt lat="46.21951" lon="6.43429">
        <ele>771</ele>
        <time>2021-06-27T09:59:40Z</time>
      </trkpt>
      <trkpt lat="46.21954" lon="6.43433">
        <ele>771</ele>
        <time>2021-06-27T09:59:42Z</time>
      </trkpt>
      <trkpt lat="46.21964" lon="6.4344">
        <ele>771.00390625</ele>
        <time>2021-06-27T09:59:46Z</time>
      </trkpt>
      <trkpt lat="46.21965" lon="6.43441">
        <ele>771.00390625</ele>
        <time>2021-06-27T09:59:56Z</time>
      </trkpt>
      <trkpt lat="46.21963" lon="6.43439">
        <ele>771.00390625</ele>
        <time>2021-06-27T09:59:59Z</time>
      </trkpt>
      <trkpt lat="46.21959" lon="6.43437">
        <ele>771</ele>
        <time>2021-06-27T10:00:02Z</time>
      </trkpt>
      <trkpt lat="46.21956" lon="6.43433">
        <ele>771</ele>
        <time>2021-06-27T10:00:04Z</time>
      </trkpt>
      <trkpt lat="46.21955" lon="6.43424">
        <ele>771</ele>
        <time>2021-06-27T10:00:06Z</time>
      </trkpt>
      <trkpt lat="46.21956" lon="6.4342">
        <ele>771</ele>
        <time>2021-06-27T10:00:07Z</time>
      </trkpt>
      <trkpt lat="46.21957" lon="6.43417">
        <ele>771</ele>
        <time>2021-06-27T10:00:08Z</time>
      </trkpt>
      <trkpt lat="46.21958" lon="6.43417">
        <ele>771</ele>
        <time>2021-06-27T10:00:09Z</time>
      </trkpt>
      <trkpt lat="46.21958" lon="6.43418">
        <ele>771</ele>
        <time>2021-06-27T10:00:10Z</time>
      </trkpt>
      <trkpt lat="46.21971" lon="6.43432">
        <ele>771.109375</ele>
        <time>2021-06-27T10:00:16Z</time>
      </trkpt>
      <trkpt lat="46.21979" lon="6.43446">
        <ele>771</ele>
        <time>2021-06-27T10:00:19Z</time>
      </trkpt>
      <trkpt lat="46.22011" lon="6.43491">
        <ele>771</ele>
        <time>2021-06-27T10:00:28Z</time>
      </trkpt>
      <trkpt lat="46.22021" lon="6.43509">
        <ele>771.08984375</ele>
        <time>2021-06-27T10:00:31Z</time>
      </trkpt>
      <trkpt lat="46.22039" lon="6.43546">
        <ele>771.7734375</ele>
        <time>2021-06-27T10:00:37Z</time>
      </trkpt>
      <trkpt lat="46.22057" lon="6.43565">
        <ele>772.46875</ele>
        <time>2021-06-27T10:00:41Z</time>
      </trkpt>
      <trkpt lat="46.2207" lon="6.43575">
        <ele>772.8359375</ele>
        <time>2021-06-27T10:00:44Z</time>
      </trkpt>
      <trkpt lat="46.2209" lon="6.43597">
        <ele>774.21875</ele>
        <time>2021-06-27T10:00:50Z</time>
      </trkpt>
      <trkpt lat="46.22113" lon="6.43608">
        <ele>775</ele>
        <time>2021-06-27T10:00:57Z</time>
      </trkpt>
      <trkpt lat="46.22131" lon="6.43621">
        <ele>775.51953125</ele>
        <time>2021-06-27T10:01:02Z</time>
      </trkpt>
      <trkpt lat="46.22148" lon="6.43626">
        <ele>775.90625</ele>
        <time>2021-06-27T10:01:08Z</time>
      </trkpt>
      <trkpt lat="46.22155" lon="6.43624">
        <ele>775.98828125</ele>
        <time>2021-06-27T10:01:13Z</time>
      </trkpt>
      <trkpt lat="46.22172" lon="6.43628">
        <ele>776.56640625</ele>
        <time>2021-06-27T10:01:20Z</time>
      </trkpt>
      <trkpt lat="46.22201" lon="6.43655">
        <ele>777</ele>
        <time>2021-06-27T10:01:31Z</time>
      </trkpt>
      <trkpt lat="46.22213" lon="6.43664">
        <ele>777.0703125</ele>
        <time>2021-06-27T10:01:35Z</time>
      </trkpt>
      <trkpt lat="46.22236" lon="6.43671">
        <ele>777.9140625</ele>
        <time>2021-06-27T10:01:43Z</time>
      </trkpt>
      <trkpt lat="46.2224" lon="6.43676">
        <ele>778</ele>
        <time>2021-06-27T10:01:45Z</time>
      </trkpt>
      <trkpt lat="46.22242" lon="6.43678">
        <ele>778</ele>
        <time>2021-06-27T10:01:46Z</time>
      </trkpt>
      <trkpt lat="46.22251" lon="6.43679">
        <ele>778</ele>
        <time>2021-06-27T10:01:50Z</time>
      </trkpt>
      <trkpt lat="46.22288" lon="6.43697">
        <ele>778.2265625</ele>
        <time>2021-06-27T10:02:00Z</time>
      </trkpt>
      <trkpt lat="46.22317" lon="6.43726">
        <ele>779.26953125</ele>
        <time>2021-06-27T10:02:06Z</time>
      </trkpt>
      <trkpt lat="46.22339" lon="6.43786">
        <ele>779.66015625</ele>
        <time>2021-06-27T10:02:17Z</time>
      </trkpt>
      <trkpt lat="46.22365" lon="6.43835">
        <ele>780.18359375</ele>
        <time>2021-06-27T10:02:28Z</time>
      </trkpt>
      <trkpt lat="46.22401" lon="6.43865">
        <ele>781.24609375</ele>
        <time>2021-06-27T10:02:38Z</time>
      </trkpt>
      <trkpt lat="46.22404" lon="6.43869">
        <ele>781.4140625</ele>
        <time>2021-06-27T10:02:39Z</time>
      </trkpt>
      <trkpt lat="46.22409" lon="6.43917">
        <ele>782.12109375</ele>
        <time>2021-06-27T10:02:48Z</time>
      </trkpt>
      <trkpt lat="46.22419" lon="6.43951">
        <ele>783.578125</ele>
        <time>2021-06-27T10:02:58Z</time>
      </trkpt>
      <trkpt lat="46.22416" lon="6.43959">
        <ele>784.078125</ele>
        <time>2021-06-27T10:03:06Z</time>
      </trkpt>
      <trkpt lat="46.22415" lon="6.43961">
        <ele>784.2265625</ele>
        <time>2021-06-27T10:03:08Z</time>
      </trkpt>
      <trkpt lat="46.22436" lon="6.4399">
        <ele>784.6953125</ele>
        <time>2021-06-27T10:03:18Z</time>
      </trkpt>
      <trkpt lat="46.22452" lon="6.44006">
        <ele>784.921875</ele>
        <time>2021-06-27T10:03:23Z</time>
      </trkpt>
      <trkpt lat="46.22478" lon="6.44029">
        <ele>785.5703125</ele>
        <time>2021-06-27T10:03:31Z</time>
      </trkpt>
      <trkpt lat="46.225" lon="6.44075">
        <ele>786.83984375</ele>
        <time>2021-06-27T10:03:42Z</time>
      </trkpt>
      <trkpt lat="46.22503" lon="6.44079">
        <ele>786.97265625</ele>
        <time>2021-06-27T10:03:43Z</time>
      </trkpt>
      <trkpt lat="46.22523" lon="6.44116">
        <ele>788.3046875</ele>
        <time>2021-06-27T10:03:51Z</time>
      </trkpt>
      <trkpt lat="46.22548" lon="6.44147">
        <ele>788.6796875</ele>
        <time>2021-06-27T10:03:59Z</time>
      </trkpt>
      <trkpt lat="46.22562" lon="6.44125">
        <ele>787.234375</ele>
        <time>2021-06-27T10:04:06Z</time>
      </trkpt>
      <trkpt lat="46.22566" lon="6.44117">
        <ele>787.0703125</ele>
        <time>2021-06-27T10:04:08Z</time>
      </trkpt>
      <trkpt lat="46.22577" lon="6.44103">
        <ele>786.85546875</ele>
        <time>2021-06-27T10:04:11Z</time>
      </trkpt>
      <trkpt lat="46.22607" lon="6.44122">
        <ele>787</ele>
        <time>2021-06-27T10:04:20Z</time>
      </trkpt>
      <trkpt lat="46.22637" lon="6.44149">
        <ele>787.66015625</ele>
        <time>2021-06-27T10:04:31Z</time>
      </trkpt>
      <trkpt lat="46.22643" lon="6.44166">
        <ele>788.1171875</ele>
        <time>2021-06-27T10:04:40Z</time>
      </trkpt>
      <trkpt lat="46.22644" lon="6.4417">
        <ele>788.23828125</ele>
        <time>2021-06-27T10:04:41Z</time>
      </trkpt>
      <trkpt lat="46.22657" lon="6.44183">
        <ele>788.7265625</ele>
        <time>2021-06-27T10:04:46Z</time>
      </trkpt>
      <trkpt lat="46.22663" lon="6.44201">
        <ele>789.35546875</ele>
        <time>2021-06-27T10:04:50Z</time>
      </trkpt>
      <trkpt lat="46.22674" lon="6.44235">
        <ele>790.59765625</ele>
        <time>2021-06-27T10:04:57Z</time>
      </trkpt>
      <trkpt lat="46.22677" lon="6.44238">
        <ele>790.6875</ele>
        <time>2021-06-27T10:04:58Z</time>
      </trkpt>
      <trkpt lat="46.22681" lon="6.4425">
        <ele>791.125</ele>
        <time>2021-06-27T10:05:01Z</time>
      </trkpt>
      <trkpt lat="46.22685" lon="6.44254">
        <ele>791.23046875</ele>
        <time>2021-06-27T10:05:02Z</time>
      </trkpt>
      <trkpt lat="46.22706" lon="6.44285">
        <ele>791.6328125</ele>
        <time>2021-06-27T10:05:10Z</time>
      </trkpt>
      <trkpt lat="46.22719" lon="6.44294">
        <ele>791.43359375</ele>
        <time>2021-06-27T10:05:14Z</time>
      </trkpt>
      <trkpt lat="46.22738" lon="6.44293">
        <ele>790.71875</ele>
        <time>2021-06-27T10:05:23Z</time>
      </trkpt>
      <trkpt lat="46.22764" lon="6.44278">
        <ele>790.921875</ele>
        <time>2021-06-27T10:05:32Z</time>
      </trkpt>
      <trkpt lat="46.228" lon="6.44267">
        <ele>792.4765625</ele>
        <time>2021-06-27T10:05:42Z</time>
      </trkpt>
      <trkpt lat="46.22839" lon="6.4426">
        <ele>794.6875</ele>
        <time>2021-06-27T10:05:54Z</time>
      </trkpt>
      <trkpt lat="46.22864" lon="6.44256">
        <ele>796.6328125</ele>
        <time>2021-06-27T10:06:03Z</time>
      </trkpt>
      <trkpt lat="46.22878" lon="6.44245">
        <ele>798.07421875</ele>
        <time>2021-06-27T10:06:10Z</time>
      </trkpt>
      <trkpt lat="46.22903" lon="6.44224">
        <ele>800.609375</ele>
        <time>2021-06-27T10:06:21Z</time>
      </trkpt>
      <trkpt lat="46.22927" lon="6.44205">
        <ele>803.83984375</ele>
        <time>2021-06-27T10:06:31Z</time>
      </trkpt>
      <trkpt lat="46.22941" lon="6.44188">
        <ele>805.5703125</ele>
        <time>2021-06-27T10:06:38Z</time>
      </trkpt>
      <trkpt lat="46.22948" lon="6.44186">
        <ele>806.07421875</ele>
        <time>2021-06-27T10:06:42Z</time>
      </trkpt>
      <trkpt lat="46.22951" lon="6.44186">
        <ele>806.3125</ele>
        <time>2021-06-27T10:06:44Z</time>
      </trkpt>
      <trkpt lat="46.2297" lon="6.4422">
        <ele>806.9140625</ele>
        <time>2021-06-27T10:06:54Z</time>
      </trkpt>
      <trkpt lat="46.22979" lon="6.44253">
        <ele>806.9296875</ele>
        <time>2021-06-27T10:07:00Z</time>
      </trkpt>
      <trkpt lat="46.22999" lon="6.44299">
        <ele>805.98828125</ele>
        <time>2021-06-27T10:07:08Z</time>
      </trkpt>
      <trkpt lat="46.23059" lon="6.44375">
        <ele>806.3046875</ele>
        <time>2021-06-27T10:07:23Z</time>
      </trkpt>
      <trkpt lat="46.23119" lon="6.44423">
        <ele>809.6875</ele>
        <time>2021-06-27T10:07:38Z</time>
      </trkpt>
      <trkpt lat="46.23125" lon="6.44432">
        <ele>809.99609375</ele>
        <time>2021-06-27T10:07:40Z</time>
      </trkpt>
      <trkpt lat="46.23145" lon="6.44494">
        <ele>808.4375</ele>
        <time>2021-06-27T10:07:52Z</time>
      </trkpt>
      <trkpt lat="46.23164" lon="6.44562">
        <ele>808.609375</ele>
        <time>2021-06-27T10:08:06Z</time>
      </trkpt>
      <trkpt lat="46.23197" lon="6.44607">
        <ele>812.0390625</ele>
        <time>2021-06-27T10:08:20Z</time>
      </trkpt>
      <trkpt lat="46.23229" lon="6.44636">
        <ele>815.5703125</ele>
        <time>2021-06-27T10:08:33Z</time>
      </trkpt>
      <trkpt lat="46.23247" lon="6.44654">
        <ele>817.19140625</ele>
        <time>2021-06-27T10:08:41Z</time>
      </trkpt>
      <trkpt lat="46.23247" lon="6.44658">
        <ele>817.0703125</ele>
        <time>2021-06-27T10:08:42Z</time>
      </trkpt>
      <trkpt lat="46.23245" lon="6.44664">
        <ele>816.58984375</ele>
        <time>2021-06-27T10:08:44Z</time>
      </trkpt>
      <trkpt lat="46.23222" lon="6.44709">
        <ele>813.2109375</ele>
        <time>2021-06-27T10:08:57Z</time>
      </trkpt>
      <trkpt lat="46.2322" lon="6.44713">
        <ele>812.95703125</ele>
        <time>2021-06-27T10:08:58Z</time>
      </trkpt>
      <trkpt lat="46.23212" lon="6.4472">
        <ele>812.1328125</ele>
        <time>2021-06-27T10:09:02Z</time>
      </trkpt>
      <trkpt lat="46.2321" lon="6.44721">
        <ele>812.04296875</ele>
        <time>2021-06-27T10:09:03Z</time>
      </trkpt>
      <trkpt lat="46.2321" lon="6.44742">
        <ele>812.8203125</ele>
        <time>2021-06-27T10:09:10Z</time>
      </trkpt>
      <trkpt lat="46.23224" lon="6.44759">
        <ele>814.89453125</ele>
        <time>2021-06-27T10:09:16Z</time>
      </trkpt>
      <trkpt lat="46.23249" lon="6.44777">
        <ele>817.43359375</ele>
        <time>2021-06-27T10:09:24Z</time>
      </trkpt>
      <trkpt lat="46.2328" lon="6.44793">
        <ele>818.48828125</ele>
        <time>2021-06-27T10:09:33Z</time>
      </trkpt>
      <trkpt lat="46.233" lon="6.4482">
        <ele>819.7421875</ele>
        <time>2021-06-27T10:09:40Z</time>
      </trkpt>
      <trkpt lat="46.23318" lon="6.44844">
        <ele>820</ele>
        <time>2021-06-27T10:09:45Z</time>
      </trkpt>
      <trkpt lat="46.23329" lon="6.44863">
        <ele>820</ele>
        <time>2021-06-27T10:09:48Z</time>
      </trkpt>
      <trkpt lat="46.23345" lon="6.44903">
        <ele>820</ele>
        <time>2021-06-27T10:09:56Z</time>
      </trkpt>
      <trkpt lat="46.23367" lon="6.44929">
        <ele>821.1953125</ele>
        <time>2021-06-27T10:10:03Z</time>
      </trkpt>
      <trkpt lat="46.23379" lon="6.44933">
        <ele>821.6953125</ele>
        <time>2021-06-27T10:10:06Z</time>
      </trkpt>
      <trkpt lat="46.23391" lon="6.44946">
        <ele>821.8203125</ele>
        <time>2021-06-27T10:10:10Z</time>
      </trkpt>
      <trkpt lat="46.23406" lon="6.44963">
        <ele>822.6328125</ele>
        <time>2021-06-27T10:10:14Z</time>
      </trkpt>
      <trkpt lat="46.23428" lon="6.44968">
        <ele>822.98828125</ele>
        <time>2021-06-27T10:10:18Z</time>
      </trkpt>
      <trkpt lat="46.23463" lon="6.44966">
        <ele>821.85546875</ele>
        <time>2021-06-27T10:10:24Z</time>
      </trkpt>
      <trkpt lat="46.2348" lon="6.44975">
        <ele>822.36328125</ele>
        <time>2021-06-27T10:10:28Z</time>
      </trkpt>
      <trkpt lat="46.23488" lon="6.44987">
        <ele>822.6953125</ele>
        <time>2021-06-27T10:10:32Z</time>
      </trkpt>
      <trkpt lat="46.23499" lon="6.45019">
        <ele>825.37109375</ele>
        <time>2021-06-27T10:10:43Z</time>
      </trkpt>
      <trkpt lat="46.23504" lon="6.45026">
        <ele>825.56640625</ele>
        <time>2021-06-27T10:10:48Z</time>
      </trkpt>
      <trkpt lat="46.23504" lon="6.45028">
        <ele>825.70703125</ele>
        <time>2021-06-27T10:10:49Z</time>
      </trkpt>
      <trkpt lat="46.23483" lon="6.45039">
        <ele>828.94140625</ele>
        <time>2021-06-27T10:11:01Z</time>
      </trkpt>
      <trkpt lat="46.23471" lon="6.45041">
        <ele>829.9296875</ele>
        <time>2021-06-27T10:11:08Z</time>
      </trkpt>
      <trkpt lat="46.23466" lon="6.45051">
        <ele>831.53125</ele>
        <time>2021-06-27T10:11:14Z</time>
      </trkpt>
      <trkpt lat="46.23466" lon="6.45053">
        <ele>831.76953125</ele>
        <time>2021-06-27T10:11:15Z</time>
      </trkpt>
      <trkpt lat="46.23462" lon="6.45058">
        <ele>832.859375</ele>
        <time>2021-06-27T10:11:19Z</time>
      </trkpt>
      <trkpt lat="46.23456" lon="6.45065">
        <ele>834.06640625</ele>
        <time>2021-06-27T10:11:23Z</time>
      </trkpt>
      <trkpt lat="46.23437" lon="6.45065">
        <ele>834.875</ele>
        <time>2021-06-27T10:11:33Z</time>
      </trkpt>
      <trkpt lat="46.23411" lon="6.45056">
        <ele>832.0859375</ele>
        <time>2021-06-27T10:11:46Z</time>
      </trkpt>
      <trkpt lat="46.23404" lon="6.45056">
        <ele>831.39453125</ele>
        <time>2021-06-27T10:11:49Z</time>
      </trkpt>
      <trkpt lat="46.23402" lon="6.45057">
        <ele>831.35546875</ele>
        <time>2021-06-27T10:11:50Z</time>
      </trkpt>
      <trkpt lat="46.234" lon="6.45059">
        <ele>831.34765625</ele>
        <time>2021-06-27T10:11:51Z</time>
      </trkpt>
      <trkpt lat="46.23398" lon="6.45061">
        <ele>831.37890625</ele>
        <time>2021-06-27T10:11:52Z</time>
      </trkpt>
      <trkpt lat="46.23396" lon="6.45063">
        <ele>831.52734375</ele>
        <time>2021-06-27T10:11:53Z</time>
      </trkpt>
      <trkpt lat="46.23396" lon="6.45067">
        <ele>831.7890625</ele>
        <time>2021-06-27T10:11:54Z</time>
      </trkpt>
      <trkpt lat="46.23396" lon="6.4507">
        <ele>832.15625</ele>
        <time>2021-06-27T10:11:55Z</time>
      </trkpt>
      <trkpt lat="46.23397" lon="6.45073">
        <ele>832.546875</ele>
        <time>2021-06-27T10:11:56Z</time>
      </trkpt>
      <trkpt lat="46.23399" lon="6.45075">
        <ele>832.9140625</ele>
        <time>2021-06-27T10:11:57Z</time>
      </trkpt>
      <trkpt lat="46.23401" lon="6.45077">
        <ele>833.32421875</ele>
        <time>2021-06-27T10:11:58Z</time>
      </trkpt>
      <trkpt lat="46.23403" lon="6.45079">
        <ele>833.7265625</ele>
        <time>2021-06-27T10:11:59Z</time>
      </trkpt>
      <trkpt lat="46.23404" lon="6.45081">
        <ele>833.96875</ele>
        <time>2021-06-27T10:12:00Z</time>
      </trkpt>
      <trkpt lat="46.23406" lon="6.45083">
        <ele>834.19140625</ele>
        <time>2021-06-27T10:12:01Z</time>
      </trkpt>
      <trkpt lat="46.23407" lon="6.45085">
        <ele>834.40234375</ele>
        <time>2021-06-27T10:12:02Z</time>
      </trkpt>
      <trkpt lat="46.23409" lon="6.45088">
        <ele>834.63671875</ele>
        <time>2021-06-27T10:12:03Z</time>
      </trkpt>
      <trkpt lat="46.2343" lon="6.4512">
        <ele>838.1640625</ele>
        <time>2021-06-27T10:12:17Z</time>
      </trkpt>
      <trkpt lat="46.23425" lon="6.45153">
        <ele>838.33984375</ele>
        <time>2021-06-27T10:12:31Z</time>
      </trkpt>
      <trkpt lat="46.23425" lon="6.4516">
        <ele>838.38671875</ele>
        <time>2021-06-27T10:13:02Z</time>
      </trkpt>
      <trkpt lat="46.23426" lon="6.45164">
        <ele>838.46484375</ele>
        <time>2021-06-27T10:13:04Z</time>
      </trkpt>
      <trkpt lat="46.23427" lon="6.45166">
        <ele>838.5703125</ele>
        <time>2021-06-27T10:13:05Z</time>
      </trkpt>
      <trkpt lat="46.23429" lon="6.45167">
        <ele>838.69140625</ele>
        <time>2021-06-27T10:13:06Z</time>
      </trkpt>
      <trkpt lat="46.23431" lon="6.45167">
        <ele>838.82421875</ele>
        <time>2021-06-27T10:13:07Z</time>
      </trkpt>
      <trkpt lat="46.23432" lon="6.45168">
        <ele>838.9609375</ele>
        <time>2021-06-27T10:13:08Z</time>
      </trkpt>
      <trkpt lat="46.23452" lon="6.45185">
        <ele>840.34765625</ele>
        <time>2021-06-27T10:13:19Z</time>
      </trkpt>
      <trkpt lat="46.23453" lon="6.45187">
        <ele>840.4609375</ele>
        <time>2021-06-27T10:13:20Z</time>
      </trkpt>
      <trkpt lat="46.23464" lon="6.45218">
        <ele>841.203125</ele>
        <time>2021-06-27T10:13:31Z</time>
      </trkpt>
      <trkpt lat="46.23479" lon="6.45263">
        <ele>842.33203125</ele>
        <time>2021-06-27T10:13:43Z</time>
      </trkpt>
      <trkpt lat="46.23515" lon="6.45283">
        <ele>843.94921875</ele>
        <time>2021-06-27T10:13:53Z</time>
      </trkpt>
      <trkpt lat="46.23519" lon="6.45284">
        <ele>844.140625</ele>
        <time>2021-06-27T10:13:54Z</time>
      </trkpt>
      <trkpt lat="46.23523" lon="6.45284">
        <ele>844.3515625</ele>
        <time>2021-06-27T10:13:55Z</time>
      </trkpt>
      <trkpt lat="46.23569" lon="6.4531">
        <ele>846.8828125</ele>
        <time>2021-06-27T10:14:08Z</time>
      </trkpt>
      <trkpt lat="46.23587" lon="6.45317">
        <ele>846.7734375</ele>
        <time>2021-06-27T10:14:16Z</time>
      </trkpt>
      <trkpt lat="46.23587" lon="6.45316">
        <ele>846.73828125</ele>
        <time>2021-06-27T10:14:17Z</time>
      </trkpt>
      <trkpt lat="46.23586" lon="6.45315">
        <ele>846.73828125</ele>
        <time>2021-06-27T10:14:18Z</time>
      </trkpt>
      <trkpt lat="46.23585" lon="6.45315">
        <ele>846.76171875</ele>
        <time>2021-06-27T10:14:19Z</time>
      </trkpt>
      <trkpt lat="46.23581" lon="6.45314">
        <ele>846.81640625</ele>
        <time>2021-06-27T10:14:20Z</time>
      </trkpt>
      <trkpt lat="46.23548" lon="6.45296">
        <ele>845.9609375</ele>
        <time>2021-06-27T10:14:29Z</time>
      </trkpt>
      <trkpt lat="46.23525" lon="6.45285">
        <ele>844.4609375</ele>
        <time>2021-06-27T10:14:34Z</time>
      </trkpt>
      <trkpt lat="46.23522" lon="6.45281">
        <ele>844.28515625</ele>
        <time>2021-06-27T10:14:35Z</time>
      </trkpt>
      <trkpt lat="46.23522" lon="6.45276">
        <ele>844.2109375</ele>
        <time>2021-06-27T10:14:36Z</time>
      </trkpt>
      <trkpt lat="46.23523" lon="6.45266">
        <ele>844.2578125</ele>
        <time>2021-06-27T10:14:38Z</time>
      </trkpt>
      <trkpt lat="46.23527" lon="6.45263">
        <ele>844.38671875</ele>
        <time>2021-06-27T10:14:39Z</time>
      </trkpt>
      <trkpt lat="46.23531" lon="6.4526">
        <ele>844.5390625</ele>
        <time>2021-06-27T10:14:40Z</time>
      </trkpt>
      <trkpt lat="46.23536" lon="6.45258">
        <ele>844.703125</ele>
        <time>2021-06-27T10:14:41Z</time>
      </trkpt>
      <trkpt lat="46.2354" lon="6.45257">
        <ele>844.87109375</ele>
        <time>2021-06-27T10:14:42Z</time>
      </trkpt>
      <trkpt lat="46.23545" lon="6.45257">
        <ele>845.01171875</ele>
        <time>2021-06-27T10:14:43Z</time>
      </trkpt>
      <trkpt lat="46.23548" lon="6.45258">
        <ele>845.0703125</ele>
        <time>2021-06-27T10:14:44Z</time>
      </trkpt>
      <trkpt lat="46.23552" lon="6.45259">
        <ele>845.1328125</ele>
        <time>2021-06-27T10:14:45Z</time>
      </trkpt>
      <trkpt lat="46.23556" lon="6.4526">
        <ele>845.2109375</ele>
        <time>2021-06-27T10:14:46Z</time>
      </trkpt>
      <trkpt lat="46.2356" lon="6.4526">
        <ele>845.296875</ele>
        <time>2021-06-27T10:14:47Z</time>
      </trkpt>
      <trkpt lat="46.23622" lon="6.45276">
        <ele>845.078125</ele>
        <time>2021-06-27T10:15:01Z</time>
      </trkpt>
      <trkpt lat="46.23627" lon="6.45279">
        <ele>845.21484375</ele>
        <time>2021-06-27T10:15:03Z</time>
      </trkpt>
      <trkpt lat="46.23629" lon="6.45279">
        <ele>845.14453125</ele>
        <time>2021-06-27T10:15:04Z</time>
      </trkpt>
      <trkpt lat="46.23632" lon="6.45279">
        <ele>845.0390625</ele>
        <time>2021-06-27T10:15:05Z</time>
      </trkpt>
      <trkpt lat="46.23635" lon="6.4528">
        <ele>844.96484375</ele>
        <time>2021-06-27T10:15:06Z</time>
      </trkpt>
      <trkpt lat="46.23639" lon="6.45282">
        <ele>844.890625</ele>
        <time>2021-06-27T10:15:07Z</time>
      </trkpt>
      <trkpt lat="46.23647" lon="6.45286">
        <ele>844.73046875</ele>
        <time>2021-06-27T10:15:09Z</time>
      </trkpt>
      <trkpt lat="46.23652" lon="6.45287">
        <ele>844.6015625</ele>
        <time>2021-06-27T10:15:10Z</time>
      </trkpt>
      <trkpt lat="46.23657" lon="6.45288">
        <ele>844.4921875</ele>
        <time>2021-06-27T10:15:11Z</time>
      </trkpt>
      <trkpt lat="46.23662" lon="6.45288">
        <ele>844.40234375</ele>
        <time>2021-06-27T10:15:12Z</time>
      </trkpt>
      <trkpt lat="46.23667" lon="6.45288">
        <ele>844.30859375</ele>
        <time>2021-06-27T10:15:13Z</time>
      </trkpt>
      <trkpt lat="46.23671" lon="6.45288">
        <ele>844.2578125</ele>
        <time>2021-06-27T10:15:14Z</time>
      </trkpt>
      <trkpt lat="46.23676" lon="6.4529">
        <ele>844.2578125</ele>
        <time>2021-06-27T10:15:15Z</time>
      </trkpt>
      <trkpt lat="46.23681" lon="6.45292">
        <ele>844.328125</ele>
        <time>2021-06-27T10:15:16Z</time>
      </trkpt>
      <trkpt lat="46.23685" lon="6.45294">
        <ele>844.40625</ele>
        <time>2021-06-27T10:15:17Z</time>
      </trkpt>
      <trkpt lat="46.23724" lon="6.4532">
        <ele>844.5703125</ele>
        <time>2021-06-27T10:15:23Z</time>
      </trkpt>
      <trkpt lat="46.23738" lon="6.45332">
        <ele>844.28125</ele>
        <time>2021-06-27T10:15:25Z</time>
      </trkpt>
      <trkpt lat="46.23756" lon="6.45354">
        <ele>844</ele>
        <time>2021-06-27T10:15:28Z</time>
      </trkpt>
      <trkpt lat="46.23761" lon="6.45363">
        <ele>843.7578125</ele>
        <time>2021-06-27T10:15:29Z</time>
      </trkpt>
      <trkpt lat="46.23771" lon="6.45382">
        <ele>843.58203125</ele>
        <time>2021-06-27T10:15:31Z</time>
      </trkpt>
      <trkpt lat="46.23775" lon="6.45392">
        <ele>843.84765625</ele>
        <time>2021-06-27T10:15:32Z</time>
      </trkpt>
      <trkpt lat="46.23777" lon="6.45402">
        <ele>844.265625</ele>
        <time>2021-06-27T10:15:33Z</time>
      </trkpt>
      <trkpt lat="46.23778" lon="6.45412">
        <ele>844.6796875</ele>
        <time>2021-06-27T10:15:34Z</time>
      </trkpt>
      <trkpt lat="46.2378" lon="6.45421">
        <ele>844.7578125</ele>
        <time>2021-06-27T10:15:35Z</time>
      </trkpt>
      <trkpt lat="46.23783" lon="6.45428">
        <ele>844.76171875</ele>
        <time>2021-06-27T10:15:36Z</time>
      </trkpt>
      <trkpt lat="46.23791" lon="6.45436">
        <ele>844.1875</ele>
        <time>2021-06-27T10:15:40Z</time>
      </trkpt>
      <trkpt lat="46.23804" lon="6.45432">
        <ele>842.6796875</ele>
        <time>2021-06-27T10:15:43Z</time>
      </trkpt>
      <trkpt lat="46.23817" lon="6.45414">
        <ele>841.32421875</ele>
        <time>2021-06-27T10:15:47Z</time>
      </trkpt>
      <trkpt lat="46.2382" lon="6.45408">
        <ele>841.13671875</ele>
        <time>2021-06-27T10:15:48Z</time>
      </trkpt>
      <trkpt lat="46.23822" lon="6.45402">
        <ele>840.98828125</ele>
        <time>2021-06-27T10:15:49Z</time>
      </trkpt>
      <trkpt lat="46.23825" lon="6.45397">
        <ele>840.94921875</ele>
        <time>2021-06-27T10:15:50Z</time>
      </trkpt>
      <trkpt lat="46.23836" lon="6.45353">
        <ele>841.0703125</ele>
        <time>2021-06-27T10:15:58Z</time>
      </trkpt>
      <trkpt lat="46.23837" lon="6.45341">
        <ele>841.32421875</ele>
        <time>2021-06-27T10:16:00Z</time>
      </trkpt>
      <trkpt lat="46.23839" lon="6.45337">
        <ele>841.4609375</ele>
        <time>2021-06-27T10:16:01Z</time>
      </trkpt>
      <trkpt lat="46.23842" lon="6.45335">
        <ele>841.58203125</ele>
        <time>2021-06-27T10:16:02Z</time>
      </trkpt>
      <trkpt lat="46.23845" lon="6.45335">
        <ele>841.66796875</ele>
        <time>2021-06-27T10:16:03Z</time>
      </trkpt>
      <trkpt lat="46.23848" lon="6.45337">
        <ele>841.65234375</ele>
        <time>2021-06-27T10:16:04Z</time>
      </trkpt>
      <trkpt lat="46.2385" lon="6.45341">
        <ele>841.66796875</ele>
        <time>2021-06-27T10:16:05Z</time>
      </trkpt>
      <trkpt lat="46.23852" lon="6.45344">
        <ele>841.890625</ele>
        <time>2021-06-27T10:16:06Z</time>
      </trkpt>
      <trkpt lat="46.23853" lon="6.45348">
        <ele>842.0390625</ele>
        <time>2021-06-27T10:16:07Z</time>
      </trkpt>
      <trkpt lat="46.23855" lon="6.45352">
        <ele>842.12890625</ele>
        <time>2021-06-27T10:16:08Z</time>
      </trkpt>
      <trkpt lat="46.23856" lon="6.45356">
        <ele>842.14453125</ele>
        <time>2021-06-27T10:16:09Z</time>
      </trkpt>
      <trkpt lat="46.23857" lon="6.45359">
        <ele>842.27734375</ele>
        <time>2021-06-27T10:16:10Z</time>
      </trkpt>
      <trkpt lat="46.23858" lon="6.45362">
        <ele>842.46484375</ele>
        <time>2021-06-27T10:16:11Z</time>
      </trkpt>
      <trkpt lat="46.23859" lon="6.45365">
        <ele>842.640625</ele>
        <time>2021-06-27T10:16:12Z</time>
      </trkpt>
      <trkpt lat="46.2386" lon="6.45369">
        <ele>842.78125</ele>
        <time>2021-06-27T10:16:13Z</time>
      </trkpt>
      <trkpt lat="46.23861" lon="6.45372">
        <ele>842.85546875</ele>
        <time>2021-06-27T10:16:14Z</time>
      </trkpt>
      <trkpt lat="46.23868" lon="6.4541">
        <ele>843.3359375</ele>
        <time>2021-06-27T10:16:26Z</time>
      </trkpt>
      <trkpt lat="46.23874" lon="6.45435">
        <ele>843.76953125</ele>
        <time>2021-06-27T10:16:35Z</time>
      </trkpt>
      <trkpt lat="46.23875" lon="6.45438">
        <ele>843.78125</ele>
        <time>2021-06-27T10:16:36Z</time>
      </trkpt>
      <trkpt lat="46.23876" lon="6.45441">
        <ele>843.83984375</ele>
        <time>2021-06-27T10:16:37Z</time>
      </trkpt>
      <trkpt lat="46.23877" lon="6.45444">
        <ele>843.87109375</ele>
        <time>2021-06-27T10:16:38Z</time>
      </trkpt>
      <trkpt lat="46.23878" lon="6.45447">
        <ele>843.9375</ele>
        <time>2021-06-27T10:16:39Z</time>
      </trkpt>
      <trkpt lat="46.23879" lon="6.45452">
        <ele>843.98828125</ele>
        <time>2021-06-27T10:16:41Z</time>
      </trkpt>
      <trkpt lat="46.23886" lon="6.45482">
        <ele>843.78125</ele>
        <time>2021-06-27T10:16:54Z</time>
      </trkpt>
      <trkpt lat="46.2389" lon="6.45487">
        <ele>843.984375</ele>
        <time>2021-06-27T10:16:57Z</time>
      </trkpt>
      <trkpt lat="46.23892" lon="6.45488">
        <ele>844.16796875</ele>
        <time>2021-06-27T10:16:58Z</time>
      </trkpt>
      <trkpt lat="46.23893" lon="6.45487">
        <ele>844.41796875</ele>
        <time>2021-06-27T10:16:59Z</time>
      </trkpt>
      <trkpt lat="46.23895" lon="6.45486">
        <ele>844.71484375</ele>
        <time>2021-06-27T10:17:00Z</time>
      </trkpt>
      <trkpt lat="46.23896" lon="6.45484">
        <ele>845.03515625</ele>
        <time>2021-06-27T10:17:01Z</time>
      </trkpt>
      <trkpt lat="46.23897" lon="6.45483">
        <ele>845.33203125</ele>
        <time>2021-06-27T10:17:02Z</time>
      </trkpt>
      <trkpt lat="46.23898" lon="6.45481">
        <ele>845.60546875</ele>
        <time>2021-06-27T10:17:03Z</time>
      </trkpt>
      <trkpt lat="46.23898" lon="6.45478">
        <ele>845.84765625</ele>
        <time>2021-06-27T10:17:04Z</time>
      </trkpt>
      <trkpt lat="46.23898" lon="6.45476">
        <ele>846.06640625</ele>
        <time>2021-06-27T10:17:05Z</time>
      </trkpt>
      <trkpt lat="46.23898" lon="6.45474">
        <ele>846.2265625</ele>
        <time>2021-06-27T10:17:06Z</time>
      </trkpt>
      <trkpt lat="46.23898" lon="6.45472">
        <ele>846.39453125</ele>
        <time>2021-06-27T10:17:07Z</time>
      </trkpt>
      <trkpt lat="46.23898" lon="6.45469">
        <ele>846.6640625</ele>
        <time>2021-06-27T10:17:08Z</time>
      </trkpt>
      <trkpt lat="46.23899" lon="6.45467">
        <ele>847.015625</ele>
        <time>2021-06-27T10:17:09Z</time>
      </trkpt>
      <trkpt lat="46.23901" lon="6.45467">
        <ele>847.421875</ele>
        <time>2021-06-27T10:17:10Z</time>
      </trkpt>
      <trkpt lat="46.23903" lon="6.45468">
        <ele>847.7265625</ele>
        <time>2021-06-27T10:17:11Z</time>
      </trkpt>
      <trkpt lat="46.23905" lon="6.4547">
        <ele>847.86328125</ele>
        <time>2021-06-27T10:17:12Z</time>
      </trkpt>
      <trkpt lat="46.23907" lon="6.45472">
        <ele>847.984375</ele>
        <time>2021-06-27T10:17:13Z</time>
      </trkpt>
      <trkpt lat="46.23907" lon="6.45475">
        <ele>847.98046875</ele>
        <time>2021-06-27T10:17:14Z</time>
      </trkpt>
      <trkpt lat="46.23908" lon="6.45478">
        <ele>847.80859375</ele>
        <time>2021-06-27T10:17:15Z</time>
      </trkpt>
      <trkpt lat="46.23908" lon="6.45481">
        <ele>847.48046875</ele>
        <time>2021-06-27T10:17:16Z</time>
      </trkpt>
      <trkpt lat="46.23908" lon="6.455">
        <ele>845.625</ele>
        <time>2021-06-27T10:17:23Z</time>
      </trkpt>
      <trkpt lat="46.23908" lon="6.45502">
        <ele>845.3984375</ele>
        <time>2021-06-27T10:17:24Z</time>
      </trkpt>
      <trkpt lat="46.23907" lon="6.45505">
        <ele>845.03125</ele>
        <time>2021-06-27T10:17:25Z</time>
      </trkpt>
      <trkpt lat="46.23907" lon="6.45508">
        <ele>844.7890625</ele>
        <time>2021-06-27T10:17:26Z</time>
      </trkpt>
      <trkpt lat="46.23907" lon="6.45511">
        <ele>844.58203125</ele>
        <time>2021-06-27T10:17:27Z</time>
      </trkpt>
      <trkpt lat="46.23907" lon="6.45514">
        <ele>844.32421875</ele>
        <time>2021-06-27T10:17:28Z</time>
      </trkpt>
      <trkpt lat="46.23907" lon="6.45516">
        <ele>844.01953125</ele>
        <time>2021-06-27T10:17:29Z</time>
      </trkpt>
      <trkpt lat="46.23906" lon="6.45519">
        <ele>843.61328125</ele>
        <time>2021-06-27T10:17:30Z</time>
      </trkpt>
      <trkpt lat="46.23906" lon="6.45521">
        <ele>843.4921875</ele>
        <time>2021-06-27T10:17:31Z</time>
      </trkpt>
      <trkpt lat="46.23907" lon="6.45523">
        <ele>843.44921875</ele>
        <time>2021-06-27T10:17:32Z</time>
      </trkpt>
      <trkpt lat="46.23908" lon="6.45526">
        <ele>843.5234375</ele>
        <time>2021-06-27T10:17:33Z</time>
      </trkpt>
      <trkpt lat="46.23909" lon="6.45527">
        <ele>843.734375</ele>
        <time>2021-06-27T10:17:34Z</time>
      </trkpt>
      <trkpt lat="46.23911" lon="6.45528">
        <ele>844.04296875</ele>
        <time>2021-06-27T10:17:35Z</time>
      </trkpt>
      <trkpt lat="46.23913" lon="6.45527">
        <ele>844.58203125</ele>
        <time>2021-06-27T10:17:36Z</time>
      </trkpt>
      <trkpt lat="46.23914" lon="6.45525">
        <ele>845.1015625</ele>
        <time>2021-06-27T10:17:37Z</time>
      </trkpt>
      <trkpt lat="46.23916" lon="6.45523">
        <ele>845.77734375</ele>
        <time>2021-06-27T10:17:38Z</time>
      </trkpt>
      <trkpt lat="46.23922" lon="6.45513">
        <ele>848.546875</ele>
        <time>2021-06-27T10:17:43Z</time>
      </trkpt>
      <trkpt lat="46.23922" lon="6.4551">
        <ele>848.9765625</ele>
        <time>2021-06-27T10:17:44Z</time>
      </trkpt>
      <trkpt lat="46.23923" lon="6.45507">
        <ele>849.4140625</ele>
        <time>2021-06-27T10:17:45Z</time>
      </trkpt>
      <trkpt lat="46.23923" lon="6.45503">
        <ele>849.8515625</ele>
        <time>2021-06-27T10:17:46Z</time>
      </trkpt>
      <trkpt lat="46.23923" lon="6.455">
        <ele>850.27734375</ele>
        <time>2021-06-27T10:17:47Z</time>
      </trkpt>
      <trkpt lat="46.23923" lon="6.45496">
        <ele>850.75390625</ele>
        <time>2021-06-27T10:17:48Z</time>
      </trkpt>
      <trkpt lat="46.23923" lon="6.45492">
        <ele>851.07421875</ele>
        <time>2021-06-27T10:17:49Z</time>
      </trkpt>
      <trkpt lat="46.23923" lon="6.45488">
        <ele>851.41796875</ele>
        <time>2021-06-27T10:17:50Z</time>
      </trkpt>
      <trkpt lat="46.23923" lon="6.45485">
        <ele>851.8203125</ele>
        <time>2021-06-27T10:17:51Z</time>
      </trkpt>
      <trkpt lat="46.23923" lon="6.45481">
        <ele>852.17578125</ele>
        <time>2021-06-27T10:17:52Z</time>
      </trkpt>
      <trkpt lat="46.23924" lon="6.45478">
        <ele>852.5</ele>
        <time>2021-06-27T10:17:53Z</time>
      </trkpt>
      <trkpt lat="46.23924" lon="6.45475">
        <ele>852.98046875</ele>
        <time>2021-06-27T10:17:54Z</time>
      </trkpt>
      <trkpt lat="46.23925" lon="6.45473">
        <ele>853.4375</ele>
        <time>2021-06-27T10:17:55Z</time>
      </trkpt>
      <trkpt lat="46.23926" lon="6.45471">
        <ele>853.8515625</ele>
        <time>2021-06-27T10:17:56Z</time>
      </trkpt>
      <trkpt lat="46.23927" lon="6.45468">
        <ele>854.2578125</ele>
        <time>2021-06-27T10:17:57Z</time>
      </trkpt>
      <trkpt lat="46.23927" lon="6.45466">
        <ele>854.51953125</ele>
        <time>2021-06-27T10:17:58Z</time>
      </trkpt>
      <trkpt lat="46.23926" lon="6.4546">
        <ele>854.46484375</ele>
        <time>2021-06-27T10:18:05Z</time>
      </trkpt>
      <trkpt lat="46.23928" lon="6.45459">
        <ele>854.96875</ele>
        <time>2021-06-27T10:18:07Z</time>
      </trkpt>
      <trkpt lat="46.23929" lon="6.45458">
        <ele>855.43359375</ele>
        <time>2021-06-27T10:18:08Z</time>
      </trkpt>
      <trkpt lat="46.23931" lon="6.45457">
        <ele>855.8984375</ele>
        <time>2021-06-27T10:18:09Z</time>
      </trkpt>
      <trkpt lat="46.23933" lon="6.45457">
        <ele>856.3515625</ele>
        <time>2021-06-27T10:18:10Z</time>
      </trkpt>
      <trkpt lat="46.23934" lon="6.45456">
        <ele>856.76171875</ele>
        <time>2021-06-27T10:18:11Z</time>
      </trkpt>
      <trkpt lat="46.23936" lon="6.45456">
        <ele>857.265625</ele>
        <time>2021-06-27T10:18:12Z</time>
      </trkpt>
      <trkpt lat="46.23938" lon="6.45457">
        <ele>857.7734375</ele>
        <time>2021-06-27T10:18:13Z</time>
      </trkpt>
      <trkpt lat="46.2394" lon="6.45457">
        <ele>858.3125</ele>
        <time>2021-06-27T10:18:14Z</time>
      </trkpt>
      <trkpt lat="46.23968" lon="6.4547">
        <ele>863.96484375</ele>
        <time>2021-06-27T10:18:28Z</time>
      </trkpt>
      <trkpt lat="46.24" lon="6.45487">
        <ele>867.984375</ele>
        <time>2021-06-27T10:18:44Z</time>
      </trkpt>
      <trkpt lat="46.2403" lon="6.45506">
        <ele>871.1484375</ele>
        <time>2021-06-27T10:18:58Z</time>
      </trkpt>
      <trkpt lat="46.24068" lon="6.45527">
        <ele>874.47265625</ele>
        <time>2021-06-27T10:19:15Z</time>
      </trkpt>
      <trkpt lat="46.24096" lon="6.45552">
        <ele>876.58203125</ele>
        <time>2021-06-27T10:19:28Z</time>
      </trkpt>
      <trkpt lat="46.24142" lon="6.45594">
        <ele>878.5</ele>
        <time>2021-06-27T10:19:43Z</time>
      </trkpt>
      <trkpt lat="46.24209" lon="6.45624">
        <ele>880.59375</ele>
        <time>2021-06-27T10:19:59Z</time>
      </trkpt>
      <trkpt lat="46.24217" lon="6.45629">
        <ele>880.85546875</ele>
        <time>2021-06-27T10:20:01Z</time>
      </trkpt>
      <trkpt lat="46.24229" lon="6.45638">
        <ele>881.171875</ele>
        <time>2021-06-27T10:20:04Z</time>
      </trkpt>
      <trkpt lat="46.24233" lon="6.45643">
        <ele>881.26171875</ele>
        <time>2021-06-27T10:20:05Z</time>
      </trkpt>
      <trkpt lat="46.24236" lon="6.45647">
        <ele>881.35546875</ele>
        <time>2021-06-27T10:20:06Z</time>
      </trkpt>
      <trkpt lat="46.24239" lon="6.45651">
        <ele>881.47265625</ele>
        <time>2021-06-27T10:20:07Z</time>
      </trkpt>
      <trkpt lat="46.24241" lon="6.45656">
        <ele>881.6328125</ele>
        <time>2021-06-27T10:20:08Z</time>
      </trkpt>
      <trkpt lat="46.24243" lon="6.4566">
        <ele>881.78125</ele>
        <time>2021-06-27T10:20:09Z</time>
      </trkpt>
      <trkpt lat="46.2426" lon="6.457">
        <ele>882.75390625</ele>
        <time>2021-06-27T10:20:18Z</time>
      </trkpt>
      <trkpt lat="46.24296" lon="6.45745">
        <ele>886.2734375</ele>
        <time>2021-06-27T10:20:32Z</time>
      </trkpt>
      <trkpt lat="46.2434" lon="6.45773">
        <ele>890.02734375</ele>
        <time>2021-06-27T10:20:46Z</time>
      </trkpt>
      <trkpt lat="46.24357" lon="6.45791">
        <ele>890.4921875</ele>
        <time>2021-06-27T10:20:53Z</time>
      </trkpt>
      <trkpt lat="46.24357" lon="6.45796">
        <ele>890.18359375</ele>
        <time>2021-06-27T10:20:54Z</time>
      </trkpt>
      <trkpt lat="46.24356" lon="6.45803">
        <ele>889.765625</ele>
        <time>2021-06-27T10:20:55Z</time>
      </trkpt>
      <trkpt lat="46.24354" lon="6.45809">
        <ele>889.5078125</ele>
        <time>2021-06-27T10:20:56Z</time>
      </trkpt>
      <trkpt lat="46.24352" lon="6.45815">
        <ele>889.2890625</ele>
        <time>2021-06-27T10:20:57Z</time>
      </trkpt>
      <trkpt lat="46.24349" lon="6.45828">
        <ele>888.96484375</ele>
        <time>2021-06-27T10:20:59Z</time>
      </trkpt>
      <trkpt lat="46.24345" lon="6.45859">
        <ele>886.625</ele>
        <time>2021-06-27T10:21:03Z</time>
      </trkpt>
      <trkpt lat="46.24345" lon="6.45867">
        <ele>886.30859375</ele>
        <time>2021-06-27T10:21:04Z</time>
      </trkpt>
      <trkpt lat="46.24346" lon="6.45874">
        <ele>886.0625</ele>
        <time>2021-06-27T10:21:05Z</time>
      </trkpt>
      <trkpt lat="46.24347" lon="6.45882">
        <ele>885.89453125</ele>
        <time>2021-06-27T10:21:06Z</time>
      </trkpt>
      <trkpt lat="46.24349" lon="6.4589">
        <ele>885.4296875</ele>
        <time>2021-06-27T10:21:07Z</time>
      </trkpt>
      <trkpt lat="46.24352" lon="6.45897">
        <ele>884.91796875</ele>
        <time>2021-06-27T10:21:08Z</time>
      </trkpt>
      <trkpt lat="46.24355" lon="6.45904">
        <ele>884.5390625</ele>
        <time>2021-06-27T10:21:09Z</time>
      </trkpt>
      <trkpt lat="46.24358" lon="6.45911">
        <ele>884.32421875</ele>
        <time>2021-06-27T10:21:10Z</time>
      </trkpt>
      <trkpt lat="46.24411" lon="6.46005">
        <ele>882.43359375</ele>
        <time>2021-06-27T10:21:23Z</time>
      </trkpt>
      <trkpt lat="46.24416" lon="6.46013">
        <ele>881.8671875</ele>
        <time>2021-06-27T10:21:24Z</time>
      </trkpt>
      <trkpt lat="46.2445" lon="6.46059">
        <ele>878.28515625</ele>
        <time>2021-06-27T10:21:30Z</time>
      </trkpt>
      <trkpt lat="46.24469" lon="6.46091">
        <ele>876.85546875</ele>
        <time>2021-06-27T10:21:33Z</time>
      </trkpt>
      <trkpt lat="46.24488" lon="6.46125">
        <ele>877.00390625</ele>
        <time>2021-06-27T10:21:36Z</time>
      </trkpt>
      <trkpt lat="46.24497" lon="6.46144">
        <ele>877.1171875</ele>
        <time>2021-06-27T10:21:38Z</time>
      </trkpt>
      <trkpt lat="46.24507" lon="6.46159">
        <ele>877.64453125</ele>
        <time>2021-06-27T10:21:40Z</time>
      </trkpt>
      <trkpt lat="46.24514" lon="6.46168">
        <ele>877.94140625</ele>
        <time>2021-06-27T10:21:41Z</time>
      </trkpt>
      <trkpt lat="46.24527" lon="6.46185">
        <ele>878.40625</ele>
        <time>2021-06-27T10:21:43Z</time>
      </trkpt>
      <trkpt lat="46.24535" lon="6.46192">
        <ele>878.66015625</ele>
        <time>2021-06-27T10:21:44Z</time>
      </trkpt>
      <trkpt lat="46.24543" lon="6.46198">
        <ele>878.68359375</ele>
        <time>2021-06-27T10:21:45Z</time>
      </trkpt>
      <trkpt lat="46.24573" lon="6.46223">
        <ele>878.2578125</ele>
        <time>2021-06-27T10:21:49Z</time>
      </trkpt>
      <trkpt lat="46.24578" lon="6.46231">
        <ele>878.61328125</ele>
        <time>2021-06-27T10:21:50Z</time>
      </trkpt>
      <trkpt lat="46.24582" lon="6.46239">
        <ele>878.8671875</ele>
        <time>2021-06-27T10:21:51Z</time>
      </trkpt>
      <trkpt lat="46.24586" lon="6.46247">
        <ele>879</ele>
        <time>2021-06-27T10:21:52Z</time>
      </trkpt>
      <trkpt lat="46.24589" lon="6.46254">
        <ele>879</ele>
        <time>2021-06-27T10:21:53Z</time>
      </trkpt>
      <trkpt lat="46.2459" lon="6.46262">
        <ele>879</ele>
        <time>2021-06-27T10:21:54Z</time>
      </trkpt>
      <trkpt lat="46.24591" lon="6.4627">
        <ele>879</ele>
        <time>2021-06-27T10:21:55Z</time>
      </trkpt>
      <trkpt lat="46.24591" lon="6.46277">
        <ele>879.15625</ele>
        <time>2021-06-27T10:21:56Z</time>
      </trkpt>
      <trkpt lat="46.24591" lon="6.46284">
        <ele>879.40625</ele>
        <time>2021-06-27T10:21:57Z</time>
      </trkpt>
      <trkpt lat="46.24589" lon="6.46289">
        <ele>879.59375</ele>
        <time>2021-06-27T10:21:58Z</time>
      </trkpt>
      <trkpt lat="46.24588" lon="6.46293">
        <ele>879.7109375</ele>
        <time>2021-06-27T10:21:59Z</time>
      </trkpt>
      <trkpt lat="46.24587" lon="6.46295">
        <ele>879.79296875</ele>
        <time>2021-06-27T10:22:00Z</time>
      </trkpt>
      <trkpt lat="46.24585" lon="6.46296">
        <ele>879.84765625</ele>
        <time>2021-06-27T10:22:01Z</time>
      </trkpt>
      <trkpt lat="46.24583" lon="6.46296">
        <ele>879.84765625</ele>
        <time>2021-06-27T10:22:07Z</time>
      </trkpt>
      <trkpt lat="46.24573" lon="6.46294">
        <ele>879.76953125</ele>
        <time>2021-06-27T10:22:13Z</time>
      </trkpt>
      <trkpt lat="46.24572" lon="6.46295">
        <ele>879.79296875</ele>
        <time>2021-06-27T10:22:18Z</time>
      </trkpt>
      <trkpt lat="46.24579" lon="6.46296">
        <ele>879.82421875</ele>
        <time>2021-06-27T10:22:23Z</time>
      </trkpt>
      <trkpt lat="46.24585" lon="6.46297">
        <ele>879.8828125</ele>
        <time>2021-06-27T10:22:26Z</time>
      </trkpt>
      <trkpt lat="46.24588" lon="6.46312">
        <ele>880.5703125</ele>
        <time>2021-06-27T10:22:34Z</time>
      </trkpt>
      <trkpt lat="46.24588" lon="6.46323">
        <ele>881.10546875</ele>
        <time>2021-06-27T10:22:38Z</time>
      </trkpt>
      <trkpt lat="46.2459" lon="6.46334">
        <ele>881.58203125</ele>
        <time>2021-06-27T10:22:42Z</time>
      </trkpt>
      <trkpt lat="46.24591" lon="6.4634">
        <ele>881.78515625</ele>
        <time>2021-06-27T10:22:44Z</time>
      </trkpt>
      <trkpt lat="46.24596" lon="6.46355">
        <ele>882.15234375</ele>
        <time>2021-06-27T10:22:50Z</time>
      </trkpt>
      <trkpt lat="46.24598" lon="6.46357">
        <ele>882.125</ele>
        <time>2021-06-27T10:22:51Z</time>
      </trkpt>
      <trkpt lat="46.24619" lon="6.4637">
        <ele>882.63671875</ele>
        <time>2021-06-27T10:23:02Z</time>
      </trkpt>
      <trkpt lat="46.24644" lon="6.46393">
        <ele>883.6328125</ele>
        <time>2021-06-27T10:23:15Z</time>
      </trkpt>
      <trkpt lat="46.2467" lon="6.46414">
        <ele>885.2109375</ele>
        <time>2021-06-27T10:23:28Z</time>
      </trkpt>
      <trkpt lat="46.24689" lon="6.46428">
        <ele>886.890625</ele>
        <time>2021-06-27T10:23:41Z</time>
      </trkpt>
      <trkpt lat="46.24695" lon="6.46435">
        <ele>887.55859375</ele>
        <time>2021-06-27T10:23:46Z</time>
      </trkpt>
      <trkpt lat="46.24696" lon="6.46437">
        <ele>887.74609375</ele>
        <time>2021-06-27T10:23:47Z</time>
      </trkpt>
      <trkpt lat="46.24701" lon="6.46445">
        <ele>888.49609375</ele>
        <time>2021-06-27T10:23:51Z</time>
      </trkpt>
      <trkpt lat="46.24718" lon="6.46478">
        <ele>892.6875</ele>
        <time>2021-06-27T10:24:04Z</time>
      </trkpt>
      <trkpt lat="46.24738" lon="6.46522">
        <ele>896.96875</ele>
        <time>2021-06-27T10:24:19Z</time>
      </trkpt>
      <trkpt lat="46.24745" lon="6.46582">
        <ele>899.59765625</ele>
        <time>2021-06-27T10:24:35Z</time>
      </trkpt>
      <trkpt lat="46.24758" lon="6.46638">
        <ele>901.859375</ele>
        <time>2021-06-27T10:24:50Z</time>
      </trkpt>
      <trkpt lat="46.24794" lon="6.46692">
        <ele>906.15625</ele>
        <time>2021-06-27T10:25:08Z</time>
      </trkpt>
      <trkpt lat="46.24794" lon="6.46738">
        <ele>907.81640625</ele>
        <time>2021-06-27T10:25:20Z</time>
      </trkpt>
      <trkpt lat="46.24788" lon="6.46776">
        <ele>909.43359375</ele>
        <time>2021-06-27T10:25:32Z</time>
      </trkpt>
      <trkpt lat="46.24785" lon="6.46795">
        <ele>910.33203125</ele>
        <time>2021-06-27T10:25:39Z</time>
      </trkpt>
      <trkpt lat="46.24777" lon="6.46835">
        <ele>913.08203125</ele>
        <time>2021-06-27T10:25:53Z</time>
      </trkpt>
      <trkpt lat="46.24769" lon="6.46878">
        <ele>916.83984375</ele>
        <time>2021-06-27T10:26:08Z</time>
      </trkpt>
      <trkpt lat="46.24768" lon="6.46913">
        <ele>919.359375</ele>
        <time>2021-06-27T10:26:22Z</time>
      </trkpt>
      <trkpt lat="46.24779" lon="6.46929">
        <ele>921.53515625</ele>
        <time>2021-06-27T10:26:32Z</time>
      </trkpt>
      <trkpt lat="46.24786" lon="6.46951">
        <ele>923.06640625</ele>
        <time>2021-06-27T10:26:41Z</time>
      </trkpt>
      <trkpt lat="46.24787" lon="6.46955">
        <ele>923.28125</ele>
        <time>2021-06-27T10:26:43Z</time>
      </trkpt>
      <trkpt lat="46.24793" lon="6.46969">
        <ele>924.046875</ele>
        <time>2021-06-27T10:26:50Z</time>
      </trkpt>
      <trkpt lat="46.24794" lon="6.46971">
        <ele>924.3359375</ele>
        <time>2021-06-27T10:26:51Z</time>
      </trkpt>
      <trkpt lat="46.24795" lon="6.46972">
        <ele>924.671875</ele>
        <time>2021-06-27T10:26:52Z</time>
      </trkpt>
      <trkpt lat="46.24797" lon="6.46974">
        <ele>924.99609375</ele>
        <time>2021-06-27T10:26:53Z</time>
      </trkpt>
      <trkpt lat="46.24798" lon="6.46976">
        <ele>925.390625</ele>
        <time>2021-06-27T10:26:54Z</time>
      </trkpt>
      <trkpt lat="46.24799" lon="6.46977">
        <ele>925.703125</ele>
        <time>2021-06-27T10:26:55Z</time>
      </trkpt>
      <trkpt lat="46.24801" lon="6.46979">
        <ele>926.015625</ele>
        <time>2021-06-27T10:26:56Z</time>
      </trkpt>
      <trkpt lat="46.24802" lon="6.4698">
        <ele>926.359375</ele>
        <time>2021-06-27T10:26:57Z</time>
      </trkpt>
      <trkpt lat="46.24803" lon="6.46981">
        <ele>926.703125</ele>
        <time>2021-06-27T10:26:58Z</time>
      </trkpt>
      <trkpt lat="46.24805" lon="6.46983">
        <ele>927.046875</ele>
        <time>2021-06-27T10:26:59Z</time>
      </trkpt>
      <trkpt lat="46.24818" lon="6.46997">
        <ele>930.57421875</ele>
        <time>2021-06-27T10:27:09Z</time>
      </trkpt>
      <trkpt lat="46.24831" lon="6.47016">
        <ele>934.85546875</ele>
        <time>2021-06-27T10:27:20Z</time>
      </trkpt>
      <trkpt lat="46.24837" lon="6.4705">
        <ele>937.34765625</ele>
        <time>2021-06-27T10:27:34Z</time>
      </trkpt>
      <trkpt lat="46.24846" lon="6.47091">
        <ele>939.7265625</ele>
        <time>2021-06-27T10:27:48Z</time>
      </trkpt>
      <trkpt lat="46.24862" lon="6.47122">
        <ele>942.2109375</ele>
        <time>2021-06-27T10:28:01Z</time>
      </trkpt>
      <trkpt lat="46.24864" lon="6.47149">
        <ele>942.66015625</ele>
        <time>2021-06-27T10:28:14Z</time>
      </trkpt>
      <trkpt lat="46.24867" lon="6.47147">
        <ele>942.9765625</ele>
        <time>2021-06-27T10:28:33Z</time>
      </trkpt>
      <trkpt lat="46.24866" lon="6.47149">
        <ele>942.8828125</ele>
        <time>2021-06-27T10:29:05Z</time>
      </trkpt>
      <trkpt lat="46.24868" lon="6.4715">
        <ele>943.0234375</ele>
        <time>2021-06-27T10:29:48Z</time>
      </trkpt>
      <trkpt lat="46.24865" lon="6.47148">
        <ele>942.73046875</ele>
        <time>2021-06-27T10:30:29Z</time>
      </trkpt>
      <trkpt lat="46.24865" lon="6.47149">
        <ele>942.75</ele>
        <time>2021-06-27T10:31:01Z</time>
      </trkpt>
      <trkpt lat="46.24864" lon="6.47151">
        <ele>942.64453125</ele>
        <time>2021-06-27T10:31:37Z</time>
      </trkpt>
      <trkpt lat="46.24865" lon="6.4715">
        <ele>942.7578125</ele>
        <time>2021-06-27T10:32:03Z</time>
      </trkpt>
      <trkpt lat="46.24866" lon="6.4715">
        <ele>942.84765625</ele>
        <time>2021-06-27T10:32:15Z</time>
      </trkpt>
      <trkpt lat="46.24867" lon="6.47151">
        <ele>942.98828125</ele>
        <time>2021-06-27T10:32:27Z</time>
      </trkpt>
      <trkpt lat="46.24869" lon="6.47152">
        <ele>943.15234375</ele>
        <time>2021-06-27T10:32:28Z</time>
      </trkpt>
      <trkpt lat="46.2487" lon="6.47153">
        <ele>943.30859375</ele>
        <time>2021-06-27T10:32:29Z</time>
      </trkpt>
      <trkpt lat="46.24872" lon="6.47154">
        <ele>943.48046875</ele>
        <time>2021-06-27T10:32:30Z</time>
      </trkpt>
      <trkpt lat="46.24874" lon="6.47156">
        <ele>943.67578125</ele>
        <time>2021-06-27T10:32:31Z</time>
      </trkpt>
      <trkpt lat="46.24875" lon="6.47157">
        <ele>943.86328125</ele>
        <time>2021-06-27T10:32:32Z</time>
      </trkpt>
      <trkpt lat="46.24877" lon="6.4716">
        <ele>944.01953125</ele>
        <time>2021-06-27T10:32:33Z</time>
      </trkpt>
      <trkpt lat="46.24878" lon="6.47163">
        <ele>944.109375</ele>
        <time>2021-06-27T10:32:34Z</time>
      </trkpt>
      <trkpt lat="46.24879" lon="6.47166">
        <ele>944.1875</ele>
        <time>2021-06-27T10:32:35Z</time>
      </trkpt>
      <trkpt lat="46.2488" lon="6.4717">
        <ele>944.25</ele>
        <time>2021-06-27T10:32:36Z</time>
      </trkpt>
      <trkpt lat="46.2488" lon="6.47174">
        <ele>944.28515625</ele>
        <time>2021-06-27T10:32:37Z</time>
      </trkpt>
      <trkpt lat="46.2488" lon="6.47178">
        <ele>944.3046875</ele>
        <time>2021-06-27T10:32:38Z</time>
      </trkpt>
      <trkpt lat="46.24884" lon="6.4724">
        <ele>947.48828125</ele>
        <time>2021-06-27T10:32:52Z</time>
      </trkpt>
      <trkpt lat="46.24889" lon="6.47292">
        <ele>952.37890625</ele>
        <time>2021-06-27T10:33:04Z</time>
      </trkpt>
      <trkpt lat="46.2489" lon="6.47315">
        <ele>954.5625</ele>
        <time>2021-06-27T10:33:10Z</time>
      </trkpt>
      <trkpt lat="46.24888" lon="6.47318">
        <ele>954.76953125</ele>
        <time>2021-06-27T10:33:11Z</time>
      </trkpt>
      <trkpt lat="46.24886" lon="6.47321">
        <ele>954.90625</ele>
        <time>2021-06-27T10:33:12Z</time>
      </trkpt>
      <trkpt lat="46.24883" lon="6.47323">
        <ele>954.94921875</ele>
        <time>2021-06-27T10:33:13Z</time>
      </trkpt>
      <trkpt lat="46.24879" lon="6.47326">
        <ele>954.94921875</ele>
        <time>2021-06-27T10:33:14Z</time>
      </trkpt>
      <trkpt lat="46.24876" lon="6.47328">
        <ele>954.96484375</ele>
        <time>2021-06-27T10:33:15Z</time>
      </trkpt>
      <trkpt lat="46.24853" lon="6.47346">
        <ele>956.0859375</ele>
        <time>2021-06-27T10:33:21Z</time>
      </trkpt>
      <trkpt lat="46.2485" lon="6.4735">
        <ele>956.453125</ele>
        <time>2021-06-27T10:33:22Z</time>
      </trkpt>
      <trkpt lat="46.24847" lon="6.47355">
        <ele>956.85546875</ele>
        <time>2021-06-27T10:33:23Z</time>
      </trkpt>
      <trkpt lat="46.24846" lon="6.47359">
        <ele>957.296875</ele>
        <time>2021-06-27T10:33:24Z</time>
      </trkpt>
      <trkpt lat="46.24846" lon="6.47364">
        <ele>957.79296875</ele>
        <time>2021-06-27T10:33:25Z</time>
      </trkpt>
      <trkpt lat="46.24847" lon="6.47368">
        <ele>958.2734375</ele>
        <time>2021-06-27T10:33:26Z</time>
      </trkpt>
      <trkpt lat="46.24849" lon="6.47371">
        <ele>958.69140625</ele>
        <time>2021-06-27T10:33:27Z</time>
      </trkpt>
      <trkpt lat="46.24852" lon="6.47373">
        <ele>959.01171875</ele>
        <time>2021-06-27T10:33:28Z</time>
      </trkpt>
      <trkpt lat="46.24854" lon="6.47375">
        <ele>959.28125</ele>
        <time>2021-06-27T10:33:29Z</time>
      </trkpt>
      <trkpt lat="46.2486" lon="6.47382">
        <ele>960.28125</ele>
        <time>2021-06-27T10:33:33Z</time>
      </trkpt>
      <trkpt lat="46.24862" lon="6.47381">
        <ele>960.21484375</ele>
        <time>2021-06-27T10:33:34Z</time>
      </trkpt>
      <trkpt lat="46.24861" lon="6.47379">
        <ele>959.98828125</ele>
        <time>2021-06-27T10:33:35Z</time>
      </trkpt>
      <trkpt lat="46.2486" lon="6.47377">
        <ele>959.70703125</ele>
        <time>2021-06-27T10:33:36Z</time>
      </trkpt>
      <trkpt lat="46.24852" lon="6.4737">
        <ele>958.6875</ele>
        <time>2021-06-27T10:33:39Z</time>
      </trkpt>
      <trkpt lat="46.24847" lon="6.4737">
        <ele>958.515625</ele>
        <time>2021-06-27T10:33:40Z</time>
      </trkpt>
      <trkpt lat="46.24844" lon="6.47372">
        <ele>958.5859375</ele>
        <time>2021-06-27T10:33:41Z</time>
      </trkpt>
      <trkpt lat="46.24841" lon="6.47375">
        <ele>958.79296875</ele>
        <time>2021-06-27T10:33:42Z</time>
      </trkpt>
      <trkpt lat="46.24838" lon="6.47378">
        <ele>959.05078125</ele>
        <time>2021-06-27T10:33:43Z</time>
      </trkpt>
      <trkpt lat="46.24836" lon="6.47382">
        <ele>959.33984375</ele>
        <time>2021-06-27T10:33:44Z</time>
      </trkpt>
      <trkpt lat="46.24834" lon="6.47385">
        <ele>959.6875</ele>
        <time>2021-06-27T10:33:45Z</time>
      </trkpt>
      <trkpt lat="46.24832" lon="6.4739">
        <ele>960.1171875</ele>
        <time>2021-06-27T10:33:46Z</time>
      </trkpt>
      <trkpt lat="46.24805" lon="6.47447">
        <ele>965.83203125</ele>
        <time>2021-06-27T10:33:59Z</time>
      </trkpt>
      <trkpt lat="46.24781" lon="6.47499">
        <ele>971.68359375</ele>
        <time>2021-06-27T10:34:11Z</time>
      </trkpt>
      <trkpt lat="46.24744" lon="6.47537">
        <ele>976.41015625</ele>
        <time>2021-06-27T10:34:24Z</time>
      </trkpt>
      <trkpt lat="46.24702" lon="6.47551">
        <ele>976.58984375</ele>
        <time>2021-06-27T10:34:36Z</time>
      </trkpt>
      <trkpt lat="46.24674" lon="6.4756">
        <ele>975.375</ele>
        <time>2021-06-27T10:34:44Z</time>
      </trkpt>
      <trkpt lat="46.24624" lon="6.47594">
        <ele>977.29296875</ele>
        <time>2021-06-27T10:34:59Z</time>
      </trkpt>
      <trkpt lat="46.24593" lon="6.47638">
        <ele>983.56640625</ele>
        <time>2021-06-27T10:35:12Z</time>
      </trkpt>
      <trkpt lat="46.2456" lon="6.47696">
        <ele>990.86328125</ele>
        <time>2021-06-27T10:35:26Z</time>
      </trkpt>
      <trkpt lat="46.24546" lon="6.47722">
        <ele>995.390625</ele>
        <time>2021-06-27T10:35:32Z</time>
      </trkpt>
      <trkpt lat="46.24515" lon="6.47774">
        <ele>1003.2421875</ele>
        <time>2021-06-27T10:35:45Z</time>
      </trkpt>
      <trkpt lat="46.24487" lon="6.47757">
        <ele>1004.4140625</ele>
        <time>2021-06-27T10:35:54Z</time>
      </trkpt>
      <trkpt lat="46.24443" lon="6.4769">
        <ele>1000.35546875</ele>
        <time>2021-06-27T10:36:10Z</time>
      </trkpt>
      <trkpt lat="46.24401" lon="6.47624">
        <ele>996.3515625</ele>
        <time>2021-06-27T10:36:25Z</time>
      </trkpt>
      <trkpt lat="46.24379" lon="6.47592">
        <ele>995.79296875</ele>
        <time>2021-06-27T10:36:33Z</time>
      </trkpt>
      <trkpt lat="46.24375" lon="6.47588">
        <ele>995.92578125</ele>
        <time>2021-06-27T10:36:34Z</time>
      </trkpt>
      <trkpt lat="46.24372" lon="6.47585">
        <ele>996.0703125</ele>
        <time>2021-06-27T10:36:35Z</time>
      </trkpt>
      <trkpt lat="46.24359" lon="6.47576">
        <ele>996.86328125</ele>
        <time>2021-06-27T10:36:39Z</time>
      </trkpt>
      <trkpt lat="46.24303" lon="6.47552">
        <ele>1002.72265625</ele>
        <time>2021-06-27T10:36:54Z</time>
      </trkpt>
      <trkpt lat="46.24288" lon="6.47525">
        <ele>1004.34765625</ele>
        <time>2021-06-27T10:37:00Z</time>
      </trkpt>
      <trkpt lat="46.24286" lon="6.4752">
        <ele>1004.6875</ele>
        <time>2021-06-27T10:37:01Z</time>
      </trkpt>
      <trkpt lat="46.24264" lon="6.47451">
        <ele>1011.47265625</ele>
        <time>2021-06-27T10:37:15Z</time>
      </trkpt>
      <trkpt lat="46.24263" lon="6.47447">
        <ele>1012.12109375</ele>
        <time>2021-06-27T10:37:16Z</time>
      </trkpt>
      <trkpt lat="46.24247" lon="6.47378">
        <ele>1019.3515625</ele>
        <time>2021-06-27T10:37:30Z</time>
      </trkpt>
      <trkpt lat="46.24245" lon="6.47305">
        <ele>1016.890625</ele>
        <time>2021-06-27T10:37:45Z</time>
      </trkpt>
      <trkpt lat="46.24238" lon="6.47246">
        <ele>1015.1015625</ele>
        <time>2021-06-27T10:38:00Z</time>
      </trkpt>
      <trkpt lat="46.24239" lon="6.47248">
        <ele>1014.8671875</ele>
        <time>2021-06-27T10:38:13Z</time>
      </trkpt>
      <trkpt lat="46.24238" lon="6.4725">
        <ele>1015.40234375</ele>
        <time>2021-06-27T10:38:34Z</time>
      </trkpt>
      <trkpt lat="46.24239" lon="6.47248">
        <ele>1014.87109375</ele>
        <time>2021-06-27T10:39:16Z</time>
      </trkpt>
      <trkpt lat="46.24237" lon="6.47247">
        <ele>1015.5234375</ele>
        <time>2021-06-27T10:39:20Z</time>
      </trkpt>
      <trkpt lat="46.24236" lon="6.47247">
        <ele>1015.91796875</ele>
        <time>2021-06-27T10:39:21Z</time>
      </trkpt>
      <trkpt lat="46.24234" lon="6.47245">
        <ele>1016.3203125</ele>
        <time>2021-06-27T10:39:22Z</time>
      </trkpt>
      <trkpt lat="46.24232" lon="6.47242">
        <ele>1016.78515625</ele>
        <time>2021-06-27T10:39:23Z</time>
      </trkpt>
      <trkpt lat="46.24229" lon="6.47241">
        <ele>1017.5078125</ele>
        <time>2021-06-27T10:39:24Z</time>
      </trkpt>
      <trkpt lat="46.24226" lon="6.4724">
        <ele>1018.50390625</ele>
        <time>2021-06-27T10:39:25Z</time>
      </trkpt>
      <trkpt lat="46.24223" lon="6.47242">
        <ele>1019.6953125</ele>
        <time>2021-06-27T10:39:26Z</time>
      </trkpt>
      <trkpt lat="46.24219" lon="6.47244">
        <ele>1021</ele>
        <time>2021-06-27T10:39:27Z</time>
      </trkpt>
      <trkpt lat="46.24216" lon="6.47247">
        <ele>1022.36328125</ele>
        <time>2021-06-27T10:39:28Z</time>
      </trkpt>
      <trkpt lat="46.24213" lon="6.47251">
        <ele>1023.72265625</ele>
        <time>2021-06-27T10:39:29Z</time>
      </trkpt>
      <trkpt lat="46.24211" lon="6.47256">
        <ele>1025.0546875</ele>
        <time>2021-06-27T10:39:30Z</time>
      </trkpt>
      <trkpt lat="46.24209" lon="6.47261">
        <ele>1026.31640625</ele>
        <time>2021-06-27T10:39:31Z</time>
      </trkpt>
      <trkpt lat="46.24208" lon="6.47267">
        <ele>1027.3515625</ele>
        <time>2021-06-27T10:39:32Z</time>
      </trkpt>
      <trkpt lat="46.24208" lon="6.47272">
        <ele>1028.01953125</ele>
        <time>2021-06-27T10:39:33Z</time>
      </trkpt>
      <trkpt lat="46.24208" lon="6.47278">
        <ele>1028.421875</ele>
        <time>2021-06-27T10:39:34Z</time>
      </trkpt>
      <trkpt lat="46.24209" lon="6.47284">
        <ele>1028.7734375</ele>
        <time>2021-06-27T10:39:35Z</time>
      </trkpt>
      <trkpt lat="46.24214" lon="6.47343">
        <ele>1032.515625</ele>
        <time>2021-06-27T10:39:46Z</time>
      </trkpt>
      <trkpt lat="46.24225" lon="6.47405">
        <ele>1028.078125</ele>
        <time>2021-06-27T10:39:59Z</time>
      </trkpt>
      <trkpt lat="46.24218" lon="6.47466">
        <ele>1028.01953125</ele>
        <time>2021-06-27T10:40:11Z</time>
      </trkpt>
      <trkpt lat="46.24194" lon="6.4753">
        <ele>1033.79296875</ele>
        <time>2021-06-27T10:40:25Z</time>
      </trkpt>
      <trkpt lat="46.2419" lon="6.4754">
        <ele>1034.49609375</ele>
        <time>2021-06-27T10:40:27Z</time>
      </trkpt>
      <trkpt lat="46.24177" lon="6.47618">
        <ele>1033.4296875</ele>
        <time>2021-06-27T10:40:43Z</time>
      </trkpt>
      <trkpt lat="46.24149" lon="6.47648">
        <ele>1039.34765625</ele>
        <time>2021-06-27T10:40:54Z</time>
      </trkpt>
      <trkpt lat="46.24117" lon="6.47691">
        <ele>1047.25390625</ele>
        <time>2021-06-27T10:41:08Z</time>
      </trkpt>
      <trkpt lat="46.24126" lon="6.47747">
        <ele>1051.734375</ele>
        <time>2021-06-27T10:41:20Z</time>
      </trkpt>
      <trkpt lat="46.24141" lon="6.47834">
        <ele>1060.34765625</ele>
        <time>2021-06-27T10:41:39Z</time>
      </trkpt>
      <trkpt lat="46.24138" lon="6.47891">
        <ele>1062.15625</ele>
        <time>2021-06-27T10:41:51Z</time>
      </trkpt>
      <trkpt lat="46.24135" lon="6.47947">
        <ele>1060.65625</ele>
        <time>2021-06-27T10:42:03Z</time>
      </trkpt>
      <trkpt lat="46.24136" lon="6.48029">
        <ele>1063.6640625</ele>
        <time>2021-06-27T10:42:21Z</time>
      </trkpt>
      <trkpt lat="46.24146" lon="6.48068">
        <ele>1067.6640625</ele>
        <time>2021-06-27T10:42:31Z</time>
      </trkpt>
      <trkpt lat="46.24144" lon="6.4807">
        <ele>1068.3125</ele>
        <time>2021-06-27T10:42:32Z</time>
      </trkpt>
      <trkpt lat="46.24143" lon="6.48071">
        <ele>1068.8125</ele>
        <time>2021-06-27T10:42:33Z</time>
      </trkpt>
      <trkpt lat="46.24141" lon="6.48071">
        <ele>1069.25</ele>
        <time>2021-06-27T10:42:34Z</time>
      </trkpt>
      <trkpt lat="46.24139" lon="6.4807">
        <ele>1069.39453125</ele>
        <time>2021-06-27T10:42:35Z</time>
      </trkpt>
      <trkpt lat="46.24138" lon="6.48069">
        <ele>1069.46484375</ele>
        <time>2021-06-27T10:42:36Z</time>
      </trkpt>
      <trkpt lat="46.24136" lon="6.48067">
        <ele>1069.3203125</ele>
        <time>2021-06-27T10:42:37Z</time>
      </trkpt>
      <trkpt lat="46.24135" lon="6.48064">
        <ele>1069</ele>
        <time>2021-06-27T10:42:38Z</time>
      </trkpt>
      <trkpt lat="46.24135" lon="6.48062">
        <ele>1068.73046875</ele>
        <time>2021-06-27T10:42:39Z</time>
      </trkpt>
      <trkpt lat="46.24135" lon="6.48058">
        <ele>1067.9453125</ele>
        <time>2021-06-27T10:42:56Z</time>
      </trkpt>
      <trkpt lat="46.24124" lon="6.4804">
        <ele>1067.34375</ele>
        <time>2021-06-27T10:43:16Z</time>
      </trkpt>
      <trkpt lat="46.24106" lon="6.48021">
        <ele>1069.22265625</ele>
        <time>2021-06-27T10:43:30Z</time>
      </trkpt>
      <trkpt lat="46.24092" lon="6.4801">
        <ele>1071.43359375</ele>
        <time>2021-06-27T10:43:38Z</time>
      </trkpt>
      <trkpt lat="46.24091" lon="6.48008">
        <ele>1071.46484375</ele>
        <time>2021-06-27T10:43:39Z</time>
      </trkpt>
      <trkpt lat="46.24069" lon="6.47978">
        <ele>1072.8125</ele>
        <time>2021-06-27T10:43:52Z</time>
      </trkpt>
      <trkpt lat="46.24043" lon="6.47944">
        <ele>1074.84765625</ele>
        <time>2021-06-27T10:44:05Z</time>
      </trkpt>
      <trkpt lat="46.24009" lon="6.47919">
        <ele>1079.47265625</ele>
        <time>2021-06-27T10:44:20Z</time>
      </trkpt>
      <trkpt lat="46.23987" lon="6.47892">
        <ele>1081.12890625</ele>
        <time>2021-06-27T10:44:33Z</time>
      </trkpt>
      <trkpt lat="46.23966" lon="6.47881">
        <ele>1084.59375</ele>
        <time>2021-06-27T10:44:44Z</time>
      </trkpt>
      <trkpt lat="46.23968" lon="6.47918">
        <ele>1087.875</ele>
        <time>2021-06-27T10:44:55Z</time>
      </trkpt>
      <trkpt lat="46.23974" lon="6.47954">
        <ele>1090.16796875</ele>
        <time>2021-06-27T10:45:05Z</time>
      </trkpt>
      <trkpt lat="46.23963" lon="6.47977">
        <ele>1094.33984375</ele>
        <time>2021-06-27T10:45:16Z</time>
      </trkpt>
      <trkpt lat="46.23942" lon="6.47944">
        <ele>1095.484375</ele>
        <time>2021-06-27T10:45:30Z</time>
      </trkpt>
      <trkpt lat="46.23923" lon="6.47916">
        <ele>1097.59765625</ele>
        <time>2021-06-27T10:45:43Z</time>
      </trkpt>
      <trkpt lat="46.23913" lon="6.4791">
        <ele>1099.18359375</ele>
        <time>2021-06-27T10:45:49Z</time>
      </trkpt>
      <trkpt lat="46.23905" lon="6.47928">
        <ele>1102.14453125</ele>
        <time>2021-06-27T10:45:57Z</time>
      </trkpt>
      <trkpt lat="46.23905" lon="6.47931">
        <ele>1102.55859375</ele>
        <time>2021-06-27T10:45:58Z</time>
      </trkpt>
      <trkpt lat="46.23904" lon="6.47934">
        <ele>1102.93359375</ele>
        <time>2021-06-27T10:45:59Z</time>
      </trkpt>
      <trkpt lat="46.23912" lon="6.47977">
        <ele>1105.61328125</ele>
        <time>2021-06-27T10:46:14Z</time>
      </trkpt>
      <trkpt lat="46.23913" lon="6.48009">
        <ele>1109.6953125</ele>
        <time>2021-06-27T10:46:25Z</time>
      </trkpt>
      <trkpt lat="46.23898" lon="6.47987">
        <ele>1110.22265625</ele>
        <time>2021-06-27T10:46:36Z</time>
      </trkpt>
      <trkpt lat="46.23885" lon="6.47957">
        <ele>1110.76953125</ele>
        <time>2021-06-27T10:46:47Z</time>
      </trkpt>
      <trkpt lat="46.23861" lon="6.47924">
        <ele>1114.13671875</ele>
        <time>2021-06-27T10:47:02Z</time>
      </trkpt>
      <trkpt lat="46.23836" lon="6.47907">
        <ele>1119.68359375</ele>
        <time>2021-06-27T10:47:15Z</time>
      </trkpt>
      <trkpt lat="46.23823" lon="6.4788">
        <ele>1119.0546875</ele>
        <time>2021-06-27T10:47:27Z</time>
      </trkpt>
      <trkpt lat="46.23823" lon="6.47851">
        <ele>1112.79296875</ele>
        <time>2021-06-27T10:47:38Z</time>
      </trkpt>
      <trkpt lat="46.23825" lon="6.47819">
        <ele>1107.375</ele>
        <time>2021-06-27T10:47:51Z</time>
      </trkpt>
      <trkpt lat="46.23814" lon="6.47788">
        <ele>1111.50390625</ele>
        <time>2021-06-27T10:48:06Z</time>
      </trkpt>
      <trkpt lat="46.2381" lon="6.47787">
        <ele>1113.37109375</ele>
        <time>2021-06-27T10:48:09Z</time>
      </trkpt>
      <trkpt lat="46.23808" lon="6.47787">
        <ele>1114.0703125</ele>
        <time>2021-06-27T10:48:10Z</time>
      </trkpt>
      <trkpt lat="46.23795" lon="6.47817">
        <ele>1115.98828125</ele>
        <time>2021-06-27T10:48:22Z</time>
      </trkpt>
      <trkpt lat="46.23782" lon="6.47844">
        <ele>1124.28515625</ele>
        <time>2021-06-27T10:48:34Z</time>
      </trkpt>
      <trkpt lat="46.23777" lon="6.47844">
        <ele>1125.79296875</ele>
        <time>2021-06-27T10:48:36Z</time>
      </trkpt>
      <trkpt lat="46.23776" lon="6.47843">
        <ele>1126.11328125</ele>
        <time>2021-06-27T10:48:37Z</time>
      </trkpt>
      <trkpt lat="46.23774" lon="6.47842">
        <ele>1126.234375</ele>
        <time>2021-06-27T10:48:38Z</time>
      </trkpt>
      <trkpt lat="46.23773" lon="6.47839">
        <ele>1126.06640625</ele>
        <time>2021-06-27T10:48:39Z</time>
      </trkpt>
      <trkpt lat="46.23772" lon="6.47837">
        <ele>1125.5703125</ele>
        <time>2021-06-27T10:48:40Z</time>
      </trkpt>
      <trkpt lat="46.23772" lon="6.47835">
        <ele>1125.125</ele>
        <time>2021-06-27T10:48:41Z</time>
      </trkpt>
      <trkpt lat="46.23772" lon="6.47833">
        <ele>1124.68359375</ele>
        <time>2021-06-27T10:48:42Z</time>
      </trkpt>
      <trkpt lat="46.23772" lon="6.4783">
        <ele>1123.96875</ele>
        <time>2021-06-27T10:48:43Z</time>
      </trkpt>
      <trkpt lat="46.23772" lon="6.47828">
        <ele>1123.203125</ele>
        <time>2021-06-27T10:48:44Z</time>
      </trkpt>
      <trkpt lat="46.23772" lon="6.47825">
        <ele>1123.20703125</ele>
        <time>2021-06-27T10:48:45Z</time>
      </trkpt>
      <trkpt lat="46.23772" lon="6.47822">
        <ele>1123.46484375</ele>
        <time>2021-06-27T10:48:46Z</time>
      </trkpt>
      <trkpt lat="46.23772" lon="6.47819">
        <ele>1123.73828125</ele>
        <time>2021-06-27T10:48:47Z</time>
      </trkpt>
      <trkpt lat="46.23772" lon="6.47816">
        <ele>1124.0078125</ele>
        <time>2021-06-27T10:48:48Z</time>
      </trkpt>
      <trkpt lat="46.2376" lon="6.47774">
        <ele>1138.8515625</ele>
        <time>2021-06-27T10:49:03Z</time>
      </trkpt>
      <trkpt lat="46.23746" lon="6.47737">
        <ele>1148.5546875</ele>
        <time>2021-06-27T10:49:16Z</time>
      </trkpt>
      <trkpt lat="46.23746" lon="6.47734">
        <ele>1148.90625</ele>
        <time>2021-06-27T10:49:17Z</time>
      </trkpt>
      <trkpt lat="46.23743" lon="6.47696">
        <ele>1151.0703125</ele>
        <time>2021-06-27T10:49:29Z</time>
      </trkpt>
      <trkpt lat="46.23746" lon="6.47656">
        <ele>1150.7109375</ele>
        <time>2021-06-27T10:49:42Z</time>
      </trkpt>
      <trkpt lat="46.23748" lon="6.47608">
        <ele>1153.01171875</ele>
        <time>2021-06-27T10:49:58Z</time>
      </trkpt>
      <trkpt lat="46.23727" lon="6.47579">
        <ele>1156.828125</ele>
        <time>2021-06-27T10:50:12Z</time>
      </trkpt>
      <trkpt lat="46.23697" lon="6.47578">
        <ele>1159.04296875</ele>
        <time>2021-06-27T10:50:28Z</time>
      </trkpt>
      <trkpt lat="46.23696" lon="6.4758">
        <ele>1159.21484375</ele>
        <time>2021-06-27T10:50:54Z</time>
      </trkpt>
      <trkpt lat="46.23695" lon="6.4758">
        <ele>1159.34375</ele>
        <time>2021-06-27T10:51:19Z</time>
      </trkpt>
      <trkpt lat="46.23694" lon="6.4758">
        <ele>1159.4296875</ele>
        <time>2021-06-27T10:51:44Z</time>
      </trkpt>
      <trkpt lat="46.23692" lon="6.47583">
        <ele>1159.796875</ele>
        <time>2021-06-27T10:51:46Z</time>
      </trkpt>
      <trkpt lat="46.23691" lon="6.47584">
        <ele>1159.96875</ele>
        <time>2021-06-27T10:51:47Z</time>
      </trkpt>
      <trkpt lat="46.23689" lon="6.47585">
        <ele>1160.16015625</ele>
        <time>2021-06-27T10:51:48Z</time>
      </trkpt>
      <trkpt lat="46.23688" lon="6.47586">
        <ele>1160.4140625</ele>
        <time>2021-06-27T10:51:49Z</time>
      </trkpt>
      <trkpt lat="46.23686" lon="6.47587">
        <ele>1160.6640625</ele>
        <time>2021-06-27T10:51:50Z</time>
      </trkpt>
      <trkpt lat="46.23659" lon="6.47604">
        <ele>1165.34765625</ele>
        <time>2021-06-27T10:52:03Z</time>
      </trkpt>
      <trkpt lat="46.23629" lon="6.47611">
        <ele>1169.96484375</ele>
        <time>2021-06-27T10:52:15Z</time>
      </trkpt>
      <trkpt lat="46.23591" lon="6.47618">
        <ele>1176.87109375</ele>
        <time>2021-06-27T10:52:29Z</time>
      </trkpt>
      <trkpt lat="46.23553" lon="6.4762">
        <ele>1182.19140625</ele>
        <time>2021-06-27T10:52:44Z</time>
      </trkpt>
      <trkpt lat="46.23517" lon="6.47628">
        <ele>1187.4921875</ele>
        <time>2021-06-27T10:52:57Z</time>
      </trkpt>
      <trkpt lat="46.23489" lon="6.47618">
        <ele>1185.9296875</ele>
        <time>2021-06-27T10:53:09Z</time>
      </trkpt>
      <trkpt lat="46.23462" lon="6.47605">
        <ele>1183.76171875</ele>
        <time>2021-06-27T10:53:19Z</time>
      </trkpt>
      <trkpt lat="46.23428" lon="6.4759">
        <ele>1181.39453125</ele>
        <time>2021-06-27T10:53:31Z</time>
      </trkpt>
      <trkpt lat="46.23389" lon="6.47589">
        <ele>1181.84765625</ele>
        <time>2021-06-27T10:53:41Z</time>
      </trkpt>
      <trkpt lat="46.23359" lon="6.47598">
        <ele>1183.484375</ele>
        <time>2021-06-27T10:53:46Z</time>
      </trkpt>
      <trkpt lat="46.23342" lon="6.47604">
        <ele>1183.39453125</ele>
        <time>2021-06-27T10:53:49Z</time>
      </trkpt>
      <trkpt lat="46.23336" lon="6.47607">
        <ele>1183.5</ele>
        <time>2021-06-27T10:53:50Z</time>
      </trkpt>
      <trkpt lat="46.23331" lon="6.47611">
        <ele>1183.78125</ele>
        <time>2021-06-27T10:53:51Z</time>
      </trkpt>
      <trkpt lat="46.23327" lon="6.47616">
        <ele>1184.2734375</ele>
        <time>2021-06-27T10:53:52Z</time>
      </trkpt>
      <trkpt lat="46.23322" lon="6.47621">
        <ele>1184.91015625</ele>
        <time>2021-06-27T10:53:53Z</time>
      </trkpt>
      <trkpt lat="46.23306" lon="6.47641">
        <ele>1186.49609375</ele>
        <time>2021-06-27T10:53:56Z</time>
      </trkpt>
      <trkpt lat="46.23301" lon="6.47648">
        <ele>1187.890625</ele>
        <time>2021-06-27T10:53:57Z</time>
      </trkpt>
      <trkpt lat="46.23295" lon="6.47655">
        <ele>1189.14453125</ele>
        <time>2021-06-27T10:53:58Z</time>
      </trkpt>
      <trkpt lat="46.23289" lon="6.47662">
        <ele>1191.2265625</ele>
        <time>2021-06-27T10:53:59Z</time>
      </trkpt>
      <trkpt lat="46.23284" lon="6.47667">
        <ele>1193.0625</ele>
        <time>2021-06-27T10:54:00Z</time>
      </trkpt>
      <trkpt lat="46.2328" lon="6.47671">
        <ele>1194.2890625</ele>
        <time>2021-06-27T10:54:01Z</time>
      </trkpt>
      <trkpt lat="46.23275" lon="6.47674">
        <ele>1195.2578125</ele>
        <time>2021-06-27T10:54:02Z</time>
      </trkpt>
      <trkpt lat="46.23271" lon="6.47676">
        <ele>1195.53125</ele>
        <time>2021-06-27T10:54:03Z</time>
      </trkpt>
      <trkpt lat="46.23262" lon="6.47677">
        <ele>1195.66796875</ele>
        <time>2021-06-27T10:54:05Z</time>
      </trkpt>
      <trkpt lat="46.23257" lon="6.47677">
        <ele>1195.08203125</ele>
        <time>2021-06-27T10:54:06Z</time>
      </trkpt>
      <trkpt lat="46.23213" lon="6.47663">
        <ele>1188.8515625</ele>
        <time>2021-06-27T10:54:15Z</time>
      </trkpt>
      <trkpt lat="46.23198" lon="6.47657">
        <ele>1186.42578125</ele>
        <time>2021-06-27T10:54:18Z</time>
      </trkpt>
      <trkpt lat="46.23192" lon="6.47654">
        <ele>1185.52734375</ele>
        <time>2021-06-27T10:54:19Z</time>
      </trkpt>
      <trkpt lat="46.23171" lon="6.47637">
        <ele>1180.01953125</ele>
        <time>2021-06-27T10:54:25Z</time>
      </trkpt>
      <trkpt lat="46.23168" lon="6.47637">
        <ele>1179.79296875</ele>
        <time>2021-06-27T10:54:26Z</time>
      </trkpt>
      <trkpt lat="46.23165" lon="6.47637">
        <ele>1179.53125</ele>
        <time>2021-06-27T10:54:27Z</time>
      </trkpt>
      <trkpt lat="46.2316" lon="6.47637">
        <ele>1179.22265625</ele>
        <time>2021-06-27T10:54:28Z</time>
      </trkpt>
      <trkpt lat="46.23156" lon="6.47637">
        <ele>1178.98046875</ele>
        <time>2021-06-27T10:54:29Z</time>
      </trkpt>
      <trkpt lat="46.23152" lon="6.47637">
        <ele>1178.64453125</ele>
        <time>2021-06-27T10:54:30Z</time>
      </trkpt>
      <trkpt lat="46.23145" lon="6.47637">
        <ele>1177.734375</ele>
        <time>2021-06-27T10:54:31Z</time>
      </trkpt>
      <trkpt lat="46.23138" lon="6.47638">
        <ele>1177.18359375</ele>
        <time>2021-06-27T10:54:32Z</time>
      </trkpt>
      <trkpt lat="46.23123" lon="6.47642">
        <ele>1176.58203125</ele>
        <time>2021-06-27T10:54:34Z</time>
      </trkpt>
      <trkpt lat="46.23034" lon="6.47679">
        <ele>1176.95703125</ele>
        <time>2021-06-27T10:54:48Z</time>
      </trkpt>
      <trkpt lat="46.22973" lon="6.47689">
        <ele>1176.62890625</ele>
        <time>2021-06-27T10:54:59Z</time>
      </trkpt>
      <trkpt lat="46.22938" lon="6.477">
        <ele>1176.81640625</ele>
        <time>2021-06-27T10:55:06Z</time>
      </trkpt>
      <trkpt lat="46.22912" lon="6.47717">
        <ele>1177.09375</ele>
        <time>2021-06-27T10:55:12Z</time>
      </trkpt>
      <trkpt lat="46.22908" lon="6.47721">
        <ele>1177.23046875</ele>
        <time>2021-06-27T10:55:13Z</time>
      </trkpt>
      <trkpt lat="46.22872" lon="6.47776">
        <ele>1182.2109375</ele>
        <time>2021-06-27T10:55:27Z</time>
      </trkpt>
      <trkpt lat="46.22824" lon="6.47776">
        <ele>1179.68359375</ele>
        <time>2021-06-27T10:55:38Z</time>
      </trkpt>
      <trkpt lat="46.22748" lon="6.47768">
        <ele>1180.7421875</ele>
        <time>2021-06-27T10:55:55Z</time>
      </trkpt>
      <trkpt lat="46.22678" lon="6.4776">
        <ele>1185.3125</ele>
        <time>2021-06-27T10:56:09Z</time>
      </trkpt>
      <trkpt lat="46.22636" lon="6.47741">
        <ele>1187.87890625</ele>
        <time>2021-06-27T10:56:23Z</time>
      </trkpt>
      <trkpt lat="46.22593" lon="6.47731">
        <ele>1190.515625</ele>
        <time>2021-06-27T10:56:35Z</time>
      </trkpt>
      <trkpt lat="46.22589" lon="6.47729">
        <ele>1190.6953125</ele>
        <time>2021-06-27T10:56:36Z</time>
      </trkpt>
      <trkpt lat="46.22585" lon="6.47725">
        <ele>1190.71875</ele>
        <time>2021-06-27T10:56:37Z</time>
      </trkpt>
      <trkpt lat="46.22582" lon="6.47719">
        <ele>1190.5078125</ele>
        <time>2021-06-27T10:56:38Z</time>
      </trkpt>
      <trkpt lat="46.2258" lon="6.47712">
        <ele>1190.078125</ele>
        <time>2021-06-27T10:56:39Z</time>
      </trkpt>
      <trkpt lat="46.2258" lon="6.47706">
        <ele>1189.5234375</ele>
        <time>2021-06-27T10:56:40Z</time>
      </trkpt>
      <trkpt lat="46.22581" lon="6.47699">
        <ele>1188.90234375</ele>
        <time>2021-06-27T10:56:41Z</time>
      </trkpt>
      <trkpt lat="46.22582" lon="6.47693">
        <ele>1188.27734375</ele>
        <time>2021-06-27T10:56:42Z</time>
      </trkpt>
      <trkpt lat="46.22584" lon="6.47687">
        <ele>1187.66796875</ele>
        <time>2021-06-27T10:56:43Z</time>
      </trkpt>
      <trkpt lat="46.22586" lon="6.47626">
        <ele>1183.13671875</ele>
        <time>2021-06-27T10:56:56Z</time>
      </trkpt>
      <trkpt lat="46.2256" lon="6.47576">
        <ele>1184.7734375</ele>
        <time>2021-06-27T10:57:09Z</time>
      </trkpt>
      <trkpt lat="46.22557" lon="6.47578">
        <ele>1185.16015625</ele>
        <time>2021-06-27T10:57:10Z</time>
      </trkpt>
      <trkpt lat="46.22555" lon="6.47579">
        <ele>1185.53515625</ele>
        <time>2021-06-27T10:57:11Z</time>
      </trkpt>
      <trkpt lat="46.22528" lon="6.47598">
        <ele>1189.54296875</ele>
        <time>2021-06-27T10:57:24Z</time>
      </trkpt>
      <trkpt lat="46.22499" lon="6.47623">
        <ele>1193.8359375</ele>
        <time>2021-06-27T10:57:39Z</time>
      </trkpt>
      <trkpt lat="46.22466" lon="6.47645">
        <ele>1197.546875</ele>
        <time>2021-06-27T10:57:55Z</time>
      </trkpt>
      <trkpt lat="46.22437" lon="6.4766">
        <ele>1199.76171875</ele>
        <time>2021-06-27T10:58:09Z</time>
      </trkpt>
      <trkpt lat="46.22405" lon="6.47676">
        <ele>1201.0234375</ele>
        <time>2021-06-27T10:58:24Z</time>
      </trkpt>
      <trkpt lat="46.22378" lon="6.4768">
        <ele>1202.33984375</ele>
        <time>2021-06-27T10:58:37Z</time>
      </trkpt>
      <trkpt lat="46.22344" lon="6.47686">
        <ele>1203.96875</ele>
        <time>2021-06-27T10:58:51Z</time>
      </trkpt>
      <trkpt lat="46.22309" lon="6.47694">
        <ele>1208.890625</ele>
        <time>2021-06-27T10:59:04Z</time>
      </trkpt>
      <trkpt lat="46.22262" lon="6.47722">
        <ele>1218.109375</ele>
        <time>2021-06-27T10:59:19Z</time>
      </trkpt>
      <trkpt lat="46.22237" lon="6.47747">
        <ele>1223.5546875</ele>
        <time>2021-06-27T10:59:31Z</time>
      </trkpt>
      <trkpt lat="46.22235" lon="6.47748">
        <ele>1223.83984375</ele>
        <time>2021-06-27T10:59:32Z</time>
      </trkpt>
      <trkpt lat="46.22234" lon="6.47748">
        <ele>1224.03125</ele>
        <time>2021-06-27T10:59:33Z</time>
      </trkpt>
      <trkpt lat="46.22232" lon="6.47747">
        <ele>1224.1328125</ele>
        <time>2021-06-27T10:59:34Z</time>
      </trkpt>
      <trkpt lat="46.2223" lon="6.47747">
        <ele>1224.2265625</ele>
        <time>2021-06-27T10:59:35Z</time>
      </trkpt>
      <trkpt lat="46.22229" lon="6.47746">
        <ele>1224.3828125</ele>
        <time>2021-06-27T10:59:36Z</time>
      </trkpt>
      <trkpt lat="46.22216" lon="6.47751">
        <ele>1226.21484375</ele>
        <time>2021-06-27T10:59:43Z</time>
      </trkpt>
      <trkpt lat="46.222" lon="6.47756">
        <ele>1228.34375</ele>
        <time>2021-06-27T10:59:52Z</time>
      </trkpt>
      <trkpt lat="46.22185" lon="6.47758">
        <ele>1229.9140625</ele>
        <time>2021-06-27T11:00:03Z</time>
      </trkpt>
      <trkpt lat="46.22172" lon="6.47766">
        <ele>1231.4765625</ele>
        <time>2021-06-27T11:00:12Z</time>
      </trkpt>
      <trkpt lat="46.22168" lon="6.47765">
        <ele>1231.7578125</ele>
        <time>2021-06-27T11:00:33Z</time>
      </trkpt>
      <trkpt lat="46.22167" lon="6.47767">
        <ele>1231.9140625</ele>
        <time>2021-06-27T11:00:34Z</time>
      </trkpt>
      <trkpt lat="46.22166" lon="6.47769">
        <ele>1232.09765625</ele>
        <time>2021-06-27T11:00:35Z</time>
      </trkpt>
      <trkpt lat="46.22164" lon="6.47773">
        <ele>1232.53125</ele>
        <time>2021-06-27T11:00:37Z</time>
      </trkpt>
      <trkpt lat="46.22163" lon="6.47775">
        <ele>1232.9453125</ele>
        <time>2021-06-27T11:00:38Z</time>
      </trkpt>
      <trkpt lat="46.22161" lon="6.47777">
        <ele>1233.34765625</ele>
        <time>2021-06-27T11:00:39Z</time>
      </trkpt>
      <trkpt lat="46.2216" lon="6.47779">
        <ele>1233.7578125</ele>
        <time>2021-06-27T11:00:40Z</time>
      </trkpt>
      <trkpt lat="46.22158" lon="6.47781">
        <ele>1234.1328125</ele>
        <time>2021-06-27T11:00:41Z</time>
      </trkpt>
      <trkpt lat="46.22157" lon="6.47782">
        <ele>1234.41015625</ele>
        <time>2021-06-27T11:00:42Z</time>
      </trkpt>
      <trkpt lat="46.22147" lon="6.47796">
        <ele>1236.84375</ele>
        <time>2021-06-27T11:00:51Z</time>
      </trkpt>
      <trkpt lat="46.22146" lon="6.47798">
        <ele>1237.06640625</ele>
        <time>2021-06-27T11:00:52Z</time>
      </trkpt>
      <trkpt lat="46.22145" lon="6.47799">
        <ele>1237.3046875</ele>
        <time>2021-06-27T11:00:53Z</time>
      </trkpt>
      <trkpt lat="46.22144" lon="6.47801">
        <ele>1237.6171875</ele>
        <time>2021-06-27T11:00:54Z</time>
      </trkpt>
      <trkpt lat="46.22143" lon="6.47803">
        <ele>1237.984375</ele>
        <time>2021-06-27T11:00:55Z</time>
      </trkpt>
      <trkpt lat="46.22142" lon="6.47806">
        <ele>1238.3515625</ele>
        <time>2021-06-27T11:00:56Z</time>
      </trkpt>
      <trkpt lat="46.22141" lon="6.47808">
        <ele>1238.65234375</ele>
        <time>2021-06-27T11:00:57Z</time>
      </trkpt>
      <trkpt lat="46.2214" lon="6.47809">
        <ele>1238.90625</ele>
        <time>2021-06-27T11:00:58Z</time>
      </trkpt>
      <trkpt lat="46.22136" lon="6.47816">
        <ele>1239.75</ele>
        <time>2021-06-27T11:01:08Z</time>
      </trkpt>
      <trkpt lat="46.22135" lon="6.47817">
        <ele>1239.86328125</ele>
        <time>2021-06-27T11:01:23Z</time>
      </trkpt>
      <trkpt lat="46.22125" lon="6.47827">
        <ele>1240.875</ele>
        <time>2021-06-27T11:01:36Z</time>
      </trkpt>
      <trkpt lat="46.22124" lon="6.47829">
        <ele>1241.09375</ele>
        <time>2021-06-27T11:01:37Z</time>
      </trkpt>
      <trkpt lat="46.22117" lon="6.4784">
        <ele>1242.609375</ele>
        <time>2021-06-27T11:01:43Z</time>
      </trkpt>
      <trkpt lat="46.22116" lon="6.47841">
        <ele>1242.875</ele>
        <time>2021-06-27T11:01:44Z</time>
      </trkpt>
      <trkpt lat="46.22115" lon="6.47843">
        <ele>1243.05859375</ele>
        <time>2021-06-27T11:01:45Z</time>
      </trkpt>
      <trkpt lat="46.22114" lon="6.47844">
        <ele>1243.22265625</ele>
        <time>2021-06-27T11:01:46Z</time>
      </trkpt>
      <trkpt lat="46.22114" lon="6.47846">
        <ele>1243.43359375</ele>
        <time>2021-06-27T11:01:47Z</time>
      </trkpt>
      <trkpt lat="46.22113" lon="6.47847">
        <ele>1243.62890625</ele>
        <time>2021-06-27T11:01:48Z</time>
      </trkpt>
      <trkpt lat="46.22111" lon="6.47849">
        <ele>1243.78515625</ele>
        <time>2021-06-27T11:01:49Z</time>
      </trkpt>
      <trkpt lat="46.22097" lon="6.47866">
        <ele>1245.7265625</ele>
        <time>2021-06-27T11:02:00Z</time>
      </trkpt>
      <trkpt lat="46.22086" lon="6.47885">
        <ele>1248.40234375</ele>
        <time>2021-06-27T11:02:11Z</time>
      </trkpt>
      <trkpt lat="46.22075" lon="6.47899">
        <ele>1250.73046875</ele>
        <time>2021-06-27T11:02:24Z</time>
      </trkpt>
      <trkpt lat="46.22069" lon="6.47906">
        <ele>1251.796875</ele>
        <time>2021-06-27T11:02:42Z</time>
      </trkpt>
      <trkpt lat="46.22063" lon="6.47912">
        <ele>1253.078125</ele>
        <time>2021-06-27T11:02:59Z</time>
      </trkpt>
      <trkpt lat="46.22055" lon="6.47922">
        <ele>1255.4609375</ele>
        <time>2021-06-27T11:03:14Z</time>
      </trkpt>
      <trkpt lat="46.22049" lon="6.47928">
        <ele>1257</ele>
        <time>2021-06-27T11:03:32Z</time>
      </trkpt>
      <trkpt lat="46.22048" lon="6.47929">
        <ele>1257.45703125</ele>
        <time>2021-06-27T11:03:36Z</time>
      </trkpt>
      <trkpt lat="46.22047" lon="6.47931">
        <ele>1257.97265625</ele>
        <time>2021-06-27T11:03:37Z</time>
      </trkpt>
      <trkpt lat="46.22047" lon="6.47933">
        <ele>1258.5078125</ele>
        <time>2021-06-27T11:03:38Z</time>
      </trkpt>
      <trkpt lat="46.22047" lon="6.47935">
        <ele>1259.1796875</ele>
        <time>2021-06-27T11:03:39Z</time>
      </trkpt>
      <trkpt lat="46.22046" lon="6.47938">
        <ele>1259.80859375</ele>
        <time>2021-06-27T11:03:40Z</time>
      </trkpt>
      <trkpt lat="46.22045" lon="6.47939">
        <ele>1260.2265625</ele>
        <time>2021-06-27T11:03:41Z</time>
      </trkpt>
      <trkpt lat="46.22044" lon="6.47941">
        <ele>1260.59375</ele>
        <time>2021-06-27T11:03:42Z</time>
      </trkpt>
      <trkpt lat="46.22043" lon="6.47942">
        <ele>1260.96875</ele>
        <time>2021-06-27T11:03:43Z</time>
      </trkpt>
      <trkpt lat="46.22042" lon="6.47944">
        <ele>1261.3359375</ele>
        <time>2021-06-27T11:03:44Z</time>
      </trkpt>
      <trkpt lat="46.22029" lon="6.47955">
        <ele>1263.265625</ele>
        <time>2021-06-27T11:03:53Z</time>
      </trkpt>
      <trkpt lat="46.22011" lon="6.47973">
        <ele>1268.12890625</ele>
        <time>2021-06-27T11:04:07Z</time>
      </trkpt>
      <trkpt lat="46.21995" lon="6.47995">
        <ele>1275.5859375</ele>
        <time>2021-06-27T11:04:21Z</time>
      </trkpt>
      <trkpt lat="46.21994" lon="6.47996">
        <ele>1275.7734375</ele>
        <time>2021-06-27T11:04:22Z</time>
      </trkpt>
      <trkpt lat="46.2199" lon="6.47998">
        <ele>1276.2109375</ele>
        <time>2021-06-27T11:04:34Z</time>
      </trkpt>
      <trkpt lat="46.21983" lon="6.48005">
        <ele>1278.2734375</ele>
        <time>2021-06-27T11:04:54Z</time>
      </trkpt>
      <trkpt lat="46.21974" lon="6.48008">
        <ele>1279.1875</ele>
        <time>2021-06-27T11:05:09Z</time>
      </trkpt>
      <trkpt lat="46.21966" lon="6.4801">
        <ele>1279.859375</ele>
        <time>2021-06-27T11:05:31Z</time>
      </trkpt>
      <trkpt lat="46.21962" lon="6.48012">
        <ele>1280.23828125</ele>
        <time>2021-06-27T11:05:48Z</time>
      </trkpt>
      <trkpt lat="46.21952" lon="6.48014">
        <ele>1282.97265625</ele>
        <time>2021-06-27T11:06:02Z</time>
      </trkpt>
      <trkpt lat="46.21945" lon="6.4802">
        <ele>1284.90234375</ele>
        <time>2021-06-27T11:06:14Z</time>
      </trkpt>
      <trkpt lat="46.21937" lon="6.48029">
        <ele>1287.125</ele>
        <time>2021-06-27T11:06:32Z</time>
      </trkpt>
      <trkpt lat="46.21934" lon="6.48033">
        <ele>1287.81640625</ele>
        <time>2021-06-27T11:06:50Z</time>
      </trkpt>
      <trkpt lat="46.21928" lon="6.48038">
        <ele>1289.328125</ele>
        <time>2021-06-27T11:07:04Z</time>
      </trkpt>
      <trkpt lat="46.21925" lon="6.4804">
        <ele>1290.0390625</ele>
        <time>2021-06-27T11:07:14Z</time>
      </trkpt>
      <trkpt lat="46.21924" lon="6.48041">
        <ele>1290.2109375</ele>
        <time>2021-06-27T11:07:15Z</time>
      </trkpt>
      <trkpt lat="46.21923" lon="6.48042">
        <ele>1290.3671875</ele>
        <time>2021-06-27T11:07:16Z</time>
      </trkpt>
      <trkpt lat="46.21923" lon="6.48043">
        <ele>1290.5078125</ele>
        <time>2021-06-27T11:07:17Z</time>
      </trkpt>
      <trkpt lat="46.21906" lon="6.48064">
        <ele>1292.4921875</ele>
        <time>2021-06-27T11:07:30Z</time>
      </trkpt>
      <trkpt lat="46.21899" lon="6.48078">
        <ele>1292.99609375</ele>
        <time>2021-06-27T11:07:38Z</time>
      </trkpt>
      <trkpt lat="46.21898" lon="6.4808">
        <ele>1293.09375</ele>
        <time>2021-06-27T11:07:39Z</time>
      </trkpt>
      <trkpt lat="46.21897" lon="6.48081">
        <ele>1293.14453125</ele>
        <time>2021-06-27T11:07:40Z</time>
      </trkpt>
      <trkpt lat="46.21896" lon="6.48083">
        <ele>1293.16015625</ele>
        <time>2021-06-27T11:07:41Z</time>
      </trkpt>
      <trkpt lat="46.21895" lon="6.48084">
        <ele>1293.16796875</ele>
        <time>2021-06-27T11:07:42Z</time>
      </trkpt>
      <trkpt lat="46.21881" lon="6.48106">
        <ele>1291.95703125</ele>
        <time>2021-06-27T11:07:58Z</time>
      </trkpt>
      <trkpt lat="46.21874" lon="6.48116">
        <ele>1291.6953125</ele>
        <time>2021-06-27T11:08:05Z</time>
      </trkpt>
      <trkpt lat="46.21873" lon="6.48117">
        <ele>1291.76953125</ele>
        <time>2021-06-27T11:08:06Z</time>
      </trkpt>
      <trkpt lat="46.21872" lon="6.48118">
        <ele>1291.7890625</ele>
        <time>2021-06-27T11:08:07Z</time>
      </trkpt>
      <trkpt lat="46.21871" lon="6.48119">
        <ele>1291.8046875</ele>
        <time>2021-06-27T11:08:08Z</time>
      </trkpt>
      <trkpt lat="46.2187" lon="6.4812">
        <ele>1291.80078125</ele>
        <time>2021-06-27T11:08:09Z</time>
      </trkpt>
      <trkpt lat="46.21869" lon="6.48121">
        <ele>1291.8125</ele>
        <time>2021-06-27T11:08:10Z</time>
      </trkpt>
      <trkpt lat="46.21854" lon="6.48144">
        <ele>1290.59765625</ele>
        <time>2021-06-27T11:08:23Z</time>
      </trkpt>
      <trkpt lat="46.21829" lon="6.4818">
        <ele>1286.4375</ele>
        <time>2021-06-27T11:08:35Z</time>
      </trkpt>
      <trkpt lat="46.21817" lon="6.48186">
        <ele>1285.63671875</ele>
        <time>2021-06-27T11:08:40Z</time>
      </trkpt>
      <trkpt lat="46.21799" lon="6.48199">
        <ele>1283.57421875</ele>
        <time>2021-06-27T11:08:51Z</time>
      </trkpt>
      <trkpt lat="46.21787" lon="6.48204">
        <ele>1282.234375</ele>
        <time>2021-06-27T11:08:58Z</time>
      </trkpt>
      <trkpt lat="46.21785" lon="6.48204">
        <ele>1282.2734375</ele>
        <time>2021-06-27T11:08:59Z</time>
      </trkpt>
      <trkpt lat="46.21783" lon="6.48204">
        <ele>1282.18359375</ele>
        <time>2021-06-27T11:09:00Z</time>
      </trkpt>
      <trkpt lat="46.21781" lon="6.48204">
        <ele>1281.98828125</ele>
        <time>2021-06-27T11:09:01Z</time>
      </trkpt>
      <trkpt lat="46.21779" lon="6.48205">
        <ele>1281.828125</ele>
        <time>2021-06-27T11:09:02Z</time>
      </trkpt>
      <trkpt lat="46.21778" lon="6.48205">
        <ele>1281.76171875</ele>
        <time>2021-06-27T11:09:03Z</time>
      </trkpt>
      <trkpt lat="46.21777" lon="6.48204">
        <ele>1281.8671875</ele>
        <time>2021-06-27T11:09:04Z</time>
      </trkpt>
      <trkpt lat="46.21756" lon="6.48199">
        <ele>1282.296875</ele>
        <time>2021-06-27T11:09:18Z</time>
      </trkpt>
      <trkpt lat="46.2173" lon="6.48183">
        <ele>1287.99609375</ele>
        <time>2021-06-27T11:09:33Z</time>
      </trkpt>
      <trkpt lat="46.21715" lon="6.48172">
        <ele>1293.70703125</ele>
        <time>2021-06-27T11:09:41Z</time>
      </trkpt>
      <trkpt lat="46.21685" lon="6.48196">
        <ele>1290.83984375</ele>
        <time>2021-06-27T11:09:54Z</time>
      </trkpt>
      <trkpt lat="46.21651" lon="6.48214">
        <ele>1291.921875</ele>
        <time>2021-06-27T11:10:04Z</time>
      </trkpt>
      <trkpt lat="46.21647" lon="6.48217">
        <ele>1291.4296875</ele>
        <time>2021-06-27T11:10:05Z</time>
      </trkpt>
      <trkpt lat="46.21637" lon="6.48224">
        <ele>1289.6328125</ele>
        <time>2021-06-27T11:10:07Z</time>
      </trkpt>
      <trkpt lat="46.21632" lon="6.4823">
        <ele>1287.703125</ele>
        <time>2021-06-27T11:10:08Z</time>
      </trkpt>
      <trkpt lat="46.21613" lon="6.48258">
        <ele>1280.06640625</ele>
        <time>2021-06-27T11:10:12Z</time>
      </trkpt>
      <trkpt lat="46.21607" lon="6.48264">
        <ele>1278.9765625</ele>
        <time>2021-06-27T11:10:13Z</time>
      </trkpt>
      <trkpt lat="46.21588" lon="6.4828">
        <ele>1274.890625</ele>
        <time>2021-06-27T11:10:16Z</time>
      </trkpt>
      <trkpt lat="46.21565" lon="6.48298">
        <ele>1269.8828125</ele>
        <time>2021-06-27T11:10:19Z</time>
      </trkpt>
      <trkpt lat="46.21544" lon="6.48313">
        <ele>1264.984375</ele>
        <time>2021-06-27T11:10:22Z</time>
      </trkpt>
      <trkpt lat="46.21522" lon="6.48326">
        <ele>1260.59375</ele>
        <time>2021-06-27T11:10:25Z</time>
      </trkpt>
      <trkpt lat="46.21514" lon="6.48328">
        <ele>1259.57421875</ele>
        <time>2021-06-27T11:10:26Z</time>
      </trkpt>
      <trkpt lat="46.21505" lon="6.48329">
        <ele>1258.5078125</ele>
        <time>2021-06-27T11:10:27Z</time>
      </trkpt>
      <trkpt lat="46.21496" lon="6.48329">
        <ele>1257.80078125</ele>
        <time>2021-06-27T11:10:28Z</time>
      </trkpt>
      <trkpt lat="46.21488" lon="6.48329">
        <ele>1257.37109375</ele>
        <time>2021-06-27T11:10:29Z</time>
      </trkpt>
      <trkpt lat="46.21473" lon="6.48327">
        <ele>1256.6953125</ele>
        <time>2021-06-27T11:10:31Z</time>
      </trkpt>
      <trkpt lat="46.21441" lon="6.48324">
        <ele>1257.2421875</ele>
        <time>2021-06-27T11:10:35Z</time>
      </trkpt>
      <trkpt lat="46.21433" lon="6.48326">
        <ele>1256.48828125</ele>
        <time>2021-06-27T11:10:36Z</time>
      </trkpt>
      <trkpt lat="46.21425" lon="6.4833">
        <ele>1255.87109375</ele>
        <time>2021-06-27T11:10:37Z</time>
      </trkpt>
      <trkpt lat="46.21401" lon="6.48343">
        <ele>1253.72265625</ele>
        <time>2021-06-27T11:10:40Z</time>
      </trkpt>
      <trkpt lat="46.21352" lon="6.48357">
        <ele>1258.1484375</ele>
        <time>2021-06-27T11:10:49Z</time>
      </trkpt>
      <trkpt lat="46.21329" lon="6.48369">
        <ele>1258.88671875</ele>
        <time>2021-06-27T11:10:59Z</time>
      </trkpt>
      <trkpt lat="46.21317" lon="6.48378">
        <ele>1258.40234375</ele>
        <time>2021-06-27T11:11:06Z</time>
      </trkpt>
      <trkpt lat="46.21282" lon="6.48393">
        <ele>1260.75</ele>
        <time>2021-06-27T11:11:18Z</time>
      </trkpt>
      <trkpt lat="46.21226" lon="6.48411">
        <ele>1261.97265625</ele>
        <time>2021-06-27T11:11:33Z</time>
      </trkpt>
      <trkpt lat="46.21222" lon="6.48411">
        <ele>1262.2109375</ele>
        <time>2021-06-27T11:11:34Z</time>
      </trkpt>
      <trkpt lat="46.21217" lon="6.48411">
        <ele>1262.5390625</ele>
        <time>2021-06-27T11:11:35Z</time>
      </trkpt>
      <trkpt lat="46.21146" lon="6.4841">
        <ele>1265.828125</ele>
        <time>2021-06-27T11:11:50Z</time>
      </trkpt>
      <trkpt lat="46.21141" lon="6.48411">
        <ele>1266.02734375</ele>
        <time>2021-06-27T11:11:51Z</time>
      </trkpt>
      <trkpt lat="46.21132" lon="6.48415">
        <ele>1266.44140625</ele>
        <time>2021-06-27T11:11:53Z</time>
      </trkpt>
      <trkpt lat="46.21128" lon="6.48416">
        <ele>1266.6484375</ele>
        <time>2021-06-27T11:11:54Z</time>
      </trkpt>
      <trkpt lat="46.21094" lon="6.48442">
        <ele>1265.29296875</ele>
        <time>2021-06-27T11:12:05Z</time>
      </trkpt>
      <trkpt lat="46.21065" lon="6.48467">
        <ele>1259.87890625</ele>
        <time>2021-06-27T11:12:17Z</time>
      </trkpt>
      <trkpt lat="46.21031" lon="6.48463">
        <ele>1261.15234375</ele>
        <time>2021-06-27T11:12:25Z</time>
      </trkpt>
      <trkpt lat="46.21006" lon="6.48457">
        <ele>1263.59375</ele>
        <time>2021-06-27T11:12:30Z</time>
      </trkpt>
      <trkpt lat="46.20989" lon="6.48457">
        <ele>1264.6484375</ele>
        <time>2021-06-27T11:12:33Z</time>
      </trkpt>
      <trkpt lat="46.20983" lon="6.48459">
        <ele>1265.3984375</ele>
        <time>2021-06-27T11:12:34Z</time>
      </trkpt>
      <trkpt lat="46.20977" lon="6.48461">
        <ele>1266.0390625</ele>
        <time>2021-06-27T11:12:35Z</time>
      </trkpt>
      <trkpt lat="46.20972" lon="6.48465">
        <ele>1266.48046875</ele>
        <time>2021-06-27T11:12:36Z</time>
      </trkpt>
      <trkpt lat="46.20966" lon="6.48469">
        <ele>1266.984375</ele>
        <time>2021-06-27T11:12:37Z</time>
      </trkpt>
      <trkpt lat="46.20962" lon="6.48474">
        <ele>1267.4765625</ele>
        <time>2021-06-27T11:12:38Z</time>
      </trkpt>
      <trkpt lat="46.20958" lon="6.4848">
        <ele>1268.00390625</ele>
        <time>2021-06-27T11:12:39Z</time>
      </trkpt>
      <trkpt lat="46.20955" lon="6.48486">
        <ele>1268.45703125</ele>
        <time>2021-06-27T11:12:40Z</time>
      </trkpt>
      <trkpt lat="46.20953" lon="6.48492">
        <ele>1268.87109375</ele>
        <time>2021-06-27T11:12:41Z</time>
      </trkpt>
      <trkpt lat="46.2095" lon="6.48499">
        <ele>1269.58203125</ele>
        <time>2021-06-27T11:12:42Z</time>
      </trkpt>
      <trkpt lat="46.20948" lon="6.48507">
        <ele>1270.2265625</ele>
        <time>2021-06-27T11:12:43Z</time>
      </trkpt>
      <trkpt lat="46.20947" lon="6.48514">
        <ele>1270.7265625</ele>
        <time>2021-06-27T11:12:44Z</time>
      </trkpt>
      <trkpt lat="46.20947" lon="6.48521">
        <ele>1271.0625</ele>
        <time>2021-06-27T11:12:45Z</time>
      </trkpt>
      <trkpt lat="46.20947" lon="6.48527">
        <ele>1271.98046875</ele>
        <time>2021-06-27T11:12:46Z</time>
      </trkpt>
      <trkpt lat="46.20948" lon="6.48534">
        <ele>1273.1328125</ele>
        <time>2021-06-27T11:12:47Z</time>
      </trkpt>
      <trkpt lat="46.20948" lon="6.48542">
        <ele>1274.5234375</ele>
        <time>2021-06-27T11:12:48Z</time>
      </trkpt>
      <trkpt lat="46.2095" lon="6.4855">
        <ele>1275.6015625</ele>
        <time>2021-06-27T11:12:49Z</time>
      </trkpt>
      <trkpt lat="46.20952" lon="6.48558">
        <ele>1275.75390625</ele>
        <time>2021-06-27T11:12:50Z</time>
      </trkpt>
      <trkpt lat="46.20955" lon="6.48565">
        <ele>1275.5078125</ele>
        <time>2021-06-27T11:12:51Z</time>
      </trkpt>
      <trkpt lat="46.20959" lon="6.48571">
        <ele>1274.75</ele>
        <time>2021-06-27T11:12:52Z</time>
      </trkpt>
      <trkpt lat="46.20963" lon="6.48577">
        <ele>1273.609375</ele>
        <time>2021-06-27T11:12:53Z</time>
      </trkpt>
      <trkpt lat="46.20968" lon="6.48584">
        <ele>1271.7734375</ele>
        <time>2021-06-27T11:12:54Z</time>
      </trkpt>
      <trkpt lat="46.20978" lon="6.48597">
        <ele>1268.5703125</ele>
        <time>2021-06-27T11:12:56Z</time>
      </trkpt>
      <trkpt lat="46.20983" lon="6.48603">
        <ele>1267.0390625</ele>
        <time>2021-06-27T11:12:57Z</time>
      </trkpt>
      <trkpt lat="46.21001" lon="6.4862">
        <ele>1261.9453125</ele>
        <time>2021-06-27T11:13:00Z</time>
      </trkpt>
      <trkpt lat="46.21008" lon="6.48623">
        <ele>1260.63671875</ele>
        <time>2021-06-27T11:13:01Z</time>
      </trkpt>
      <trkpt lat="46.21041" lon="6.48644">
        <ele>1254.4140625</ele>
        <time>2021-06-27T11:13:06Z</time>
      </trkpt>
      <trkpt lat="46.21045" lon="6.48651">
        <ele>1253.38671875</ele>
        <time>2021-06-27T11:13:07Z</time>
      </trkpt>
      <trkpt lat="46.21048" lon="6.48659">
        <ele>1252.67578125</ele>
        <time>2021-06-27T11:13:08Z</time>
      </trkpt>
      <trkpt lat="46.21048" lon="6.48668">
        <ele>1251.01953125</ele>
        <time>2021-06-27T11:13:09Z</time>
      </trkpt>
      <trkpt lat="46.21047" lon="6.48677">
        <ele>1249.3125</ele>
        <time>2021-06-27T11:13:10Z</time>
      </trkpt>
      <trkpt lat="46.21044" lon="6.48685">
        <ele>1247.859375</ele>
        <time>2021-06-27T11:13:11Z</time>
      </trkpt>
      <trkpt lat="46.21041" lon="6.48691">
        <ele>1246.4140625</ele>
        <time>2021-06-27T11:13:12Z</time>
      </trkpt>
      <trkpt lat="46.21036" lon="6.48696">
        <ele>1245.19140625</ele>
        <time>2021-06-27T11:13:13Z</time>
      </trkpt>
      <trkpt lat="46.2103" lon="6.487">
        <ele>1244.33203125</ele>
        <time>2021-06-27T11:13:14Z</time>
      </trkpt>
      <trkpt lat="46.21023" lon="6.48702">
        <ele>1244.23828125</ele>
        <time>2021-06-27T11:13:15Z</time>
      </trkpt>
      <trkpt lat="46.21016" lon="6.48702">
        <ele>1244.5234375</ele>
        <time>2021-06-27T11:13:16Z</time>
      </trkpt>
      <trkpt lat="46.2101" lon="6.48702">
        <ele>1244.609375</ele>
        <time>2021-06-27T11:13:17Z</time>
      </trkpt>
      <trkpt lat="46.20925" lon="6.48716">
        <ele>1247.234375</ele>
        <time>2021-06-27T11:13:30Z</time>
      </trkpt>
      <trkpt lat="46.20919" lon="6.4872">
        <ele>1247.6484375</ele>
        <time>2021-06-27T11:13:31Z</time>
      </trkpt>
      <trkpt lat="46.20913" lon="6.48725">
        <ele>1247.64453125</ele>
        <time>2021-06-27T11:13:32Z</time>
      </trkpt>
      <trkpt lat="46.20907" lon="6.48731">
        <ele>1247.16796875</ele>
        <time>2021-06-27T11:13:33Z</time>
      </trkpt>
      <trkpt lat="46.20901" lon="6.48737">
        <ele>1246.25</ele>
        <time>2021-06-27T11:13:34Z</time>
      </trkpt>
      <trkpt lat="46.20896" lon="6.48745">
        <ele>1245.1171875</ele>
        <time>2021-06-27T11:13:35Z</time>
      </trkpt>
      <trkpt lat="46.20872" lon="6.48782">
        <ele>1241.1015625</ele>
        <time>2021-06-27T11:13:40Z</time>
      </trkpt>
      <trkpt lat="46.20851" lon="6.48813">
        <ele>1239.47265625</ele>
        <time>2021-06-27T11:13:44Z</time>
      </trkpt>
      <trkpt lat="46.2083" lon="6.48844">
        <ele>1236.46875</ele>
        <time>2021-06-27T11:13:48Z</time>
      </trkpt>
      <trkpt lat="46.20824" lon="6.4885">
        <ele>1235.69921875</ele>
        <time>2021-06-27T11:13:49Z</time>
      </trkpt>
      <trkpt lat="46.20819" lon="6.48854">
        <ele>1234.70703125</ele>
        <time>2021-06-27T11:13:50Z</time>
      </trkpt>
      <trkpt lat="46.20813" lon="6.48858">
        <ele>1233.84375</ele>
        <time>2021-06-27T11:13:51Z</time>
      </trkpt>
      <trkpt lat="46.20807" lon="6.4886">
        <ele>1232.94921875</ele>
        <time>2021-06-27T11:13:52Z</time>
      </trkpt>
      <trkpt lat="46.20776" lon="6.48871">
        <ele>1227.7890625</ele>
        <time>2021-06-27T11:13:56Z</time>
      </trkpt>
      <trkpt lat="46.20757" lon="6.48878">
        <ele>1224.02734375</ele>
        <time>2021-06-27T11:13:58Z</time>
      </trkpt>
      <trkpt lat="46.20725" lon="6.48887">
        <ele>1219.8984375</ele>
        <time>2021-06-27T11:14:01Z</time>
      </trkpt>
      <trkpt lat="46.20704" lon="6.4889">
        <ele>1220.1484375</ele>
        <time>2021-06-27T11:14:03Z</time>
      </trkpt>
      <trkpt lat="46.20694" lon="6.48892">
        <ele>1220.94921875</ele>
        <time>2021-06-27T11:14:04Z</time>
      </trkpt>
      <trkpt lat="46.20684" lon="6.48896">
        <ele>1221.37109375</ele>
        <time>2021-06-27T11:14:05Z</time>
      </trkpt>
      <trkpt lat="46.20675" lon="6.48901">
        <ele>1222.12890625</ele>
        <time>2021-06-27T11:14:06Z</time>
      </trkpt>
      <trkpt lat="46.20667" lon="6.48909">
        <ele>1221.82421875</ele>
        <time>2021-06-27T11:14:07Z</time>
      </trkpt>
      <trkpt lat="46.2066" lon="6.4892">
        <ele>1219.78125</ele>
        <time>2021-06-27T11:14:08Z</time>
      </trkpt>
      <trkpt lat="46.20655" lon="6.48932">
        <ele>1216.20703125</ele>
        <time>2021-06-27T11:14:09Z</time>
      </trkpt>
      <trkpt lat="46.2065" lon="6.48944">
        <ele>1212.42578125</ele>
        <time>2021-06-27T11:14:10Z</time>
      </trkpt>
      <trkpt lat="46.20647" lon="6.48954">
        <ele>1209.18359375</ele>
        <time>2021-06-27T11:14:11Z</time>
      </trkpt>
      <trkpt lat="46.20643" lon="6.48962">
        <ele>1206.296875</ele>
        <time>2021-06-27T11:14:12Z</time>
      </trkpt>
      <trkpt lat="46.20637" lon="6.48969">
        <ele>1203.921875</ele>
        <time>2021-06-27T11:14:13Z</time>
      </trkpt>
      <trkpt lat="46.20631" lon="6.48973">
        <ele>1202.2109375</ele>
        <time>2021-06-27T11:14:14Z</time>
      </trkpt>
      <trkpt lat="46.20624" lon="6.48976">
        <ele>1200.984375</ele>
        <time>2021-06-27T11:14:15Z</time>
      </trkpt>
      <trkpt lat="46.20616" lon="6.48978">
        <ele>1200.1875</ele>
        <time>2021-06-27T11:14:16Z</time>
      </trkpt>
      <trkpt lat="46.20607" lon="6.48978">
        <ele>1199.72265625</ele>
        <time>2021-06-27T11:14:17Z</time>
      </trkpt>
      <trkpt lat="46.20577" lon="6.4898">
        <ele>1192.87890625</ele>
        <time>2021-06-27T11:14:20Z</time>
      </trkpt>
      <trkpt lat="46.20546" lon="6.48976">
        <ele>1185.984375</ele>
        <time>2021-06-27T11:14:23Z</time>
      </trkpt>
      <trkpt lat="46.20536" lon="6.48972">
        <ele>1184.390625</ele>
        <time>2021-06-27T11:14:24Z</time>
      </trkpt>
      <trkpt lat="46.20527" lon="6.48966">
        <ele>1183.53515625</ele>
        <time>2021-06-27T11:14:25Z</time>
      </trkpt>
      <trkpt lat="46.20517" lon="6.48958">
        <ele>1182.828125</ele>
        <time>2021-06-27T11:14:26Z</time>
      </trkpt>
      <trkpt lat="46.20508" lon="6.4895">
        <ele>1182.828125</ele>
        <time>2021-06-27T11:14:27Z</time>
      </trkpt>
      <trkpt lat="46.20483" lon="6.48923">
        <ele>1183.015625</ele>
        <time>2021-06-27T11:14:30Z</time>
      </trkpt>
      <trkpt lat="46.20467" lon="6.48901">
        <ele>1183.82421875</ele>
        <time>2021-06-27T11:14:32Z</time>
      </trkpt>
      <trkpt lat="46.20445" lon="6.48873">
        <ele>1185.1875</ele>
        <time>2021-06-27T11:14:35Z</time>
      </trkpt>
      <trkpt lat="46.20438" lon="6.48868">
        <ele>1184.95703125</ele>
        <time>2021-06-27T11:14:36Z</time>
      </trkpt>
      <trkpt lat="46.2043" lon="6.48866">
        <ele>1184.70703125</ele>
        <time>2021-06-27T11:14:37Z</time>
      </trkpt>
      <trkpt lat="46.20421" lon="6.48866">
        <ele>1184.11328125</ele>
        <time>2021-06-27T11:14:38Z</time>
      </trkpt>
      <trkpt lat="46.20412" lon="6.4887">
        <ele>1182.99609375</ele>
        <time>2021-06-27T11:14:39Z</time>
      </trkpt>
      <trkpt lat="46.20403" lon="6.48876">
        <ele>1182.078125</ele>
        <time>2021-06-27T11:14:40Z</time>
      </trkpt>
      <trkpt lat="46.20375" lon="6.48893">
        <ele>1180.83203125</ele>
        <time>2021-06-27T11:14:43Z</time>
      </trkpt>
      <trkpt lat="46.20359" lon="6.48903">
        <ele>1180.98828125</ele>
        <time>2021-06-27T11:14:45Z</time>
      </trkpt>
      <trkpt lat="46.20348" lon="6.48912">
        <ele>1180.98828125</ele>
        <time>2021-06-27T11:14:47Z</time>
      </trkpt>
      <trkpt lat="46.20344" lon="6.48919">
        <ele>1180.41796875</ele>
        <time>2021-06-27T11:14:48Z</time>
      </trkpt>
      <trkpt lat="46.20341" lon="6.48926">
        <ele>1179.703125</ele>
        <time>2021-06-27T11:14:49Z</time>
      </trkpt>
      <trkpt lat="46.20339" lon="6.48932">
        <ele>1179.171875</ele>
        <time>2021-06-27T11:14:50Z</time>
      </trkpt>
      <trkpt lat="46.20335" lon="6.48937">
        <ele>1179.140625</ele>
        <time>2021-06-27T11:14:51Z</time>
      </trkpt>
      <trkpt lat="46.20332" lon="6.48939">
        <ele>1179.22265625</ele>
        <time>2021-06-27T11:14:52Z</time>
      </trkpt>
      <trkpt lat="46.2033" lon="6.48941">
        <ele>1179.3125</ele>
        <time>2021-06-27T11:14:53Z</time>
      </trkpt>
      <trkpt lat="46.20328" lon="6.48941">
        <ele>1179.65234375</ele>
        <time>2021-06-27T11:14:54Z</time>
      </trkpt>
      <trkpt lat="46.20327" lon="6.48939">
        <ele>1180.23046875</ele>
        <time>2021-06-27T11:14:55Z</time>
      </trkpt>
      <trkpt lat="46.20325" lon="6.48938">
        <ele>1180.8671875</ele>
        <time>2021-06-27T11:14:56Z</time>
      </trkpt>
      <trkpt lat="46.20323" lon="6.48936">
        <ele>1181.2265625</ele>
        <time>2021-06-27T11:14:57Z</time>
      </trkpt>
      <trkpt lat="46.20289" lon="6.48933">
        <ele>1181.04296875</ele>
        <time>2021-06-27T11:15:08Z</time>
      </trkpt>
      <trkpt lat="46.20266" lon="6.48935">
        <ele>1179.90234375</ele>
        <time>2021-06-27T11:15:15Z</time>
      </trkpt>
      <trkpt lat="46.20262" lon="6.48935">
        <ele>1179.3515625</ele>
        <time>2021-06-27T11:15:16Z</time>
      </trkpt>
      <trkpt lat="46.20247" lon="6.48938">
        <ele>1177.6796875</ele>
        <time>2021-06-27T11:15:19Z</time>
      </trkpt>
      <trkpt lat="46.20241" lon="6.4894">
        <ele>1176.98046875</ele>
        <time>2021-06-27T11:15:20Z</time>
      </trkpt>
      <trkpt lat="46.20222" lon="6.48949">
        <ele>1174.58984375</ele>
        <time>2021-06-27T11:15:23Z</time>
      </trkpt>
      <trkpt lat="46.2021" lon="6.48953">
        <ele>1172.90625</ele>
        <time>2021-06-27T11:15:25Z</time>
      </trkpt>
      <trkpt lat="46.20204" lon="6.48955">
        <ele>1171.734375</ele>
        <time>2021-06-27T11:15:26Z</time>
      </trkpt>
      <trkpt lat="46.20198" lon="6.48959">
        <ele>1170.5</ele>
        <time>2021-06-27T11:15:27Z</time>
      </trkpt>
      <trkpt lat="46.20184" lon="6.48966">
        <ele>1167.83984375</ele>
        <time>2021-06-27T11:15:29Z</time>
      </trkpt>
      <trkpt lat="46.20177" lon="6.4897">
        <ele>1165.8203125</ele>
        <time>2021-06-27T11:15:30Z</time>
      </trkpt>
      <trkpt lat="46.20156" lon="6.4898">
        <ele>1159.77734375</ele>
        <time>2021-06-27T11:15:33Z</time>
      </trkpt>
      <trkpt lat="46.20144" lon="6.48985">
        <ele>1155.99609375</ele>
        <time>2021-06-27T11:15:35Z</time>
      </trkpt>
      <trkpt lat="46.20137" lon="6.48986">
        <ele>1153.9765625</ele>
        <time>2021-06-27T11:15:36Z</time>
      </trkpt>
      <trkpt lat="46.20131" lon="6.48987">
        <ele>1152.1328125</ele>
        <time>2021-06-27T11:15:37Z</time>
      </trkpt>
      <trkpt lat="46.20118" lon="6.48987">
        <ele>1150.2109375</ele>
        <time>2021-06-27T11:15:39Z</time>
      </trkpt>
      <trkpt lat="46.20111" lon="6.48987">
        <ele>1149.16796875</ele>
        <time>2021-06-27T11:15:40Z</time>
      </trkpt>
      <trkpt lat="46.20095" lon="6.4899">
        <ele>1147.4765625</ele>
        <time>2021-06-27T11:15:43Z</time>
      </trkpt>
      <trkpt lat="46.2009" lon="6.4899">
        <ele>1147.45703125</ele>
        <time>2021-06-27T11:15:44Z</time>
      </trkpt>
      <trkpt lat="46.20084" lon="6.4899">
        <ele>1147.46875</ele>
        <time>2021-06-27T11:15:45Z</time>
      </trkpt>
      <trkpt lat="46.20077" lon="6.4899">
        <ele>1147.38671875</ele>
        <time>2021-06-27T11:15:46Z</time>
      </trkpt>
      <trkpt lat="46.20069" lon="6.48991">
        <ele>1147.5703125</ele>
        <time>2021-06-27T11:15:47Z</time>
      </trkpt>
      <trkpt lat="46.20063" lon="6.48991">
        <ele>1147.984375</ele>
        <time>2021-06-27T11:15:48Z</time>
      </trkpt>
      <trkpt lat="46.20056" lon="6.4899">
        <ele>1148.50390625</ele>
        <time>2021-06-27T11:15:49Z</time>
      </trkpt>
      <trkpt lat="46.20041" lon="6.48986">
        <ele>1149.37890625</ele>
        <time>2021-06-27T11:15:51Z</time>
      </trkpt>
      <trkpt lat="46.20036" lon="6.48985">
        <ele>1149.5625</ele>
        <time>2021-06-27T11:15:52Z</time>
      </trkpt>
      <trkpt lat="46.20031" lon="6.48983">
        <ele>1149.7109375</ele>
        <time>2021-06-27T11:15:53Z</time>
      </trkpt>
      <trkpt lat="46.20012" lon="6.48975">
        <ele>1149.92578125</ele>
        <time>2021-06-27T11:15:57Z</time>
      </trkpt>
      <trkpt lat="46.20007" lon="6.48974">
        <ele>1149.83984375</ele>
        <time>2021-06-27T11:15:58Z</time>
      </trkpt>
      <trkpt lat="46.19984" lon="6.48971">
        <ele>1149.8671875</ele>
        <time>2021-06-27T11:16:06Z</time>
      </trkpt>
      <trkpt lat="46.19964" lon="6.4895">
        <ele>1149.1953125</ele>
        <time>2021-06-27T11:16:16Z</time>
      </trkpt>
      <trkpt lat="46.19955" lon="6.48942">
        <ele>1148.65625</ele>
        <time>2021-06-27T11:16:19Z</time>
      </trkpt>
      <trkpt lat="46.19904" lon="6.4894">
        <ele>1150.0859375</ele>
        <time>2021-06-27T11:16:32Z</time>
      </trkpt>
      <trkpt lat="46.19878" lon="6.48944">
        <ele>1149.38671875</ele>
        <time>2021-06-27T11:16:41Z</time>
      </trkpt>
      <trkpt lat="46.19843" lon="6.48944">
        <ele>1146.59375</ele>
        <time>2021-06-27T11:16:51Z</time>
      </trkpt>
      <trkpt lat="46.19817" lon="6.4893">
        <ele>1140.48046875</ele>
        <time>2021-06-27T11:16:57Z</time>
      </trkpt>
      <trkpt lat="46.19812" lon="6.48927">
        <ele>1139.0234375</ele>
        <time>2021-06-27T11:16:58Z</time>
      </trkpt>
      <trkpt lat="46.198" lon="6.48922">
        <ele>1136.34765625</ele>
        <time>2021-06-27T11:17:00Z</time>
      </trkpt>
      <trkpt lat="46.19795" lon="6.48921">
        <ele>1135.22265625</ele>
        <time>2021-06-27T11:17:01Z</time>
      </trkpt>
      <trkpt lat="46.19791" lon="6.48921">
        <ele>1134.11328125</ele>
        <time>2021-06-27T11:17:02Z</time>
      </trkpt>
      <trkpt lat="46.19787" lon="6.48921">
        <ele>1133.125</ele>
        <time>2021-06-27T11:17:03Z</time>
      </trkpt>
      <trkpt lat="46.19782" lon="6.48922">
        <ele>1131.9765625</ele>
        <time>2021-06-27T11:17:04Z</time>
      </trkpt>
      <trkpt lat="46.19766" lon="6.48924">
        <ele>1127.87109375</ele>
        <time>2021-06-27T11:17:07Z</time>
      </trkpt>
      <trkpt lat="46.19753" lon="6.48924">
        <ele>1124.13671875</ele>
        <time>2021-06-27T11:17:09Z</time>
      </trkpt>
      <trkpt lat="46.19742" lon="6.48925">
        <ele>1120.796875</ele>
        <time>2021-06-27T11:17:11Z</time>
      </trkpt>
      <trkpt lat="46.19725" lon="6.48928">
        <ele>1115.50390625</ele>
        <time>2021-06-27T11:17:14Z</time>
      </trkpt>
      <trkpt lat="46.19714" lon="6.48928">
        <ele>1112.14453125</ele>
        <time>2021-06-27T11:17:16Z</time>
      </trkpt>
      <trkpt lat="46.1971" lon="6.48927">
        <ele>1110.7734375</ele>
        <time>2021-06-27T11:17:17Z</time>
      </trkpt>
      <trkpt lat="46.19706" lon="6.48927">
        <ele>1109.5625</ele>
        <time>2021-06-27T11:17:18Z</time>
      </trkpt>
      <trkpt lat="46.19701" lon="6.48927">
        <ele>1108.12109375</ele>
        <time>2021-06-27T11:17:19Z</time>
      </trkpt>
      <trkpt lat="46.19696" lon="6.48928">
        <ele>1106.33203125</ele>
        <time>2021-06-27T11:17:20Z</time>
      </trkpt>
      <trkpt lat="46.1969" lon="6.4893">
        <ele>1104.30078125</ele>
        <time>2021-06-27T11:17:21Z</time>
      </trkpt>
      <trkpt lat="46.19685" lon="6.48932">
        <ele>1102.078125</ele>
        <time>2021-06-27T11:17:22Z</time>
      </trkpt>
      <trkpt lat="46.1968" lon="6.48934">
        <ele>1100.2734375</ele>
        <time>2021-06-27T11:17:23Z</time>
      </trkpt>
      <trkpt lat="46.19675" lon="6.48935">
        <ele>1098.6875</ele>
        <time>2021-06-27T11:17:24Z</time>
      </trkpt>
      <trkpt lat="46.19671" lon="6.48935">
        <ele>1097.62890625</ele>
        <time>2021-06-27T11:17:25Z</time>
      </trkpt>
      <trkpt lat="46.19668" lon="6.48935">
        <ele>1096.75390625</ele>
        <time>2021-06-27T11:17:26Z</time>
      </trkpt>
      <trkpt lat="46.19657" lon="6.48935">
        <ele>1093.71875</ele>
        <time>2021-06-27T11:17:29Z</time>
      </trkpt>
      <trkpt lat="46.19648" lon="6.48935">
        <ele>1091.5625</ele>
        <time>2021-06-27T11:17:32Z</time>
      </trkpt>
      <trkpt lat="46.19644" lon="6.48936">
        <ele>1090.171875</ele>
        <time>2021-06-27T11:17:34Z</time>
      </trkpt>
      <trkpt lat="46.19641" lon="6.48937">
        <ele>1089.16015625</ele>
        <time>2021-06-27T11:17:35Z</time>
      </trkpt>
      <trkpt lat="46.19638" lon="6.48938">
        <ele>1088.046875</ele>
        <time>2021-06-27T11:17:36Z</time>
      </trkpt>
      <trkpt lat="46.19624" lon="6.48943">
        <ele>1082.87890625</ele>
        <time>2021-06-27T11:17:40Z</time>
      </trkpt>
      <trkpt lat="46.1962" lon="6.48945">
        <ele>1080.88671875</ele>
        <time>2021-06-27T11:17:41Z</time>
      </trkpt>
      <trkpt lat="46.19616" lon="6.48946">
        <ele>1079.21875</ele>
        <time>2021-06-27T11:17:42Z</time>
      </trkpt>
      <trkpt lat="46.19612" lon="6.48947">
        <ele>1078.01953125</ele>
        <time>2021-06-27T11:17:43Z</time>
      </trkpt>
      <trkpt lat="46.19608" lon="6.48947">
        <ele>1076.7890625</ele>
        <time>2021-06-27T11:17:44Z</time>
      </trkpt>
      <trkpt lat="46.19603" lon="6.48947">
        <ele>1075.3046875</ele>
        <time>2021-06-27T11:17:45Z</time>
      </trkpt>
      <trkpt lat="46.19598" lon="6.48947">
        <ele>1074.03515625</ele>
        <time>2021-06-27T11:17:46Z</time>
      </trkpt>
      <trkpt lat="46.19575" lon="6.48939">
        <ele>1070.98046875</ele>
        <time>2021-06-27T11:17:50Z</time>
      </trkpt>
      <trkpt lat="46.19563" lon="6.48932">
        <ele>1069.66796875</ele>
        <time>2021-06-27T11:17:52Z</time>
      </trkpt>
      <trkpt lat="46.19556" lon="6.48929">
        <ele>1068.59765625</ele>
        <time>2021-06-27T11:17:53Z</time>
      </trkpt>
      <trkpt lat="46.19523" lon="6.48916">
        <ele>1063.1953125</ele>
        <time>2021-06-27T11:17:58Z</time>
      </trkpt>
      <trkpt lat="46.19519" lon="6.48912">
        <ele>1063.3515625</ele>
        <time>2021-06-27T11:17:59Z</time>
      </trkpt>
      <trkpt lat="46.19515" lon="6.48908">
        <ele>1064.171875</ele>
        <time>2021-06-27T11:18:00Z</time>
      </trkpt>
      <trkpt lat="46.19512" lon="6.48903">
        <ele>1065.15234375</ele>
        <time>2021-06-27T11:18:01Z</time>
      </trkpt>
      <trkpt lat="46.1951" lon="6.489">
        <ele>1066.125</ele>
        <time>2021-06-27T11:18:02Z</time>
      </trkpt>
      <trkpt lat="46.19509" lon="6.48897">
        <ele>1066.87109375</ele>
        <time>2021-06-27T11:18:03Z</time>
      </trkpt>
      <trkpt lat="46.19506" lon="6.48886">
        <ele>1069.92578125</ele>
        <time>2021-06-27T11:18:10Z</time>
      </trkpt>
      <trkpt lat="46.19506" lon="6.48884">
        <ele>1070.58984375</ele>
        <time>2021-06-27T11:18:11Z</time>
      </trkpt>
      <trkpt lat="46.19485" lon="6.48859">
        <ele>1075.046875</ele>
        <time>2021-06-27T11:18:23Z</time>
      </trkpt>
      <trkpt lat="46.19465" lon="6.4885">
        <ele>1073.19921875</ele>
        <time>2021-06-27T11:18:34Z</time>
      </trkpt>
      <trkpt lat="46.1945" lon="6.48847">
        <ele>1072.5234375</ele>
        <time>2021-06-27T11:18:42Z</time>
      </trkpt>
      <trkpt lat="46.19448" lon="6.48848">
        <ele>1071.953125</ele>
        <time>2021-06-27T11:18:43Z</time>
      </trkpt>
      <trkpt lat="46.19446" lon="6.48849">
        <ele>1071.40234375</ele>
        <time>2021-06-27T11:18:44Z</time>
      </trkpt>
      <trkpt lat="46.19429" lon="6.4885">
        <ele>1069.36328125</ele>
        <time>2021-06-27T11:18:53Z</time>
      </trkpt>
      <trkpt lat="46.19427" lon="6.4885">
        <ele>1069.21875</ele>
        <time>2021-06-27T11:18:54Z</time>
      </trkpt>
      <trkpt lat="46.19425" lon="6.4885">
        <ele>1069.03515625</ele>
        <time>2021-06-27T11:18:55Z</time>
      </trkpt>
      <trkpt lat="46.19423" lon="6.4885">
        <ele>1068.86328125</ele>
        <time>2021-06-27T11:18:56Z</time>
      </trkpt>
      <trkpt lat="46.19422" lon="6.4885">
        <ele>1068.9453125</ele>
        <time>2021-06-27T11:18:57Z</time>
      </trkpt>
      <trkpt lat="46.1942" lon="6.48849">
        <ele>1069.2109375</ele>
        <time>2021-06-27T11:18:58Z</time>
      </trkpt>
      <trkpt lat="46.19411" lon="6.48853">
        <ele>1066.80078125</ele>
        <time>2021-06-27T11:19:10Z</time>
      </trkpt>
      <trkpt lat="46.19406" lon="6.48854">
        <ele>1066.30078125</ele>
        <time>2021-06-27T11:19:17Z</time>
      </trkpt>
      <trkpt lat="46.19405" lon="6.48853">
        <ele>1066.38671875</ele>
        <time>2021-06-27T11:19:18Z</time>
      </trkpt>
      <trkpt lat="46.19404" lon="6.48854">
        <ele>1066.23828125</ele>
        <time>2021-06-27T11:19:19Z</time>
      </trkpt>
      <trkpt lat="46.19401" lon="6.48853">
        <ele>1066.28125</ele>
        <time>2021-06-27T11:19:20Z</time>
      </trkpt>
      <trkpt lat="46.19399" lon="6.48852">
        <ele>1066.62109375</ele>
        <time>2021-06-27T11:19:21Z</time>
      </trkpt>
      <trkpt lat="46.19396" lon="6.4885">
        <ele>1067.046875</ele>
        <time>2021-06-27T11:19:22Z</time>
      </trkpt>
      <trkpt lat="46.19393" lon="6.48849">
        <ele>1067.28515625</ele>
        <time>2021-06-27T11:19:23Z</time>
      </trkpt>
      <trkpt lat="46.1939" lon="6.48848">
        <ele>1067.66015625</ele>
        <time>2021-06-27T11:19:24Z</time>
      </trkpt>
      <trkpt lat="46.19387" lon="6.48847">
        <ele>1067.97265625</ele>
        <time>2021-06-27T11:19:25Z</time>
      </trkpt>
      <trkpt lat="46.19384" lon="6.48846">
        <ele>1068.125</ele>
        <time>2021-06-27T11:19:26Z</time>
      </trkpt>
      <trkpt lat="46.19382" lon="6.48844">
        <ele>1068.515625</ele>
        <time>2021-06-27T11:19:27Z</time>
      </trkpt>
      <trkpt lat="46.19346" lon="6.48831">
        <ele>1069.47265625</ele>
        <time>2021-06-27T11:19:38Z</time>
      </trkpt>
      <trkpt lat="46.19338" lon="6.48831">
        <ele>1068.83984375</ele>
        <time>2021-06-27T11:19:48Z</time>
      </trkpt>
      <trkpt lat="46.19336" lon="6.48833">
        <ele>1067.82421875</ele>
        <time>2021-06-27T11:20:09Z</time>
      </trkpt>
      <trkpt lat="46.19335" lon="6.48838">
        <ele>1066.38671875</ele>
        <time>2021-06-27T11:20:33Z</time>
      </trkpt>
      <trkpt lat="46.19335" lon="6.48835">
        <ele>1067.1328125</ele>
        <time>2021-06-27T11:20:48Z</time>
      </trkpt>
      <trkpt lat="46.19333" lon="6.48836">
        <ele>1066.9140625</ele>
        <time>2021-06-27T11:21:09Z</time>
      </trkpt>
      <trkpt lat="46.19334" lon="6.48838">
        <ele>1066.30078125</ele>
        <time>2021-06-27T11:21:31Z</time>
      </trkpt>
      <trkpt lat="46.19335" lon="6.48839">
        <ele>1065.84375</ele>
        <time>2021-06-27T11:21:52Z</time>
      </trkpt>
      <trkpt lat="46.19335" lon="6.48837">
        <ele>1066.515625</ele>
        <time>2021-06-27T11:22:13Z</time>
      </trkpt>
      <trkpt lat="46.19334" lon="6.48838">
        <ele>1066.26953125</ele>
        <time>2021-06-27T11:22:14Z</time>
      </trkpt>
      <trkpt lat="46.19332" lon="6.48838">
        <ele>1066.14453125</ele>
        <time>2021-06-27T11:22:15Z</time>
      </trkpt>
      <trkpt lat="46.1933" lon="6.48838">
        <ele>1066.015625</ele>
        <time>2021-06-27T11:22:16Z</time>
      </trkpt>
      <trkpt lat="46.19329" lon="6.48837">
        <ele>1066.02734375</ele>
        <time>2021-06-27T11:22:17Z</time>
      </trkpt>
      <trkpt lat="46.19326" lon="6.48836">
        <ele>1066.0625</ele>
        <time>2021-06-27T11:22:18Z</time>
      </trkpt>
      <trkpt lat="46.19324" lon="6.48836">
        <ele>1065.9375</ele>
        <time>2021-06-27T11:22:19Z</time>
      </trkpt>
      <trkpt lat="46.19321" lon="6.48836">
        <ele>1065.76171875</ele>
        <time>2021-06-27T11:22:20Z</time>
      </trkpt>
      <trkpt lat="46.19318" lon="6.48835">
        <ele>1065.69921875</ele>
        <time>2021-06-27T11:22:21Z</time>
      </trkpt>
      <trkpt lat="46.1927" lon="6.48826">
        <ele>1062.37890625</ele>
        <time>2021-06-27T11:22:33Z</time>
      </trkpt>
      <trkpt lat="46.19267" lon="6.48825">
        <ele>1062.34375</ele>
        <time>2021-06-27T11:22:34Z</time>
      </trkpt>
      <trkpt lat="46.19264" lon="6.48824">
        <ele>1062.28125</ele>
        <time>2021-06-27T11:22:35Z</time>
      </trkpt>
      <trkpt lat="46.19263" lon="6.48823">
        <ele>1062.3671875</ele>
        <time>2021-06-27T11:22:46Z</time>
      </trkpt>
      <trkpt lat="46.1926" lon="6.48824">
        <ele>1061.68359375</ele>
        <time>2021-06-27T11:22:55Z</time>
      </trkpt>
      <trkpt lat="46.19258" lon="6.48824">
        <ele>1061.38671875</ele>
        <time>2021-06-27T11:22:56Z</time>
      </trkpt>
      <trkpt lat="46.19256" lon="6.48823">
        <ele>1061.3203125</ele>
        <time>2021-06-27T11:22:57Z</time>
      </trkpt>
      <trkpt lat="46.19254" lon="6.48822">
        <ele>1061.30859375</ele>
        <time>2021-06-27T11:22:58Z</time>
      </trkpt>
      <trkpt lat="46.19251" lon="6.48821">
        <ele>1061.44921875</ele>
        <time>2021-06-27T11:22:59Z</time>
      </trkpt>
      <trkpt lat="46.19249" lon="6.48819">
        <ele>1061.5625</ele>
        <time>2021-06-27T11:23:00Z</time>
      </trkpt>
      <trkpt lat="46.19246" lon="6.48818">
        <ele>1061.7109375</ele>
        <time>2021-06-27T11:23:01Z</time>
      </trkpt>
      <trkpt lat="46.19219" lon="6.48808">
        <ele>1060.99609375</ele>
        <time>2021-06-27T11:23:08Z</time>
      </trkpt>
      <trkpt lat="46.19129" lon="6.48771">
        <ele>1062.13671875</ele>
        <time>2021-06-27T11:23:24Z</time>
      </trkpt>
      <trkpt lat="46.19121" lon="6.48766">
        <ele>1062.4453125</ele>
        <time>2021-06-27T11:23:26Z</time>
      </trkpt>
      <trkpt lat="46.19109" lon="6.48762">
        <ele>1061.89453125</ele>
        <time>2021-06-27T11:23:29Z</time>
      </trkpt>
      <trkpt lat="46.19107" lon="6.48765">
        <ele>1060.640625</ele>
        <time>2021-06-27T11:23:30Z</time>
      </trkpt>
      <trkpt lat="46.19106" lon="6.48769">
        <ele>1059.46875</ele>
        <time>2021-06-27T11:23:31Z</time>
      </trkpt>
      <trkpt lat="46.19107" lon="6.48771">
        <ele>1058.63671875</ele>
        <time>2021-06-27T11:23:32Z</time>
      </trkpt>
      <trkpt lat="46.19108" lon="6.48775">
        <ele>1057.6015625</ele>
        <time>2021-06-27T11:23:33Z</time>
      </trkpt>
      <trkpt lat="46.19109" lon="6.48779">
        <ele>1056.2734375</ele>
        <time>2021-06-27T11:23:34Z</time>
      </trkpt>
      <trkpt lat="46.19111" lon="6.48783">
        <ele>1054.71875</ele>
        <time>2021-06-27T11:23:35Z</time>
      </trkpt>
      <trkpt lat="46.19113" lon="6.48788">
        <ele>1053.16796875</ele>
        <time>2021-06-27T11:23:36Z</time>
      </trkpt>
      <trkpt lat="46.19116" lon="6.48793">
        <ele>1051.7109375</ele>
        <time>2021-06-27T11:23:37Z</time>
      </trkpt>
      <trkpt lat="46.19121" lon="6.48798">
        <ele>1050.625</ele>
        <time>2021-06-27T11:23:38Z</time>
      </trkpt>
      <trkpt lat="46.19145" lon="6.48819">
        <ele>1046.5703125</ele>
        <time>2021-06-27T11:23:42Z</time>
      </trkpt>
      <trkpt lat="46.19163" lon="6.48835">
        <ele>1043.453125</ele>
        <time>2021-06-27T11:23:45Z</time>
      </trkpt>
      <trkpt lat="46.19179" lon="6.48851">
        <ele>1039.9296875</ele>
        <time>2021-06-27T11:23:48Z</time>
      </trkpt>
      <trkpt lat="46.19202" lon="6.48873">
        <ele>1036.2890625</ele>
        <time>2021-06-27T11:23:52Z</time>
      </trkpt>
      <trkpt lat="46.19219" lon="6.4889">
        <ele>1033.33984375</ele>
        <time>2021-06-27T11:23:55Z</time>
      </trkpt>
      <trkpt lat="46.19223" lon="6.48895">
        <ele>1032.14453125</ele>
        <time>2021-06-27T11:23:56Z</time>
      </trkpt>
      <trkpt lat="46.19226" lon="6.48901">
        <ele>1030.76953125</ele>
        <time>2021-06-27T11:23:57Z</time>
      </trkpt>
      <trkpt lat="46.19237" lon="6.48921">
        <ele>1026.16796875</ele>
        <time>2021-06-27T11:24:00Z</time>
      </trkpt>
      <trkpt lat="46.19251" lon="6.4894">
        <ele>1023.22265625</ele>
        <time>2021-06-27T11:24:03Z</time>
      </trkpt>
      <trkpt lat="46.19261" lon="6.48951">
        <ele>1021.32421875</ele>
        <time>2021-06-27T11:24:05Z</time>
      </trkpt>
      <trkpt lat="46.19276" lon="6.48971">
        <ele>1017.40234375</ele>
        <time>2021-06-27T11:24:08Z</time>
      </trkpt>
      <trkpt lat="46.19293" lon="6.48992">
        <ele>1012.86328125</ele>
        <time>2021-06-27T11:24:11Z</time>
      </trkpt>
      <trkpt lat="46.19313" lon="6.49018">
        <ele>1008.16015625</ele>
        <time>2021-06-27T11:24:15Z</time>
      </trkpt>
      <trkpt lat="46.19331" lon="6.49036">
        <ele>1005.30859375</ele>
        <time>2021-06-27T11:24:18Z</time>
      </trkpt>
      <trkpt lat="46.1935" lon="6.49052">
        <ele>1002.01953125</ele>
        <time>2021-06-27T11:24:21Z</time>
      </trkpt>
      <trkpt lat="46.19361" lon="6.4906">
        <ele>1000.41796875</ele>
        <time>2021-06-27T11:24:23Z</time>
      </trkpt>
      <trkpt lat="46.19366" lon="6.49063">
        <ele>999.91796875</ele>
        <time>2021-06-27T11:24:24Z</time>
      </trkpt>
      <trkpt lat="46.19372" lon="6.49065">
        <ele>999.83203125</ele>
        <time>2021-06-27T11:24:25Z</time>
      </trkpt>
      <trkpt lat="46.19378" lon="6.49066">
        <ele>1000.0703125</ele>
        <time>2021-06-27T11:24:26Z</time>
      </trkpt>
      <trkpt lat="46.19384" lon="6.49066">
        <ele>999.90625</ele>
        <time>2021-06-27T11:24:27Z</time>
      </trkpt>
      <trkpt lat="46.19396" lon="6.49068">
        <ele>999.09765625</ele>
        <time>2021-06-27T11:24:29Z</time>
      </trkpt>
      <trkpt lat="46.194" lon="6.4907">
        <ele>998.3671875</ele>
        <time>2021-06-27T11:24:30Z</time>
      </trkpt>
      <trkpt lat="46.19402" lon="6.49073">
        <ele>997.31640625</ele>
        <time>2021-06-27T11:24:31Z</time>
      </trkpt>
      <trkpt lat="46.19402" lon="6.49077">
        <ele>995.98828125</ele>
        <time>2021-06-27T11:24:32Z</time>
      </trkpt>
      <trkpt lat="46.19401" lon="6.49081">
        <ele>994.6953125</ele>
        <time>2021-06-27T11:24:33Z</time>
      </trkpt>
      <trkpt lat="46.19399" lon="6.49084">
        <ele>993.9296875</ele>
        <time>2021-06-27T11:24:34Z</time>
      </trkpt>
      <trkpt lat="46.19396" lon="6.49086">
        <ele>993.5703125</ele>
        <time>2021-06-27T11:24:35Z</time>
      </trkpt>
      <trkpt lat="46.19392" lon="6.49087">
        <ele>993.13671875</ele>
        <time>2021-06-27T11:24:36Z</time>
      </trkpt>
      <trkpt lat="46.19387" lon="6.4909">
        <ele>992.578125</ele>
        <time>2021-06-27T11:24:37Z</time>
      </trkpt>
      <trkpt lat="46.19382" lon="6.49093">
        <ele>991.58984375</ele>
        <time>2021-06-27T11:24:38Z</time>
      </trkpt>
      <trkpt lat="46.19377" lon="6.49098">
        <ele>989.89453125</ele>
        <time>2021-06-27T11:24:39Z</time>
      </trkpt>
      <trkpt lat="46.19372" lon="6.49103">
        <ele>987.78125</ele>
        <time>2021-06-27T11:24:40Z</time>
      </trkpt>
      <trkpt lat="46.19367" lon="6.49109">
        <ele>985.62890625</ele>
        <time>2021-06-27T11:24:41Z</time>
      </trkpt>
      <trkpt lat="46.19363" lon="6.49114">
        <ele>983.7578125</ele>
        <time>2021-06-27T11:24:42Z</time>
      </trkpt>
      <trkpt lat="46.19359" lon="6.49118">
        <ele>982.3984375</ele>
        <time>2021-06-27T11:24:43Z</time>
      </trkpt>
      <trkpt lat="46.19357" lon="6.4912">
        <ele>981.49609375</ele>
        <time>2021-06-27T11:24:44Z</time>
      </trkpt>
      <trkpt lat="46.19355" lon="6.49121">
        <ele>980.9140625</ele>
        <time>2021-06-27T11:24:45Z</time>
      </trkpt>
      <trkpt lat="46.19354" lon="6.49122">
        <ele>980.5703125</ele>
        <time>2021-06-27T11:24:46Z</time>
      </trkpt>
      <trkpt lat="46.19354" lon="6.4912">
        <ele>981.2265625</ele>
        <time>2021-06-27T11:24:57Z</time>
      </trkpt>
      <trkpt lat="46.19352" lon="6.49122">
        <ele>980.484375</ele>
        <time>2021-06-27T11:24:58Z</time>
      </trkpt>
      <trkpt lat="46.19349" lon="6.49124">
        <ele>979.12109375</ele>
        <time>2021-06-27T11:24:59Z</time>
      </trkpt>
      <trkpt lat="46.19325" lon="6.49136">
        <ele>970.6171875</ele>
        <time>2021-06-27T11:25:03Z</time>
      </trkpt>
      <trkpt lat="46.19318" lon="6.49138">
        <ele>967.64453125</ele>
        <time>2021-06-27T11:25:04Z</time>
      </trkpt>
      <trkpt lat="46.19311" lon="6.49139">
        <ele>964.78125</ele>
        <time>2021-06-27T11:25:05Z</time>
      </trkpt>
      <trkpt lat="46.19305" lon="6.49139">
        <ele>962.55859375</ele>
        <time>2021-06-27T11:25:06Z</time>
      </trkpt>
      <trkpt lat="46.19298" lon="6.49138">
        <ele>961.05078125</ele>
        <time>2021-06-27T11:25:07Z</time>
      </trkpt>
      <trkpt lat="46.19292" lon="6.49135">
        <ele>960.15234375</ele>
        <time>2021-06-27T11:25:08Z</time>
      </trkpt>
      <trkpt lat="46.19285" lon="6.4913">
        <ele>959.8671875</ele>
        <time>2021-06-27T11:25:09Z</time>
      </trkpt>
      <trkpt lat="46.19279" lon="6.49124">
        <ele>959.90625</ele>
        <time>2021-06-27T11:25:10Z</time>
      </trkpt>
      <trkpt lat="46.19269" lon="6.49117">
        <ele>959.4453125</ele>
        <time>2021-06-27T11:25:12Z</time>
      </trkpt>
      <trkpt lat="46.19265" lon="6.49118">
        <ele>957.62109375</ele>
        <time>2021-06-27T11:25:13Z</time>
      </trkpt>
      <trkpt lat="46.19263" lon="6.49121">
        <ele>955.3984375</ele>
        <time>2021-06-27T11:25:14Z</time>
      </trkpt>
      <trkpt lat="46.19263" lon="6.49125">
        <ele>953.7265625</ele>
        <time>2021-06-27T11:25:15Z</time>
      </trkpt>
      <trkpt lat="46.19265" lon="6.49129">
        <ele>952.7421875</ele>
        <time>2021-06-27T11:25:16Z</time>
      </trkpt>
      <trkpt lat="46.19268" lon="6.49133">
        <ele>952.1953125</ele>
        <time>2021-06-27T11:25:17Z</time>
      </trkpt>
      <trkpt lat="46.19271" lon="6.49137">
        <ele>951.875</ele>
        <time>2021-06-27T11:25:18Z</time>
      </trkpt>
      <trkpt lat="46.19275" lon="6.49142">
        <ele>951.0234375</ele>
        <time>2021-06-27T11:25:19Z</time>
      </trkpt>
      <trkpt lat="46.19288" lon="6.49164">
        <ele>946.0859375</ele>
        <time>2021-06-27T11:25:22Z</time>
      </trkpt>
      <trkpt lat="46.19297" lon="6.49184">
        <ele>940.57421875</ele>
        <time>2021-06-27T11:25:25Z</time>
      </trkpt>
      <trkpt lat="46.19304" lon="6.49197">
        <ele>936.90234375</ele>
        <time>2021-06-27T11:25:27Z</time>
      </trkpt>
      <trkpt lat="46.19314" lon="6.49215">
        <ele>931.796875</ele>
        <time>2021-06-27T11:25:30Z</time>
      </trkpt>
      <trkpt lat="46.19319" lon="6.4922">
        <ele>930.98046875</ele>
        <time>2021-06-27T11:25:31Z</time>
      </trkpt>
      <trkpt lat="46.19324" lon="6.49225">
        <ele>930.60546875</ele>
        <time>2021-06-27T11:25:32Z</time>
      </trkpt>
      <trkpt lat="46.19335" lon="6.49232">
        <ele>929.7890625</ele>
        <time>2021-06-27T11:25:34Z</time>
      </trkpt>
      <trkpt lat="46.1935" lon="6.49242">
        <ele>929.24609375</ele>
        <time>2021-06-27T11:25:37Z</time>
      </trkpt>
      <trkpt lat="46.1936" lon="6.49246">
        <ele>929.87109375</ele>
        <time>2021-06-27T11:25:39Z</time>
      </trkpt>
      <trkpt lat="46.19365" lon="6.49247">
        <ele>930.28515625</ele>
        <time>2021-06-27T11:25:40Z</time>
      </trkpt>
      <trkpt lat="46.19369" lon="6.4925">
        <ele>930.2734375</ele>
        <time>2021-06-27T11:25:41Z</time>
      </trkpt>
      <trkpt lat="46.19383" lon="6.49259">
        <ele>928.84375</ele>
        <time>2021-06-27T11:25:44Z</time>
      </trkpt>
      <trkpt lat="46.19388" lon="6.49261">
        <ele>928.30859375</ele>
        <time>2021-06-27T11:25:45Z</time>
      </trkpt>
      <trkpt lat="46.19394" lon="6.49262">
        <ele>928.390625</ele>
        <time>2021-06-27T11:25:46Z</time>
      </trkpt>
      <trkpt lat="46.19406" lon="6.49262">
        <ele>929.39453125</ele>
        <time>2021-06-27T11:25:48Z</time>
      </trkpt>
      <trkpt lat="46.19416" lon="6.49264">
        <ele>929.72265625</ele>
        <time>2021-06-27T11:25:50Z</time>
      </trkpt>
      <trkpt lat="46.19419" lon="6.49267">
        <ele>928.64453125</ele>
        <time>2021-06-27T11:25:51Z</time>
      </trkpt>
      <trkpt lat="46.19419" lon="6.49272">
        <ele>927.0078125</ele>
        <time>2021-06-27T11:25:52Z</time>
      </trkpt>
      <trkpt lat="46.19418" lon="6.49276">
        <ele>925.6015625</ele>
        <time>2021-06-27T11:25:53Z</time>
      </trkpt>
      <trkpt lat="46.19416" lon="6.49279">
        <ele>924.53515625</ele>
        <time>2021-06-27T11:25:54Z</time>
      </trkpt>
      <trkpt lat="46.19413" lon="6.49279">
        <ele>923.8984375</ele>
        <time>2021-06-27T11:25:55Z</time>
      </trkpt>
      <trkpt lat="46.1941" lon="6.4928">
        <ele>923.36328125</ele>
        <time>2021-06-27T11:25:56Z</time>
      </trkpt>
      <trkpt lat="46.19402" lon="6.49282">
        <ele>921.89453125</ele>
        <time>2021-06-27T11:25:58Z</time>
      </trkpt>
      <trkpt lat="46.19397" lon="6.49284">
        <ele>920.6328125</ele>
        <time>2021-06-27T11:25:59Z</time>
      </trkpt>
      <trkpt lat="46.19386" lon="6.49294">
        <ele>916.2265625</ele>
        <time>2021-06-27T11:26:02Z</time>
      </trkpt>
      <trkpt lat="46.19384" lon="6.49298">
        <ele>914.75390625</ele>
        <time>2021-06-27T11:26:03Z</time>
      </trkpt>
      <trkpt lat="46.19383" lon="6.49302">
        <ele>913.35546875</ele>
        <time>2021-06-27T11:26:04Z</time>
      </trkpt>
      <trkpt lat="46.19382" lon="6.49305">
        <ele>912.25</ele>
        <time>2021-06-27T11:26:05Z</time>
      </trkpt>
      <trkpt lat="46.19383" lon="6.49308">
        <ele>911.3515625</ele>
        <time>2021-06-27T11:26:06Z</time>
      </trkpt>
      <trkpt lat="46.19385" lon="6.49312">
        <ele>910.51171875</ele>
        <time>2021-06-27T11:26:07Z</time>
      </trkpt>
      <trkpt lat="46.19388" lon="6.49315">
        <ele>909.6953125</ele>
        <time>2021-06-27T11:26:08Z</time>
      </trkpt>
      <trkpt lat="46.19395" lon="6.49325">
        <ele>907.609375</ele>
        <time>2021-06-27T11:26:10Z</time>
      </trkpt>
      <trkpt lat="46.19408" lon="6.49347">
        <ele>904.609375</ele>
        <time>2021-06-27T11:26:13Z</time>
      </trkpt>
      <trkpt lat="46.19419" lon="6.49369">
        <ele>902.00390625</ele>
        <time>2021-06-27T11:26:16Z</time>
      </trkpt>
      <trkpt lat="46.1942" lon="6.49375">
        <ele>901.140625</ele>
        <time>2021-06-27T11:26:17Z</time>
      </trkpt>
      <trkpt lat="46.1942" lon="6.4938">
        <ele>900.12109375</ele>
        <time>2021-06-27T11:26:18Z</time>
      </trkpt>
      <trkpt lat="46.19418" lon="6.49385">
        <ele>899.04296875</ele>
        <time>2021-06-27T11:26:19Z</time>
      </trkpt>
      <trkpt lat="46.19415" lon="6.49387">
        <ele>898.21484375</ele>
        <time>2021-06-27T11:26:20Z</time>
      </trkpt>
      <trkpt lat="46.19411" lon="6.49388">
        <ele>897.74609375</ele>
        <time>2021-06-27T11:26:21Z</time>
      </trkpt>
      <trkpt lat="46.19408" lon="6.49386">
        <ele>897.4453125</ele>
        <time>2021-06-27T11:26:22Z</time>
      </trkpt>
      <trkpt lat="46.19404" lon="6.49384">
        <ele>897.22265625</ele>
        <time>2021-06-27T11:26:23Z</time>
      </trkpt>
      <trkpt lat="46.194" lon="6.49384">
        <ele>896.90625</ele>
        <time>2021-06-27T11:26:24Z</time>
      </trkpt>
      <trkpt lat="46.19396" lon="6.49384">
        <ele>896.46484375</ele>
        <time>2021-06-27T11:26:25Z</time>
      </trkpt>
      <trkpt lat="46.19393" lon="6.49386">
        <ele>895.95703125</ele>
        <time>2021-06-27T11:26:26Z</time>
      </trkpt>
      <trkpt lat="46.19391" lon="6.49388">
        <ele>895.328125</ele>
        <time>2021-06-27T11:26:27Z</time>
      </trkpt>
      <trkpt lat="46.19389" lon="6.49392">
        <ele>894.51953125</ele>
        <time>2021-06-27T11:26:28Z</time>
      </trkpt>
      <trkpt lat="46.19387" lon="6.49397">
        <ele>893.61328125</ele>
        <time>2021-06-27T11:26:29Z</time>
      </trkpt>
      <trkpt lat="46.19385" lon="6.49403">
        <ele>892.6171875</ele>
        <time>2021-06-27T11:26:30Z</time>
      </trkpt>
      <trkpt lat="46.1938" lon="6.49425">
        <ele>889.41796875</ele>
        <time>2021-06-27T11:26:33Z</time>
      </trkpt>
      <trkpt lat="46.19379" lon="6.49435">
        <ele>888.296875</ele>
        <time>2021-06-27T11:26:34Z</time>
      </trkpt>
      <trkpt lat="46.1938" lon="6.49455">
        <ele>886.1640625</ele>
        <time>2021-06-27T11:26:36Z</time>
      </trkpt>
      <trkpt lat="46.19383" lon="6.49464">
        <ele>885.40625</ele>
        <time>2021-06-27T11:26:37Z</time>
      </trkpt>
      <trkpt lat="46.19387" lon="6.49473">
        <ele>885.203125</ele>
        <time>2021-06-27T11:26:38Z</time>
      </trkpt>
      <trkpt lat="46.19395" lon="6.4949">
        <ele>884.796875</ele>
        <time>2021-06-27T11:26:40Z</time>
      </trkpt>
      <trkpt lat="46.19396" lon="6.495">
        <ele>884.1640625</ele>
        <time>2021-06-27T11:26:41Z</time>
      </trkpt>
      <trkpt lat="46.19394" lon="6.49511">
        <ele>883.26953125</ele>
        <time>2021-06-27T11:26:42Z</time>
      </trkpt>
      <trkpt lat="46.19391" lon="6.49527">
        <ele>881.78125</ele>
        <time>2021-06-27T11:26:44Z</time>
      </trkpt>
      <trkpt lat="46.1939" lon="6.49533">
        <ele>881.1796875</ele>
        <time>2021-06-27T11:26:45Z</time>
      </trkpt>
      <trkpt lat="46.19388" lon="6.49537">
        <ele>880.6484375</ele>
        <time>2021-06-27T11:26:46Z</time>
      </trkpt>
      <trkpt lat="46.19386" lon="6.4954">
        <ele>880.3046875</ele>
        <time>2021-06-27T11:26:47Z</time>
      </trkpt>
      <trkpt lat="46.19386" lon="6.49543">
        <ele>880.06640625</ele>
        <time>2021-06-27T11:26:48Z</time>
      </trkpt>
      <trkpt lat="46.19385" lon="6.49546">
        <ele>879.76953125</ele>
        <time>2021-06-27T11:26:49Z</time>
      </trkpt>
      <trkpt lat="46.19386" lon="6.4955">
        <ele>879.50390625</ele>
        <time>2021-06-27T11:26:50Z</time>
      </trkpt>
      <trkpt lat="46.19387" lon="6.49554">
        <ele>879.41796875</ele>
        <time>2021-06-27T11:26:51Z</time>
      </trkpt>
      <trkpt lat="46.1939" lon="6.49557">
        <ele>879.5390625</ele>
        <time>2021-06-27T11:26:52Z</time>
      </trkpt>
      <trkpt lat="46.19394" lon="6.49559">
        <ele>879.7109375</ele>
        <time>2021-06-27T11:26:53Z</time>
      </trkpt>
      <trkpt lat="46.19451" lon="6.49591">
        <ele>881.9375</ele>
        <time>2021-06-27T11:27:06Z</time>
      </trkpt>
      <trkpt lat="46.19462" lon="6.49601">
        <ele>881.31640625</ele>
        <time>2021-06-27T11:27:10Z</time>
      </trkpt>
      <trkpt lat="46.19463" lon="6.49605">
        <ele>880.8828125</ele>
        <time>2021-06-27T11:27:11Z</time>
      </trkpt>
      <trkpt lat="46.19462" lon="6.49609">
        <ele>880.46484375</ele>
        <time>2021-06-27T11:27:12Z</time>
      </trkpt>
      <trkpt lat="46.19462" lon="6.49611">
        <ele>880.1796875</ele>
        <time>2021-06-27T11:27:13Z</time>
      </trkpt>
      <trkpt lat="46.1946" lon="6.49636">
        <ele>877.58984375</ele>
        <time>2021-06-27T11:27:20Z</time>
      </trkpt>
      <trkpt lat="46.19458" lon="6.49641">
        <ele>877.1015625</ele>
        <time>2021-06-27T11:27:21Z</time>
      </trkpt>
      <trkpt lat="46.1944" lon="6.49638">
        <ele>876.54296875</ele>
        <time>2021-06-27T11:27:27Z</time>
      </trkpt>
      <trkpt lat="46.19438" lon="6.49637">
        <ele>876.62890625</ele>
        <time>2021-06-27T11:27:28Z</time>
      </trkpt>
      <trkpt lat="46.19419" lon="6.49632">
        <ele>875.76953125</ele>
        <time>2021-06-27T11:27:36Z</time>
      </trkpt>
      <trkpt lat="46.19417" lon="6.49646">
        <ele>874.18359375</ele>
        <time>2021-06-27T11:27:49Z</time>
      </trkpt>
      <trkpt lat="46.1942" lon="6.49649">
        <ele>874.0234375</ele>
        <time>2021-06-27T11:28:05Z</time>
      </trkpt>
      <trkpt lat="46.19422" lon="6.49653">
        <ele>873.83203125</ele>
        <time>2021-06-27T11:28:16Z</time>
      </trkpt>
      <trkpt lat="46.19422" lon="6.49652">
        <ele>873.90234375</ele>
        <time>2021-06-27T11:28:33Z</time>
      </trkpt>
      <trkpt lat="46.19422" lon="6.49651">
        <ele>874.00390625</ele>
        <time>2021-06-27T11:29:05Z</time>
      </trkpt>
      <trkpt lat="46.19422" lon="6.49649">
        <ele>874.23046875</ele>
        <time>2021-06-27T11:29:17Z</time>
      </trkpt>
      <trkpt lat="46.19421" lon="6.49652">
        <ele>873.78125</ele>
        <time>2021-06-27T11:29:38Z</time>
      </trkpt>
    </trkseg>
  </trk>
</gpx>